<?xml version='1.0' encoding='UTF-8'?><gpx version="1.1" creator="JPX - https://github.com/jenetics/jpx" xmlns="http://www.topografix.com/GPX/1/1"><trk><trkseg><trkpt lat="37.8445802" lon="15.1346952"><ele>562.0</ele><time>2026-04-24T14:56:56.056Z</time></trkpt><trkpt lat="37.8445346" lon="15.1346174"><ele>562.0</ele><time>2026-04-24T14:56:59.052Z</time></trkpt><trkpt lat="37.8444766" lon="15.134542"><ele>562.0</ele><time>2026-04-24T14:57:02.049Z</time></trkpt><trkpt lat="37.8444119" lon="15.1344901"><ele>562.0</ele><time>2026-04-24T14:57:09.048Z</time></trkpt><trkpt lat="37.8443262" lon="15.1345402"><ele>562.0</ele><time>2026-04-24T14:57:12.047Z</time></trkpt><trkpt lat="37.844269" lon="15.1346247"><ele>562.0</ele><time>2026-04-24T14:57:14.051Z</time></trkpt><trkpt lat="37.8441938" lon="15.1347103"><ele>561.4</ele><time>2026-04-24T14:57:16.052Z</time></trkpt><trkpt lat="37.8441115" lon="15.1348101"><ele>560.8000000000001</ele><time>2026-04-24T14:57:18.054Z</time></trkpt><trkpt lat="37.8440253" lon="15.1348895"><ele>560.2</ele><time>2026-04-24T14:57:20.058Z</time></trkpt><trkpt lat="37.8439586" lon="15.1349538"><ele>559.6</ele><time>2026-04-24T14:57:22.058Z</time></trkpt><trkpt lat="37.8438978" lon="15.1349997"><ele>559.0</ele><time>2026-04-24T14:57:24.058Z</time></trkpt><trkpt lat="37.8438007" lon="15.1350228"><ele>559.0</ele><time>2026-04-24T14:57:27.054Z</time></trkpt><trkpt lat="37.8437024" lon="15.1350136"><ele>559.0</ele><time>2026-04-24T14:57:29.049Z</time></trkpt><trkpt lat="37.8435913" lon="15.1349685"><ele>559.0</ele><time>2026-04-24T14:57:31.055Z</time></trkpt><trkpt lat="37.8434825" lon="15.134917"><ele>559.0</ele><time>2026-04-24T14:57:33.057Z</time></trkpt><trkpt lat="37.8434017" lon="15.1348725"><ele>559.0</ele><time>2026-04-24T14:57:35.054Z</time></trkpt><trkpt lat="37.8433341" lon="15.1348605"><ele>558.8</ele><time>2026-04-24T14:57:37.056Z</time></trkpt><trkpt lat="37.843249" lon="15.1349152"><ele>558.5999999999999</ele><time>2026-04-24T14:57:39.046Z</time></trkpt><trkpt lat="37.8431543" lon="15.1350255"><ele>558.4</ele><time>2026-04-24T14:57:41.051Z</time></trkpt><trkpt lat="37.8431091" lon="15.1350901"><ele>558.1999999999999</ele><time>2026-04-24T14:57:42.048Z</time></trkpt><trkpt lat="37.8430663" lon="15.1351514"><ele>558.0</ele><time>2026-04-24T14:57:43.055Z</time></trkpt><trkpt lat="37.8429776" lon="15.1352679"><ele>557.9999999999999</ele><time>2026-04-24T14:57:45.05Z</time></trkpt><trkpt lat="37.8429282" lon="15.135336"><ele>558.0</ele><time>2026-04-24T14:57:46.053Z</time></trkpt><trkpt lat="37.8428777" lon="15.1354078"><ele>558.0</ele><time>2026-04-24T14:57:47.047Z</time></trkpt><trkpt lat="37.8428273" lon="15.1354744"><ele>558.0</ele><time>2026-04-24T14:57:48.047Z</time></trkpt><trkpt lat="37.8427766" lon="15.1355371"><ele>558.0</ele><time>2026-04-24T14:57:49.052Z</time></trkpt><trkpt lat="37.8427257" lon="15.1355958"><ele>557.9999999999999</ele><time>2026-04-24T14:57:50.05Z</time></trkpt><trkpt lat="37.8426784" lon="15.1356508"><ele>558.0</ele><time>2026-04-24T14:57:51.053Z</time></trkpt><trkpt lat="37.8425829" lon="15.1357572"><ele>557.9999999999999</ele><time>2026-04-24T14:57:53.056Z</time></trkpt><trkpt lat="37.8425347" lon="15.1358107"><ele>558.0</ele><time>2026-04-24T14:57:54.052Z</time></trkpt><trkpt lat="37.8424853" lon="15.1358634"><ele>558.0</ele><time>2026-04-24T14:57:55.053Z</time></trkpt><trkpt lat="37.8424333" lon="15.1359138"><ele>558.0</ele><time>2026-04-24T14:57:56.059Z</time></trkpt><trkpt lat="37.8423823" lon="15.1359672"><ele>558.0</ele><time>2026-04-24T14:57:57.058Z</time></trkpt><trkpt lat="37.8423321" lon="15.1360252"><ele>557.9999999999999</ele><time>2026-04-24T14:57:58.055Z</time></trkpt><trkpt lat="37.8422793" lon="15.1360829"><ele>558.0</ele><time>2026-04-24T14:57:59.059Z</time></trkpt><trkpt lat="37.8422262" lon="15.1361405"><ele>557.9999999999999</ele><time>2026-04-24T14:58:00.053Z</time></trkpt><trkpt lat="37.8421748" lon="15.1361985"><ele>558.0</ele><time>2026-04-24T14:58:01.055Z</time></trkpt><trkpt lat="37.8421259" lon="15.1362579"><ele>558.0</ele><time>2026-04-24T14:58:02.055Z</time></trkpt><trkpt lat="37.8420866" lon="15.1363266"><ele>558.0</ele><time>2026-04-24T14:58:03.055Z</time></trkpt><trkpt lat="37.8420622" lon="15.1364017"><ele>558.0</ele><time>2026-04-24T14:58:04.048Z</time></trkpt><trkpt lat="37.8420454" lon="15.136479"><ele>557.9999999999999</ele><time>2026-04-24T14:58:05.053Z</time></trkpt><trkpt lat="37.8420231" lon="15.1365554"><ele>558.0</ele><time>2026-04-24T14:58:06.057Z</time></trkpt><trkpt lat="37.8419946" lon="15.1366283"><ele>558.0</ele><time>2026-04-24T14:58:07.049Z</time></trkpt><trkpt lat="37.8419234" lon="15.1367529"><ele>558.0</ele><time>2026-04-24T14:58:09.054Z</time></trkpt><trkpt lat="37.8418314" lon="15.1368557"><ele>558.0</ele><time>2026-04-24T14:58:11.054Z</time></trkpt><trkpt lat="37.841728" lon="15.1369487"><ele>558.0</ele><time>2026-04-24T14:58:13.051Z</time></trkpt><trkpt lat="37.8416272" lon="15.1370407"><ele>558.0</ele><time>2026-04-24T14:58:15.055Z</time></trkpt><trkpt lat="37.841535" lon="15.1371271"><ele>558.0</ele><time>2026-04-24T14:58:17.056Z</time></trkpt><trkpt lat="37.8414703" lon="15.1371985"><ele>558.0</ele><time>2026-04-24T14:58:19.046Z</time></trkpt><trkpt lat="37.8414275" lon="15.1372724"><ele>558.0</ele><time>2026-04-24T14:58:22.053Z</time></trkpt><trkpt lat="37.8414346" lon="15.1373577"><ele>558.0</ele><time>2026-04-24T14:58:24.055Z</time></trkpt><trkpt lat="37.8414637" lon="15.1374875"><ele>558.0</ele><time>2026-04-24T14:58:26.047Z</time></trkpt><trkpt lat="37.8414834" lon="15.1375673"><ele>558.1666666666666</ele><time>2026-04-24T14:58:27.05Z</time></trkpt><trkpt lat="37.8415061" lon="15.1376442"><ele>558.3333333333334</ele><time>2026-04-24T14:58:28.053Z</time></trkpt><trkpt lat="37.8415513" lon="15.1377907"><ele>558.5</ele><time>2026-04-24T14:58:30.056Z</time></trkpt><trkpt lat="37.8415746" lon="15.1378689"><ele>558.6666666666667</ele><time>2026-04-24T14:58:31.055Z</time></trkpt><trkpt lat="37.8415963" lon="15.1379498"><ele>558.8333333333334</ele><time>2026-04-24T14:58:32.05Z</time></trkpt><trkpt lat="37.8416206" lon="15.138034"><ele>559.0</ele><time>2026-04-24T14:58:33.051Z</time></trkpt><trkpt lat="37.8416441" lon="15.138119"><ele>559.0</ele><time>2026-04-24T14:58:34.05Z</time></trkpt><trkpt lat="37.8416672" lon="15.1382036"><ele>559.0</ele><time>2026-04-24T14:58:35.047Z</time></trkpt><trkpt lat="37.8416915" lon="15.1382898"><ele>559.0</ele><time>2026-04-24T14:58:36.056Z</time></trkpt><trkpt lat="37.8417144" lon="15.1383737"><ele>559.0</ele><time>2026-04-24T14:58:37.047Z</time></trkpt><trkpt lat="37.8417386" lon="15.1384618"><ele>559.0</ele><time>2026-04-24T14:58:38.056Z</time></trkpt><trkpt lat="37.841763" lon="15.1385502"><ele>559.0</ele><time>2026-04-24T14:58:39.054Z</time></trkpt><trkpt lat="37.8417885" lon="15.1386409"><ele>559.0</ele><time>2026-04-24T14:58:40.049Z</time></trkpt><trkpt lat="37.8418124" lon="15.1387325"><ele>558.2857142857143</ele><time>2026-04-24T14:58:41.05Z</time></trkpt><trkpt lat="37.8418352" lon="15.1388247"><ele>557.5714285714287</ele><time>2026-04-24T14:58:42.055Z</time></trkpt><trkpt lat="37.8418597" lon="15.1389177"><ele>556.8571428571429</ele><time>2026-04-24T14:58:43.056Z</time></trkpt><trkpt lat="37.8418842" lon="15.1390072"><ele>556.1428571428571</ele><time>2026-04-24T14:58:44.056Z</time></trkpt><trkpt lat="37.8419075" lon="15.1390956"><ele>555.4285714285713</ele><time>2026-04-24T14:58:45.057Z</time></trkpt><trkpt lat="37.8419324" lon="15.1391822"><ele>554.7142857142857</ele><time>2026-04-24T14:58:46.056Z</time></trkpt><trkpt lat="37.8419557" lon="15.1392674"><ele>554.0</ele><time>2026-04-24T14:58:47.056Z</time></trkpt><trkpt lat="37.8419779" lon="15.1393508"><ele>553.8571428571429</ele><time>2026-04-24T14:58:48.057Z</time></trkpt><trkpt lat="37.8419994" lon="15.1394353"><ele>553.7142857142857</ele><time>2026-04-24T14:58:49.056Z</time></trkpt><trkpt lat="37.8420215" lon="15.1395149"><ele>553.5714285714286</ele><time>2026-04-24T14:58:50.056Z</time></trkpt><trkpt lat="37.8420443" lon="15.1395924"><ele>553.4285714285714</ele><time>2026-04-24T14:58:51.056Z</time></trkpt><trkpt lat="37.8420641" lon="15.13967"><ele>553.2857142857142</ele><time>2026-04-24T14:58:52.056Z</time></trkpt><trkpt lat="37.8420832" lon="15.1397466"><ele>553.1428571428571</ele><time>2026-04-24T14:58:53.056Z</time></trkpt><trkpt lat="37.8421216" lon="15.1398893"><ele>553.0</ele><time>2026-04-24T14:58:55.056Z</time></trkpt><trkpt lat="37.8421527" lon="15.1400215"><ele>552.8</ele><time>2026-04-24T14:58:57.056Z</time></trkpt><trkpt lat="37.8421917" lon="15.1401492"><ele>552.5999999999999</ele><time>2026-04-24T14:58:59.056Z</time></trkpt><trkpt lat="37.842228" lon="15.140277"><ele>552.4000000000001</ele><time>2026-04-24T14:59:01.056Z</time></trkpt><trkpt lat="37.8422545" lon="15.1403753"><ele>552.2</ele><time>2026-04-24T14:59:03.056Z</time></trkpt><trkpt lat="37.8422852" lon="15.1404686"><ele>552.0</ele><time>2026-04-24T14:59:05.056Z</time></trkpt><trkpt lat="37.8423103" lon="15.1405645"><ele>552.0</ele><time>2026-04-24T14:59:07.057Z</time></trkpt><trkpt lat="37.8423421" lon="15.1406761"><ele>552.0</ele><time>2026-04-24T14:59:09.056Z</time></trkpt><trkpt lat="37.8423753" lon="15.1408003"><ele>552.0</ele><time>2026-04-24T14:59:11.056Z</time></trkpt><trkpt lat="37.8424079" lon="15.1409306"><ele>552.0</ele><time>2026-04-24T14:59:13.056Z</time></trkpt><trkpt lat="37.8424427" lon="15.141062"><ele>552.0</ele><time>2026-04-24T14:59:15.056Z</time></trkpt><trkpt lat="37.8424759" lon="15.1411862"><ele>551.5</ele><time>2026-04-24T14:59:17.057Z</time></trkpt><trkpt lat="37.8425051" lon="15.1413009"><ele>551.0</ele><time>2026-04-24T14:59:19.056Z</time></trkpt><trkpt lat="37.8425281" lon="15.1413837"><ele>550.5</ele><time>2026-04-24T14:59:21.056Z</time></trkpt><trkpt lat="37.8425446" lon="15.1414638"><ele>550.0</ele><time>2026-04-24T14:59:36.056Z</time></trkpt><trkpt lat="37.8425633" lon="15.1415432"><ele>549.5</ele><time>2026-04-24T14:59:53.057Z</time></trkpt><trkpt lat="37.8425921" lon="15.1416352"><ele>549.0</ele><time>2026-04-24T14:59:57.057Z</time></trkpt><trkpt lat="37.8426292" lon="15.1417266"><ele>548.2857142857142</ele><time>2026-04-24T15:00:00.056Z</time></trkpt><trkpt lat="37.8426588" lon="15.1418156"><ele>547.5714285714286</ele><time>2026-04-24T15:00:03.056Z</time></trkpt><trkpt lat="37.8426743" lon="15.1419027"><ele>546.8571428571429</ele><time>2026-04-24T15:00:15.056Z</time></trkpt><trkpt lat="37.8426373" lon="15.1419685"><ele>546.1428571428571</ele><time>2026-04-24T15:00:18.057Z</time></trkpt><trkpt lat="37.8425655" lon="15.1420309"><ele>545.4285714285714</ele><time>2026-04-24T15:00:21.057Z</time></trkpt><trkpt lat="37.8425082" lon="15.1420753"><ele>544.7142857142857</ele><time>2026-04-24T15:00:23.057Z</time></trkpt><trkpt lat="37.8424521" lon="15.1421193"><ele>544.0</ele><time>2026-04-24T15:00:25.056Z</time></trkpt><trkpt lat="37.8423989" lon="15.1421689"><ele>544.0</ele><time>2026-04-24T15:00:27.057Z</time></trkpt><trkpt lat="37.842347" lon="15.1422191"><ele>544.0</ele><time>2026-04-24T15:00:29.056Z</time></trkpt><trkpt lat="37.8422972" lon="15.1422683"><ele>544.0</ele><time>2026-04-24T15:00:31.057Z</time></trkpt><trkpt lat="37.8422237" lon="15.1423417"><ele>544.0</ele><time>2026-04-24T15:00:34.056Z</time></trkpt><trkpt lat="37.8421622" lon="15.1424062"><ele>544.0</ele><time>2026-04-24T15:00:37.056Z</time></trkpt><trkpt lat="37.8420937" lon="15.1424777"><ele>544.0</ele><time>2026-04-24T15:00:40.056Z</time></trkpt><trkpt lat="37.8420351" lon="15.1425384"><ele>543.8333333333334</ele><time>2026-04-24T15:00:42.056Z</time></trkpt><trkpt lat="37.8419705" lon="15.1426009"><ele>543.6666666666667</ele><time>2026-04-24T15:00:44.056Z</time></trkpt><trkpt lat="37.8419022" lon="15.1426683"><ele>543.5</ele><time>2026-04-24T15:00:46.057Z</time></trkpt><trkpt lat="37.8418357" lon="15.1427381"><ele>543.3333333333334</ele><time>2026-04-24T15:00:48.056Z</time></trkpt><trkpt lat="37.8417686" lon="15.1428085"><ele>543.1666666666666</ele><time>2026-04-24T15:00:50.057Z</time></trkpt><trkpt lat="37.8416999" lon="15.1428838"><ele>543.0</ele><time>2026-04-24T15:00:52.056Z</time></trkpt><trkpt lat="37.8416349" lon="15.1429673"><ele>543.0</ele><time>2026-04-24T15:00:54.056Z</time></trkpt><trkpt lat="37.8415712" lon="15.1430564"><ele>543.0</ele><time>2026-04-24T15:00:56.056Z</time></trkpt><trkpt lat="37.84151" lon="15.1431474"><ele>543.0</ele><time>2026-04-24T15:00:58.057Z</time></trkpt><trkpt lat="37.8414403" lon="15.1432473"><ele>543.0</ele><time>2026-04-24T15:01:00.056Z</time></trkpt><trkpt lat="37.8413645" lon="15.1433555"><ele>543.0</ele><time>2026-04-24T15:01:02.056Z</time></trkpt><trkpt lat="37.8412865" lon="15.1434719"><ele>542.4</ele><time>2026-04-24T15:01:04.056Z</time></trkpt><trkpt lat="37.8412108" lon="15.1435884"><ele>541.8</ele><time>2026-04-24T15:01:06.056Z</time></trkpt><trkpt lat="37.8411326" lon="15.1436977"><ele>541.2</ele><time>2026-04-24T15:01:08.056Z</time></trkpt><trkpt lat="37.8410508" lon="15.143818"><ele>540.6</ele><time>2026-04-24T15:01:10.056Z</time></trkpt><trkpt lat="37.8410074" lon="15.1438815"><ele>540.0</ele><time>2026-04-24T15:01:11.056Z</time></trkpt><trkpt lat="37.8409623" lon="15.1439462"><ele>540.0</ele><time>2026-04-24T15:01:12.056Z</time></trkpt><trkpt lat="37.8409132" lon="15.1440107"><ele>540.0</ele><time>2026-04-24T15:01:13.056Z</time></trkpt><trkpt lat="37.8408606" lon="15.1440735"><ele>540.0</ele><time>2026-04-24T15:01:14.056Z</time></trkpt><trkpt lat="37.8408081" lon="15.1441354"><ele>540.0</ele><time>2026-04-24T15:01:15.056Z</time></trkpt><trkpt lat="37.8407555" lon="15.1441972"><ele>540.0</ele><time>2026-04-24T15:01:16.057Z</time></trkpt><trkpt lat="37.8407013" lon="15.1442598"><ele>540.0</ele><time>2026-04-24T15:01:17.056Z</time></trkpt><trkpt lat="37.8406425" lon="15.1443186"><ele>540.0</ele><time>2026-04-24T15:01:18.056Z</time></trkpt><trkpt lat="37.8405779" lon="15.1443713"><ele>539.6666666666666</ele><time>2026-04-24T15:01:19.056Z</time></trkpt><trkpt lat="37.8405088" lon="15.1444171"><ele>539.3333333333334</ele><time>2026-04-24T15:01:20.056Z</time></trkpt><trkpt lat="37.8404328" lon="15.1444558"><ele>539.0</ele><time>2026-04-24T15:01:21.056Z</time></trkpt><trkpt lat="37.8403523" lon="15.1444862"><ele>538.6666666666667</ele><time>2026-04-24T15:01:22.057Z</time></trkpt><trkpt lat="37.840269" lon="15.1445112"><ele>538.3333333333334</ele><time>2026-04-24T15:01:23.056Z</time></trkpt><trkpt lat="37.8401829" lon="15.1445304"><ele>538.0</ele><time>2026-04-24T15:01:24.056Z</time></trkpt><trkpt lat="37.8400959" lon="15.1445474"><ele>537.8</ele><time>2026-04-24T15:01:25.056Z</time></trkpt><trkpt lat="37.8400064" lon="15.1445627"><ele>537.5999999999999</ele><time>2026-04-24T15:01:26.057Z</time></trkpt><trkpt lat="37.8399167" lon="15.1445758"><ele>537.4000000000001</ele><time>2026-04-24T15:01:27.056Z</time></trkpt><trkpt lat="37.8398283" lon="15.1445849"><ele>537.2</ele><time>2026-04-24T15:01:28.056Z</time></trkpt><trkpt lat="37.8397369" lon="15.1445973"><ele>537.0</ele><time>2026-04-24T15:01:29.056Z</time></trkpt><trkpt lat="37.8396454" lon="15.1446095"><ele>537.0</ele><time>2026-04-24T15:01:30.056Z</time></trkpt><trkpt lat="37.8395542" lon="15.1446221"><ele>537.0</ele><time>2026-04-24T15:01:31.056Z</time></trkpt><trkpt lat="37.8394639" lon="15.1446368"><ele>537.0</ele><time>2026-04-24T15:01:32.056Z</time></trkpt><trkpt lat="37.8393746" lon="15.1446477"><ele>537.0</ele><time>2026-04-24T15:01:33.057Z</time></trkpt><trkpt lat="37.8392892" lon="15.1446597"><ele>537.0</ele><time>2026-04-24T15:01:34.056Z</time></trkpt><trkpt lat="37.8392091" lon="15.1446703"><ele>537.0</ele><time>2026-04-24T15:01:35.056Z</time></trkpt><trkpt lat="37.8391282" lon="15.1446815"><ele>536.6666666666666</ele><time>2026-04-24T15:01:36.056Z</time></trkpt><trkpt lat="37.8390467" lon="15.1446952"><ele>536.3333333333334</ele><time>2026-04-24T15:01:37.057Z</time></trkpt><trkpt lat="37.8389641" lon="15.1447124"><ele>536.0</ele><time>2026-04-24T15:01:38.056Z</time></trkpt><trkpt lat="37.8388809" lon="15.1447287"><ele>535.6666666666667</ele><time>2026-04-24T15:01:39.056Z</time></trkpt><trkpt lat="37.838795" lon="15.1447449"><ele>535.3333333333334</ele><time>2026-04-24T15:01:40.056Z</time></trkpt><trkpt lat="37.8387114" lon="15.1447588"><ele>535.0</ele><time>2026-04-24T15:01:41.056Z</time></trkpt><trkpt lat="37.8386274" lon="15.1447704"><ele>535.0</ele><time>2026-04-24T15:01:42.056Z</time></trkpt><trkpt lat="37.8385499" lon="15.1447758"><ele>535.0</ele><time>2026-04-24T15:01:43.056Z</time></trkpt><trkpt lat="37.8384755" lon="15.1447808"><ele>535.0</ele><time>2026-04-24T15:01:44.057Z</time></trkpt><trkpt lat="37.8384009" lon="15.1447816"><ele>535.0</ele><time>2026-04-24T15:01:45.056Z</time></trkpt><trkpt lat="37.838326" lon="15.1447781"><ele>535.0</ele><time>2026-04-24T15:01:46.056Z</time></trkpt><trkpt lat="37.838251" lon="15.1447747"><ele>535.0</ele><time>2026-04-24T15:01:47.056Z</time></trkpt><trkpt lat="37.8381783" lon="15.1447713"><ele>535.0</ele><time>2026-04-24T15:01:48.056Z</time></trkpt><trkpt lat="37.8381102" lon="15.144769"><ele>535.0</ele><time>2026-04-24T15:01:49.056Z</time></trkpt><trkpt lat="37.8379895" lon="15.1447645"><ele>535.0</ele><time>2026-04-24T15:01:51.056Z</time></trkpt><trkpt lat="37.8378774" lon="15.1447565"><ele>535.0</ele><time>2026-04-24T15:01:53.057Z</time></trkpt><trkpt lat="37.8377648" lon="15.144751"><ele>535.0</ele><time>2026-04-24T15:01:55.057Z</time></trkpt><trkpt lat="37.8376442" lon="15.1447402"><ele>534.6666666666667</ele><time>2026-04-24T15:01:57.056Z</time></trkpt><trkpt lat="37.8375774" lon="15.1447327"><ele>534.3333333333334</ele><time>2026-04-24T15:01:58.056Z</time></trkpt><trkpt lat="37.8375068" lon="15.1447286"><ele>534.0</ele><time>2026-04-24T15:01:59.056Z</time></trkpt><trkpt lat="37.8374321" lon="15.1447215"><ele>533.6666666666666</ele><time>2026-04-24T15:02:00.056Z</time></trkpt><trkpt lat="37.8373502" lon="15.1447112"><ele>533.3333333333333</ele><time>2026-04-24T15:02:01.057Z</time></trkpt><trkpt lat="37.8372633" lon="15.1446908"><ele>533.0</ele><time>2026-04-24T15:02:02.057Z</time></trkpt><trkpt lat="37.8371769" lon="15.1446604"><ele>533.0</ele><time>2026-04-24T15:02:03.056Z</time></trkpt><trkpt lat="37.8370919" lon="15.1446174"><ele>533.0</ele><time>2026-04-24T15:02:04.056Z</time></trkpt><trkpt lat="37.8370129" lon="15.1445632"><ele>533.0</ele><time>2026-04-24T15:02:05.056Z</time></trkpt><trkpt lat="37.8369362" lon="15.1445027"><ele>533.0</ele><time>2026-04-24T15:02:06.057Z</time></trkpt><trkpt lat="37.8368649" lon="15.1444408"><ele>533.0</ele><time>2026-04-24T15:02:07.057Z</time></trkpt><trkpt lat="37.8367951" lon="15.1443821"><ele>533.0</ele><time>2026-04-24T15:02:08.056Z</time></trkpt><trkpt lat="37.8367305" lon="15.144329"><ele>532.1999999999999</ele><time>2026-04-24T15:02:09.056Z</time></trkpt><trkpt lat="37.8366728" lon="15.1442823"><ele>531.4</ele><time>2026-04-24T15:02:10.056Z</time></trkpt><trkpt lat="37.8365702" lon="15.144199"><ele>530.5999999999999</ele><time>2026-04-24T15:02:12.056Z</time></trkpt><trkpt lat="37.836477" lon="15.1441151"><ele>529.8</ele><time>2026-04-24T15:02:14.056Z</time></trkpt><trkpt lat="37.8363838" lon="15.1440304"><ele>529.0</ele><time>2026-04-24T15:02:16.056Z</time></trkpt><trkpt lat="37.836328" lon="15.143982"><ele>529.0</ele><time>2026-04-24T15:02:17.056Z</time></trkpt><trkpt lat="37.8362598" lon="15.1439293"><ele>529.0</ele><time>2026-04-24T15:02:18.056Z</time></trkpt><trkpt lat="37.8361788" lon="15.1438785"><ele>529.0</ele><time>2026-04-24T15:02:19.056Z</time></trkpt><trkpt lat="37.8360874" lon="15.1438344"><ele>529.0</ele><time>2026-04-24T15:02:20.056Z</time></trkpt><trkpt lat="37.8359844" lon="15.1437986"><ele>529.0</ele><time>2026-04-24T15:02:21.056Z</time></trkpt><trkpt lat="37.8358722" lon="15.1437648"><ele>528.0</ele><time>2026-04-24T15:02:22.056Z</time></trkpt><trkpt lat="37.8357506" lon="15.1437343"><ele>527.0</ele><time>2026-04-24T15:02:23.057Z</time></trkpt><trkpt lat="37.8356222" lon="15.1437057"><ele>526.0</ele><time>2026-04-24T15:02:24.056Z</time></trkpt><trkpt lat="37.8354898" lon="15.1436796"><ele>525.0</ele><time>2026-04-24T15:02:25.056Z</time></trkpt><trkpt lat="37.8353561" lon="15.1436672"><ele>525.0</ele><time>2026-04-24T15:02:26.057Z</time></trkpt><trkpt lat="37.835224" lon="15.1436727"><ele>525.0</ele><time>2026-04-24T15:02:27.056Z</time></trkpt><trkpt lat="37.8350916" lon="15.1436974"><ele>525.0</ele><time>2026-04-24T15:02:28.057Z</time></trkpt><trkpt lat="37.8349618" lon="15.1437422"><ele>525.0</ele><time>2026-04-24T15:02:29.056Z</time></trkpt><trkpt lat="37.8348362" lon="15.1438046"><ele>524.0</ele><time>2026-04-24T15:02:30.056Z</time></trkpt><trkpt lat="37.8347132" lon="15.1438806"><ele>523.0</ele><time>2026-04-24T15:02:31.056Z</time></trkpt><trkpt lat="37.8345894" lon="15.1439529"><ele>522.0</ele><time>2026-04-24T15:02:32.056Z</time></trkpt><trkpt lat="37.8344629" lon="15.1440163"><ele>521.0</ele><time>2026-04-24T15:02:33.055Z</time></trkpt><trkpt lat="37.8343338" lon="15.1440733"><ele>520.25</ele><time>2026-04-24T15:02:34.056Z</time></trkpt><trkpt lat="37.8342001" lon="15.1441239"><ele>519.5</ele><time>2026-04-24T15:02:35.056Z</time></trkpt><trkpt lat="37.8340633" lon="15.1441695"><ele>518.75</ele><time>2026-04-24T15:02:36.056Z</time></trkpt><trkpt lat="37.8339244" lon="15.1442089"><ele>518.0</ele><time>2026-04-24T15:02:37.056Z</time></trkpt><trkpt lat="37.8337844" lon="15.14425"><ele>518.0</ele><time>2026-04-24T15:02:38.057Z</time></trkpt><trkpt lat="37.8336501" lon="15.1442964"><ele>518.0</ele><time>2026-04-24T15:02:39.056Z</time></trkpt><trkpt lat="37.8335256" lon="15.1443465"><ele>518.0</ele><time>2026-04-24T15:02:40.056Z</time></trkpt><trkpt lat="37.8334059" lon="15.1443968"><ele>518.0</ele><time>2026-04-24T15:02:41.056Z</time></trkpt><trkpt lat="37.8332885" lon="15.1444347"><ele>516.75</ele><time>2026-04-24T15:02:42.056Z</time></trkpt><trkpt lat="37.8331677" lon="15.1444516"><ele>515.5</ele><time>2026-04-24T15:02:43.056Z</time></trkpt><trkpt lat="37.8330448" lon="15.1444409"><ele>514.25</ele><time>2026-04-24T15:02:44.056Z</time></trkpt><trkpt lat="37.8329257" lon="15.1444084"><ele>513.0</ele><time>2026-04-24T15:02:45.056Z</time></trkpt><trkpt lat="37.8328052" lon="15.1443737"><ele>513.0</ele><time>2026-04-24T15:02:46.056Z</time></trkpt><trkpt lat="37.8326803" lon="15.1443596"><ele>513.0</ele><time>2026-04-24T15:02:47.056Z</time></trkpt><trkpt lat="37.832549" lon="15.1443775"><ele>513.0</ele><time>2026-04-24T15:02:48.056Z</time></trkpt><trkpt lat="37.8324124" lon="15.1444192"><ele>513.0</ele><time>2026-04-24T15:02:49.056Z</time></trkpt><trkpt lat="37.8322677" lon="15.1444707"><ele>513.3333333333334</ele><time>2026-04-24T15:02:50.056Z</time></trkpt><trkpt lat="37.8321169" lon="15.1445206"><ele>513.6666666666667</ele><time>2026-04-24T15:02:51.056Z</time></trkpt><trkpt lat="37.8319654" lon="15.1445726"><ele>514.0</ele><time>2026-04-24T15:02:52.056Z</time></trkpt><trkpt lat="37.8318219" lon="15.1446234"><ele>515.25</ele><time>2026-04-24T15:02:53.056Z</time></trkpt><trkpt lat="37.8316867" lon="15.1446696"><ele>516.5</ele><time>2026-04-24T15:02:54.056Z</time></trkpt><trkpt lat="37.8315593" lon="15.1447126"><ele>517.75</ele><time>2026-04-24T15:02:55.057Z</time></trkpt><trkpt lat="37.8314369" lon="15.1447518"><ele>519.0</ele><time>2026-04-24T15:02:56.056Z</time></trkpt><trkpt lat="37.8313197" lon="15.1447835"><ele>519.0</ele><time>2026-04-24T15:02:57.056Z</time></trkpt><trkpt lat="37.8312053" lon="15.1448137"><ele>519.0</ele><time>2026-04-24T15:02:58.057Z</time></trkpt><trkpt lat="37.8310937" lon="15.1448429"><ele>519.0</ele><time>2026-04-24T15:02:59.056Z</time></trkpt><trkpt lat="37.83098" lon="15.1448719"><ele>519.0</ele><time>2026-04-24T15:03:00.056Z</time></trkpt><trkpt lat="37.8308665" lon="15.1449001"><ele>518.25</ele><time>2026-04-24T15:03:01.056Z</time></trkpt><trkpt lat="37.8307538" lon="15.1449278"><ele>517.5</ele><time>2026-04-24T15:03:02.056Z</time></trkpt><trkpt lat="37.8306364" lon="15.1449566"><ele>516.75</ele><time>2026-04-24T15:03:03.056Z</time></trkpt><trkpt lat="37.8305172" lon="15.1449853"><ele>516.0</ele><time>2026-04-24T15:03:04.057Z</time></trkpt><trkpt lat="37.8303974" lon="15.1450169"><ele>516.0</ele><time>2026-04-24T15:03:05.057Z</time></trkpt><trkpt lat="37.8302784" lon="15.1450568"><ele>516.0</ele><time>2026-04-24T15:03:06.057Z</time></trkpt><trkpt lat="37.8301586" lon="15.1451066"><ele>516.0</ele><time>2026-04-24T15:03:07.056Z</time></trkpt><trkpt lat="37.8300413" lon="15.1451661"><ele>516.0</ele><time>2026-04-24T15:03:08.057Z</time></trkpt><trkpt lat="37.8299238" lon="15.1452276"><ele>514.75</ele><time>2026-04-24T15:03:09.056Z</time></trkpt><trkpt lat="37.8298086" lon="15.1452956"><ele>513.5</ele><time>2026-04-24T15:03:10.056Z</time></trkpt><trkpt lat="37.8296927" lon="15.1453652"><ele>512.25</ele><time>2026-04-24T15:03:11.056Z</time></trkpt><trkpt lat="37.8295761" lon="15.1454329"><ele>511.0</ele><time>2026-04-24T15:03:12.056Z</time></trkpt><trkpt lat="37.8294575" lon="15.1455002"><ele>511.0</ele><time>2026-04-24T15:03:13.056Z</time></trkpt><trkpt lat="37.8293373" lon="15.1455636"><ele>511.0</ele><time>2026-04-24T15:03:14.056Z</time></trkpt><trkpt lat="37.829216" lon="15.1456234"><ele>511.0</ele><time>2026-04-24T15:03:15.056Z</time></trkpt><trkpt lat="37.8290998" lon="15.1456786"><ele>511.0</ele><time>2026-04-24T15:03:16.056Z</time></trkpt><trkpt lat="37.8289831" lon="15.1457343"><ele>509.25</ele><time>2026-04-24T15:03:17.056Z</time></trkpt><trkpt lat="37.8288674" lon="15.1457924"><ele>507.5</ele><time>2026-04-24T15:03:18.056Z</time></trkpt><trkpt lat="37.8287525" lon="15.1458557"><ele>505.75</ele><time>2026-04-24T15:03:19.056Z</time></trkpt><trkpt lat="37.82864" lon="15.1459223"><ele>504.0</ele><time>2026-04-24T15:03:20.056Z</time></trkpt><trkpt lat="37.8285287" lon="15.1459995"><ele>504.25</ele><time>2026-04-24T15:03:21.056Z</time></trkpt><trkpt lat="37.8284213" lon="15.1460825"><ele>504.5</ele><time>2026-04-24T15:03:22.057Z</time></trkpt><trkpt lat="37.8283147" lon="15.1461687"><ele>504.75</ele><time>2026-04-24T15:03:23.056Z</time></trkpt><trkpt lat="37.828213" lon="15.1462568"><ele>505.0</ele><time>2026-04-24T15:03:24.056Z</time></trkpt><trkpt lat="37.8281167" lon="15.1463447"><ele>505.0</ele><time>2026-04-24T15:03:25.057Z</time></trkpt><trkpt lat="37.8280192" lon="15.146429"><ele>505.0</ele><time>2026-04-24T15:03:26.056Z</time></trkpt><trkpt lat="37.8279166" lon="15.1465063"><ele>505.0</ele><time>2026-04-24T15:03:27.057Z</time></trkpt><trkpt lat="37.8278132" lon="15.1465746"><ele>505.0</ele><time>2026-04-24T15:03:28.057Z</time></trkpt><trkpt lat="37.8277069" lon="15.1466361"><ele>503.75</ele><time>2026-04-24T15:03:29.056Z</time></trkpt><trkpt lat="37.827598" lon="15.146698"><ele>502.5</ele><time>2026-04-24T15:03:30.057Z</time></trkpt><trkpt lat="37.8274898" lon="15.1467656"><ele>501.25</ele><time>2026-04-24T15:03:31.056Z</time></trkpt><trkpt lat="37.8273866" lon="15.1468453"><ele>500.0</ele><time>2026-04-24T15:03:32.056Z</time></trkpt><trkpt lat="37.8272853" lon="15.1469355"><ele>500.0</ele><time>2026-04-24T15:03:33.056Z</time></trkpt><trkpt lat="37.8271912" lon="15.1470412"><ele>500.0</ele><time>2026-04-24T15:03:34.056Z</time></trkpt><trkpt lat="37.827101" lon="15.1471538"><ele>500.0</ele><time>2026-04-24T15:03:35.056Z</time></trkpt><trkpt lat="37.8270095" lon="15.1472698"><ele>500.0</ele><time>2026-04-24T15:03:36.057Z</time></trkpt><trkpt lat="37.8269168" lon="15.1473864"><ele>499.5</ele><time>2026-04-24T15:03:37.056Z</time></trkpt><trkpt lat="37.8268182" lon="15.147501"><ele>499.0</ele><time>2026-04-24T15:03:38.056Z</time></trkpt><trkpt lat="37.8267166" lon="15.1476145"><ele>498.5</ele><time>2026-04-24T15:03:39.056Z</time></trkpt><trkpt lat="37.8266103" lon="15.1477254"><ele>498.0</ele><time>2026-04-24T15:03:40.057Z</time></trkpt><trkpt lat="37.8265012" lon="15.1478358"><ele>498.0</ele><time>2026-04-24T15:03:41.056Z</time></trkpt><trkpt lat="37.8263914" lon="15.1479486"><ele>498.0</ele><time>2026-04-24T15:03:42.056Z</time></trkpt><trkpt lat="37.8262837" lon="15.1480646"><ele>498.0</ele><time>2026-04-24T15:03:43.056Z</time></trkpt><trkpt lat="37.8261761" lon="15.1481807"><ele>498.0</ele><time>2026-04-24T15:03:44.056Z</time></trkpt><trkpt lat="37.8260695" lon="15.1482931"><ele>498.25</ele><time>2026-04-24T15:03:45.056Z</time></trkpt><trkpt lat="37.8259637" lon="15.1484025"><ele>498.5</ele><time>2026-04-24T15:03:46.056Z</time></trkpt><trkpt lat="37.825859" lon="15.1485106"><ele>498.75</ele><time>2026-04-24T15:03:47.057Z</time></trkpt><trkpt lat="37.8257557" lon="15.1486144"><ele>499.0</ele><time>2026-04-24T15:03:48.057Z</time></trkpt><trkpt lat="37.8256529" lon="15.148717"><ele>499.0</ele><time>2026-04-24T15:03:49.057Z</time></trkpt><trkpt lat="37.8255514" lon="15.1488204"><ele>499.0</ele><time>2026-04-24T15:03:50.056Z</time></trkpt><trkpt lat="37.8254492" lon="15.1489204"><ele>499.0</ele><time>2026-04-24T15:03:51.056Z</time></trkpt><trkpt lat="37.8253483" lon="15.1490219"><ele>499.0</ele><time>2026-04-24T15:03:52.056Z</time></trkpt><trkpt lat="37.8252444" lon="15.1491224"><ele>498.75</ele><time>2026-04-24T15:03:53.056Z</time></trkpt><trkpt lat="37.8251422" lon="15.1492256"><ele>498.5</ele><time>2026-04-24T15:03:54.057Z</time></trkpt><trkpt lat="37.8250423" lon="15.1493337"><ele>498.25</ele><time>2026-04-24T15:03:55.057Z</time></trkpt><trkpt lat="37.8249486" lon="15.1494493"><ele>498.0</ele><time>2026-04-24T15:03:56.056Z</time></trkpt><trkpt lat="37.8248654" lon="15.149577"><ele>498.0</ele><time>2026-04-24T15:03:57.056Z</time></trkpt><trkpt lat="37.8247945" lon="15.1497114"><ele>498.0</ele><time>2026-04-24T15:03:58.056Z</time></trkpt><trkpt lat="37.824732" lon="15.149845"><ele>498.0</ele><time>2026-04-24T15:03:59.056Z</time></trkpt><trkpt lat="37.8246725" lon="15.1499738"><ele>498.0</ele><time>2026-04-24T15:04:00.057Z</time></trkpt><trkpt lat="37.8246153" lon="15.1500953"><ele>497.79999999999995</ele><time>2026-04-24T15:04:01.057Z</time></trkpt><trkpt lat="37.8245562" lon="15.1502147"><ele>497.59999999999997</ele><time>2026-04-24T15:04:02.056Z</time></trkpt><trkpt lat="37.8244976" lon="15.1503314"><ele>497.40000000000003</ele><time>2026-04-24T15:04:03.057Z</time></trkpt><trkpt lat="37.8244427" lon="15.1504496"><ele>497.20000000000005</ele><time>2026-04-24T15:04:04.056Z</time></trkpt><trkpt lat="37.8243847" lon="15.1505664"><ele>497.0</ele><time>2026-04-24T15:04:05.057Z</time></trkpt><trkpt lat="37.8243283" lon="15.1506812"><ele>496.8</ele><time>2026-04-24T15:04:06.056Z</time></trkpt><trkpt lat="37.8242742" lon="15.1507977"><ele>496.6</ele><time>2026-04-24T15:04:07.057Z</time></trkpt><trkpt lat="37.8242166" lon="15.150913"><ele>496.40000000000003</ele><time>2026-04-24T15:04:08.056Z</time></trkpt><trkpt lat="37.8241622" lon="15.1510248"><ele>496.20000000000005</ele><time>2026-04-24T15:04:09.056Z</time></trkpt><trkpt lat="37.8241079" lon="15.1511365"><ele>496.0</ele><time>2026-04-24T15:04:10.057Z</time></trkpt><trkpt lat="37.8240554" lon="15.1512466"><ele>496.0</ele><time>2026-04-24T15:04:11.056Z</time></trkpt><trkpt lat="37.8240043" lon="15.1513497"><ele>496.0</ele><time>2026-04-24T15:04:12.056Z</time></trkpt><trkpt lat="37.8239497" lon="15.1514525"><ele>496.0</ele><time>2026-04-24T15:04:13.056Z</time></trkpt><trkpt lat="37.8238961" lon="15.1515577"><ele>496.0</ele><time>2026-04-24T15:04:14.056Z</time></trkpt><trkpt lat="37.8238432" lon="15.1516596"><ele>496.0</ele><time>2026-04-24T15:04:15.056Z</time></trkpt><trkpt lat="37.8237906" lon="15.1517615"><ele>495.4</ele><time>2026-04-24T15:04:16.057Z</time></trkpt><trkpt lat="37.8237392" lon="15.1518622"><ele>494.8</ele><time>2026-04-24T15:04:17.057Z</time></trkpt><trkpt lat="37.8236871" lon="15.1519667"><ele>494.19999999999993</ele><time>2026-04-24T15:04:18.056Z</time></trkpt><trkpt lat="37.8236351" lon="15.1520758"><ele>493.59999999999997</ele><time>2026-04-24T15:04:19.057Z</time></trkpt><trkpt lat="37.82358" lon="15.1521881"><ele>493.0</ele><time>2026-04-24T15:04:20.056Z</time></trkpt><trkpt lat="37.8235234" lon="15.1523041"><ele>493.2</ele><time>2026-04-24T15:04:21.056Z</time></trkpt><trkpt lat="37.8234648" lon="15.152424"><ele>493.4</ele><time>2026-04-24T15:04:22.056Z</time></trkpt><trkpt lat="37.8234041" lon="15.1525462"><ele>493.59999999999997</ele><time>2026-04-24T15:04:23.057Z</time></trkpt><trkpt lat="37.8233426" lon="15.1526659"><ele>493.79999999999995</ele><time>2026-04-24T15:04:24.056Z</time></trkpt><trkpt lat="37.8232843" lon="15.1527856"><ele>494.0</ele><time>2026-04-24T15:04:25.057Z</time></trkpt><trkpt lat="37.8232347" lon="15.152913"><ele>494.0</ele><time>2026-04-24T15:04:26.056Z</time></trkpt><trkpt lat="37.823202" lon="15.1530529"><ele>494.0</ele><time>2026-04-24T15:04:27.056Z</time></trkpt><trkpt lat="37.8231812" lon="15.1532001"><ele>494.0</ele><time>2026-04-24T15:04:28.056Z</time></trkpt><trkpt lat="37.8231615" lon="15.1533514"><ele>494.0</ele><time>2026-04-24T15:04:29.057Z</time></trkpt><trkpt lat="37.82314" lon="15.1535042"><ele>493.75</ele><time>2026-04-24T15:04:30.056Z</time></trkpt><trkpt lat="37.8231212" lon="15.1536624"><ele>493.5</ele><time>2026-04-24T15:04:31.056Z</time></trkpt><trkpt lat="37.8231026" lon="15.1538233"><ele>493.25</ele><time>2026-04-24T15:04:32.056Z</time></trkpt><trkpt lat="37.8230859" lon="15.1539838"><ele>493.0</ele><time>2026-04-24T15:04:33.057Z</time></trkpt><trkpt lat="37.8230704" lon="15.1541419"><ele>493.0</ele><time>2026-04-24T15:04:34.056Z</time></trkpt><trkpt lat="37.8230569" lon="15.1543001"><ele>493.0</ele><time>2026-04-24T15:04:35.057Z</time></trkpt><trkpt lat="37.823041" lon="15.1544588"><ele>493.0</ele><time>2026-04-24T15:04:36.056Z</time></trkpt><trkpt lat="37.8230233" lon="15.1546212"><ele>493.0</ele><time>2026-04-24T15:04:37.057Z</time></trkpt><trkpt lat="37.8230038" lon="15.1547825"><ele>492.0</ele><time>2026-04-24T15:04:38.056Z</time></trkpt><trkpt lat="37.8229863" lon="15.1549405"><ele>491.0</ele><time>2026-04-24T15:04:39.056Z</time></trkpt><trkpt lat="37.8229688" lon="15.1550986"><ele>490.0</ele><time>2026-04-24T15:04:40.056Z</time></trkpt><trkpt lat="37.8229524" lon="15.1552531"><ele>489.0</ele><time>2026-04-24T15:04:41.056Z</time></trkpt><trkpt lat="37.8229373" lon="15.1554004"><ele>489.0</ele><time>2026-04-24T15:04:42.056Z</time></trkpt><trkpt lat="37.8229209" lon="15.1555492"><ele>489.0</ele><time>2026-04-24T15:04:43.056Z</time></trkpt><trkpt lat="37.8228994" lon="15.1556919"><ele>489.0</ele><time>2026-04-24T15:04:44.057Z</time></trkpt><trkpt lat="37.8228668" lon="15.1558312"><ele>489.0</ele><time>2026-04-24T15:04:45.056Z</time></trkpt><trkpt lat="37.8228219" lon="15.1559651"><ele>488.75</ele><time>2026-04-24T15:04:46.056Z</time></trkpt><trkpt lat="37.8227705" lon="15.1560894"><ele>488.5</ele><time>2026-04-24T15:04:47.056Z</time></trkpt><trkpt lat="37.822714" lon="15.1562136"><ele>488.25</ele><time>2026-04-24T15:04:48.056Z</time></trkpt><trkpt lat="37.8226535" lon="15.1563348"><ele>488.0</ele><time>2026-04-24T15:04:49.056Z</time></trkpt><trkpt lat="37.8225889" lon="15.1564554"><ele>487.25</ele><time>2026-04-24T15:04:50.056Z</time></trkpt><trkpt lat="37.8225236" lon="15.1565786"><ele>486.5</ele><time>2026-04-24T15:04:51.057Z</time></trkpt><trkpt lat="37.8224576" lon="15.1566985"><ele>485.75</ele><time>2026-04-24T15:04:52.056Z</time></trkpt><trkpt lat="37.8223924" lon="15.1568146"><ele>485.0</ele><time>2026-04-24T15:04:53.057Z</time></trkpt><trkpt lat="37.8223271" lon="15.156926"><ele>485.0</ele><time>2026-04-24T15:04:54.056Z</time></trkpt><trkpt lat="37.8222607" lon="15.1570344"><ele>485.0</ele><time>2026-04-24T15:04:55.056Z</time></trkpt><trkpt lat="37.8221823" lon="15.1571294"><ele>485.0</ele><time>2026-04-24T15:04:56.056Z</time></trkpt><trkpt lat="37.8220953" lon="15.1572127"><ele>485.0</ele><time>2026-04-24T15:04:57.056Z</time></trkpt><trkpt lat="37.8220006" lon="15.1572841"><ele>485.0</ele><time>2026-04-24T15:04:58.056Z</time></trkpt><trkpt lat="37.821898" lon="15.1573503"><ele>483.25</ele><time>2026-04-24T15:04:59.057Z</time></trkpt><trkpt lat="37.8217921" lon="15.157416"><ele>481.5</ele><time>2026-04-24T15:05:00.056Z</time></trkpt><trkpt lat="37.8216819" lon="15.1574841"><ele>479.75</ele><time>2026-04-24T15:05:01.056Z</time></trkpt><trkpt lat="37.8215699" lon="15.1575592"><ele>478.0</ele><time>2026-04-24T15:05:02.056Z</time></trkpt><trkpt lat="37.8214593" lon="15.1576352"><ele>478.0</ele><time>2026-04-24T15:05:03.056Z</time></trkpt><trkpt lat="37.8213521" lon="15.1577129"><ele>478.0</ele><time>2026-04-24T15:05:04.056Z</time></trkpt><trkpt lat="37.8212468" lon="15.157787"><ele>478.0</ele><time>2026-04-24T15:05:05.056Z</time></trkpt><trkpt lat="37.8211415" lon="15.1578625"><ele>478.0</ele><time>2026-04-24T15:05:06.057Z</time></trkpt><trkpt lat="37.8210354" lon="15.1579393"><ele>477.0</ele><time>2026-04-24T15:05:07.056Z</time></trkpt><trkpt lat="37.820932" lon="15.1580185"><ele>476.0</ele><time>2026-04-24T15:05:08.057Z</time></trkpt><trkpt lat="37.820829" lon="15.1580971"><ele>475.0</ele><time>2026-04-24T15:05:09.056Z</time></trkpt><trkpt lat="37.8207296" lon="15.1581711"><ele>474.0</ele><time>2026-04-24T15:05:10.057Z</time></trkpt><trkpt lat="37.8206308" lon="15.1582431"><ele>473.6</ele><time>2026-04-24T15:05:11.056Z</time></trkpt><trkpt lat="37.8205375" lon="15.1583107"><ele>473.2</ele><time>2026-04-24T15:05:12.057Z</time></trkpt><trkpt lat="37.8204512" lon="15.1583739"><ele>472.80000000000007</ele><time>2026-04-24T15:05:13.056Z</time></trkpt><trkpt lat="37.8203714" lon="15.1584302"><ele>472.40000000000003</ele><time>2026-04-24T15:05:14.057Z</time></trkpt><trkpt lat="37.8202965" lon="15.1584848"><ele>472.0</ele><time>2026-04-24T15:05:15.056Z</time></trkpt><trkpt lat="37.8202229" lon="15.1585373"><ele>472.0</ele><time>2026-04-24T15:05:16.057Z</time></trkpt><trkpt lat="37.8201509" lon="15.158588"><ele>472.00000000000006</ele><time>2026-04-24T15:05:17.056Z</time></trkpt><trkpt lat="37.8200733" lon="15.1586357"><ele>472.00000000000006</ele><time>2026-04-24T15:05:18.057Z</time></trkpt><trkpt lat="37.8199883" lon="15.158679"><ele>472.0</ele><time>2026-04-24T15:05:19.056Z</time></trkpt><trkpt lat="37.8198958" lon="15.158719"><ele>472.0</ele><time>2026-04-24T15:05:20.056Z</time></trkpt><trkpt lat="37.8197967" lon="15.1587557"><ele>471.40000000000003</ele><time>2026-04-24T15:05:21.057Z</time></trkpt><trkpt lat="37.8196936" lon="15.1587927"><ele>470.80000000000007</ele><time>2026-04-24T15:05:22.056Z</time></trkpt><trkpt lat="37.8195873" lon="15.15883"><ele>470.2</ele><time>2026-04-24T15:05:23.057Z</time></trkpt><trkpt lat="37.8194752" lon="15.1588693"><ele>469.6</ele><time>2026-04-24T15:05:24.057Z</time></trkpt><trkpt lat="37.8193639" lon="15.1589082"><ele>469.0</ele><time>2026-04-24T15:05:25.056Z</time></trkpt><trkpt lat="37.8192545" lon="15.1589417"><ele>467.0</ele><time>2026-04-24T15:05:26.057Z</time></trkpt><trkpt lat="37.8191432" lon="15.1589799"><ele>465.0</ele><time>2026-04-24T15:05:27.056Z</time></trkpt><trkpt lat="37.8190317" lon="15.1590118"><ele>463.0</ele><time>2026-04-24T15:05:28.056Z</time></trkpt><trkpt lat="37.8189201" lon="15.1590406"><ele>461.0</ele><time>2026-04-24T15:05:29.056Z</time></trkpt><trkpt lat="37.8188094" lon="15.1590657"><ele>461.0</ele><time>2026-04-24T15:05:30.057Z</time></trkpt><trkpt lat="37.8186977" lon="15.159097"><ele>461.0</ele><time>2026-04-24T15:05:31.057Z</time></trkpt><trkpt lat="37.8185873" lon="15.1591298"><ele>461.0</ele><time>2026-04-24T15:05:32.057Z</time></trkpt><trkpt lat="37.8184765" lon="15.1591644"><ele>461.0</ele><time>2026-04-24T15:05:33.056Z</time></trkpt><trkpt lat="37.818372" lon="15.1592089"><ele>460.8</ele><time>2026-04-24T15:05:34.056Z</time></trkpt><trkpt lat="37.8182767" lon="15.159269"><ele>460.6</ele><time>2026-04-24T15:05:35.056Z</time></trkpt><trkpt lat="37.8181928" lon="15.1593415"><ele>460.4</ele><time>2026-04-24T15:05:36.056Z</time></trkpt><trkpt lat="37.8181161" lon="15.1594306"><ele>460.2</ele><time>2026-04-24T15:05:37.057Z</time></trkpt><trkpt lat="37.8180494" lon="15.1595291"><ele>460.0</ele><time>2026-04-24T15:05:38.056Z</time></trkpt><trkpt lat="37.8179886" lon="15.1596295"><ele>460.0</ele><time>2026-04-24T15:05:39.056Z</time></trkpt><trkpt lat="37.8179304" lon="15.1597331"><ele>460.0</ele><time>2026-04-24T15:05:40.057Z</time></trkpt><trkpt lat="37.8178736" lon="15.1598373"><ele>460.0</ele><time>2026-04-24T15:05:41.056Z</time></trkpt><trkpt lat="37.8178142" lon="15.1599406"><ele>460.0</ele><time>2026-04-24T15:05:42.056Z</time></trkpt><trkpt lat="37.817751" lon="15.1600466"><ele>460.0</ele><time>2026-04-24T15:05:43.056Z</time></trkpt><trkpt lat="37.8176855" lon="15.1601567"><ele>458.75</ele><time>2026-04-24T15:05:44.056Z</time></trkpt><trkpt lat="37.8176184" lon="15.1602686"><ele>457.5</ele><time>2026-04-24T15:05:45.057Z</time></trkpt><trkpt lat="37.8175506" lon="15.1603858"><ele>456.25</ele><time>2026-04-24T15:05:46.056Z</time></trkpt><trkpt lat="37.8174861" lon="15.1605051"><ele>455.0</ele><time>2026-04-24T15:05:47.056Z</time></trkpt><trkpt lat="37.8174253" lon="15.1606264"><ele>453.8</ele><time>2026-04-24T15:05:48.057Z</time></trkpt><trkpt lat="37.8173683" lon="15.1607479"><ele>452.6</ele><time>2026-04-24T15:05:49.056Z</time></trkpt><trkpt lat="37.8173146" lon="15.1608688"><ele>451.4</ele><time>2026-04-24T15:05:50.057Z</time></trkpt><trkpt lat="37.8172635" lon="15.1609835"><ele>450.2</ele><time>2026-04-24T15:05:51.056Z</time></trkpt><trkpt lat="37.8172127" lon="15.1611014"><ele>449.0</ele><time>2026-04-24T15:05:52.056Z</time></trkpt><trkpt lat="37.8171606" lon="15.161216"><ele>449.0</ele><time>2026-04-24T15:05:53.056Z</time></trkpt><trkpt lat="37.817112" lon="15.1613236"><ele>449.0</ele><time>2026-04-24T15:05:54.056Z</time></trkpt><trkpt lat="37.8170575" lon="15.1614267"><ele>449.0</ele><time>2026-04-24T15:05:55.057Z</time></trkpt><trkpt lat="37.8169945" lon="15.1615136"><ele>449.0</ele><time>2026-04-24T15:05:56.056Z</time></trkpt><trkpt lat="37.8169148" lon="15.1615851"><ele>449.0</ele><time>2026-04-24T15:05:57.056Z</time></trkpt><trkpt lat="37.8168258" lon="15.1616387"><ele>448.0</ele><time>2026-04-24T15:05:58.056Z</time></trkpt><trkpt lat="37.8167301" lon="15.1616735"><ele>447.0</ele><time>2026-04-24T15:05:59.056Z</time></trkpt><trkpt lat="37.8166292" lon="15.1617025"><ele>446.0</ele><time>2026-04-24T15:06:00.057Z</time></trkpt><trkpt lat="37.8165253" lon="15.161727"><ele>445.0</ele><time>2026-04-24T15:06:01.056Z</time></trkpt><trkpt lat="37.8164231" lon="15.1617523"><ele>444.0</ele><time>2026-04-24T15:06:02.057Z</time></trkpt><trkpt lat="37.8163216" lon="15.1617725"><ele>444.0</ele><time>2026-04-24T15:06:03.056Z</time></trkpt><trkpt lat="37.8162198" lon="15.1617813"><ele>444.0</ele><time>2026-04-24T15:06:04.056Z</time></trkpt><trkpt lat="37.8161159" lon="15.161773"><ele>444.0</ele><time>2026-04-24T15:06:05.057Z</time></trkpt><trkpt lat="37.8160113" lon="15.1617506"><ele>444.0</ele><time>2026-04-24T15:06:06.056Z</time></trkpt><trkpt lat="37.8159106" lon="15.1617097"><ele>444.0</ele><time>2026-04-24T15:06:07.056Z</time></trkpt><trkpt lat="37.8158113" lon="15.1616626"><ele>443.4</ele><time>2026-04-24T15:06:08.056Z</time></trkpt><trkpt lat="37.8157185" lon="15.1616182"><ele>442.79999999999995</ele><time>2026-04-24T15:06:09.056Z</time></trkpt><trkpt lat="37.8156298" lon="15.1615786"><ele>442.20000000000005</ele><time>2026-04-24T15:06:10.057Z</time></trkpt><trkpt lat="37.8155432" lon="15.1615481"><ele>441.6</ele><time>2026-04-24T15:06:11.056Z</time></trkpt><trkpt lat="37.8154593" lon="15.1615348"><ele>441.0</ele><time>2026-04-24T15:06:12.056Z</time></trkpt><trkpt lat="37.815376" lon="15.1615441"><ele>441.0</ele><time>2026-04-24T15:06:13.057Z</time></trkpt><trkpt lat="37.8152924" lon="15.1615679"><ele>441.0</ele><time>2026-04-24T15:06:14.057Z</time></trkpt><trkpt lat="37.8152085" lon="15.1615995"><ele>441.0</ele><time>2026-04-24T15:06:15.056Z</time></trkpt><trkpt lat="37.8151243" lon="15.1616315"><ele>441.0</ele><time>2026-04-24T15:06:16.056Z</time></trkpt><trkpt lat="37.8150373" lon="15.1616636"><ele>441.0</ele><time>2026-04-24T15:06:17.056Z</time></trkpt><trkpt lat="37.8149498" lon="15.1616946"><ele>441.0</ele><time>2026-04-24T15:06:18.056Z</time></trkpt><trkpt lat="37.8148621" lon="15.161732"><ele>439.8</ele><time>2026-04-24T15:06:19.056Z</time></trkpt><trkpt lat="37.8147777" lon="15.1617774"><ele>438.6</ele><time>2026-04-24T15:06:20.056Z</time></trkpt><trkpt lat="37.8146986" lon="15.1618342"><ele>437.4</ele><time>2026-04-24T15:06:21.057Z</time></trkpt><trkpt lat="37.8146216" lon="15.1618953"><ele>436.2</ele><time>2026-04-24T15:06:22.056Z</time></trkpt><trkpt lat="37.8145448" lon="15.1619578"><ele>435.0</ele><time>2026-04-24T15:06:23.057Z</time></trkpt><trkpt lat="37.814468" lon="15.1620174"><ele>435.0</ele><time>2026-04-24T15:06:24.056Z</time></trkpt><trkpt lat="37.8143911" lon="15.1620748"><ele>435.0</ele><time>2026-04-24T15:06:25.056Z</time></trkpt><trkpt lat="37.8143151" lon="15.1621391"><ele>435.0</ele><time>2026-04-24T15:06:26.056Z</time></trkpt><trkpt lat="37.814246" lon="15.1622171"><ele>435.0</ele><time>2026-04-24T15:06:27.056Z</time></trkpt><trkpt lat="37.814189" lon="15.1623135"><ele>435.0</ele><time>2026-04-24T15:06:28.057Z</time></trkpt><trkpt lat="37.814147" lon="15.1624264"><ele>432.2</ele><time>2026-04-24T15:06:29.056Z</time></trkpt><trkpt lat="37.8141164" lon="15.1625465"><ele>429.4</ele><time>2026-04-24T15:06:30.056Z</time></trkpt><trkpt lat="37.8140919" lon="15.1626708"><ele>426.6</ele><time>2026-04-24T15:06:31.057Z</time></trkpt><trkpt lat="37.8140686" lon="15.162797"><ele>423.8</ele><time>2026-04-24T15:06:32.056Z</time></trkpt><trkpt lat="37.8140452" lon="15.1629135"><ele>421.0</ele><time>2026-04-24T15:06:33.056Z</time></trkpt><trkpt lat="37.8140211" lon="15.1630234"><ele>421.0</ele><time>2026-04-24T15:06:34.056Z</time></trkpt><trkpt lat="37.8139973" lon="15.1631307"><ele>421.0</ele><time>2026-04-24T15:06:35.056Z</time></trkpt><trkpt lat="37.8139691" lon="15.1632337"><ele>421.0</ele><time>2026-04-24T15:06:36.056Z</time></trkpt><trkpt lat="37.8139322" lon="15.1633395"><ele>421.0</ele><time>2026-04-24T15:06:37.056Z</time></trkpt><trkpt lat="37.8138899" lon="15.1634515"><ele>421.0</ele><time>2026-04-24T15:06:38.057Z</time></trkpt><trkpt lat="37.8138439" lon="15.1635674"><ele>420.6</ele><time>2026-04-24T15:06:39.057Z</time></trkpt><trkpt lat="37.8137978" lon="15.1636864"><ele>420.20000000000005</ele><time>2026-04-24T15:06:40.056Z</time></trkpt><trkpt lat="37.8137474" lon="15.163807"><ele>419.79999999999995</ele><time>2026-04-24T15:06:41.056Z</time></trkpt><trkpt lat="37.813703" lon="15.1639333"><ele>419.4</ele><time>2026-04-24T15:06:42.057Z</time></trkpt><trkpt lat="37.8136706" lon="15.1640655"><ele>419.0</ele><time>2026-04-24T15:06:43.056Z</time></trkpt><trkpt lat="37.8136507" lon="15.1642052"><ele>418.75</ele><time>2026-04-24T15:06:44.056Z</time></trkpt><trkpt lat="37.8136357" lon="15.1643496"><ele>418.5</ele><time>2026-04-24T15:06:45.056Z</time></trkpt><trkpt lat="37.8136239" lon="15.1644993"><ele>418.25</ele><time>2026-04-24T15:06:46.056Z</time></trkpt><trkpt lat="37.8136134" lon="15.1646507"><ele>418.0</ele><time>2026-04-24T15:06:47.056Z</time></trkpt><trkpt lat="37.8136013" lon="15.1648027"><ele>416.75</ele><time>2026-04-24T15:06:48.057Z</time></trkpt><trkpt lat="37.8135915" lon="15.1649525"><ele>415.5</ele><time>2026-04-24T15:06:49.056Z</time></trkpt><trkpt lat="37.8135822" lon="15.1650981"><ele>414.25</ele><time>2026-04-24T15:06:50.057Z</time></trkpt><trkpt lat="37.8135733" lon="15.1652408"><ele>413.0</ele><time>2026-04-24T15:06:51.056Z</time></trkpt><trkpt lat="37.8135628" lon="15.1653803"><ele>413.0</ele><time>2026-04-24T15:06:52.056Z</time></trkpt><trkpt lat="37.8135536" lon="15.1655188"><ele>413.0</ele><time>2026-04-24T15:06:53.056Z</time></trkpt><trkpt lat="37.8135466" lon="15.165657"><ele>413.0</ele><time>2026-04-24T15:06:54.056Z</time></trkpt><trkpt lat="37.8135391" lon="15.1657902"><ele>413.0</ele><time>2026-04-24T15:06:55.057Z</time></trkpt><trkpt lat="37.8135326" lon="15.1659221"><ele>413.0</ele><time>2026-04-24T15:06:56.056Z</time></trkpt><trkpt lat="37.8135268" lon="15.1660471"><ele>412.79999999999995</ele><time>2026-04-24T15:06:57.056Z</time></trkpt><trkpt lat="37.8135204" lon="15.1661706"><ele>412.6</ele><time>2026-04-24T15:06:58.056Z</time></trkpt><trkpt lat="37.8135142" lon="15.1662896"><ele>412.4</ele><time>2026-04-24T15:06:59.056Z</time></trkpt><trkpt lat="37.813508" lon="15.166406"><ele>412.20000000000005</ele><time>2026-04-24T15:07:00.056Z</time></trkpt><trkpt lat="37.8135012" lon="15.1665194"><ele>412.0</ele><time>2026-04-24T15:07:01.056Z</time></trkpt><trkpt lat="37.8134961" lon="15.1666293"><ele>411.1666666666667</ele><time>2026-04-24T15:07:02.056Z</time></trkpt><trkpt lat="37.8134892" lon="15.1667383"><ele>410.33333333333337</ele><time>2026-04-24T15:07:03.056Z</time></trkpt><trkpt lat="37.8134806" lon="15.1668396"><ele>409.5</ele><time>2026-04-24T15:07:04.057Z</time></trkpt><trkpt lat="37.8134758" lon="15.1669366"><ele>408.66666666666663</ele><time>2026-04-24T15:07:05.057Z</time></trkpt><trkpt lat="37.8134693" lon="15.1670267"><ele>407.8333333333333</ele><time>2026-04-24T15:07:06.056Z</time></trkpt><trkpt lat="37.8134597" lon="15.1671702"><ele>407.0</ele><time>2026-04-24T15:07:08.056Z</time></trkpt><trkpt lat="37.8134371" lon="15.1672722"><ele>406.16666666666663</ele><time>2026-04-24T15:07:10.057Z</time></trkpt><trkpt lat="37.8133776" lon="15.1673459"><ele>405.3333333333333</ele><time>2026-04-24T15:07:12.056Z</time></trkpt><trkpt lat="37.81329" lon="15.1673758"><ele>404.5</ele><time>2026-04-24T15:07:14.056Z</time></trkpt><trkpt lat="37.8131774" lon="15.1673871"><ele>403.66666666666663</ele><time>2026-04-24T15:07:16.057Z</time></trkpt><trkpt lat="37.8131136" lon="15.1673924"><ele>402.8333333333333</ele><time>2026-04-24T15:07:17.056Z</time></trkpt><trkpt lat="37.8130436" lon="15.1674074"><ele>402.0</ele><time>2026-04-24T15:07:18.056Z</time></trkpt><trkpt lat="37.8129774" lon="15.1674417"><ele>401.5</ele><time>2026-04-24T15:07:19.056Z</time></trkpt><trkpt lat="37.8129147" lon="15.1674935"><ele>401.0</ele><time>2026-04-24T15:07:20.056Z</time></trkpt><trkpt lat="37.8128606" lon="15.1675618"><ele>400.5</ele><time>2026-04-24T15:07:21.056Z</time></trkpt><trkpt lat="37.8128216" lon="15.1676422"><ele>400.0</ele><time>2026-04-24T15:07:22.057Z</time></trkpt><trkpt lat="37.8127955" lon="15.1677366"><ele>399.5</ele><time>2026-04-24T15:07:23.056Z</time></trkpt><trkpt lat="37.812786" lon="15.1678377"><ele>399.0</ele><time>2026-04-24T15:07:24.056Z</time></trkpt><trkpt lat="37.8127884" lon="15.1679424"><ele>399.0</ele><time>2026-04-24T15:07:25.056Z</time></trkpt><trkpt lat="37.8127933" lon="15.1680518"><ele>399.0</ele><time>2026-04-24T15:07:26.056Z</time></trkpt><trkpt lat="37.812797" lon="15.1681668"><ele>399.0</ele><time>2026-04-24T15:07:27.056Z</time></trkpt><trkpt lat="37.8127963" lon="15.1682828"><ele>399.0</ele><time>2026-04-24T15:07:28.057Z</time></trkpt><trkpt lat="37.8127866" lon="15.1684001"><ele>399.0</ele><time>2026-04-24T15:07:29.056Z</time></trkpt><trkpt lat="37.8127748" lon="15.1685142"><ele>398.3333333333333</ele><time>2026-04-24T15:07:30.056Z</time></trkpt><trkpt lat="37.8127632" lon="15.1686277"><ele>397.66666666666663</ele><time>2026-04-24T15:07:31.056Z</time></trkpt><trkpt lat="37.8127531" lon="15.1687374"><ele>397.0</ele><time>2026-04-24T15:07:32.056Z</time></trkpt><trkpt lat="37.8127411" lon="15.1688468"><ele>396.3333333333333</ele><time>2026-04-24T15:07:33.057Z</time></trkpt><trkpt lat="37.8127265" lon="15.1689543"><ele>395.66666666666663</ele><time>2026-04-24T15:07:34.056Z</time></trkpt><trkpt lat="37.8127102" lon="15.16906"><ele>395.0</ele><time>2026-04-24T15:07:35.056Z</time></trkpt><trkpt lat="37.8126919" lon="15.1691641"><ele>394.99999999999994</ele><time>2026-04-24T15:07:36.056Z</time></trkpt><trkpt lat="37.8126701" lon="15.1692662"><ele>395.0</ele><time>2026-04-24T15:07:37.057Z</time></trkpt><trkpt lat="37.8126412" lon="15.169365"><ele>395.0</ele><time>2026-04-24T15:07:38.056Z</time></trkpt><trkpt lat="37.8126096" lon="15.1694612"><ele>395.0</ele><time>2026-04-24T15:07:39.057Z</time></trkpt><trkpt lat="37.8125749" lon="15.1695573"><ele>394.99999999999994</ele><time>2026-04-24T15:07:40.056Z</time></trkpt><trkpt lat="37.8125385" lon="15.1696507"><ele>395.0</ele><time>2026-04-24T15:07:41.056Z</time></trkpt><trkpt lat="37.8125009" lon="15.1697421"><ele>394.49999999999994</ele><time>2026-04-24T15:07:42.056Z</time></trkpt><trkpt lat="37.812458" lon="15.1698299"><ele>394.0</ele><time>2026-04-24T15:07:43.056Z</time></trkpt><trkpt lat="37.8124127" lon="15.1699132"><ele>393.5</ele><time>2026-04-24T15:07:44.057Z</time></trkpt><trkpt lat="37.8123711" lon="15.1699997"><ele>393.0</ele><time>2026-04-24T15:07:45.057Z</time></trkpt><trkpt lat="37.8123319" lon="15.1700844"><ele>392.49999999999994</ele><time>2026-04-24T15:07:46.056Z</time></trkpt><trkpt lat="37.8122925" lon="15.1701673"><ele>392.0</ele><time>2026-04-24T15:07:47.056Z</time></trkpt><trkpt lat="37.8122526" lon="15.1702516"><ele>390.99999999999994</ele><time>2026-04-24T15:07:48.056Z</time></trkpt><trkpt lat="37.8122145" lon="15.1703396"><ele>390.0</ele><time>2026-04-24T15:07:49.057Z</time></trkpt><trkpt lat="37.8121874" lon="15.1704292"><ele>389.0</ele><time>2026-04-24T15:07:50.057Z</time></trkpt><trkpt lat="37.8121656" lon="15.1705221"><ele>388.0</ele><time>2026-04-24T15:07:51.057Z</time></trkpt><trkpt lat="37.8121464" lon="15.170613"><ele>386.99999999999994</ele><time>2026-04-24T15:07:52.056Z</time></trkpt><trkpt lat="37.8121304" lon="15.1707053"><ele>386.0</ele><time>2026-04-24T15:07:53.056Z</time></trkpt><trkpt lat="37.8121184" lon="15.1708041"><ele>385.49999999999994</ele><time>2026-04-24T15:07:54.056Z</time></trkpt><trkpt lat="37.8121112" lon="15.1709022"><ele>385.0</ele><time>2026-04-24T15:07:55.057Z</time></trkpt><trkpt lat="37.8121027" lon="15.1710009"><ele>384.5</ele><time>2026-04-24T15:07:56.057Z</time></trkpt><trkpt lat="37.8120935" lon="15.1710985"><ele>384.0</ele><time>2026-04-24T15:07:57.057Z</time></trkpt><trkpt lat="37.8120862" lon="15.1711918"><ele>383.5</ele><time>2026-04-24T15:07:58.057Z</time></trkpt><trkpt lat="37.812082" lon="15.1712856"><ele>383.0</ele><time>2026-04-24T15:07:59.056Z</time></trkpt><trkpt lat="37.8120721" lon="15.1713784"><ele>383.0</ele><time>2026-04-24T15:08:00.056Z</time></trkpt><trkpt lat="37.8120586" lon="15.171463"><ele>383.0</ele><time>2026-04-24T15:08:01.057Z</time></trkpt><trkpt lat="37.8120366" lon="15.1715408"><ele>383.0</ele><time>2026-04-24T15:08:02.056Z</time></trkpt><trkpt lat="37.8119781" lon="15.1716757"><ele>383.0</ele><time>2026-04-24T15:08:04.057Z</time></trkpt><trkpt lat="37.8119245" lon="15.1718185"><ele>383.0</ele><time>2026-04-24T15:08:06.057Z</time></trkpt><trkpt lat="37.8118986" lon="15.1718957"><ele>383.0</ele><time>2026-04-24T15:08:07.056Z</time></trkpt><trkpt lat="37.8118727" lon="15.1719795"><ele>382.7142857142857</ele><time>2026-04-24T15:08:08.057Z</time></trkpt><trkpt lat="37.8118469" lon="15.172064"><ele>382.42857142857144</ele><time>2026-04-24T15:08:09.056Z</time></trkpt><trkpt lat="37.8118173" lon="15.1721455"><ele>382.1428571428571</ele><time>2026-04-24T15:08:10.056Z</time></trkpt><trkpt lat="37.8117818" lon="15.1722258"><ele>381.8571428571429</ele><time>2026-04-24T15:08:11.057Z</time></trkpt><trkpt lat="37.8117442" lon="15.1723074"><ele>381.5714285714286</ele><time>2026-04-24T15:08:12.056Z</time></trkpt><trkpt lat="37.8117048" lon="15.1723887"><ele>381.2857142857143</ele><time>2026-04-24T15:08:13.056Z</time></trkpt><trkpt lat="37.8116648" lon="15.1724679"><ele>381.0</ele><time>2026-04-24T15:08:14.056Z</time></trkpt><trkpt lat="37.811624" lon="15.1725463"><ele>380.1666666666667</ele><time>2026-04-24T15:08:15.056Z</time></trkpt><trkpt lat="37.8115836" lon="15.1726256"><ele>379.3333333333333</ele><time>2026-04-24T15:08:16.056Z</time></trkpt><trkpt lat="37.8115411" lon="15.1727019"><ele>378.5</ele><time>2026-04-24T15:08:17.057Z</time></trkpt><trkpt lat="37.8114996" lon="15.172777"><ele>377.66666666666663</ele><time>2026-04-24T15:08:18.056Z</time></trkpt><trkpt lat="37.8114624" lon="15.1728485"><ele>376.8333333333333</ele><time>2026-04-24T15:08:19.057Z</time></trkpt><trkpt lat="37.8113984" lon="15.1729599"><ele>376.0</ele><time>2026-04-24T15:08:21.056Z</time></trkpt><trkpt lat="37.8113548" lon="15.173035"><ele>376.0</ele><time>2026-04-24T15:08:23.056Z</time></trkpt><trkpt lat="37.8113081" lon="15.1731335"><ele>376.0</ele><time>2026-04-24T15:08:26.057Z</time></trkpt><trkpt lat="37.8112595" lon="15.1732339"><ele>376.0</ele><time>2026-04-24T15:08:29.056Z</time></trkpt><trkpt lat="37.8112241" lon="15.173307"><ele>376.0</ele><time>2026-04-24T15:08:31.056Z</time></trkpt><trkpt lat="37.8111839" lon="15.1733902"><ele>376.0</ele><time>2026-04-24T15:08:33.057Z</time></trkpt><trkpt lat="37.8111332" lon="15.1734895"><ele>376.0</ele><time>2026-04-24T15:08:35.056Z</time></trkpt><trkpt lat="37.8110758" lon="15.1735987"><ele>375.16666666666663</ele><time>2026-04-24T15:08:37.056Z</time></trkpt><trkpt lat="37.8110071" lon="15.1737266"><ele>374.3333333333333</ele><time>2026-04-24T15:08:39.056Z</time></trkpt><trkpt lat="37.8109699" lon="15.1737961"><ele>373.5</ele><time>2026-04-24T15:08:40.056Z</time></trkpt><trkpt lat="37.8109287" lon="15.1738681"><ele>372.6666666666667</ele><time>2026-04-24T15:08:41.057Z</time></trkpt><trkpt lat="37.8108866" lon="15.1739447"><ele>371.83333333333337</ele><time>2026-04-24T15:08:42.056Z</time></trkpt><trkpt lat="37.810845" lon="15.1740241"><ele>371.0</ele><time>2026-04-24T15:08:43.056Z</time></trkpt><trkpt lat="37.8108013" lon="15.174096"><ele>370.2857142857143</ele><time>2026-04-24T15:08:44.057Z</time></trkpt><trkpt lat="37.8107521" lon="15.1741569"><ele>369.57142857142856</ele><time>2026-04-24T15:08:45.056Z</time></trkpt><trkpt lat="37.8106932" lon="15.1741985"><ele>368.8571428571429</ele><time>2026-04-24T15:08:46.056Z</time></trkpt><trkpt lat="37.8106293" lon="15.1742213"><ele>368.1428571428571</ele><time>2026-04-24T15:08:47.056Z</time></trkpt><trkpt lat="37.8105591" lon="15.174236"><ele>367.42857142857144</ele><time>2026-04-24T15:08:48.057Z</time></trkpt><trkpt lat="37.8104886" lon="15.1742524"><ele>366.7142857142857</ele><time>2026-04-24T15:08:49.056Z</time></trkpt><trkpt lat="37.8104134" lon="15.1742679"><ele>366.0</ele><time>2026-04-24T15:08:50.056Z</time></trkpt><trkpt lat="37.8103288" lon="15.1742841"><ele>366.0</ele><time>2026-04-24T15:08:51.056Z</time></trkpt><trkpt lat="37.8102419" lon="15.1743085"><ele>366.0</ele><time>2026-04-24T15:08:52.056Z</time></trkpt><trkpt lat="37.8101492" lon="15.1743351"><ele>366.0</ele><time>2026-04-24T15:08:53.056Z</time></trkpt><trkpt lat="37.8100532" lon="15.1743641"><ele>366.0</ele><time>2026-04-24T15:08:54.057Z</time></trkpt><trkpt lat="37.8099531" lon="15.174387"><ele>366.0</ele><time>2026-04-24T15:08:55.056Z</time></trkpt><trkpt lat="37.809857" lon="15.1744116"><ele>365.8</ele><time>2026-04-24T15:08:56.057Z</time></trkpt><trkpt lat="37.8097638" lon="15.1744366"><ele>365.6</ele><time>2026-04-24T15:08:57.056Z</time></trkpt><trkpt lat="37.8096739" lon="15.1744581"><ele>365.4</ele><time>2026-04-24T15:08:58.056Z</time></trkpt><trkpt lat="37.8095832" lon="15.1744798"><ele>365.2</ele><time>2026-04-24T15:08:59.057Z</time></trkpt><trkpt lat="37.8094998" lon="15.1745034"><ele>365.0</ele><time>2026-04-24T15:09:00.056Z</time></trkpt><trkpt lat="37.8094124" lon="15.1745251"><ele>365.0</ele><time>2026-04-24T15:09:01.057Z</time></trkpt><trkpt lat="37.8093274" lon="15.174546"><ele>365.0</ele><time>2026-04-24T15:09:02.057Z</time></trkpt><trkpt lat="37.8092413" lon="15.1745704"><ele>365.0</ele><time>2026-04-24T15:09:03.056Z</time></trkpt><trkpt lat="37.8091523" lon="15.1745952"><ele>365.0</ele><time>2026-04-24T15:09:04.056Z</time></trkpt><trkpt lat="37.8090658" lon="15.1746262"><ele>365.0</ele><time>2026-04-24T15:09:05.057Z</time></trkpt><trkpt lat="37.8089806" lon="15.1746616"><ele>365.0</ele><time>2026-04-24T15:09:06.056Z</time></trkpt><trkpt lat="37.8088897" lon="15.1746954"><ele>364.8</ele><time>2026-04-24T15:09:07.056Z</time></trkpt><trkpt lat="37.8087943" lon="15.1747237"><ele>364.6</ele><time>2026-04-24T15:09:08.057Z</time></trkpt><trkpt lat="37.8086941" lon="15.1747506"><ele>364.4</ele><time>2026-04-24T15:09:09.057Z</time></trkpt><trkpt lat="37.8085928" lon="15.1747771"><ele>364.2</ele><time>2026-04-24T15:09:10.056Z</time></trkpt><trkpt lat="37.8084964" lon="15.1747998"><ele>364.0</ele><time>2026-04-24T15:09:11.057Z</time></trkpt><trkpt lat="37.8084022" lon="15.1748212"><ele>363.8333333333333</ele><time>2026-04-24T15:09:12.057Z</time></trkpt><trkpt lat="37.8083144" lon="15.1748408"><ele>363.66666666666663</ele><time>2026-04-24T15:09:13.057Z</time></trkpt><trkpt lat="37.8082296" lon="15.1748561"><ele>363.5</ele><time>2026-04-24T15:09:14.056Z</time></trkpt><trkpt lat="37.80815" lon="15.1748804"><ele>363.3333333333333</ele><time>2026-04-24T15:09:15.057Z</time></trkpt><trkpt lat="37.8080725" lon="15.1748975"><ele>363.1666666666667</ele><time>2026-04-24T15:09:16.057Z</time></trkpt><trkpt lat="37.8079973" lon="15.1749135"><ele>363.0</ele><time>2026-04-24T15:09:17.057Z</time></trkpt><trkpt lat="37.8079281" lon="15.1749321"><ele>363.0</ele><time>2026-04-24T15:09:18.056Z</time></trkpt><trkpt lat="37.8078223" lon="15.1749618"><ele>363.0</ele><time>2026-04-24T15:09:20.057Z</time></trkpt><trkpt lat="37.8077492" lon="15.1749366"><ele>363.0</ele><time>2026-04-24T15:09:23.056Z</time></trkpt><trkpt lat="37.8077213" lon="15.1748612"><ele>363.0</ele><time>2026-04-24T15:09:25.056Z</time></trkpt><trkpt lat="37.8077102" lon="15.1747318"><ele>363.0</ele><time>2026-04-24T15:09:27.056Z</time></trkpt><trkpt lat="37.8077008" lon="15.1745698"><ele>362.99999999999994</ele><time>2026-04-24T15:09:29.056Z</time></trkpt><trkpt lat="37.8076911" lon="15.1744802"><ele>363.0</ele><time>2026-04-24T15:09:30.056Z</time></trkpt><trkpt lat="37.8076791" lon="15.1743883"><ele>363.0</ele><time>2026-04-24T15:09:31.056Z</time></trkpt><trkpt lat="37.8076665" lon="15.1743058"><ele>363.0</ele><time>2026-04-24T15:09:32.057Z</time></trkpt><trkpt lat="37.8076574" lon="15.174225"><ele>363.0</ele><time>2026-04-24T15:09:33.057Z</time></trkpt><trkpt lat="37.8076473" lon="15.1741404"><ele>362.99999999999994</ele><time>2026-04-24T15:09:34.057Z</time></trkpt><trkpt lat="37.8076254" lon="15.1740494"><ele>363.0</ele><time>2026-04-24T15:09:35.056Z</time></trkpt><trkpt lat="37.8075895" lon="15.1739569"><ele>362.8333333333333</ele><time>2026-04-24T15:09:36.056Z</time></trkpt><trkpt lat="37.8075421" lon="15.1738678"><ele>362.6666666666667</ele><time>2026-04-24T15:09:37.056Z</time></trkpt><trkpt lat="37.8074884" lon="15.173786"><ele>362.5</ele><time>2026-04-24T15:09:38.057Z</time></trkpt><trkpt lat="37.8074314" lon="15.1737069"><ele>362.33333333333337</ele><time>2026-04-24T15:09:39.057Z</time></trkpt><trkpt lat="37.8073717" lon="15.1736298"><ele>362.1666666666667</ele><time>2026-04-24T15:09:40.056Z</time></trkpt><trkpt lat="37.8073121" lon="15.1735567"><ele>362.0</ele><time>2026-04-24T15:09:41.056Z</time></trkpt><trkpt lat="37.8072537" lon="15.1734885"><ele>362.0</ele><time>2026-04-24T15:09:42.057Z</time></trkpt><trkpt lat="37.8071995" lon="15.1734285"><ele>362.0</ele><time>2026-04-24T15:09:43.056Z</time></trkpt><trkpt lat="37.8071518" lon="15.1733695"><ele>362.0</ele><time>2026-04-24T15:09:44.056Z</time></trkpt><trkpt lat="37.8071054" lon="15.1733153"><ele>362.0</ele><time>2026-04-24T15:09:45.057Z</time></trkpt><trkpt lat="37.8070555" lon="15.1732629"><ele>362.0</ele><time>2026-04-24T15:09:46.057Z</time></trkpt><trkpt lat="37.8070025" lon="15.1732028"><ele>362.0</ele><time>2026-04-24T15:09:47.057Z</time></trkpt><trkpt lat="37.8069466" lon="15.1731363"><ele>362.0</ele><time>2026-04-24T15:09:48.056Z</time></trkpt><trkpt lat="37.8068901" lon="15.1730635"><ele>363.5</ele><time>2026-04-24T15:09:49.057Z</time></trkpt><trkpt lat="37.806834" lon="15.1729856"><ele>365.0</ele><time>2026-04-24T15:09:50.056Z</time></trkpt><trkpt lat="37.8067799" lon="15.1729036"><ele>366.5</ele><time>2026-04-24T15:09:51.057Z</time></trkpt><trkpt lat="37.8067256" lon="15.1728171"><ele>368.0</ele><time>2026-04-24T15:09:52.056Z</time></trkpt><trkpt lat="37.8066737" lon="15.1727331"><ele>369.5</ele><time>2026-04-24T15:09:53.056Z</time></trkpt><trkpt lat="37.8066319" lon="15.1726499"><ele>371.0</ele><time>2026-04-24T15:09:54.056Z</time></trkpt><trkpt lat="37.8065986" lon="15.1725736"><ele>371.0</ele><time>2026-04-24T15:09:55.056Z</time></trkpt><trkpt lat="37.8065399" lon="15.1724476"><ele>371.0</ele><time>2026-04-24T15:09:57.056Z</time></trkpt><trkpt lat="37.8064955" lon="15.1723341"><ele>371.0</ele><time>2026-04-24T15:09:59.057Z</time></trkpt><trkpt lat="37.8064517" lon="15.1722095"><ele>371.0</ele><time>2026-04-24T15:10:01.056Z</time></trkpt><trkpt lat="37.806378" lon="15.1720688"><ele>372.0</ele><time>2026-04-24T15:10:03.056Z</time></trkpt><trkpt lat="37.8063245" lon="15.1719912"><ele>373.0</ele><time>2026-04-24T15:10:04.056Z</time></trkpt><trkpt lat="37.8062558" lon="15.1719183"><ele>374.0</ele><time>2026-04-24T15:10:05.057Z</time></trkpt><trkpt lat="37.8061732" lon="15.1718559"><ele>375.0</ele><time>2026-04-24T15:10:06.056Z</time></trkpt><trkpt lat="37.8060803" lon="15.1718029"><ele>376.0</ele><time>2026-04-24T15:10:07.056Z</time></trkpt><trkpt lat="37.8059797" lon="15.1717564"><ele>376.0</ele><time>2026-04-24T15:10:08.056Z</time></trkpt><trkpt lat="37.8058768" lon="15.1717104"><ele>376.0</ele><time>2026-04-24T15:10:09.057Z</time></trkpt><trkpt lat="37.8057768" lon="15.17166"><ele>376.0</ele><time>2026-04-24T15:10:10.056Z</time></trkpt><trkpt lat="37.8056823" lon="15.1716006"><ele>376.0</ele><time>2026-04-24T15:10:11.057Z</time></trkpt><trkpt lat="37.8055991" lon="15.1715348"><ele>376.0</ele><time>2026-04-24T15:10:12.056Z</time></trkpt><trkpt lat="37.8055282" lon="15.1714566"><ele>376.8</ele><time>2026-04-24T15:10:13.056Z</time></trkpt><trkpt lat="37.8054726" lon="15.1713665"><ele>377.6</ele><time>2026-04-24T15:10:14.056Z</time></trkpt><trkpt lat="37.8054333" lon="15.1712658"><ele>378.4</ele><time>2026-04-24T15:10:15.056Z</time></trkpt><trkpt lat="37.8054048" lon="15.1711559"><ele>379.2</ele><time>2026-04-24T15:10:16.056Z</time></trkpt><trkpt lat="37.8053824" lon="15.1710409"><ele>380.0</ele><time>2026-04-24T15:10:17.056Z</time></trkpt><trkpt lat="37.805356" lon="15.1709266"><ele>380.0</ele><time>2026-04-24T15:10:18.056Z</time></trkpt><trkpt lat="37.8053162" lon="15.1708167"><ele>380.0</ele><time>2026-04-24T15:10:19.056Z</time></trkpt><trkpt lat="37.8052604" lon="15.1707085"><ele>380.0</ele><time>2026-04-24T15:10:20.057Z</time></trkpt><trkpt lat="37.8051967" lon="15.1706028"><ele>380.0</ele><time>2026-04-24T15:10:21.056Z</time></trkpt><trkpt lat="37.8051262" lon="15.1704943"><ele>380.0</ele><time>2026-04-24T15:10:22.056Z</time></trkpt><trkpt lat="37.8050539" lon="15.1703829"><ele>378.2</ele><time>2026-04-24T15:10:23.056Z</time></trkpt><trkpt lat="37.8049793" lon="15.1702741"><ele>376.4</ele><time>2026-04-24T15:10:24.056Z</time></trkpt><trkpt lat="37.8049059" lon="15.1701675"><ele>374.6</ele><time>2026-04-24T15:10:25.056Z</time></trkpt><trkpt lat="37.804841" lon="15.1700633"><ele>372.8</ele><time>2026-04-24T15:10:26.057Z</time></trkpt><trkpt lat="37.8047825" lon="15.1699663"><ele>371.0</ele><time>2026-04-24T15:10:27.056Z</time></trkpt><trkpt lat="37.8047304" lon="15.1698752"><ele>371.42857142857144</ele><time>2026-04-24T15:10:28.057Z</time></trkpt><trkpt lat="37.8046826" lon="15.1697923"><ele>371.8571428571429</ele><time>2026-04-24T15:10:29.057Z</time></trkpt><trkpt lat="37.8046473" lon="15.16971"><ele>372.2857142857143</ele><time>2026-04-24T15:10:30.056Z</time></trkpt><trkpt lat="37.8046321" lon="15.169624"><ele>372.7142857142857</ele><time>2026-04-24T15:10:31.056Z</time></trkpt><trkpt lat="37.8046374" lon="15.1695393"><ele>373.14285714285717</ele><time>2026-04-24T15:10:32.057Z</time></trkpt><trkpt lat="37.8046648" lon="15.1694575"><ele>373.57142857142856</ele><time>2026-04-24T15:10:33.056Z</time></trkpt><trkpt lat="37.8047093" lon="15.169375"><ele>374.0</ele><time>2026-04-24T15:10:34.056Z</time></trkpt><trkpt lat="37.8047666" lon="15.16929"><ele>374.0</ele><time>2026-04-24T15:10:35.056Z</time></trkpt><trkpt lat="37.8048321" lon="15.169196"><ele>374.0</ele><time>2026-04-24T15:10:36.056Z</time></trkpt><trkpt lat="37.8049065" lon="15.1691026"><ele>374.0</ele><time>2026-04-24T15:10:37.056Z</time></trkpt><trkpt lat="37.8049808" lon="15.1690088"><ele>374.0</ele><time>2026-04-24T15:10:38.057Z</time></trkpt><trkpt lat="37.8050435" lon="15.168918"><ele>374.0</ele><time>2026-04-24T15:10:39.057Z</time></trkpt><trkpt lat="37.8050896" lon="15.168823"><ele>376.4</ele><time>2026-04-24T15:10:40.056Z</time></trkpt><trkpt lat="37.8051178" lon="15.1687115"><ele>378.79999999999995</ele><time>2026-04-24T15:10:41.057Z</time></trkpt><trkpt lat="37.805138" lon="15.1685919"><ele>381.20000000000005</ele><time>2026-04-24T15:10:42.056Z</time></trkpt><trkpt lat="37.8051563" lon="15.1684596"><ele>383.6</ele><time>2026-04-24T15:10:43.056Z</time></trkpt><trkpt lat="37.8051657" lon="15.1683192"><ele>386.0</ele><time>2026-04-24T15:10:44.056Z</time></trkpt><trkpt lat="37.8051696" lon="15.1681722"><ele>387.25</ele><time>2026-04-24T15:10:45.056Z</time></trkpt><trkpt lat="37.8051713" lon="15.1680231"><ele>388.5</ele><time>2026-04-24T15:10:46.056Z</time></trkpt><trkpt lat="37.8051776" lon="15.167875"><ele>389.75</ele><time>2026-04-24T15:10:47.057Z</time></trkpt><trkpt lat="37.8051902" lon="15.167727"><ele>391.0</ele><time>2026-04-24T15:10:48.056Z</time></trkpt><trkpt lat="37.8052104" lon="15.1675864"><ele>391.0</ele><time>2026-04-24T15:10:49.056Z</time></trkpt><trkpt lat="37.8052451" lon="15.1674558"><ele>391.0</ele><time>2026-04-24T15:10:50.056Z</time></trkpt><trkpt lat="37.8052871" lon="15.1673348"><ele>391.0</ele><time>2026-04-24T15:10:51.056Z</time></trkpt><trkpt lat="37.8053343" lon="15.167219"><ele>391.0</ele><time>2026-04-24T15:10:52.056Z</time></trkpt><trkpt lat="37.8053866" lon="15.1671009"><ele>391.0</ele><time>2026-04-24T15:10:53.057Z</time></trkpt><trkpt lat="37.8054426" lon="15.1669829"><ele>392.5</ele><time>2026-04-24T15:10:54.056Z</time></trkpt><trkpt lat="37.8054981" lon="15.1668582"><ele>394.0</ele><time>2026-04-24T15:10:55.056Z</time></trkpt><trkpt lat="37.8055494" lon="15.1667283"><ele>395.5</ele><time>2026-04-24T15:10:56.057Z</time></trkpt><trkpt lat="37.8055907" lon="15.1665873"><ele>397.0</ele><time>2026-04-24T15:10:57.056Z</time></trkpt><trkpt lat="37.8056254" lon="15.1664432"><ele>400.0</ele><time>2026-04-24T15:10:58.056Z</time></trkpt><trkpt lat="37.8056602" lon="15.1662966"><ele>403.0</ele><time>2026-04-24T15:10:59.057Z</time></trkpt><trkpt lat="37.805692" lon="15.166155"><ele>406.0</ele><time>2026-04-24T15:11:00.056Z</time></trkpt><trkpt lat="37.8057147" lon="15.1660178"><ele>409.0</ele><time>2026-04-24T15:11:01.056Z</time></trkpt><trkpt lat="37.805733" lon="15.1658849"><ele>409.0</ele><time>2026-04-24T15:11:02.057Z</time></trkpt><trkpt lat="37.8057441" lon="15.1657505"><ele>409.0</ele><time>2026-04-24T15:11:03.056Z</time></trkpt><trkpt lat="37.8057426" lon="15.1656153"><ele>409.0</ele><time>2026-04-24T15:11:04.057Z</time></trkpt><trkpt lat="37.8057343" lon="15.1654894"><ele>409.0</ele><time>2026-04-24T15:11:05.057Z</time></trkpt><trkpt lat="37.8057199" lon="15.1653694"><ele>409.0</ele><time>2026-04-24T15:11:06.056Z</time></trkpt><trkpt lat="37.8056934" lon="15.1652517"><ele>409.6</ele><time>2026-04-24T15:11:07.057Z</time></trkpt><trkpt lat="37.805649" lon="15.1651339"><ele>410.2</ele><time>2026-04-24T15:11:08.057Z</time></trkpt><trkpt lat="37.8055993" lon="15.1650127"><ele>410.8</ele><time>2026-04-24T15:11:09.057Z</time></trkpt><trkpt lat="37.8055472" lon="15.1648911"><ele>411.40000000000003</ele><time>2026-04-24T15:11:10.056Z</time></trkpt><trkpt lat="37.8054906" lon="15.1647724"><ele>412.0</ele><time>2026-04-24T15:11:11.056Z</time></trkpt><trkpt lat="37.8054427" lon="15.1646634"><ele>412.1428571428571</ele><time>2026-04-24T15:11:12.056Z</time></trkpt><trkpt lat="37.805398" lon="15.1645664"><ele>412.2857142857143</ele><time>2026-04-24T15:11:13.056Z</time></trkpt><trkpt lat="37.8053493" lon="15.1644921"><ele>412.42857142857144</ele><time>2026-04-24T15:11:14.057Z</time></trkpt><trkpt lat="37.8052899" lon="15.1644483"><ele>412.57142857142856</ele><time>2026-04-24T15:11:15.056Z</time></trkpt><trkpt lat="37.8052238" lon="15.1644409"><ele>412.7142857142857</ele><time>2026-04-24T15:11:16.057Z</time></trkpt><trkpt lat="37.8051619" lon="15.1644743"><ele>412.85714285714283</ele><time>2026-04-24T15:11:17.057Z</time></trkpt><trkpt lat="37.8051052" lon="15.1645384"><ele>413.0</ele><time>2026-04-24T15:11:18.057Z</time></trkpt><trkpt lat="37.8050485" lon="15.1646111"><ele>413.0</ele><time>2026-04-24T15:11:19.056Z</time></trkpt><trkpt lat="37.8049991" lon="15.1646834"><ele>413.0</ele><time>2026-04-24T15:11:20.057Z</time></trkpt><trkpt lat="37.8049547" lon="15.1647479"><ele>413.0</ele><time>2026-04-24T15:11:21.056Z</time></trkpt><trkpt lat="37.8049152" lon="15.1648104"><ele>413.0</ele><time>2026-04-24T15:11:22.056Z</time></trkpt><trkpt lat="37.8048766" lon="15.1648782"><ele>413.0</ele><time>2026-04-24T15:11:23.057Z</time></trkpt><trkpt lat="37.8048318" lon="15.1649546"><ele>413.0</ele><time>2026-04-24T15:11:24.057Z</time></trkpt><trkpt lat="37.8047825" lon="15.1650426"><ele>413.0</ele><time>2026-04-24T15:11:25.056Z</time></trkpt><trkpt lat="37.804726" lon="15.1651381"><ele>412.99999999999994</ele><time>2026-04-24T15:11:26.056Z</time></trkpt><trkpt lat="37.8046712" lon="15.1652323"><ele>413.0</ele><time>2026-04-24T15:11:27.056Z</time></trkpt><trkpt lat="37.8046106" lon="15.1653054"><ele>413.0</ele><time>2026-04-24T15:11:28.057Z</time></trkpt><trkpt lat="37.8045408" lon="15.1653463"><ele>413.0</ele><time>2026-04-24T15:11:29.056Z</time></trkpt><trkpt lat="37.8044642" lon="15.1653588"><ele>412.99999999999994</ele><time>2026-04-24T15:11:30.056Z</time></trkpt><trkpt lat="37.804384" lon="15.1653454"><ele>413.0</ele><time>2026-04-24T15:11:31.057Z</time></trkpt><trkpt lat="37.8043112" lon="15.1652957"><ele>414.49999999999994</ele><time>2026-04-24T15:11:32.057Z</time></trkpt><trkpt lat="37.8042447" lon="15.1652227"><ele>416.0</ele><time>2026-04-24T15:11:33.056Z</time></trkpt><trkpt lat="37.8041779" lon="15.1651384"><ele>417.5</ele><time>2026-04-24T15:11:34.056Z</time></trkpt><trkpt lat="37.8041039" lon="15.1650605"><ele>419.0</ele><time>2026-04-24T15:11:35.056Z</time></trkpt><trkpt lat="37.8040307" lon="15.1649989"><ele>420.49999999999994</ele><time>2026-04-24T15:11:36.056Z</time></trkpt><trkpt lat="37.8039706" lon="15.1649416"><ele>422.0</ele><time>2026-04-24T15:11:37.057Z</time></trkpt><trkpt lat="37.8039234" lon="15.1648807"><ele>421.99999999999994</ele><time>2026-04-24T15:11:38.056Z</time></trkpt><trkpt lat="37.8038968" lon="15.1648082"><ele>422.0</ele><time>2026-04-24T15:11:39.056Z</time></trkpt><trkpt lat="37.8038865" lon="15.1647234"><ele>422.0</ele><time>2026-04-24T15:11:40.057Z</time></trkpt><trkpt lat="37.8038846" lon="15.1646262"><ele>422.0</ele><time>2026-04-24T15:11:41.056Z</time></trkpt><trkpt lat="37.8038886" lon="15.1645156"><ele>421.99999999999994</ele><time>2026-04-24T15:11:42.056Z</time></trkpt><trkpt lat="37.8038822" lon="15.1643972"><ele>422.0</ele><time>2026-04-24T15:11:43.057Z</time></trkpt><trkpt lat="37.8038648" lon="15.1642705"><ele>422.0</ele><time>2026-04-24T15:11:44.057Z</time></trkpt><trkpt lat="37.8038497" lon="15.1641344"><ele>422.0</ele><time>2026-04-24T15:11:45.056Z</time></trkpt><trkpt lat="37.8038474" lon="15.1639886"><ele>422.0</ele><time>2026-04-24T15:11:46.056Z</time></trkpt><trkpt lat="37.803852" lon="15.163835"><ele>422.0</ele><time>2026-04-24T15:11:47.056Z</time></trkpt><trkpt lat="37.8038526" lon="15.163677"><ele>423.25</ele><time>2026-04-24T15:11:48.056Z</time></trkpt><trkpt lat="37.8038331" lon="15.1635162"><ele>424.5</ele><time>2026-04-24T15:11:49.056Z</time></trkpt><trkpt lat="37.803801" lon="15.1633503"><ele>425.75</ele><time>2026-04-24T15:11:50.056Z</time></trkpt><trkpt lat="37.8037614" lon="15.1631736"><ele>427.0</ele><time>2026-04-24T15:11:51.057Z</time></trkpt><trkpt lat="37.8037193" lon="15.1629842"><ele>428.33333333333337</ele><time>2026-04-24T15:11:52.056Z</time></trkpt><trkpt lat="37.8036709" lon="15.1627804"><ele>429.66666666666663</ele><time>2026-04-24T15:11:53.057Z</time></trkpt><trkpt lat="37.8036144" lon="15.1625678"><ele>431.0</ele><time>2026-04-24T15:11:54.056Z</time></trkpt><trkpt lat="37.8035455" lon="15.1623513"><ele>434.66666666666663</ele><time>2026-04-24T15:11:55.056Z</time></trkpt><trkpt lat="37.8034759" lon="15.1621264"><ele>438.33333333333337</ele><time>2026-04-24T15:11:56.056Z</time></trkpt><trkpt lat="37.8034117" lon="15.1619147"><ele>442.0</ele><time>2026-04-24T15:11:57.056Z</time></trkpt><trkpt lat="37.8033479" lon="15.1617204"><ele>442.0</ele><time>2026-04-24T15:11:58.056Z</time></trkpt><trkpt lat="37.8032825" lon="15.1615358"><ele>442.0</ele><time>2026-04-24T15:11:59.056Z</time></trkpt><trkpt lat="37.8032187" lon="15.161356"><ele>442.0</ele><time>2026-04-24T15:12:00.056Z</time></trkpt><trkpt lat="37.8031533" lon="15.1611796"><ele>443.6666666666667</ele><time>2026-04-24T15:12:01.057Z</time></trkpt><trkpt lat="37.8030876" lon="15.1610011"><ele>445.33333333333337</ele><time>2026-04-24T15:12:02.057Z</time></trkpt><trkpt lat="37.8030215" lon="15.1608211"><ele>447.0</ele><time>2026-04-24T15:12:03.057Z</time></trkpt><trkpt lat="37.8029514" lon="15.1606418"><ele>447.0</ele><time>2026-04-24T15:12:04.057Z</time></trkpt><trkpt lat="37.8028787" lon="15.160461"><ele>447.0</ele><time>2026-04-24T15:12:05.057Z</time></trkpt><trkpt lat="37.802801" lon="15.1602861"><ele>447.0</ele><time>2026-04-24T15:12:06.056Z</time></trkpt><trkpt lat="37.8027197" lon="15.1601104"><ele>447.33333333333337</ele><time>2026-04-24T15:12:07.056Z</time></trkpt><trkpt lat="37.8026368" lon="15.1599356"><ele>447.6666666666667</ele><time>2026-04-24T15:12:08.056Z</time></trkpt><trkpt lat="37.8025554" lon="15.1597614"><ele>448.0</ele><time>2026-04-24T15:12:09.056Z</time></trkpt><trkpt lat="37.8024763" lon="15.1595924"><ele>448.6666666666667</ele><time>2026-04-24T15:12:10.056Z</time></trkpt><trkpt lat="37.802396" lon="15.1594249"><ele>449.33333333333337</ele><time>2026-04-24T15:12:11.057Z</time></trkpt><trkpt lat="37.8023184" lon="15.1592553"><ele>450.0</ele><time>2026-04-24T15:12:12.056Z</time></trkpt><trkpt lat="37.8022433" lon="15.1590874"><ele>450.66666666666663</ele><time>2026-04-24T15:12:13.056Z</time></trkpt><trkpt lat="37.8021686" lon="15.1589202"><ele>451.3333333333333</ele><time>2026-04-24T15:12:14.056Z</time></trkpt><trkpt lat="37.8020923" lon="15.158754"><ele>452.0</ele><time>2026-04-24T15:12:15.057Z</time></trkpt><trkpt lat="37.802016" lon="15.158586"><ele>452.0</ele><time>2026-04-24T15:12:16.056Z</time></trkpt><trkpt lat="37.801937" lon="15.1584182"><ele>452.0</ele><time>2026-04-24T15:12:17.056Z</time></trkpt><trkpt lat="37.8018568" lon="15.158251"><ele>452.0</ele><time>2026-04-24T15:12:18.056Z</time></trkpt><trkpt lat="37.8017735" lon="15.1580834"><ele>452.3333333333333</ele><time>2026-04-24T15:12:19.056Z</time></trkpt><trkpt lat="37.801685" lon="15.1579158"><ele>452.66666666666663</ele><time>2026-04-24T15:12:20.057Z</time></trkpt><trkpt lat="37.8015924" lon="15.1577452"><ele>453.0</ele><time>2026-04-24T15:12:21.056Z</time></trkpt><trkpt lat="37.8014876" lon="15.1575645"><ele>454.0</ele><time>2026-04-24T15:12:22.056Z</time></trkpt><trkpt lat="37.8013711" lon="15.157366"><ele>455.0</ele><time>2026-04-24T15:12:23.057Z</time></trkpt><trkpt lat="37.8012445" lon="15.1571544"><ele>456.0</ele><time>2026-04-24T15:12:24.056Z</time></trkpt><trkpt lat="37.8011236" lon="15.156954"><ele>456.0</ele><time>2026-04-24T15:12:25.057Z</time></trkpt><trkpt lat="37.8010124" lon="15.1567696"><ele>456.0</ele><time>2026-04-24T15:12:26.056Z</time></trkpt><trkpt lat="37.8009098" lon="15.1565977"><ele>456.0</ele><time>2026-04-24T15:12:27.056Z</time></trkpt><trkpt lat="37.8008164" lon="15.156442"><ele>457.20000000000005</ele><time>2026-04-24T15:12:28.056Z</time></trkpt><trkpt lat="37.8007319" lon="15.1563079"><ele>458.40000000000003</ele><time>2026-04-24T15:12:29.056Z</time></trkpt><trkpt lat="37.8006635" lon="15.1561847"><ele>459.6</ele><time>2026-04-24T15:12:30.056Z</time></trkpt><trkpt lat="37.8006159" lon="15.1560706"><ele>460.8</ele><time>2026-04-24T15:12:31.057Z</time></trkpt><trkpt lat="37.800595" lon="15.1559561"><ele>462.0</ele><time>2026-04-24T15:12:32.056Z</time></trkpt><trkpt lat="37.8006008" lon="15.1558383"><ele>462.0</ele><time>2026-04-24T15:12:33.056Z</time></trkpt><trkpt lat="37.8006359" lon="15.1557157"><ele>462.00000000000006</ele><time>2026-04-24T15:12:34.056Z</time></trkpt><trkpt lat="37.8006886" lon="15.1555841"><ele>462.00000000000006</ele><time>2026-04-24T15:12:35.056Z</time></trkpt><trkpt lat="37.8007422" lon="15.1554451"><ele>462.0</ele><time>2026-04-24T15:12:36.056Z</time></trkpt><trkpt lat="37.8007844" lon="15.1553313"><ele>462.0</ele><time>2026-04-24T15:12:37.056Z</time></trkpt><trkpt lat="37.8008135" lon="15.1552343"><ele>463.5</ele><time>2026-04-24T15:12:38.056Z</time></trkpt><trkpt lat="37.8008151" lon="15.1551423"><ele>465.0</ele><time>2026-04-24T15:12:39.056Z</time></trkpt><trkpt lat="37.8007862" lon="15.1550612"><ele>466.5</ele><time>2026-04-24T15:12:40.057Z</time></trkpt><trkpt lat="37.800734" lon="15.1550082"><ele>468.0</ele><time>2026-04-24T15:12:41.056Z</time></trkpt><trkpt lat="37.8006662" lon="15.1549964"><ele>469.5</ele><time>2026-04-24T15:12:42.057Z</time></trkpt><trkpt lat="37.800588" lon="15.1550225"><ele>471.0</ele><time>2026-04-24T15:12:43.056Z</time></trkpt><trkpt lat="37.8004994" lon="15.1550652"><ele>471.0</ele><time>2026-04-24T15:12:44.056Z</time></trkpt><trkpt lat="37.8003995" lon="15.1551131"><ele>471.0</ele><time>2026-04-24T15:12:45.056Z</time></trkpt><trkpt lat="37.8002908" lon="15.1551606"><ele>471.0</ele><time>2026-04-24T15:12:46.056Z</time></trkpt><trkpt lat="37.8001907" lon="15.1552005"><ele>471.0</ele><time>2026-04-24T15:12:47.056Z</time></trkpt><trkpt lat="37.800104" lon="15.1552217"><ele>471.0</ele><time>2026-04-24T15:12:48.057Z</time></trkpt><trkpt lat="37.8000335" lon="15.1552123"><ele>473.8</ele><time>2026-04-24T15:12:49.056Z</time></trkpt><trkpt lat="37.7999401" lon="15.1551155"><ele>476.6</ele><time>2026-04-24T15:12:51.056Z</time></trkpt><trkpt lat="37.7999193" lon="15.1550313"><ele>479.4</ele><time>2026-04-24T15:12:52.056Z</time></trkpt><trkpt lat="37.7999039" lon="15.1549307"><ele>482.2</ele><time>2026-04-24T15:12:53.056Z</time></trkpt><trkpt lat="37.7998772" lon="15.1548193"><ele>485.0</ele><time>2026-04-24T15:12:54.056Z</time></trkpt><trkpt lat="37.7998268" lon="15.1547272"><ele>486.4</ele><time>2026-04-24T15:12:55.056Z</time></trkpt><trkpt lat="37.7997554" lon="15.1546603"><ele>487.8</ele><time>2026-04-24T15:12:56.057Z</time></trkpt><trkpt lat="37.7996683" lon="15.1546369"><ele>489.20000000000005</ele><time>2026-04-24T15:12:57.056Z</time></trkpt><trkpt lat="37.7995716" lon="15.15465"><ele>490.6</ele><time>2026-04-24T15:12:58.056Z</time></trkpt><trkpt lat="37.7994641" lon="15.1546772"><ele>492.0</ele><time>2026-04-24T15:12:59.056Z</time></trkpt><trkpt lat="37.7993466" lon="15.1547032"><ele>494.0</ele><time>2026-04-24T15:13:00.056Z</time></trkpt><trkpt lat="37.7992223" lon="15.1547303"><ele>496.0</ele><time>2026-04-24T15:13:01.056Z</time></trkpt><trkpt lat="37.799091" lon="15.1547599"><ele>498.0</ele><time>2026-04-24T15:13:02.057Z</time></trkpt><trkpt lat="37.7989513" lon="15.1547965"><ele>500.0</ele><time>2026-04-24T15:13:03.056Z</time></trkpt><trkpt lat="37.7987971" lon="15.1548391"><ele>498.3333333333333</ele><time>2026-04-24T15:13:04.057Z</time></trkpt><trkpt lat="37.7986253" lon="15.1548851"><ele>496.66666666666663</ele><time>2026-04-24T15:13:05.057Z</time></trkpt><trkpt lat="37.7984393" lon="15.1549362"><ele>495.0</ele><time>2026-04-24T15:13:06.056Z</time></trkpt><trkpt lat="37.7982462" lon="15.1549912"><ele>495.0</ele><time>2026-04-24T15:13:07.057Z</time></trkpt><trkpt lat="37.798064" lon="15.155041"><ele>495.0</ele><time>2026-04-24T15:13:08.056Z</time></trkpt><trkpt lat="37.7978878" lon="15.1550873"><ele>495.0</ele><time>2026-04-24T15:13:09.056Z</time></trkpt><trkpt lat="37.7977199" lon="15.1551309"><ele>498.66666666666663</ele><time>2026-04-24T15:13:10.056Z</time></trkpt><trkpt lat="37.7975593" lon="15.1551678"><ele>502.3333333333333</ele><time>2026-04-24T15:13:11.056Z</time></trkpt><trkpt lat="37.79741" lon="15.1552048"><ele>506.0</ele><time>2026-04-24T15:13:12.057Z</time></trkpt><trkpt lat="37.7972717" lon="15.155242"><ele>506.0</ele><time>2026-04-24T15:13:13.057Z</time></trkpt><trkpt lat="37.797138" lon="15.1552783"><ele>506.0</ele><time>2026-04-24T15:13:14.056Z</time></trkpt><trkpt lat="37.7970125" lon="15.1553085"><ele>506.0</ele><time>2026-04-24T15:13:15.056Z</time></trkpt><trkpt lat="37.7968965" lon="15.1553369"><ele>506.0</ele><time>2026-04-24T15:13:16.056Z</time></trkpt><trkpt lat="37.7967904" lon="15.1553606"><ele>506.8</ele><time>2026-04-24T15:13:17.056Z</time></trkpt><trkpt lat="37.7966888" lon="15.1553735"><ele>507.6</ele><time>2026-04-24T15:13:18.056Z</time></trkpt><trkpt lat="37.7966001" lon="15.1553652"><ele>508.4</ele><time>2026-04-24T15:13:19.056Z</time></trkpt><trkpt lat="37.7965349" lon="15.1553306"><ele>509.2</ele><time>2026-04-24T15:13:20.057Z</time></trkpt><trkpt lat="37.7964844" lon="15.1552076"><ele>510.0</ele><time>2026-04-24T15:13:22.056Z</time></trkpt><trkpt lat="37.7965205" lon="15.1550546"><ele>510.0</ele><time>2026-04-24T15:13:24.057Z</time></trkpt><trkpt lat="37.7965536" lon="15.1549694"><ele>510.0</ele><time>2026-04-24T15:13:25.056Z</time></trkpt><trkpt lat="37.7965947" lon="15.1548798"><ele>510.0</ele><time>2026-04-24T15:13:26.056Z</time></trkpt><trkpt lat="37.7966463" lon="15.1547857"><ele>510.0</ele><time>2026-04-24T15:13:27.056Z</time></trkpt><trkpt lat="37.7967076" lon="15.154688"><ele>510.0</ele><time>2026-04-24T15:13:28.057Z</time></trkpt><trkpt lat="37.7967669" lon="15.1545895"><ele>510.0</ele><time>2026-04-24T15:13:29.056Z</time></trkpt><trkpt lat="37.7968172" lon="15.1544964"><ele>510.0</ele><time>2026-04-24T15:13:30.056Z</time></trkpt><trkpt lat="37.7968667" lon="15.1544184"><ele>510.0</ele><time>2026-04-24T15:13:31.057Z</time></trkpt><trkpt lat="37.7969138" lon="15.1543429"><ele>510.0</ele><time>2026-04-24T15:13:32.056Z</time></trkpt><trkpt lat="37.7969555" lon="15.154267"><ele>510.0</ele><time>2026-04-24T15:13:33.056Z</time></trkpt><trkpt lat="37.7969832" lon="15.1541764"><ele>510.0</ele><time>2026-04-24T15:13:34.056Z</time></trkpt><trkpt lat="37.7969928" lon="15.1540799"><ele>510.0</ele><time>2026-04-24T15:13:35.056Z</time></trkpt><trkpt lat="37.7969846" lon="15.1539812"><ele>511.2</ele><time>2026-04-24T15:13:36.056Z</time></trkpt><trkpt lat="37.7969565" lon="15.1538812"><ele>512.4</ele><time>2026-04-24T15:13:37.056Z</time></trkpt><trkpt lat="37.796912" lon="15.1537791"><ele>513.6</ele><time>2026-04-24T15:13:38.057Z</time></trkpt><trkpt lat="37.7968638" lon="15.1536742"><ele>514.8</ele><time>2026-04-24T15:13:39.057Z</time></trkpt><trkpt lat="37.7968098" lon="15.1535694"><ele>516.0</ele><time>2026-04-24T15:13:40.056Z</time></trkpt><trkpt lat="37.796741" lon="15.1534739"><ele>519.0</ele><time>2026-04-24T15:13:41.056Z</time></trkpt><trkpt lat="37.7966555" lon="15.1533946"><ele>522.0</ele><time>2026-04-24T15:13:42.056Z</time></trkpt><trkpt lat="37.7965636" lon="15.15332"><ele>525.0</ele><time>2026-04-24T15:13:43.056Z</time></trkpt><trkpt lat="37.7964818" lon="15.1532325"><ele>528.0</ele><time>2026-04-24T15:13:44.056Z</time></trkpt><trkpt lat="37.7964201" lon="15.1531384"><ele>531.0</ele><time>2026-04-24T15:13:45.056Z</time></trkpt><trkpt lat="37.7963731" lon="15.1530341"><ele>533.5</ele><time>2026-04-24T15:13:46.056Z</time></trkpt><trkpt lat="37.7963403" lon="15.1529228"><ele>536.0</ele><time>2026-04-24T15:13:47.057Z</time></trkpt><trkpt lat="37.7963169" lon="15.1528184"><ele>538.5</ele><time>2026-04-24T15:13:48.057Z</time></trkpt><trkpt lat="37.7962807" lon="15.1527259"><ele>541.0</ele><time>2026-04-24T15:13:49.056Z</time></trkpt><trkpt lat="37.7962254" lon="15.152653"><ele>543.5</ele><time>2026-04-24T15:13:50.057Z</time></trkpt><trkpt lat="37.7961563" lon="15.1526138"><ele>546.0</ele><time>2026-04-24T15:13:51.056Z</time></trkpt><trkpt lat="37.7960787" lon="15.1526162"><ele>546.0</ele><time>2026-04-24T15:13:52.057Z</time></trkpt><trkpt lat="37.7960045" lon="15.1526573"><ele>546.0</ele><time>2026-04-24T15:13:53.056Z</time></trkpt><trkpt lat="37.7959391" lon="15.1527263"><ele>546.0</ele><time>2026-04-24T15:13:54.056Z</time></trkpt><trkpt lat="37.7958775" lon="15.1527872"><ele>546.0</ele><time>2026-04-24T15:13:55.056Z</time></trkpt><trkpt lat="37.7958196" lon="15.1528225"><ele>546.0</ele><time>2026-04-24T15:13:56.056Z</time></trkpt><trkpt lat="37.7957292" lon="15.1527981"><ele>546.0</ele><time>2026-04-24T15:13:58.057Z</time></trkpt><trkpt lat="37.7957191" lon="15.1526901"><ele>546.2</ele><time>2026-04-24T15:14:00.056Z</time></trkpt><trkpt lat="37.7957718" lon="15.1525354"><ele>546.4000000000001</ele><time>2026-04-24T15:14:02.056Z</time></trkpt><trkpt lat="37.7958071" lon="15.1524436"><ele>546.6</ele><time>2026-04-24T15:14:03.056Z</time></trkpt><trkpt lat="37.7958579" lon="15.1523579"><ele>546.8000000000001</ele><time>2026-04-24T15:14:04.056Z</time></trkpt><trkpt lat="37.7959233" lon="15.1523001"><ele>547.0</ele><time>2026-04-24T15:14:05.057Z</time></trkpt><trkpt lat="37.7959986" lon="15.1522696"><ele>548.4</ele><time>2026-04-24T15:14:06.056Z</time></trkpt><trkpt lat="37.7960867" lon="15.1522483"><ele>549.8000000000001</ele><time>2026-04-24T15:14:07.056Z</time></trkpt><trkpt lat="37.7961815" lon="15.1522372"><ele>551.2</ele><time>2026-04-24T15:14:08.056Z</time></trkpt><trkpt lat="37.7962726" lon="15.1522332"><ele>552.6</ele><time>2026-04-24T15:14:09.056Z</time></trkpt><trkpt lat="37.796362" lon="15.1522538"><ele>554.0</ele><time>2026-04-24T15:14:10.056Z</time></trkpt><trkpt lat="37.7964439" lon="15.1522959"><ele>554.0</ele><time>2026-04-24T15:14:11.056Z</time></trkpt><trkpt lat="37.7965132" lon="15.1523451"><ele>554.0</ele><time>2026-04-24T15:14:12.056Z</time></trkpt><trkpt lat="37.796573" lon="15.1523846"><ele>554.0</ele><time>2026-04-24T15:14:13.056Z</time></trkpt><trkpt lat="37.7966862" lon="15.1523762"><ele>554.0</ele><time>2026-04-24T15:14:15.056Z</time></trkpt><trkpt lat="37.7967416" lon="15.1523264"><ele>554.0</ele><time>2026-04-24T15:14:16.056Z</time></trkpt><trkpt lat="37.7967887" lon="15.1522534"><ele>554.0</ele><time>2026-04-24T15:14:17.056Z</time></trkpt><trkpt lat="37.7968342" lon="15.1521668"><ele>551.4</ele><time>2026-04-24T15:14:18.056Z</time></trkpt><trkpt lat="37.7968866" lon="15.1520777"><ele>548.8</ele><time>2026-04-24T15:14:19.057Z</time></trkpt><trkpt lat="37.7969441" lon="15.1519881"><ele>546.2</ele><time>2026-04-24T15:14:20.056Z</time></trkpt><trkpt lat="37.7969972" lon="15.1518874"><ele>543.6</ele><time>2026-04-24T15:14:21.056Z</time></trkpt><trkpt lat="37.7970333" lon="15.1517776"><ele>541.0</ele><time>2026-04-24T15:14:22.057Z</time></trkpt><trkpt lat="37.797051" lon="15.1516632"><ele>541.0</ele><time>2026-04-24T15:14:23.056Z</time></trkpt><trkpt lat="37.7970615" lon="15.1515529"><ele>541.0</ele><time>2026-04-24T15:14:24.056Z</time></trkpt><trkpt lat="37.7970721" lon="15.1514453"><ele>541.0</ele><time>2026-04-24T15:14:25.057Z</time></trkpt><trkpt lat="37.7970829" lon="15.1513446"><ele>541.0</ele><time>2026-04-24T15:14:26.056Z</time></trkpt><trkpt lat="37.797092" lon="15.1512407"><ele>541.0</ele><time>2026-04-24T15:14:27.057Z</time></trkpt><trkpt lat="37.7971081" lon="15.1511313"><ele>541.0</ele><time>2026-04-24T15:14:28.056Z</time></trkpt><trkpt lat="37.7971354" lon="15.151016"><ele>544.0</ele><time>2026-04-24T15:14:29.056Z</time></trkpt><trkpt lat="37.7971719" lon="15.150897"><ele>547.0</ele><time>2026-04-24T15:14:30.056Z</time></trkpt><trkpt lat="37.7972092" lon="15.1507678"><ele>550.0</ele><time>2026-04-24T15:14:31.056Z</time></trkpt><trkpt lat="37.7972455" lon="15.1506315"><ele>553.0</ele><time>2026-04-24T15:14:32.057Z</time></trkpt><trkpt lat="37.7972796" lon="15.1504888"><ele>556.0</ele><time>2026-04-24T15:14:33.056Z</time></trkpt><trkpt lat="37.7973088" lon="15.1503399"><ele>557.6</ele><time>2026-04-24T15:14:34.057Z</time></trkpt><trkpt lat="37.7973324" lon="15.1501911"><ele>559.2</ele><time>2026-04-24T15:14:35.056Z</time></trkpt><trkpt lat="37.7973508" lon="15.1500489"><ele>560.8</ele><time>2026-04-24T15:14:36.056Z</time></trkpt><trkpt lat="37.7973701" lon="15.1499184"><ele>562.4</ele><time>2026-04-24T15:14:37.056Z</time></trkpt><trkpt lat="37.7973862" lon="15.1498006"><ele>564.0</ele><time>2026-04-24T15:14:38.056Z</time></trkpt><trkpt lat="37.7973931" lon="15.1496876"><ele>565.6</ele><time>2026-04-24T15:14:39.056Z</time></trkpt><trkpt lat="37.7973854" lon="15.1495731"><ele>567.2</ele><time>2026-04-24T15:14:40.057Z</time></trkpt><trkpt lat="37.7973635" lon="15.1494597"><ele>568.8000000000001</ele><time>2026-04-24T15:14:41.056Z</time></trkpt><trkpt lat="37.7973352" lon="15.1493417"><ele>570.4</ele><time>2026-04-24T15:14:42.056Z</time></trkpt><trkpt lat="37.7973066" lon="15.14922"><ele>572.0</ele><time>2026-04-24T15:14:43.056Z</time></trkpt><trkpt lat="37.7972777" lon="15.1490943"><ele>574.8000000000001</ele><time>2026-04-24T15:14:44.056Z</time></trkpt><trkpt lat="37.797248" lon="15.1489667"><ele>577.6</ele><time>2026-04-24T15:14:45.056Z</time></trkpt><trkpt lat="37.7972154" lon="15.1488413"><ele>580.4000000000001</ele><time>2026-04-24T15:14:46.056Z</time></trkpt><trkpt lat="37.7971869" lon="15.1487294"><ele>583.2</ele><time>2026-04-24T15:14:47.056Z</time></trkpt><trkpt lat="37.7971529" lon="15.1486329"><ele>586.0</ele><time>2026-04-24T15:14:48.057Z</time></trkpt><trkpt lat="37.7971069" lon="15.1485574"><ele>586.0</ele><time>2026-04-24T15:14:49.057Z</time></trkpt><trkpt lat="37.7970479" lon="15.1484963"><ele>586.0</ele><time>2026-04-24T15:14:50.056Z</time></trkpt><trkpt lat="37.7969708" lon="15.148444"><ele>586.0</ele><time>2026-04-24T15:14:51.056Z</time></trkpt><trkpt lat="37.7968864" lon="15.1483913"><ele>586.0</ele><time>2026-04-24T15:14:52.056Z</time></trkpt><trkpt lat="37.7968008" lon="15.1483294"><ele>586.0</ele><time>2026-04-24T15:14:53.057Z</time></trkpt><trkpt lat="37.7967084" lon="15.1482617"><ele>587.25</ele><time>2026-04-24T15:14:54.057Z</time></trkpt><trkpt lat="37.7966123" lon="15.1481926"><ele>588.5</ele><time>2026-04-24T15:14:55.057Z</time></trkpt><trkpt lat="37.7965126" lon="15.148123"><ele>589.75</ele><time>2026-04-24T15:14:56.057Z</time></trkpt><trkpt lat="37.7964146" lon="15.1480504"><ele>591.0</ele><time>2026-04-24T15:14:57.056Z</time></trkpt><trkpt lat="37.7963142" lon="15.1479788"><ele>591.0</ele><time>2026-04-24T15:14:58.056Z</time></trkpt><trkpt lat="37.7962137" lon="15.1479078"><ele>591.0</ele><time>2026-04-24T15:14:59.056Z</time></trkpt><trkpt lat="37.7961147" lon="15.1478413"><ele>591.0</ele><time>2026-04-24T15:15:00.056Z</time></trkpt><trkpt lat="37.7960235" lon="15.1477786"><ele>591.0</ele><time>2026-04-24T15:15:01.056Z</time></trkpt><trkpt lat="37.7959376" lon="15.1477163"><ele>591.0</ele><time>2026-04-24T15:15:02.056Z</time></trkpt><trkpt lat="37.7958522" lon="15.1476573"><ele>591.5</ele><time>2026-04-24T15:15:03.056Z</time></trkpt><trkpt lat="37.7957675" lon="15.147602"><ele>592.0</ele><time>2026-04-24T15:15:04.056Z</time></trkpt><trkpt lat="37.7956842" lon="15.1475523"><ele>592.5</ele><time>2026-04-24T15:15:05.056Z</time></trkpt><trkpt lat="37.795605" lon="15.1475032"><ele>593.0</ele><time>2026-04-24T15:15:06.056Z</time></trkpt><trkpt lat="37.7955333" lon="15.1474488"><ele>593.5</ele><time>2026-04-24T15:15:07.056Z</time></trkpt><trkpt lat="37.7954736" lon="15.1473788"><ele>594.0</ele><time>2026-04-24T15:15:08.056Z</time></trkpt><trkpt lat="37.795425" lon="15.147296"><ele>594.0</ele><time>2026-04-24T15:15:09.056Z</time></trkpt><trkpt lat="37.7953932" lon="15.1472054"><ele>594.0</ele><time>2026-04-24T15:15:10.056Z</time></trkpt><trkpt lat="37.7953692" lon="15.1471111"><ele>594.0</ele><time>2026-04-24T15:15:11.056Z</time></trkpt><trkpt lat="37.7953576" lon="15.1470135"><ele>594.0</ele><time>2026-04-24T15:15:12.056Z</time></trkpt><trkpt lat="37.7953592" lon="15.1469138"><ele>594.0</ele><time>2026-04-24T15:15:13.057Z</time></trkpt><trkpt lat="37.7953702" lon="15.1468123"><ele>594.0</ele><time>2026-04-24T15:15:14.056Z</time></trkpt><trkpt lat="37.7953902" lon="15.1467089"><ele>594.0</ele><time>2026-04-24T15:15:15.057Z</time></trkpt><trkpt lat="37.7954197" lon="15.1466085"><ele>594.0</ele><time>2026-04-24T15:15:16.057Z</time></trkpt><trkpt lat="37.7954441" lon="15.1465078"><ele>594.0</ele><time>2026-04-24T15:15:17.056Z</time></trkpt><trkpt lat="37.795461" lon="15.1464102"><ele>594.0</ele><time>2026-04-24T15:15:18.056Z</time></trkpt><trkpt lat="37.7954632" lon="15.1463129"><ele>594.0</ele><time>2026-04-24T15:15:19.056Z</time></trkpt><trkpt lat="37.795449" lon="15.1462194"><ele>594.0</ele><time>2026-04-24T15:15:20.056Z</time></trkpt><trkpt lat="37.7954155" lon="15.1461345"><ele>594.0</ele><time>2026-04-24T15:15:21.056Z</time></trkpt><trkpt lat="37.7953651" lon="15.1460572"><ele>594.0</ele><time>2026-04-24T15:15:22.056Z</time></trkpt><trkpt lat="37.795309" lon="15.1459823"><ele>594.0</ele><time>2026-04-24T15:15:23.057Z</time></trkpt><trkpt lat="37.7952468" lon="15.1459045"><ele>594.0</ele><time>2026-04-24T15:15:24.056Z</time></trkpt><trkpt lat="37.7951819" lon="15.1458239"><ele>594.0</ele><time>2026-04-24T15:15:25.056Z</time></trkpt><trkpt lat="37.7951166" lon="15.1457344"><ele>594.0</ele><time>2026-04-24T15:15:26.056Z</time></trkpt><trkpt lat="37.7950483" lon="15.1456433"><ele>596.6</ele><time>2026-04-24T15:15:27.056Z</time></trkpt><trkpt lat="37.7949765" lon="15.1455483"><ele>599.2</ele><time>2026-04-24T15:15:28.057Z</time></trkpt><trkpt lat="37.7948981" lon="15.1454632"><ele>601.8000000000001</ele><time>2026-04-24T15:15:29.057Z</time></trkpt><trkpt lat="37.7948116" lon="15.1453936"><ele>604.4</ele><time>2026-04-24T15:15:30.056Z</time></trkpt><trkpt lat="37.7947213" lon="15.1453413"><ele>607.0</ele><time>2026-04-24T15:15:31.056Z</time></trkpt><trkpt lat="37.7946294" lon="15.1453054"><ele>607.0</ele><time>2026-04-24T15:15:32.056Z</time></trkpt><trkpt lat="37.794541" lon="15.1452701"><ele>607.0</ele><time>2026-04-24T15:15:33.056Z</time></trkpt><trkpt lat="37.7944583" lon="15.1452325"><ele>607.0</ele><time>2026-04-24T15:15:34.057Z</time></trkpt><trkpt lat="37.794387" lon="15.1451924"><ele>607.0</ele><time>2026-04-24T15:15:35.056Z</time></trkpt><trkpt lat="37.7943263" lon="15.1451429"><ele>607.0</ele><time>2026-04-24T15:15:36.057Z</time></trkpt><trkpt lat="37.7942764" lon="15.1450771"><ele>607.0</ele><time>2026-04-24T15:15:37.057Z</time></trkpt><trkpt lat="37.7942426" lon="15.1449992"><ele>606.6666666666667</ele><time>2026-04-24T15:15:38.056Z</time></trkpt><trkpt lat="37.7942314" lon="15.1449152"><ele>606.3333333333334</ele><time>2026-04-24T15:15:39.056Z</time></trkpt><trkpt lat="37.7942483" lon="15.1448312"><ele>606.0</ele><time>2026-04-24T15:15:40.057Z</time></trkpt><trkpt lat="37.7942791" lon="15.1447544"><ele>605.6666666666666</ele><time>2026-04-24T15:15:41.056Z</time></trkpt><trkpt lat="37.7943685" lon="15.1446759"><ele>605.3333333333333</ele><time>2026-04-24T15:15:43.056Z</time></trkpt><trkpt lat="37.7944926" lon="15.1446581"><ele>605.0</ele><time>2026-04-24T15:15:45.057Z</time></trkpt><trkpt lat="37.7945612" lon="15.1446698"><ele>608.5</ele><time>2026-04-24T15:15:46.056Z</time></trkpt><trkpt lat="37.7946353" lon="15.1446841"><ele>612.0</ele><time>2026-04-24T15:15:47.056Z</time></trkpt><trkpt lat="37.7947124" lon="15.1447024"><ele>615.5</ele><time>2026-04-24T15:15:48.056Z</time></trkpt><trkpt lat="37.7947939" lon="15.1447224"><ele>619.0</ele><time>2026-04-24T15:15:49.056Z</time></trkpt><trkpt lat="37.7948763" lon="15.1447292"><ele>622.5</ele><time>2026-04-24T15:15:50.057Z</time></trkpt><trkpt lat="37.7949609" lon="15.1447165"><ele>626.0</ele><time>2026-04-24T15:15:51.056Z</time></trkpt><trkpt lat="37.7950471" lon="15.1446929"><ele>626.0</ele><time>2026-04-24T15:15:52.056Z</time></trkpt><trkpt lat="37.795137" lon="15.1446782"><ele>626.0</ele><time>2026-04-24T15:15:53.056Z</time></trkpt><trkpt lat="37.7952281" lon="15.1446781"><ele>626.0</ele><time>2026-04-24T15:15:54.057Z</time></trkpt><trkpt lat="37.7953185" lon="15.1446972"><ele>626.0</ele><time>2026-04-24T15:15:55.056Z</time></trkpt><trkpt lat="37.7954017" lon="15.1447435"><ele>626.0</ele><time>2026-04-24T15:15:56.056Z</time></trkpt><trkpt lat="37.7954808" lon="15.1448003"><ele>626.3333333333333</ele><time>2026-04-24T15:15:57.056Z</time></trkpt><trkpt lat="37.7955605" lon="15.1448502"><ele>626.6666666666666</ele><time>2026-04-24T15:15:58.056Z</time></trkpt><trkpt lat="37.7956384" lon="15.1448826"><ele>627.0</ele><time>2026-04-24T15:15:59.056Z</time></trkpt><trkpt lat="37.7957163" lon="15.1448961"><ele>627.3333333333334</ele><time>2026-04-24T15:16:00.056Z</time></trkpt><trkpt lat="37.7957987" lon="15.1448813"><ele>627.6666666666667</ele><time>2026-04-24T15:16:01.057Z</time></trkpt><trkpt lat="37.7958752" lon="15.1448441"><ele>628.0</ele><time>2026-04-24T15:16:02.056Z</time></trkpt><trkpt lat="37.795943" lon="15.1447777"><ele>628.0</ele><time>2026-04-24T15:16:03.056Z</time></trkpt><trkpt lat="37.7959948" lon="15.1446911"><ele>628.0</ele><time>2026-04-24T15:16:04.056Z</time></trkpt><trkpt lat="37.7960339" lon="15.1445908"><ele>628.0</ele><time>2026-04-24T15:16:05.057Z</time></trkpt><trkpt lat="37.7960681" lon="15.1444861"><ele>628.0</ele><time>2026-04-24T15:16:06.056Z</time></trkpt><trkpt lat="37.7961005" lon="15.1443797"><ele>628.0</ele><time>2026-04-24T15:16:07.056Z</time></trkpt><trkpt lat="37.7961344" lon="15.1442786"><ele>628.0</ele><time>2026-04-24T15:16:08.056Z</time></trkpt><trkpt lat="37.7961684" lon="15.1441772"><ele>628.3333333333334</ele><time>2026-04-24T15:16:09.057Z</time></trkpt><trkpt lat="37.7961971" lon="15.144076"><ele>628.6666666666667</ele><time>2026-04-24T15:16:10.056Z</time></trkpt><trkpt lat="37.796226" lon="15.1439784"><ele>629.0</ele><time>2026-04-24T15:16:11.056Z</time></trkpt><trkpt lat="37.7962569" lon="15.1438799"><ele>629.3333333333334</ele><time>2026-04-24T15:16:12.056Z</time></trkpt><trkpt lat="37.7962894" lon="15.1437811"><ele>629.6666666666666</ele><time>2026-04-24T15:16:13.056Z</time></trkpt><trkpt lat="37.7963318" lon="15.1436898"><ele>630.0</ele><time>2026-04-24T15:16:14.056Z</time></trkpt><trkpt lat="37.796391" lon="15.1436184"><ele>630.0</ele><time>2026-04-24T15:16:15.056Z</time></trkpt><trkpt lat="37.7964636" lon="15.1435685"><ele>630.0</ele><time>2026-04-24T15:16:16.057Z</time></trkpt><trkpt lat="37.7965433" lon="15.1435386"><ele>630.0</ele><time>2026-04-24T15:16:17.057Z</time></trkpt><trkpt lat="37.7966242" lon="15.1435144"><ele>630.0</ele><time>2026-04-24T15:16:18.057Z</time></trkpt><trkpt lat="37.796697" lon="15.1434827"><ele>630.0</ele><time>2026-04-24T15:16:19.056Z</time></trkpt><trkpt lat="37.7967581" lon="15.1434354"><ele>630.0</ele><time>2026-04-24T15:16:20.056Z</time></trkpt><trkpt lat="37.7968053" lon="15.1433724"><ele>630.8333333333334</ele><time>2026-04-24T15:16:21.056Z</time></trkpt><trkpt lat="37.7968382" lon="15.1432936"><ele>631.6666666666666</ele><time>2026-04-24T15:16:22.057Z</time></trkpt><trkpt lat="37.7968567" lon="15.1432022"><ele>632.5</ele><time>2026-04-24T15:16:23.057Z</time></trkpt><trkpt lat="37.7968674" lon="15.1430997"><ele>633.3333333333333</ele><time>2026-04-24T15:16:24.056Z</time></trkpt><trkpt lat="37.7968756" lon="15.1429948"><ele>634.1666666666666</ele><time>2026-04-24T15:16:25.056Z</time></trkpt><trkpt lat="37.7968936" lon="15.1428965"><ele>635.0</ele><time>2026-04-24T15:16:26.057Z</time></trkpt><trkpt lat="37.796929" lon="15.1428102"><ele>635.8571428571428</ele><time>2026-04-24T15:16:27.056Z</time></trkpt><trkpt lat="37.7969822" lon="15.1427439"><ele>636.7142857142857</ele><time>2026-04-24T15:16:28.056Z</time></trkpt><trkpt lat="37.7970504" lon="15.142705"><ele>637.5714285714286</ele><time>2026-04-24T15:16:29.056Z</time></trkpt><trkpt lat="37.7971236" lon="15.1426939"><ele>638.4285714285713</ele><time>2026-04-24T15:16:30.056Z</time></trkpt><trkpt lat="37.7971922" lon="15.1427139"><ele>639.2857142857142</ele><time>2026-04-24T15:16:31.057Z</time></trkpt><trkpt lat="37.7972506" lon="15.142764"><ele>640.1428571428571</ele><time>2026-04-24T15:16:32.056Z</time></trkpt><trkpt lat="37.7973" lon="15.1428354"><ele>641.0</ele><time>2026-04-24T15:16:33.057Z</time></trkpt><trkpt lat="37.797349" lon="15.1429152"><ele>641.0</ele><time>2026-04-24T15:16:34.056Z</time></trkpt><trkpt lat="37.7974016" lon="15.1429957"><ele>641.0</ele><time>2026-04-24T15:16:35.056Z</time></trkpt><trkpt lat="37.7974531" lon="15.1430605"><ele>641.0</ele><time>2026-04-24T15:16:36.057Z</time></trkpt><trkpt lat="37.7975007" lon="15.1431127"><ele>641.0</ele><time>2026-04-24T15:16:37.057Z</time></trkpt><trkpt lat="37.7975731" lon="15.1431734"><ele>641.0</ele><time>2026-04-24T15:16:39.057Z</time></trkpt><trkpt lat="37.7976401" lon="15.1431768"><ele>641.0</ele><time>2026-04-24T15:17:26.057Z</time></trkpt><trkpt lat="37.7977065" lon="15.1431438"><ele>641.0</ele><time>2026-04-24T15:17:28.056Z</time></trkpt><trkpt lat="37.7978062" lon="15.143115"><ele>641.6666666666666</ele><time>2026-04-24T15:17:30.056Z</time></trkpt><trkpt lat="37.797929" lon="15.1430896"><ele>642.3333333333333</ele><time>2026-04-24T15:17:32.056Z</time></trkpt><trkpt lat="37.7979979" lon="15.1430753"><ele>643.0</ele><time>2026-04-24T15:17:33.057Z</time></trkpt><trkpt lat="37.7980682" lon="15.1430604"><ele>643.6666666666666</ele><time>2026-04-24T15:17:34.057Z</time></trkpt><trkpt lat="37.7981321" lon="15.1430408"><ele>644.3333333333334</ele><time>2026-04-24T15:17:35.057Z</time></trkpt><trkpt lat="37.7982374" lon="15.1429804"><ele>645.0</ele><time>2026-04-24T15:17:37.057Z</time></trkpt><trkpt lat="37.7982867" lon="15.142929"><ele>645.0</ele><time>2026-04-24T15:17:38.056Z</time></trkpt><trkpt lat="37.7983315" lon="15.1428678"><ele>645.0</ele><time>2026-04-24T15:17:39.056Z</time></trkpt><trkpt lat="37.7983694" lon="15.1427936"><ele>645.0</ele><time>2026-04-24T15:17:40.056Z</time></trkpt><trkpt lat="37.798398" lon="15.1427033"><ele>645.0</ele><time>2026-04-24T15:17:41.057Z</time></trkpt><trkpt lat="37.7984212" lon="15.1426069"><ele>645.0</ele><time>2026-04-24T15:17:42.056Z</time></trkpt><trkpt lat="37.7984475" lon="15.14251"><ele>645.0</ele><time>2026-04-24T15:17:43.056Z</time></trkpt><trkpt lat="37.7984685" lon="15.1424133"><ele>646.6666666666666</ele><time>2026-04-24T15:17:44.056Z</time></trkpt><trkpt lat="37.7984872" lon="15.1423162"><ele>648.3333333333334</ele><time>2026-04-24T15:17:45.056Z</time></trkpt><trkpt lat="37.7985047" lon="15.1422257"><ele>650.0</ele><time>2026-04-24T15:17:46.056Z</time></trkpt><trkpt lat="37.7985083" lon="15.142135"><ele>651.6666666666667</ele><time>2026-04-24T15:17:47.056Z</time></trkpt><trkpt lat="37.7985005" lon="15.1420448"><ele>653.3333333333334</ele><time>2026-04-24T15:17:48.056Z</time></trkpt><trkpt lat="37.7984806" lon="15.1419647"><ele>655.0</ele><time>2026-04-24T15:17:49.057Z</time></trkpt><trkpt lat="37.7984017" lon="15.1418391"><ele>655.1666666666667</ele><time>2026-04-24T15:17:51.057Z</time></trkpt><trkpt lat="37.7983406" lon="15.141799"><ele>655.3333333333334</ele><time>2026-04-24T15:17:52.056Z</time></trkpt><trkpt lat="37.7982701" lon="15.1417751"><ele>655.5</ele><time>2026-04-24T15:17:53.056Z</time></trkpt><trkpt lat="37.798192" lon="15.1417541"><ele>655.6666666666666</ele><time>2026-04-24T15:17:54.057Z</time></trkpt><trkpt lat="37.7981103" lon="15.1417261"><ele>655.8333333333333</ele><time>2026-04-24T15:17:55.056Z</time></trkpt><trkpt lat="37.7980252" lon="15.1416912"><ele>656.0</ele><time>2026-04-24T15:17:56.056Z</time></trkpt><trkpt lat="37.7979379" lon="15.1416601"><ele>656.0</ele><time>2026-04-24T15:17:57.056Z</time></trkpt><trkpt lat="37.7978585" lon="15.1416346"><ele>656.0</ele><time>2026-04-24T15:17:58.057Z</time></trkpt><trkpt lat="37.7977787" lon="15.1416185"><ele>656.0</ele><time>2026-04-24T15:17:59.056Z</time></trkpt><trkpt lat="37.7976982" lon="15.1416286"><ele>656.0</ele><time>2026-04-24T15:18:00.057Z</time></trkpt><trkpt lat="37.797618" lon="15.1416679"><ele>656.0</ele><time>2026-04-24T15:18:01.057Z</time></trkpt><trkpt lat="37.7975382" lon="15.1417209"><ele>656.0</ele><time>2026-04-24T15:18:02.056Z</time></trkpt><trkpt lat="37.7974562" lon="15.1417715"><ele>655.8</ele><time>2026-04-24T15:18:03.056Z</time></trkpt><trkpt lat="37.797368" lon="15.1418166"><ele>655.5999999999999</ele><time>2026-04-24T15:18:04.056Z</time></trkpt><trkpt lat="37.7972765" lon="15.1418503"><ele>655.4</ele><time>2026-04-24T15:18:05.056Z</time></trkpt><trkpt lat="37.7971832" lon="15.1418665"><ele>655.2</ele><time>2026-04-24T15:18:06.056Z</time></trkpt><trkpt lat="37.7970872" lon="15.1418634"><ele>655.0</ele><time>2026-04-24T15:18:07.056Z</time></trkpt><trkpt lat="37.7969906" lon="15.141851"><ele>655.0</ele><time>2026-04-24T15:18:08.056Z</time></trkpt><trkpt lat="37.7968902" lon="15.1418397"><ele>655.0</ele><time>2026-04-24T15:18:09.056Z</time></trkpt><trkpt lat="37.7967874" lon="15.1418266"><ele>655.0</ele><time>2026-04-24T15:18:10.056Z</time></trkpt><trkpt lat="37.7966833" lon="15.1418112"><ele>655.0</ele><time>2026-04-24T15:18:11.056Z</time></trkpt><trkpt lat="37.7965806" lon="15.1417964"><ele>655.0</ele><time>2026-04-24T15:18:12.057Z</time></trkpt><trkpt lat="37.7964808" lon="15.1417815"><ele>657.0</ele><time>2026-04-24T15:18:13.057Z</time></trkpt><trkpt lat="37.7963836" lon="15.1417677"><ele>659.0</ele><time>2026-04-24T15:18:14.056Z</time></trkpt><trkpt lat="37.7962893" lon="15.1417679"><ele>661.0</ele><time>2026-04-24T15:18:15.056Z</time></trkpt><trkpt lat="37.7961963" lon="15.1417872"><ele>663.0</ele><time>2026-04-24T15:18:16.056Z</time></trkpt><trkpt lat="37.796101" lon="15.1418354"><ele>665.0</ele><time>2026-04-24T15:18:17.056Z</time></trkpt><trkpt lat="37.7960101" lon="15.1418963"><ele>667.2</ele><time>2026-04-24T15:18:18.056Z</time></trkpt><trkpt lat="37.7959187" lon="15.1419712"><ele>669.4</ele><time>2026-04-24T15:18:19.056Z</time></trkpt><trkpt lat="37.7958263" lon="15.1420454"><ele>671.5999999999999</ele><time>2026-04-24T15:18:20.056Z</time></trkpt><trkpt lat="37.7957294" lon="15.1421105"><ele>673.8</ele><time>2026-04-24T15:18:21.056Z</time></trkpt><trkpt lat="37.7956264" lon="15.14216"><ele>676.0</ele><time>2026-04-24T15:18:22.056Z</time></trkpt><trkpt lat="37.7955155" lon="15.1421974"><ele>676.0</ele><time>2026-04-24T15:18:23.056Z</time></trkpt><trkpt lat="37.7954049" lon="15.1422328"><ele>676.0</ele><time>2026-04-24T15:18:24.057Z</time></trkpt><trkpt lat="37.7953042" lon="15.1422672"><ele>676.0</ele><time>2026-04-24T15:18:25.056Z</time></trkpt><trkpt lat="37.7952018" lon="15.1423011"><ele>676.0</ele><time>2026-04-24T15:18:26.056Z</time></trkpt><trkpt lat="37.7950991" lon="15.1423418"><ele>676.0</ele><time>2026-04-24T15:18:27.057Z</time></trkpt><trkpt lat="37.7949951" lon="15.1423958"><ele>675.25</ele><time>2026-04-24T15:18:28.056Z</time></trkpt><trkpt lat="37.7948917" lon="15.1424626"><ele>674.5</ele><time>2026-04-24T15:18:29.056Z</time></trkpt><trkpt lat="37.7947886" lon="15.1425336"><ele>673.75</ele><time>2026-04-24T15:18:30.056Z</time></trkpt><trkpt lat="37.7946871" lon="15.1426066"><ele>673.0</ele><time>2026-04-24T15:18:31.056Z</time></trkpt><trkpt lat="37.7945926" lon="15.1426722"><ele>673.0</ele><time>2026-04-24T15:18:32.057Z</time></trkpt><trkpt lat="37.7945064" lon="15.1427336"><ele>673.0</ele><time>2026-04-24T15:18:33.056Z</time></trkpt><trkpt lat="37.7944223" lon="15.142792"><ele>673.0</ele><time>2026-04-24T15:18:34.056Z</time></trkpt><trkpt lat="37.7943412" lon="15.1428467"><ele>673.0</ele><time>2026-04-24T15:18:35.056Z</time></trkpt><trkpt lat="37.7942642" lon="15.1428927"><ele>673.0</ele><time>2026-04-24T15:18:36.056Z</time></trkpt><trkpt lat="37.7941902" lon="15.1429348"><ele>674.1666666666667</ele><time>2026-04-24T15:18:37.057Z</time></trkpt><trkpt lat="37.7941199" lon="15.1429616"><ele>675.3333333333334</ele><time>2026-04-24T15:18:38.056Z</time></trkpt><trkpt lat="37.7940483" lon="15.1429758"><ele>676.5</ele><time>2026-04-24T15:18:39.056Z</time></trkpt><trkpt lat="37.7939689" lon="15.1429788"><ele>677.6666666666666</ele><time>2026-04-24T15:18:40.056Z</time></trkpt><trkpt lat="37.7938911" lon="15.1429719"><ele>678.8333333333333</ele><time>2026-04-24T15:18:41.056Z</time></trkpt><trkpt lat="37.7938114" lon="15.1429643"><ele>680.0</ele><time>2026-04-24T15:18:42.057Z</time></trkpt><trkpt lat="37.7937269" lon="15.1429562"><ele>680.0</ele><time>2026-04-24T15:18:43.057Z</time></trkpt><trkpt lat="37.7936412" lon="15.1429426"><ele>680.0</ele><time>2026-04-24T15:18:44.056Z</time></trkpt><trkpt lat="37.793557" lon="15.1429241"><ele>680.0</ele><time>2026-04-24T15:18:45.056Z</time></trkpt><trkpt lat="37.7934724" lon="15.1428998"><ele>680.0</ele><time>2026-04-24T15:18:46.056Z</time></trkpt><trkpt lat="37.7933897" lon="15.1428692"><ele>680.0</ele><time>2026-04-24T15:18:47.056Z</time></trkpt><trkpt lat="37.7933079" lon="15.1428278"><ele>680.0</ele><time>2026-04-24T15:18:48.056Z</time></trkpt><trkpt lat="37.793228" lon="15.142776"><ele>681.0</ele><time>2026-04-24T15:18:49.056Z</time></trkpt><trkpt lat="37.7931514" lon="15.1427247"><ele>682.0</ele><time>2026-04-24T15:18:50.056Z</time></trkpt><trkpt lat="37.793078" lon="15.142674"><ele>683.0</ele><time>2026-04-24T15:18:51.056Z</time></trkpt><trkpt lat="37.793009" lon="15.1426221"><ele>684.0</ele><time>2026-04-24T15:18:52.057Z</time></trkpt><trkpt lat="37.7929473" lon="15.1425586"><ele>685.0</ele><time>2026-04-24T15:18:53.057Z</time></trkpt><trkpt lat="37.7928987" lon="15.1424797"><ele>686.0</ele><time>2026-04-24T15:18:54.056Z</time></trkpt><trkpt lat="37.7928703" lon="15.1423967"><ele>687.0</ele><time>2026-04-24T15:18:55.056Z</time></trkpt><trkpt lat="37.7928626" lon="15.1423089"><ele>688.0</ele><time>2026-04-24T15:18:56.057Z</time></trkpt><trkpt lat="37.7928709" lon="15.1422147"><ele>689.0</ele><time>2026-04-24T15:18:57.056Z</time></trkpt><trkpt lat="37.7928873" lon="15.1421142"><ele>690.0</ele><time>2026-04-24T15:18:58.056Z</time></trkpt><trkpt lat="37.7929098" lon="15.1420102"><ele>691.0</ele><time>2026-04-24T15:18:59.056Z</time></trkpt><trkpt lat="37.792935" lon="15.1419016"><ele>692.0</ele><time>2026-04-24T15:19:00.057Z</time></trkpt><trkpt lat="37.7929659" lon="15.1417935"><ele>692.0</ele><time>2026-04-24T15:19:01.057Z</time></trkpt><trkpt lat="37.7930041" lon="15.1416835"><ele>692.0</ele><time>2026-04-24T15:19:02.056Z</time></trkpt><trkpt lat="37.7930481" lon="15.1415736"><ele>692.0</ele><time>2026-04-24T15:19:03.057Z</time></trkpt><trkpt lat="37.7930974" lon="15.1414612"><ele>692.0</ele><time>2026-04-24T15:19:04.056Z</time></trkpt><trkpt lat="37.7931503" lon="15.141346"><ele>692.0</ele><time>2026-04-24T15:19:05.056Z</time></trkpt><trkpt lat="37.7932068" lon="15.14123"><ele>692.0</ele><time>2026-04-24T15:19:06.056Z</time></trkpt><trkpt lat="37.7932639" lon="15.1411124"><ele>692.0</ele><time>2026-04-24T15:19:07.056Z</time></trkpt><trkpt lat="37.7933185" lon="15.1409913"><ele>692.0</ele><time>2026-04-24T15:19:08.056Z</time></trkpt><trkpt lat="37.793375" lon="15.1408695"><ele>692.0</ele><time>2026-04-24T15:19:09.056Z</time></trkpt><trkpt lat="37.7934313" lon="15.1407513"><ele>692.0</ele><time>2026-04-24T15:19:10.056Z</time></trkpt><trkpt lat="37.7934873" lon="15.1406375"><ele>693.8</ele><time>2026-04-24T15:19:11.056Z</time></trkpt><trkpt lat="37.7935482" lon="15.1405372"><ele>695.6</ele><time>2026-04-24T15:19:12.056Z</time></trkpt><trkpt lat="37.7936169" lon="15.1404439"><ele>697.4</ele><time>2026-04-24T15:19:13.057Z</time></trkpt><trkpt lat="37.7936879" lon="15.14035"><ele>699.1999999999999</ele><time>2026-04-24T15:19:14.056Z</time></trkpt><trkpt lat="37.7937619" lon="15.1402551"><ele>701.0</ele><time>2026-04-24T15:19:15.057Z</time></trkpt><trkpt lat="37.7938368" lon="15.14016"><ele>701.0</ele><time>2026-04-24T15:19:16.056Z</time></trkpt><trkpt lat="37.7939127" lon="15.1400626"><ele>701.0</ele><time>2026-04-24T15:19:17.057Z</time></trkpt><trkpt lat="37.7939869" lon="15.1399617"><ele>701.0</ele><time>2026-04-24T15:19:18.057Z</time></trkpt><trkpt lat="37.7940634" lon="15.1398582"><ele>701.0</ele><time>2026-04-24T15:19:19.056Z</time></trkpt><trkpt lat="37.794142" lon="15.1397573"><ele>701.0</ele><time>2026-04-24T15:19:20.056Z</time></trkpt><trkpt lat="37.7942199" lon="15.1396582"><ele>703.1999999999999</ele><time>2026-04-24T15:19:21.056Z</time></trkpt><trkpt lat="37.7942918" lon="15.1395565"><ele>705.4</ele><time>2026-04-24T15:19:22.056Z</time></trkpt><trkpt lat="37.7943566" lon="15.1394617"><ele>707.6</ele><time>2026-04-24T15:19:23.057Z</time></trkpt><trkpt lat="37.7944192" lon="15.139382"><ele>709.8</ele><time>2026-04-24T15:19:24.056Z</time></trkpt><trkpt lat="37.7944846" lon="15.1393267"><ele>712.0</ele><time>2026-04-24T15:19:25.056Z</time></trkpt><trkpt lat="37.7945577" lon="15.1393033"><ele>712.0</ele><time>2026-04-24T15:19:26.056Z</time></trkpt><trkpt lat="37.7946309" lon="15.1393092"><ele>712.0</ele><time>2026-04-24T15:19:27.056Z</time></trkpt><trkpt lat="37.7947034" lon="15.1393341"><ele>712.0</ele><time>2026-04-24T15:19:28.056Z</time></trkpt><trkpt lat="37.7947793" lon="15.1393693"><ele>712.0</ele><time>2026-04-24T15:19:29.057Z</time></trkpt><trkpt lat="37.7948609" lon="15.1393959"><ele>712.0</ele><time>2026-04-24T15:19:30.056Z</time></trkpt><trkpt lat="37.794939" lon="15.1393931"><ele>712.0</ele><time>2026-04-24T15:19:31.056Z</time></trkpt><trkpt lat="37.7950058" lon="15.1393669"><ele>711.9999999999999</ele><time>2026-04-24T15:19:32.057Z</time></trkpt><trkpt lat="37.7950596" lon="15.1393227"><ele>712.0</ele><time>2026-04-24T15:19:33.057Z</time></trkpt><trkpt lat="37.7951017" lon="15.1392592"><ele>712.0</ele><time>2026-04-24T15:19:34.056Z</time></trkpt><trkpt lat="37.7951278" lon="15.1391786"><ele>712.0</ele><time>2026-04-24T15:19:35.056Z</time></trkpt><trkpt lat="37.7951391" lon="15.1390887"><ele>712.0</ele><time>2026-04-24T15:19:36.056Z</time></trkpt><trkpt lat="37.7951287" lon="15.1390006"><ele>711.9999999999999</ele><time>2026-04-24T15:19:37.056Z</time></trkpt><trkpt lat="37.7951003" lon="15.1389198"><ele>712.0</ele><time>2026-04-24T15:19:38.056Z</time></trkpt><trkpt lat="37.7950467" lon="15.1388526"><ele>715.0</ele><time>2026-04-24T15:19:39.056Z</time></trkpt><trkpt lat="37.7949781" lon="15.1388116"><ele>718.0</ele><time>2026-04-24T15:19:40.057Z</time></trkpt><trkpt lat="37.7949007" lon="15.138802"><ele>721.0</ele><time>2026-04-24T15:19:41.056Z</time></trkpt><trkpt lat="37.7948172" lon="15.1388166"><ele>724.0</ele><time>2026-04-24T15:19:42.056Z</time></trkpt><trkpt lat="37.794726" lon="15.1388399"><ele>727.0</ele><time>2026-04-24T15:19:43.057Z</time></trkpt><trkpt lat="37.7946294" lon="15.13886"><ele>730.0</ele><time>2026-04-24T15:19:44.056Z</time></trkpt><trkpt lat="37.7945268" lon="15.1388752"><ele>730.0</ele><time>2026-04-24T15:19:45.056Z</time></trkpt><trkpt lat="37.794423" lon="15.1388903"><ele>730.0</ele><time>2026-04-24T15:19:46.057Z</time></trkpt><trkpt lat="37.7943165" lon="15.1389008"><ele>730.0</ele><time>2026-04-24T15:19:47.057Z</time></trkpt><trkpt lat="37.7942192" lon="15.1389088"><ele>730.0</ele><time>2026-04-24T15:19:48.056Z</time></trkpt><trkpt lat="37.7941271" lon="15.1389118"><ele>730.0</ele><time>2026-04-24T15:19:49.057Z</time></trkpt><trkpt lat="37.7940463" lon="15.1389037"><ele>730.0</ele><time>2026-04-24T15:19:50.056Z</time></trkpt><trkpt lat="37.7939805" lon="15.1388721"><ele>730.0</ele><time>2026-04-24T15:19:51.057Z</time></trkpt><trkpt lat="37.7939245" lon="15.1388221"><ele>730.0</ele><time>2026-04-24T15:19:52.056Z</time></trkpt><trkpt lat="37.7938769" lon="15.1387567"><ele>730.0</ele><time>2026-04-24T15:19:53.056Z</time></trkpt><trkpt lat="37.7938278" lon="15.138682"><ele>730.0</ele><time>2026-04-24T15:19:54.056Z</time></trkpt><trkpt lat="37.7937755" lon="15.1386"><ele>730.0</ele><time>2026-04-24T15:19:55.057Z</time></trkpt><trkpt lat="37.7937115" lon="15.1385272"><ele>730.0</ele><time>2026-04-24T15:19:56.056Z</time></trkpt><trkpt lat="37.7936349" lon="15.1384798"><ele>730.0</ele><time>2026-04-24T15:19:57.056Z</time></trkpt><trkpt lat="37.7935499" lon="15.1384593"><ele>730.0</ele><time>2026-04-24T15:19:58.056Z</time></trkpt><trkpt lat="37.7934581" lon="15.1384573"><ele>730.0</ele><time>2026-04-24T15:19:59.057Z</time></trkpt><trkpt lat="37.7933663" lon="15.1384598"><ele>730.0</ele><time>2026-04-24T15:20:00.056Z</time></trkpt><trkpt lat="37.7932777" lon="15.1384546"><ele>730.0</ele><time>2026-04-24T15:20:01.057Z</time></trkpt><trkpt lat="37.7931946" lon="15.1384326"><ele>729.7142857142858</ele><time>2026-04-24T15:20:02.056Z</time></trkpt><trkpt lat="37.7931176" lon="15.1383956"><ele>729.4285714285714</ele><time>2026-04-24T15:20:03.057Z</time></trkpt><trkpt lat="37.7930484" lon="15.1383601"><ele>729.1428571428571</ele><time>2026-04-24T15:20:04.056Z</time></trkpt><trkpt lat="37.7929812" lon="15.1383412"><ele>728.8571428571429</ele><time>2026-04-24T15:20:05.056Z</time></trkpt><trkpt lat="37.792912" lon="15.1383425"><ele>728.5714285714286</ele><time>2026-04-24T15:20:06.056Z</time></trkpt><trkpt lat="37.7928398" lon="15.1383562"><ele>728.2857142857143</ele><time>2026-04-24T15:20:07.056Z</time></trkpt><trkpt lat="37.7927736" lon="15.1383748"><ele>728.0</ele><time>2026-04-24T15:20:08.056Z</time></trkpt><trkpt lat="37.7927114" lon="15.1383938"><ele>728.0</ele><time>2026-04-24T15:20:09.057Z</time></trkpt><trkpt lat="37.7925951" lon="15.138434"><ele>728.0</ele><time>2026-04-24T15:20:11.056Z</time></trkpt><trkpt lat="37.792471" lon="15.1384701"><ele>728.0</ele><time>2026-04-24T15:20:13.056Z</time></trkpt><trkpt lat="37.792404" lon="15.1384928"><ele>728.0</ele><time>2026-04-24T15:20:14.056Z</time></trkpt><trkpt lat="37.7923326" lon="15.138514"><ele>728.0</ele><time>2026-04-24T15:20:15.056Z</time></trkpt><trkpt lat="37.7922577" lon="15.1385308"><ele>728.0</ele><time>2026-04-24T15:20:16.056Z</time></trkpt><trkpt lat="37.7921811" lon="15.1385284"><ele>728.0</ele><time>2026-04-24T15:20:17.056Z</time></trkpt><trkpt lat="37.7921061" lon="15.1385077"><ele>728.0</ele><time>2026-04-24T15:20:18.056Z</time></trkpt><trkpt lat="37.7920343" lon="15.1384681"><ele>728.0</ele><time>2026-04-24T15:20:19.056Z</time></trkpt><trkpt lat="37.7919643" lon="15.13842"><ele>728.0</ele><time>2026-04-24T15:20:20.056Z</time></trkpt><trkpt lat="37.7918928" lon="15.1383678"><ele>728.0</ele><time>2026-04-24T15:20:21.057Z</time></trkpt><trkpt lat="37.791819" lon="15.1383131"><ele>728.5</ele><time>2026-04-24T15:20:22.056Z</time></trkpt><trkpt lat="37.7917462" lon="15.1382596"><ele>729.0</ele><time>2026-04-24T15:20:23.057Z</time></trkpt><trkpt lat="37.791675" lon="15.1382088"><ele>729.5</ele><time>2026-04-24T15:20:24.056Z</time></trkpt><trkpt lat="37.7916117" lon="15.1381628"><ele>730.0</ele><time>2026-04-24T15:20:25.057Z</time></trkpt><trkpt lat="37.7915311" lon="15.1380904"><ele>730.5</ele><time>2026-04-24T15:20:27.057Z</time></trkpt><trkpt lat="37.7915121" lon="15.1380131"><ele>731.0</ele><time>2026-04-24T15:20:31.056Z</time></trkpt><trkpt lat="37.7914847" lon="15.1379399"><ele>733.5999999999999</ele><time>2026-04-24T15:21:27.056Z</time></trkpt><trkpt lat="37.7915532" lon="15.1378459"><ele>736.2</ele><time>2026-04-24T15:21:30.057Z</time></trkpt><trkpt lat="37.7916271" lon="15.1377914"><ele>738.8</ele><time>2026-04-24T15:21:32.057Z</time></trkpt><trkpt lat="37.7917029" lon="15.1377334"><ele>741.4000000000001</ele><time>2026-04-24T15:21:34.057Z</time></trkpt><trkpt lat="37.7917822" lon="15.1376783"><ele>744.0</ele><time>2026-04-24T15:21:36.057Z</time></trkpt><trkpt lat="37.7918662" lon="15.1376436"><ele>744.0</ele><time>2026-04-24T15:21:38.056Z</time></trkpt><trkpt lat="37.7919549" lon="15.1376209"><ele>744.0</ele><time>2026-04-24T15:21:40.056Z</time></trkpt><trkpt lat="37.7920444" lon="15.1376011"><ele>744.0</ele><time>2026-04-24T15:21:42.056Z</time></trkpt><trkpt lat="37.7921157" lon="15.1375837"><ele>744.0</ele><time>2026-04-24T15:21:44.056Z</time></trkpt><trkpt lat="37.7921588" lon="15.1375251"><ele>744.0</ele><time>2026-04-24T15:21:54.056Z</time></trkpt><trkpt lat="37.7921412" lon="15.1374011"><ele>744.0</ele><time>2026-04-24T15:21:57.056Z</time></trkpt><trkpt lat="37.7921629" lon="15.1372975"><ele>746.1666666666666</ele><time>2026-04-24T15:22:00.057Z</time></trkpt><trkpt lat="37.7922192" lon="15.1372341"><ele>748.3333333333334</ele><time>2026-04-24T15:22:02.057Z</time></trkpt><trkpt lat="37.7922857" lon="15.1371861"><ele>750.5</ele><time>2026-04-24T15:22:05.056Z</time></trkpt><trkpt lat="37.7923626" lon="15.1372138"><ele>752.6666666666667</ele><time>2026-04-24T15:22:08.056Z</time></trkpt><trkpt lat="37.7924218" lon="15.1372546"><ele>754.8333333333334</ele><time>2026-04-24T15:22:10.056Z</time></trkpt><trkpt lat="37.7924849" lon="15.137296"><ele>757.0</ele><time>2026-04-24T15:22:12.056Z</time></trkpt><trkpt lat="37.7925596" lon="15.137334"><ele>757.0</ele><time>2026-04-24T15:22:14.056Z</time></trkpt><trkpt lat="37.7926426" lon="15.1373731"><ele>757.0</ele><time>2026-04-24T15:22:16.056Z</time></trkpt><trkpt lat="37.7927364" lon="15.1374044"><ele>757.0</ele><time>2026-04-24T15:22:18.057Z</time></trkpt><trkpt lat="37.7928378" lon="15.1374143"><ele>757.0</ele><time>2026-04-24T15:22:20.056Z</time></trkpt><trkpt lat="37.7929335" lon="15.1374132"><ele>757.0</ele><time>2026-04-24T15:22:22.056Z</time></trkpt><trkpt lat="37.7930215" lon="15.1374171"><ele>755.0</ele><time>2026-04-24T15:22:24.057Z</time></trkpt><trkpt lat="37.7930923" lon="15.1374221"><ele>753.0</ele><time>2026-04-24T15:22:26.056Z</time></trkpt><trkpt lat="37.7931468" lon="15.1374627"><ele>751.0</ele><time>2026-04-24T15:23:34.056Z</time></trkpt><trkpt lat="37.7930845" lon="15.1374432"><ele>749.0</ele><time>2026-04-24T15:24:07.057Z</time></trkpt><trkpt lat="37.7930208" lon="15.1374238"><ele>747.0</ele><time>2026-04-24T15:24:18.056Z</time></trkpt><trkpt lat="37.7929523" lon="15.1374229"><ele>745.0</ele><time>2026-04-24T15:24:20.057Z</time></trkpt><trkpt lat="37.7928625" lon="15.1374115"><ele>743.0</ele><time>2026-04-24T15:24:22.056Z</time></trkpt><trkpt lat="37.7927811" lon="15.1374052"><ele>743.0</ele><time>2026-04-24T15:24:24.056Z</time></trkpt><trkpt lat="37.7927042" lon="15.1373905"><ele>743.0</ele><time>2026-04-24T15:24:26.057Z</time></trkpt><trkpt lat="37.7926251" lon="15.137359"><ele>743.0</ele><time>2026-04-24T15:24:28.056Z</time></trkpt><trkpt lat="37.7925449" lon="15.1373252"><ele>743.0</ele><time>2026-04-24T15:24:30.057Z</time></trkpt><trkpt lat="37.792468" lon="15.1372821"><ele>743.0</ele><time>2026-04-24T15:24:32.057Z</time></trkpt><trkpt lat="37.7923968" lon="15.1372359"><ele>743.0</ele><time>2026-04-24T15:24:34.056Z</time></trkpt><trkpt lat="37.7923417" lon="15.1371964"><ele>743.1666666666666</ele><time>2026-04-24T15:24:36.056Z</time></trkpt><trkpt lat="37.7922612" lon="15.1371908"><ele>743.3333333333333</ele><time>2026-04-24T15:24:39.056Z</time></trkpt><trkpt lat="37.792187" lon="15.1372636"><ele>743.5</ele><time>2026-04-24T15:24:42.056Z</time></trkpt><trkpt lat="37.7921391" lon="15.1373215"><ele>743.6666666666666</ele><time>2026-04-24T15:24:44.056Z</time></trkpt><trkpt lat="37.792131" lon="15.1374353"><ele>743.8333333333334</ele><time>2026-04-24T15:24:47.056Z</time></trkpt><trkpt lat="37.792151" lon="15.1375267"><ele>744.0</ele><time>2026-04-24T15:24:50.056Z</time></trkpt><trkpt lat="37.7921034" lon="15.1375923"><ele>744.0</ele><time>2026-04-24T15:24:54.056Z</time></trkpt><trkpt lat="37.7920389" lon="15.1376004"><ele>744.0</ele><time>2026-04-24T15:24:57.057Z</time></trkpt><trkpt lat="37.7919688" lon="15.1376193"><ele>744.0</ele><time>2026-04-24T15:24:59.056Z</time></trkpt><trkpt lat="37.7918831" lon="15.1376428"><ele>744.0</ele><time>2026-04-24T15:25:01.056Z</time></trkpt><trkpt lat="37.791795" lon="15.1376757"><ele>744.0</ele><time>2026-04-24T15:25:03.057Z</time></trkpt><trkpt lat="37.7917117" lon="15.1377273"><ele>744.0</ele><time>2026-04-24T15:25:05.056Z</time></trkpt><trkpt lat="37.7916331" lon="15.1377861"><ele>744.0</ele><time>2026-04-24T15:25:07.056Z</time></trkpt><trkpt lat="37.7915636" lon="15.1378489"><ele>744.0</ele><time>2026-04-24T15:25:09.056Z</time></trkpt><trkpt lat="37.7915028" lon="15.1379095"><ele>744.0</ele><time>2026-04-24T15:25:11.056Z</time></trkpt><trkpt lat="37.7914612" lon="15.1379824"><ele>744.0</ele><time>2026-04-24T15:25:13.057Z</time></trkpt><trkpt lat="37.791475" lon="15.138077"><ele>744.0</ele><time>2026-04-24T15:25:17.056Z</time></trkpt><trkpt lat="37.7915281" lon="15.1381389"><ele>744.0</ele><time>2026-04-24T15:25:19.057Z</time></trkpt><trkpt lat="37.7916179" lon="15.1382135"><ele>741.8333333333334</ele><time>2026-04-24T15:25:21.056Z</time></trkpt><trkpt lat="37.791725" lon="15.1382992"><ele>739.6666666666666</ele><time>2026-04-24T15:25:23.056Z</time></trkpt><trkpt lat="37.7917824" lon="15.1383461"><ele>737.5</ele><time>2026-04-24T15:25:24.056Z</time></trkpt><trkpt lat="37.7918382" lon="15.1383869"><ele>735.3333333333333</ele><time>2026-04-24T15:25:25.056Z</time></trkpt><trkpt lat="37.7918933" lon="15.1384275"><ele>733.1666666666666</ele><time>2026-04-24T15:25:26.057Z</time></trkpt><trkpt lat="37.7919503" lon="15.1384707"><ele>731.0</ele><time>2026-04-24T15:25:27.057Z</time></trkpt><trkpt lat="37.7920088" lon="15.1385138"><ele>730.5</ele><time>2026-04-24T15:25:28.056Z</time></trkpt><trkpt lat="37.7920701" lon="15.1385468"><ele>730.0</ele><time>2026-04-24T15:25:29.057Z</time></trkpt><trkpt lat="37.7921416" lon="15.1385666"><ele>729.5</ele><time>2026-04-24T15:25:30.057Z</time></trkpt><trkpt lat="37.792219" lon="15.1385695"><ele>729.0</ele><time>2026-04-24T15:25:31.057Z</time></trkpt><trkpt lat="37.7923034" lon="15.1385557"><ele>728.5</ele><time>2026-04-24T15:25:32.057Z</time></trkpt><trkpt lat="37.7923899" lon="15.1385302"><ele>728.0</ele><time>2026-04-24T15:25:33.056Z</time></trkpt><trkpt lat="37.7924784" lon="15.1385013"><ele>728.0</ele><time>2026-04-24T15:25:34.056Z</time></trkpt><trkpt lat="37.7925713" lon="15.1384748"><ele>728.0</ele><time>2026-04-24T15:25:35.056Z</time></trkpt><trkpt lat="37.7926595" lon="15.1384469"><ele>728.0</ele><time>2026-04-24T15:25:36.056Z</time></trkpt><trkpt lat="37.7927429" lon="15.138422"><ele>728.0</ele><time>2026-04-24T15:25:37.056Z</time></trkpt><trkpt lat="37.7928213" lon="15.1383953"><ele>728.0</ele><time>2026-04-24T15:25:38.057Z</time></trkpt><trkpt lat="37.7928915" lon="15.1383766"><ele>728.0</ele><time>2026-04-24T15:25:39.057Z</time></trkpt><trkpt lat="37.7929545" lon="15.1383701"><ele>728.0</ele><time>2026-04-24T15:25:40.056Z</time></trkpt><trkpt lat="37.7930624" lon="15.1384014"><ele>728.0</ele><time>2026-04-24T15:25:42.056Z</time></trkpt><trkpt lat="37.79312" lon="15.1384359"><ele>728.0</ele><time>2026-04-24T15:25:43.057Z</time></trkpt><trkpt lat="37.7931877" lon="15.1384614"><ele>728.0</ele><time>2026-04-24T15:25:44.056Z</time></trkpt><trkpt lat="37.7932639" lon="15.1384756"><ele>728.0</ele><time>2026-04-24T15:25:45.056Z</time></trkpt><trkpt lat="37.7933471" lon="15.1384843"><ele>728.0</ele><time>2026-04-24T15:25:46.057Z</time></trkpt><trkpt lat="37.7934289" lon="15.1384909"><ele>728.3333333333333</ele><time>2026-04-24T15:25:47.057Z</time></trkpt><trkpt lat="37.7935063" lon="15.1384968"><ele>728.6666666666666</ele><time>2026-04-24T15:25:48.056Z</time></trkpt><trkpt lat="37.7935802" lon="15.1385054"><ele>729.0</ele><time>2026-04-24T15:25:49.056Z</time></trkpt><trkpt lat="37.7936507" lon="15.138531"><ele>729.3333333333334</ele><time>2026-04-24T15:25:50.056Z</time></trkpt><trkpt lat="37.7937147" lon="15.1385771"><ele>729.6666666666667</ele><time>2026-04-24T15:25:51.056Z</time></trkpt><trkpt lat="37.793767" lon="15.1386446"><ele>730.0</ele><time>2026-04-24T15:25:52.056Z</time></trkpt><trkpt lat="37.7938133" lon="15.1387212"><ele>730.0000000000001</ele><time>2026-04-24T15:25:53.056Z</time></trkpt><trkpt lat="37.793858" lon="15.1387981"><ele>730.0</ele><time>2026-04-24T15:25:54.056Z</time></trkpt><trkpt lat="37.7939084" lon="15.1388608"><ele>730.0</ele><time>2026-04-24T15:25:55.056Z</time></trkpt><trkpt lat="37.7939665" lon="15.1389116"><ele>730.0</ele><time>2026-04-24T15:25:56.056Z</time></trkpt><trkpt lat="37.7940367" lon="15.1389359"><ele>730.0</ele><time>2026-04-24T15:25:57.057Z</time></trkpt><trkpt lat="37.7941124" lon="15.1389431"><ele>730.0000000000001</ele><time>2026-04-24T15:25:58.056Z</time></trkpt><trkpt lat="37.7941916" lon="15.1389394"><ele>730.0</ele><time>2026-04-24T15:25:59.056Z</time></trkpt><trkpt lat="37.7942769" lon="15.1389334"><ele>730.0</ele><time>2026-04-24T15:26:00.057Z</time></trkpt><trkpt lat="37.7943667" lon="15.138927"><ele>730.0</ele><time>2026-04-24T15:26:01.056Z</time></trkpt><trkpt lat="37.7944604" lon="15.1389174"><ele>730.0</ele><time>2026-04-24T15:26:02.056Z</time></trkpt><trkpt lat="37.7945548" lon="15.1389046"><ele>730.0</ele><time>2026-04-24T15:26:03.057Z</time></trkpt><trkpt lat="37.7946456" lon="15.1388864"><ele>730.0</ele><time>2026-04-24T15:26:04.057Z</time></trkpt><trkpt lat="37.794732" lon="15.1388673"><ele>730.0</ele><time>2026-04-24T15:26:05.056Z</time></trkpt><trkpt lat="37.7948144" lon="15.1388463"><ele>730.0</ele><time>2026-04-24T15:26:06.057Z</time></trkpt><trkpt lat="37.7948892" lon="15.1388347"><ele>730.0</ele><time>2026-04-24T15:26:07.056Z</time></trkpt><trkpt lat="37.7949574" lon="15.1388413"><ele>730.0</ele><time>2026-04-24T15:26:08.056Z</time></trkpt><trkpt lat="37.7950178" lon="15.1388724"><ele>730.0</ele><time>2026-04-24T15:26:09.056Z</time></trkpt><trkpt lat="37.7950992" lon="15.1389924"><ele>730.0</ele><time>2026-04-24T15:26:11.056Z</time></trkpt><trkpt lat="37.7951156" lon="15.1390736"><ele>727.4285714285714</ele><time>2026-04-24T15:26:12.056Z</time></trkpt><trkpt lat="37.7951108" lon="15.1391545"><ele>724.8571428571429</ele><time>2026-04-24T15:26:13.057Z</time></trkpt><trkpt lat="37.7950864" lon="15.1392329"><ele>722.2857142857142</ele><time>2026-04-24T15:26:14.056Z</time></trkpt><trkpt lat="37.7950481" lon="15.1392991"><ele>719.7142857142858</ele><time>2026-04-24T15:26:15.056Z</time></trkpt><trkpt lat="37.794992" lon="15.1393495"><ele>717.1428571428571</ele><time>2026-04-24T15:26:16.057Z</time></trkpt><trkpt lat="37.7949276" lon="15.1393757"><ele>714.5714285714286</ele><time>2026-04-24T15:26:17.056Z</time></trkpt><trkpt lat="37.7948614" lon="15.139376"><ele>712.0</ele><time>2026-04-24T15:26:18.056Z</time></trkpt><trkpt lat="37.7947967" lon="15.1393581"><ele>711.9999999999999</ele><time>2026-04-24T15:26:19.056Z</time></trkpt><trkpt lat="37.7947295" lon="15.1393296"><ele>712.0</ele><time>2026-04-24T15:26:20.056Z</time></trkpt><trkpt lat="37.7946583" lon="15.1392968"><ele>712.0</ele><time>2026-04-24T15:26:21.056Z</time></trkpt><trkpt lat="37.794582" lon="15.1392808"><ele>712.0</ele><time>2026-04-24T15:26:22.057Z</time></trkpt><trkpt lat="37.7945096" lon="15.1392915"><ele>712.0</ele><time>2026-04-24T15:26:23.056Z</time></trkpt><trkpt lat="37.7944456" lon="15.1393338"><ele>711.9999999999999</ele><time>2026-04-24T15:26:24.057Z</time></trkpt><trkpt lat="37.7943885" lon="15.1393962"><ele>712.0</ele><time>2026-04-24T15:26:25.057Z</time></trkpt><trkpt lat="37.7943315" lon="15.1394746"><ele>712.2</ele><time>2026-04-24T15:26:26.056Z</time></trkpt><trkpt lat="37.7942677" lon="15.1395591"><ele>712.4000000000001</ele><time>2026-04-24T15:26:27.056Z</time></trkpt><trkpt lat="37.7942005" lon="15.1396442"><ele>712.5999999999999</ele><time>2026-04-24T15:26:28.056Z</time></trkpt><trkpt lat="37.7941295" lon="15.1397378"><ele>712.8</ele><time>2026-04-24T15:26:29.056Z</time></trkpt><trkpt lat="37.7940568" lon="15.1398331"><ele>713.0</ele><time>2026-04-24T15:26:30.056Z</time></trkpt><trkpt lat="37.793982" lon="15.1399281"><ele>710.5999999999999</ele><time>2026-04-24T15:26:31.056Z</time></trkpt><trkpt lat="37.7939059" lon="15.1400209"><ele>708.1999999999999</ele><time>2026-04-24T15:26:32.056Z</time></trkpt><trkpt lat="37.7938338" lon="15.1401134"><ele>705.8</ele><time>2026-04-24T15:26:33.056Z</time></trkpt><trkpt lat="37.7937624" lon="15.1402062"><ele>703.4</ele><time>2026-04-24T15:26:34.056Z</time></trkpt><trkpt lat="37.7936937" lon="15.1402998"><ele>701.0</ele><time>2026-04-24T15:26:35.057Z</time></trkpt><trkpt lat="37.7936255" lon="15.1403936"><ele>701.0</ele><time>2026-04-24T15:26:36.056Z</time></trkpt><trkpt lat="37.7935593" lon="15.1404892"><ele>701.0</ele><time>2026-04-24T15:26:37.056Z</time></trkpt><trkpt lat="37.7934954" lon="15.1405902"><ele>701.0</ele><time>2026-04-24T15:26:38.057Z</time></trkpt><trkpt lat="37.7934343" lon="15.1407006"><ele>701.0</ele><time>2026-04-24T15:26:39.057Z</time></trkpt><trkpt lat="37.7933764" lon="15.1408197"><ele>701.0</ele><time>2026-04-24T15:26:40.056Z</time></trkpt><trkpt lat="37.7933189" lon="15.1409364"><ele>699.1999999999999</ele><time>2026-04-24T15:26:41.057Z</time></trkpt><trkpt lat="37.7932638" lon="15.1410531"><ele>697.4</ele><time>2026-04-24T15:26:42.057Z</time></trkpt><trkpt lat="37.7932115" lon="15.1411621"><ele>695.6</ele><time>2026-04-24T15:26:43.056Z</time></trkpt><trkpt lat="37.79316" lon="15.1412699"><ele>693.8</ele><time>2026-04-24T15:26:44.056Z</time></trkpt><trkpt lat="37.7931098" lon="15.1413773"><ele>692.0</ele><time>2026-04-24T15:26:45.056Z</time></trkpt><trkpt lat="37.7930605" lon="15.1414877"><ele>692.0</ele><time>2026-04-24T15:26:46.056Z</time></trkpt><trkpt lat="37.7930179" lon="15.1415948"><ele>692.0</ele><time>2026-04-24T15:26:47.057Z</time></trkpt><trkpt lat="37.7929781" lon="15.1417055"><ele>692.0</ele><time>2026-04-24T15:26:48.057Z</time></trkpt><trkpt lat="37.7929417" lon="15.141817"><ele>692.0</ele><time>2026-04-24T15:26:49.056Z</time></trkpt><trkpt lat="37.7929105" lon="15.1419294"><ele>692.0</ele><time>2026-04-24T15:26:50.056Z</time></trkpt><trkpt lat="37.7928827" lon="15.1420361"><ele>692.0</ele><time>2026-04-24T15:26:51.056Z</time></trkpt><trkpt lat="37.7928577" lon="15.1421391"><ele>692.0</ele><time>2026-04-24T15:26:52.056Z</time></trkpt><trkpt lat="37.7928404" lon="15.1422409"><ele>692.0</ele><time>2026-04-24T15:26:53.056Z</time></trkpt><trkpt lat="37.7928393" lon="15.1423424"><ele>692.0</ele><time>2026-04-24T15:26:54.057Z</time></trkpt><trkpt lat="37.792857" lon="15.1424381"><ele>692.0</ele><time>2026-04-24T15:26:55.057Z</time></trkpt><trkpt lat="37.792896" lon="15.142526"><ele>692.0</ele><time>2026-04-24T15:26:56.056Z</time></trkpt><trkpt lat="37.7929527" lon="15.1425996"><ele>690.8</ele><time>2026-04-24T15:26:57.056Z</time></trkpt><trkpt lat="37.7930222" lon="15.1426583"><ele>689.6</ele><time>2026-04-24T15:26:58.056Z</time></trkpt><trkpt lat="37.793097" lon="15.1427167"><ele>688.4</ele><time>2026-04-24T15:26:59.056Z</time></trkpt><trkpt lat="37.7931782" lon="15.142775"><ele>687.1999999999999</ele><time>2026-04-24T15:27:00.056Z</time></trkpt><trkpt lat="37.7932643" lon="15.1428312"><ele>686.0</ele><time>2026-04-24T15:27:01.057Z</time></trkpt><trkpt lat="37.7933531" lon="15.1428779"><ele>686.0</ele><time>2026-04-24T15:27:02.056Z</time></trkpt><trkpt lat="37.7934434" lon="15.1429102"><ele>686.0</ele><time>2026-04-24T15:27:03.057Z</time></trkpt><trkpt lat="37.7935335" lon="15.1429338"><ele>686.0</ele><time>2026-04-24T15:27:04.057Z</time></trkpt><trkpt lat="37.7936211" lon="15.1429537"><ele>686.0</ele><time>2026-04-24T15:27:05.057Z</time></trkpt><trkpt lat="37.7937054" lon="15.1429691"><ele>686.0</ele><time>2026-04-24T15:27:06.056Z</time></trkpt><trkpt lat="37.7937855" lon="15.142981"><ele>686.0</ele><time>2026-04-24T15:27:07.057Z</time></trkpt><trkpt lat="37.7938605" lon="15.142992"><ele>685.0</ele><time>2026-04-24T15:27:08.056Z</time></trkpt><trkpt lat="37.7939355" lon="15.143008"><ele>684.0</ele><time>2026-04-24T15:27:09.056Z</time></trkpt><trkpt lat="37.7940142" lon="15.1430189"><ele>683.0</ele><time>2026-04-24T15:27:10.056Z</time></trkpt><trkpt lat="37.7940929" lon="15.1430062"><ele>682.0</ele><time>2026-04-24T15:27:11.056Z</time></trkpt><trkpt lat="37.7941709" lon="15.1429783"><ele>681.0</ele><time>2026-04-24T15:27:12.056Z</time></trkpt><trkpt lat="37.7942484" lon="15.1429364"><ele>680.0</ele><time>2026-04-24T15:27:13.057Z</time></trkpt><trkpt lat="37.7943262" lon="15.1428852"><ele>678.6</ele><time>2026-04-24T15:27:14.057Z</time></trkpt><trkpt lat="37.7944057" lon="15.1428294"><ele>677.2</ele><time>2026-04-24T15:27:15.056Z</time></trkpt><trkpt lat="37.79449" lon="15.1427739"><ele>675.8</ele><time>2026-04-24T15:27:16.057Z</time></trkpt><trkpt lat="37.7945762" lon="15.1427178"><ele>674.4</ele><time>2026-04-24T15:27:17.056Z</time></trkpt><trkpt lat="37.794662" lon="15.1426579"><ele>673.0</ele><time>2026-04-24T15:27:18.056Z</time></trkpt><trkpt lat="37.7947445" lon="15.142597"><ele>673.0</ele><time>2026-04-24T15:27:19.056Z</time></trkpt><trkpt lat="37.7948247" lon="15.1425406"><ele>673.0</ele><time>2026-04-24T15:27:20.057Z</time></trkpt><trkpt lat="37.7949041" lon="15.1424825"><ele>673.0</ele><time>2026-04-24T15:27:21.056Z</time></trkpt><trkpt lat="37.7949839" lon="15.1424269"><ele>673.0</ele><time>2026-04-24T15:27:22.057Z</time></trkpt><trkpt lat="37.7950707" lon="15.1423836"><ele>673.0</ele><time>2026-04-24T15:27:23.056Z</time></trkpt><trkpt lat="37.7951631" lon="15.1423457"><ele>673.5999999999999</ele><time>2026-04-24T15:27:24.056Z</time></trkpt><trkpt lat="37.7952545" lon="15.14231"><ele>674.1999999999999</ele><time>2026-04-24T15:27:25.056Z</time></trkpt><trkpt lat="37.7953434" lon="15.1422805"><ele>674.8</ele><time>2026-04-24T15:27:26.057Z</time></trkpt><trkpt lat="37.7954295" lon="15.1422518"><ele>675.4</ele><time>2026-04-24T15:27:27.056Z</time></trkpt><trkpt lat="37.795517" lon="15.1422322"><ele>676.0</ele><time>2026-04-24T15:27:28.057Z</time></trkpt><trkpt lat="37.7956068" lon="15.1422074"><ele>676.0</ele><time>2026-04-24T15:27:29.056Z</time></trkpt><trkpt lat="37.7956958" lon="15.1421656"><ele>676.0</ele><time>2026-04-24T15:27:30.056Z</time></trkpt><trkpt lat="37.7957815" lon="15.1421067"><ele>676.0</ele><time>2026-04-24T15:27:31.056Z</time></trkpt><trkpt lat="37.7958655" lon="15.1420391"><ele>676.0</ele><time>2026-04-24T15:27:32.056Z</time></trkpt><trkpt lat="37.7959463" lon="15.1419715"><ele>676.0</ele><time>2026-04-24T15:27:33.056Z</time></trkpt><trkpt lat="37.7960247" lon="15.1419102"><ele>673.8</ele><time>2026-04-24T15:27:34.056Z</time></trkpt><trkpt lat="37.7961086" lon="15.1418569"><ele>671.5999999999999</ele><time>2026-04-24T15:27:35.056Z</time></trkpt><trkpt lat="37.7961954" lon="15.1418205"><ele>669.4</ele><time>2026-04-24T15:27:36.056Z</time></trkpt><trkpt lat="37.7962831" lon="15.1418037"><ele>667.2</ele><time>2026-04-24T15:27:37.056Z</time></trkpt><trkpt lat="37.7963715" lon="15.1418037"><ele>665.0</ele><time>2026-04-24T15:27:38.057Z</time></trkpt><trkpt lat="37.7964589" lon="15.1418162"><ele>665.0</ele><time>2026-04-24T15:27:39.057Z</time></trkpt><trkpt lat="37.796548" lon="15.1418315"><ele>665.0</ele><time>2026-04-24T15:27:40.057Z</time></trkpt><trkpt lat="37.7966417" lon="15.1418449"><ele>665.0</ele><time>2026-04-24T15:27:41.056Z</time></trkpt><trkpt lat="37.7967377" lon="15.1418605"><ele>665.0</ele><time>2026-04-24T15:27:42.056Z</time></trkpt><trkpt lat="37.7968381" lon="15.1418719"><ele>665.0</ele><time>2026-04-24T15:27:43.056Z</time></trkpt><trkpt lat="37.796939" lon="15.1418856"><ele>663.0</ele><time>2026-04-24T15:27:44.056Z</time></trkpt><trkpt lat="37.79704" lon="15.141897"><ele>661.0</ele><time>2026-04-24T15:27:45.056Z</time></trkpt><trkpt lat="37.7971407" lon="15.1419015"><ele>659.0</ele><time>2026-04-24T15:27:46.057Z</time></trkpt><trkpt lat="37.7972411" lon="15.1418883"><ele>657.0</ele><time>2026-04-24T15:27:47.057Z</time></trkpt><trkpt lat="37.7973401" lon="15.141859"><ele>655.0</ele><time>2026-04-24T15:27:48.056Z</time></trkpt><trkpt lat="37.7974315" lon="15.1418124"><ele>655.0</ele><time>2026-04-24T15:27:49.056Z</time></trkpt><trkpt lat="37.7975126" lon="15.1417554"><ele>655.0</ele><time>2026-04-24T15:27:50.056Z</time></trkpt><trkpt lat="37.7975919" lon="15.1417018"><ele>655.0</ele><time>2026-04-24T15:27:51.056Z</time></trkpt><trkpt lat="37.7976665" lon="15.1416666"><ele>655.0</ele><time>2026-04-24T15:27:52.057Z</time></trkpt><trkpt lat="37.7977428" lon="15.1416511"><ele>655.0</ele><time>2026-04-24T15:27:53.056Z</time></trkpt><trkpt lat="37.7978189" lon="15.1416571"><ele>655.0</ele><time>2026-04-24T15:27:54.057Z</time></trkpt><trkpt lat="37.797898" lon="15.1416793"><ele>655.1666666666667</ele><time>2026-04-24T15:27:55.056Z</time></trkpt><trkpt lat="37.7979805" lon="15.1417104"><ele>655.3333333333334</ele><time>2026-04-24T15:27:56.057Z</time></trkpt><trkpt lat="37.7980681" lon="15.1417397"><ele>655.5</ele><time>2026-04-24T15:27:57.056Z</time></trkpt><trkpt lat="37.7981578" lon="15.1417682"><ele>655.6666666666666</ele><time>2026-04-24T15:27:58.057Z</time></trkpt><trkpt lat="37.798242" lon="15.1417946"><ele>655.8333333333333</ele><time>2026-04-24T15:27:59.056Z</time></trkpt><trkpt lat="37.7983178" lon="15.1418266"><ele>656.0</ele><time>2026-04-24T15:28:00.056Z</time></trkpt><trkpt lat="37.7983841" lon="15.141872"><ele>655.9999999999999</ele><time>2026-04-24T15:28:01.056Z</time></trkpt><trkpt lat="37.7984301" lon="15.1419359"><ele>656.0</ele><time>2026-04-24T15:28:02.056Z</time></trkpt><trkpt lat="37.7984608" lon="15.1420109"><ele>656.0</ele><time>2026-04-24T15:28:03.057Z</time></trkpt><trkpt lat="37.7984759" lon="15.142092"><ele>656.0</ele><time>2026-04-24T15:28:04.056Z</time></trkpt><trkpt lat="37.7984801" lon="15.1421761"><ele>656.0</ele><time>2026-04-24T15:28:05.056Z</time></trkpt><trkpt lat="37.798468" lon="15.1422674"><ele>655.9999999999999</ele><time>2026-04-24T15:28:06.056Z</time></trkpt><trkpt lat="37.798448" lon="15.1423666"><ele>656.0</ele><time>2026-04-24T15:28:07.057Z</time></trkpt><trkpt lat="37.7984264" lon="15.1424748"><ele>654.1666666666666</ele><time>2026-04-24T15:28:08.057Z</time></trkpt><trkpt lat="37.7984045" lon="15.1425858"><ele>652.3333333333333</ele><time>2026-04-24T15:28:09.056Z</time></trkpt><trkpt lat="37.7983785" lon="15.142695"><ele>650.5</ele><time>2026-04-24T15:28:10.056Z</time></trkpt><trkpt lat="37.7983485" lon="15.1427906"><ele>648.6666666666666</ele><time>2026-04-24T15:28:11.056Z</time></trkpt><trkpt lat="37.7982993" lon="15.1428722"><ele>646.8333333333334</ele><time>2026-04-24T15:28:12.056Z</time></trkpt><trkpt lat="37.7982398" lon="15.1429375"><ele>645.0</ele><time>2026-04-24T15:28:13.057Z</time></trkpt><trkpt lat="37.7981696" lon="15.1429851"><ele>645.0</ele><time>2026-04-24T15:28:14.057Z</time></trkpt><trkpt lat="37.7980919" lon="15.1430214"><ele>645.0</ele><time>2026-04-24T15:28:15.057Z</time></trkpt><trkpt lat="37.7980056" lon="15.1430465"><ele>645.0</ele><time>2026-04-24T15:28:16.056Z</time></trkpt><trkpt lat="37.7979174" lon="15.1430693"><ele>645.0</ele><time>2026-04-24T15:28:17.057Z</time></trkpt><trkpt lat="37.7978302" lon="15.1430922"><ele>645.0</ele><time>2026-04-24T15:28:18.057Z</time></trkpt><trkpt lat="37.7977458" lon="15.1431148"><ele>645.0</ele><time>2026-04-24T15:28:19.057Z</time></trkpt><trkpt lat="37.7976633" lon="15.1431286"><ele>644.4285714285714</ele><time>2026-04-24T15:28:20.056Z</time></trkpt><trkpt lat="37.797589" lon="15.1431263"><ele>643.8571428571428</ele><time>2026-04-24T15:28:21.056Z</time></trkpt><trkpt lat="37.7975249" lon="15.1431011"><ele>643.2857142857142</ele><time>2026-04-24T15:28:22.056Z</time></trkpt><trkpt lat="37.7974681" lon="15.1430489"><ele>642.7142857142858</ele><time>2026-04-24T15:28:23.056Z</time></trkpt><trkpt lat="37.7974176" lon="15.1429818"><ele>642.1428571428571</ele><time>2026-04-24T15:28:24.057Z</time></trkpt><trkpt lat="37.7973725" lon="15.1429007"><ele>641.5714285714286</ele><time>2026-04-24T15:28:25.056Z</time></trkpt><trkpt lat="37.7973223" lon="15.1428186"><ele>641.0</ele><time>2026-04-24T15:28:26.056Z</time></trkpt><trkpt lat="37.797268" lon="15.1427481"><ele>641.0</ele><time>2026-04-24T15:28:27.056Z</time></trkpt><trkpt lat="37.7972052" lon="15.1426954"><ele>641.0</ele><time>2026-04-24T15:28:28.056Z</time></trkpt><trkpt lat="37.797131" lon="15.1426679"><ele>641.0</ele><time>2026-04-24T15:28:29.056Z</time></trkpt><trkpt lat="37.7970545" lon="15.1426718"><ele>641.0</ele><time>2026-04-24T15:28:30.056Z</time></trkpt><trkpt lat="37.796985" lon="15.142706"><ele>641.0</ele><time>2026-04-24T15:28:31.056Z</time></trkpt><trkpt lat="37.796929" lon="15.1427685"><ele>641.0</ele><time>2026-04-24T15:28:32.057Z</time></trkpt><trkpt lat="37.796887" lon="15.1428513"><ele>641.0</ele><time>2026-04-24T15:28:33.057Z</time></trkpt><trkpt lat="37.7968645" lon="15.1429515"><ele>641.0</ele><time>2026-04-24T15:28:34.056Z</time></trkpt><trkpt lat="37.7968513" lon="15.1430577"><ele>641.0</ele><time>2026-04-24T15:28:35.056Z</time></trkpt><trkpt lat="37.7968393" lon="15.1431658"><ele>641.0</ele><time>2026-04-24T15:28:36.056Z</time></trkpt><trkpt lat="37.7968199" lon="15.1432664"><ele>641.0</ele><time>2026-04-24T15:28:37.056Z</time></trkpt><trkpt lat="37.7967878" lon="15.1433483"><ele>641.0</ele><time>2026-04-24T15:28:38.056Z</time></trkpt><trkpt lat="37.7967426" lon="15.1434132"><ele>639.1666666666666</ele><time>2026-04-24T15:28:39.056Z</time></trkpt><trkpt lat="37.7966829" lon="15.1434587"><ele>637.3333333333333</ele><time>2026-04-24T15:28:40.056Z</time></trkpt><trkpt lat="37.7966117" lon="15.1434914"><ele>635.5</ele><time>2026-04-24T15:28:41.056Z</time></trkpt><trkpt lat="37.7965326" lon="15.1435221"><ele>633.6666666666666</ele><time>2026-04-24T15:28:42.056Z</time></trkpt><trkpt lat="37.796454" lon="15.1435565"><ele>631.8333333333334</ele><time>2026-04-24T15:28:43.056Z</time></trkpt><trkpt lat="37.7963847" lon="15.1436063"><ele>630.0</ele><time>2026-04-24T15:28:44.056Z</time></trkpt><trkpt lat="37.796326" lon="15.1436724"><ele>630.0</ele><time>2026-04-24T15:28:45.056Z</time></trkpt><trkpt lat="37.7962814" lon="15.1437574"><ele>630.0</ele><time>2026-04-24T15:28:46.056Z</time></trkpt><trkpt lat="37.7962461" lon="15.143855"><ele>630.0</ele><time>2026-04-24T15:28:47.056Z</time></trkpt><trkpt lat="37.7962135" lon="15.1439607"><ele>630.0</ele><time>2026-04-24T15:28:48.056Z</time></trkpt><trkpt lat="37.7961796" lon="15.1440722"><ele>630.0</ele><time>2026-04-24T15:28:49.056Z</time></trkpt><trkpt lat="37.7961429" lon="15.1441879"><ele>630.0</ele><time>2026-04-24T15:28:50.056Z</time></trkpt><trkpt lat="37.7961068" lon="15.1443068"><ele>629.6</ele><time>2026-04-24T15:28:51.056Z</time></trkpt><trkpt lat="37.7960674" lon="15.1444217"><ele>629.2</ele><time>2026-04-24T15:28:52.056Z</time></trkpt><trkpt lat="37.7960303" lon="15.1445332"><ele>628.8</ele><time>2026-04-24T15:28:53.056Z</time></trkpt><trkpt lat="37.7959874" lon="15.1446393"><ele>628.4</ele><time>2026-04-24T15:28:54.057Z</time></trkpt><trkpt lat="37.7959368" lon="15.1447317"><ele>628.0</ele><time>2026-04-24T15:28:55.057Z</time></trkpt><trkpt lat="37.7958784" lon="15.1448009"><ele>628.0</ele><time>2026-04-24T15:28:56.056Z</time></trkpt><trkpt lat="37.7958089" lon="15.1448432"><ele>628.0</ele><time>2026-04-24T15:28:57.056Z</time></trkpt><trkpt lat="37.795734" lon="15.1448614"><ele>628.0</ele><time>2026-04-24T15:28:58.056Z</time></trkpt><trkpt lat="37.7956554" lon="15.1448598"><ele>628.0</ele><time>2026-04-24T15:28:59.057Z</time></trkpt><trkpt lat="37.795576" lon="15.1448342"><ele>628.0</ele><time>2026-04-24T15:29:00.056Z</time></trkpt><trkpt lat="37.795501" lon="15.1447923"><ele>628.0</ele><time>2026-04-24T15:29:01.056Z</time></trkpt><trkpt lat="37.7954273" lon="15.1447401"><ele>628.0</ele><time>2026-04-24T15:29:02.056Z</time></trkpt><trkpt lat="37.7953504" lon="15.1446921"><ele>628.0</ele><time>2026-04-24T15:29:03.056Z</time></trkpt><trkpt lat="37.7952708" lon="15.1446621"><ele>628.0</ele><time>2026-04-24T15:29:04.056Z</time></trkpt><trkpt lat="37.7951858" lon="15.1446551"><ele>628.0</ele><time>2026-04-24T15:29:05.056Z</time></trkpt><trkpt lat="37.7951004" lon="15.1446705"><ele>628.0</ele><time>2026-04-24T15:29:06.056Z</time></trkpt><trkpt lat="37.795011" lon="15.1446941"><ele>628.0</ele><time>2026-04-24T15:29:07.056Z</time></trkpt><trkpt lat="37.7949162" lon="15.1447101"><ele>627.6</ele><time>2026-04-24T15:29:08.056Z</time></trkpt><trkpt lat="37.7948203" lon="15.1447042"><ele>627.1999999999999</ele><time>2026-04-24T15:29:09.056Z</time></trkpt><trkpt lat="37.7947235" lon="15.1446828"><ele>626.8</ele><time>2026-04-24T15:29:10.056Z</time></trkpt><trkpt lat="37.794629" lon="15.144659"><ele>626.4</ele><time>2026-04-24T15:29:11.056Z</time></trkpt><trkpt lat="37.7945356" lon="15.1446407"><ele>626.0</ele><time>2026-04-24T15:29:12.056Z</time></trkpt><trkpt lat="37.7944454" lon="15.1446333"><ele>626.0</ele><time>2026-04-24T15:29:13.056Z</time></trkpt><trkpt lat="37.7943599" lon="15.1446482"><ele>626.0</ele><time>2026-04-24T15:29:14.056Z</time></trkpt><trkpt lat="37.7942882" lon="15.1446938"><ele>626.0</ele><time>2026-04-24T15:29:15.057Z</time></trkpt><trkpt lat="37.7942363" lon="15.1447607"><ele>626.0</ele><time>2026-04-24T15:29:16.056Z</time></trkpt><trkpt lat="37.794208" lon="15.1448482"><ele>626.0</ele><time>2026-04-24T15:29:17.056Z</time></trkpt><trkpt lat="37.7942029" lon="15.1449432"><ele>626.0</ele><time>2026-04-24T15:29:18.057Z</time></trkpt><trkpt lat="37.7942234" lon="15.1450376"><ele>622.8333333333333</ele><time>2026-04-24T15:29:19.056Z</time></trkpt><trkpt lat="37.7942604" lon="15.1451211"><ele>619.6666666666666</ele><time>2026-04-24T15:29:20.056Z</time></trkpt><trkpt lat="37.7943165" lon="15.1451836"><ele>616.5</ele><time>2026-04-24T15:29:21.056Z</time></trkpt><trkpt lat="37.7943873" lon="15.1452253"><ele>613.3333333333334</ele><time>2026-04-24T15:29:22.056Z</time></trkpt><trkpt lat="37.7944664" lon="15.1452556"><ele>610.1666666666667</ele><time>2026-04-24T15:29:23.056Z</time></trkpt><trkpt lat="37.7945492" lon="15.1452919"><ele>607.0</ele><time>2026-04-24T15:29:24.057Z</time></trkpt><trkpt lat="37.7946335" lon="15.1453294"><ele>607.0</ele><time>2026-04-24T15:29:25.057Z</time></trkpt><trkpt lat="37.7947163" lon="15.1453692"><ele>607.0</ele><time>2026-04-24T15:29:26.056Z</time></trkpt><trkpt lat="37.7947953" lon="15.1454181"><ele>607.0</ele><time>2026-04-24T15:29:27.056Z</time></trkpt><trkpt lat="37.7948689" lon="15.145479"><ele>607.0</ele><time>2026-04-24T15:29:28.056Z</time></trkpt><trkpt lat="37.7949367" lon="15.1455513"><ele>607.0</ele><time>2026-04-24T15:29:29.057Z</time></trkpt><trkpt lat="37.7950025" lon="15.1456295"><ele>607.0</ele><time>2026-04-24T15:29:30.056Z</time></trkpt><trkpt lat="37.7950682" lon="15.1457129"><ele>605.8333333333334</ele><time>2026-04-24T15:29:31.057Z</time></trkpt><trkpt lat="37.7951326" lon="15.1457988"><ele>604.6666666666667</ele><time>2026-04-24T15:29:32.056Z</time></trkpt><trkpt lat="37.7951985" lon="15.1458792"><ele>603.5</ele><time>2026-04-24T15:29:33.056Z</time></trkpt><trkpt lat="37.7952603" lon="15.1459553"><ele>602.3333333333334</ele><time>2026-04-24T15:29:34.056Z</time></trkpt><trkpt lat="37.7953183" lon="15.146031"><ele>601.1666666666666</ele><time>2026-04-24T15:29:35.056Z</time></trkpt><trkpt lat="37.7953677" lon="15.1461013"><ele>600.0</ele><time>2026-04-24T15:29:36.056Z</time></trkpt><trkpt lat="37.7954052" lon="15.1461702"><ele>600.0</ele><time>2026-04-24T15:29:37.056Z</time></trkpt><trkpt lat="37.7954428" lon="15.1463135"><ele>600.0</ele><time>2026-04-24T15:29:39.057Z</time></trkpt><trkpt lat="37.7954295" lon="15.1464729"><ele>600.0</ele><time>2026-04-24T15:29:41.057Z</time></trkpt><trkpt lat="37.795416" lon="15.1465524"><ele>600.0</ele><time>2026-04-24T15:29:42.056Z</time></trkpt><trkpt lat="37.7953948" lon="15.1466315"><ele>600.0</ele><time>2026-04-24T15:29:43.056Z</time></trkpt><trkpt lat="37.7953586" lon="15.1467801"><ele>599.1428571428571</ele><time>2026-04-24T15:29:45.056Z</time></trkpt><trkpt lat="37.7953306" lon="15.1468974"><ele>598.2857142857142</ele><time>2026-04-24T15:29:47.057Z</time></trkpt><trkpt lat="37.7952818" lon="15.1469616"><ele>597.4285714285714</ele><time>2026-04-24T15:29:49.056Z</time></trkpt><trkpt lat="37.7952176" lon="15.1469789"><ele>596.5714285714286</ele><time>2026-04-24T15:29:51.056Z</time></trkpt><trkpt lat="37.7951456" lon="15.1469481"><ele>595.7142857142858</ele><time>2026-04-24T15:29:54.057Z</time></trkpt><trkpt lat="37.7950878" lon="15.1469139"><ele>594.8571428571429</ele><time>2026-04-24T15:29:56.056Z</time></trkpt><trkpt lat="37.7950239" lon="15.1468828"><ele>594.0</ele><time>2026-04-24T15:29:58.057Z</time></trkpt><trkpt lat="37.7949495" lon="15.146874"><ele>593.5</ele><time>2026-04-24T15:30:00.056Z</time></trkpt><trkpt lat="37.7948713" lon="15.146868"><ele>593.0</ele><time>2026-04-24T15:30:02.056Z</time></trkpt><trkpt lat="37.7947913" lon="15.1468588"><ele>592.5</ele><time>2026-04-24T15:30:04.056Z</time></trkpt><trkpt lat="37.794711" lon="15.1468452"><ele>592.0</ele><time>2026-04-24T15:30:06.056Z</time></trkpt><trkpt lat="37.794632" lon="15.1468424"><ele>591.5</ele><time>2026-04-24T15:30:08.056Z</time></trkpt><trkpt lat="37.7945483" lon="15.1468412"><ele>591.0</ele><time>2026-04-24T15:30:10.056Z</time></trkpt><trkpt lat="37.7944612" lon="15.1468303"><ele>591.0</ele><time>2026-04-24T15:30:12.056Z</time></trkpt><trkpt lat="37.7943715" lon="15.1468182"><ele>591.0</ele><time>2026-04-24T15:30:14.056Z</time></trkpt><trkpt lat="37.7942775" lon="15.1468117"><ele>591.0</ele><time>2026-04-24T15:30:16.057Z</time></trkpt><trkpt lat="37.7941754" lon="15.1467954"><ele>591.0</ele><time>2026-04-24T15:30:18.056Z</time></trkpt><trkpt lat="37.7940435" lon="15.1467955"><ele>591.0</ele><time>2026-04-24T15:30:20.056Z</time></trkpt><trkpt lat="37.7939649" lon="15.1467913"><ele>590.0</ele><time>2026-04-24T15:30:21.056Z</time></trkpt><trkpt lat="37.7938876" lon="15.1467818"><ele>589.0</ele><time>2026-04-24T15:30:22.056Z</time></trkpt><trkpt lat="37.7938097" lon="15.1467755"><ele>588.0</ele><time>2026-04-24T15:30:23.056Z</time></trkpt><trkpt lat="37.7937263" lon="15.1467695"><ele>587.0</ele><time>2026-04-24T15:30:24.057Z</time></trkpt><trkpt lat="37.7936395" lon="15.1467602"><ele>586.0</ele><time>2026-04-24T15:30:25.057Z</time></trkpt><trkpt lat="37.7935499" lon="15.1467487"><ele>585.0</ele><time>2026-04-24T15:30:26.056Z</time></trkpt><trkpt lat="37.7934565" lon="15.1467379"><ele>584.6</ele><time>2026-04-24T15:30:27.056Z</time></trkpt><trkpt lat="37.7933579" lon="15.1467276"><ele>584.2</ele><time>2026-04-24T15:30:28.056Z</time></trkpt><trkpt lat="37.7932575" lon="15.1467172"><ele>583.8</ele><time>2026-04-24T15:30:29.056Z</time></trkpt><trkpt lat="37.7931559" lon="15.1467086"><ele>583.4</ele><time>2026-04-24T15:30:30.057Z</time></trkpt><trkpt lat="37.7930507" lon="15.1467008"><ele>583.0</ele><time>2026-04-24T15:30:31.056Z</time></trkpt><trkpt lat="37.792946" lon="15.1466918"><ele>583.0</ele><time>2026-04-24T15:30:32.056Z</time></trkpt><trkpt lat="37.7928414" lon="15.1466856"><ele>583.0</ele><time>2026-04-24T15:30:33.057Z</time></trkpt><trkpt lat="37.7927468" lon="15.1466812"><ele>583.0</ele><time>2026-04-24T15:30:34.056Z</time></trkpt><trkpt lat="37.7926559" lon="15.1466775"><ele>583.0</ele><time>2026-04-24T15:30:35.056Z</time></trkpt><trkpt lat="37.7925591" lon="15.1466684"><ele>583.0</ele><time>2026-04-24T15:30:36.056Z</time></trkpt><trkpt lat="37.7924576" lon="15.1466597"><ele>582.6</ele><time>2026-04-24T15:30:37.056Z</time></trkpt><trkpt lat="37.7923529" lon="15.146653"><ele>582.1999999999999</ele><time>2026-04-24T15:30:38.056Z</time></trkpt><trkpt lat="37.7922449" lon="15.1466481"><ele>581.8</ele><time>2026-04-24T15:30:39.056Z</time></trkpt><trkpt lat="37.7921353" lon="15.1466397"><ele>581.4</ele><time>2026-04-24T15:30:40.056Z</time></trkpt><trkpt lat="37.7920235" lon="15.1466275"><ele>581.0</ele><time>2026-04-24T15:30:41.056Z</time></trkpt><trkpt lat="37.791908" lon="15.1466146"><ele>582.0</ele><time>2026-04-24T15:30:42.056Z</time></trkpt><trkpt lat="37.791786" lon="15.1466043"><ele>583.0</ele><time>2026-04-24T15:30:43.056Z</time></trkpt><trkpt lat="37.791659" lon="15.1465939"><ele>584.0</ele><time>2026-04-24T15:30:44.056Z</time></trkpt><trkpt lat="37.791528" lon="15.1465839"><ele>585.0</ele><time>2026-04-24T15:30:45.057Z</time></trkpt><trkpt lat="37.7913943" lon="15.1465738"><ele>585.0</ele><time>2026-04-24T15:30:46.056Z</time></trkpt><trkpt lat="37.7912622" lon="15.1465638"><ele>585.0</ele><time>2026-04-24T15:30:47.056Z</time></trkpt><trkpt lat="37.7911341" lon="15.146553"><ele>585.0</ele><time>2026-04-24T15:30:48.056Z</time></trkpt><trkpt lat="37.7910068" lon="15.1465423"><ele>585.0</ele><time>2026-04-24T15:30:49.056Z</time></trkpt><trkpt lat="37.7908799" lon="15.1465321"><ele>591.75</ele><time>2026-04-24T15:30:50.057Z</time></trkpt><trkpt lat="37.7907523" lon="15.1465206"><ele>598.5</ele><time>2026-04-24T15:30:51.056Z</time></trkpt><trkpt lat="37.790627" lon="15.1465083"><ele>605.25</ele><time>2026-04-24T15:30:52.057Z</time></trkpt><trkpt lat="37.7905019" lon="15.1464968"><ele>612.0</ele><time>2026-04-24T15:30:53.056Z</time></trkpt><trkpt lat="37.7903775" lon="15.1464839"><ele>612.0</ele><time>2026-04-24T15:30:54.056Z</time></trkpt><trkpt lat="37.790251" lon="15.1464693"><ele>612.0</ele><time>2026-04-24T15:30:55.056Z</time></trkpt><trkpt lat="37.7901245" lon="15.1464566"><ele>612.0</ele><time>2026-04-24T15:30:56.056Z</time></trkpt><trkpt lat="37.7899998" lon="15.1464463"><ele>612.0</ele><time>2026-04-24T15:30:57.057Z</time></trkpt><trkpt lat="37.7898745" lon="15.1464382"><ele>614.0</ele><time>2026-04-24T15:30:58.056Z</time></trkpt><trkpt lat="37.7897471" lon="15.1464296"><ele>616.0</ele><time>2026-04-24T15:30:59.057Z</time></trkpt><trkpt lat="37.7896171" lon="15.146425"><ele>618.0</ele><time>2026-04-24T15:31:00.057Z</time></trkpt><trkpt lat="37.7894851" lon="15.1464237"><ele>620.0</ele><time>2026-04-24T15:31:01.056Z</time></trkpt><trkpt lat="37.7893511" lon="15.146425"><ele>620.25</ele><time>2026-04-24T15:31:02.056Z</time></trkpt><trkpt lat="37.7892148" lon="15.1464281"><ele>620.5</ele><time>2026-04-24T15:31:03.057Z</time></trkpt><trkpt lat="37.7890781" lon="15.1464363"><ele>620.75</ele><time>2026-04-24T15:31:04.056Z</time></trkpt><trkpt lat="37.7889417" lon="15.1464451"><ele>621.0</ele><time>2026-04-24T15:31:05.056Z</time></trkpt><trkpt lat="37.7888061" lon="15.1464533"><ele>621.0</ele><time>2026-04-24T15:31:06.056Z</time></trkpt><trkpt lat="37.7886726" lon="15.1464641"><ele>621.0</ele><time>2026-04-24T15:31:07.057Z</time></trkpt><trkpt lat="37.7885406" lon="15.1464744"><ele>621.0</ele><time>2026-04-24T15:31:08.056Z</time></trkpt><trkpt lat="37.7884064" lon="15.1464807"><ele>621.0</ele><time>2026-04-24T15:31:09.057Z</time></trkpt><trkpt lat="37.78827" lon="15.1464899"><ele>623.0</ele><time>2026-04-24T15:31:10.056Z</time></trkpt><trkpt lat="37.7881331" lon="15.1464977"><ele>625.0</ele><time>2026-04-24T15:31:11.057Z</time></trkpt><trkpt lat="37.7879952" lon="15.1465034"><ele>627.0</ele><time>2026-04-24T15:31:12.057Z</time></trkpt><trkpt lat="37.787856" lon="15.1465092"><ele>629.0</ele><time>2026-04-24T15:31:13.056Z</time></trkpt><trkpt lat="37.7877137" lon="15.1465202"><ele>628.25</ele><time>2026-04-24T15:31:14.056Z</time></trkpt><trkpt lat="37.7875703" lon="15.1465315"><ele>627.5</ele><time>2026-04-24T15:31:15.056Z</time></trkpt><trkpt lat="37.7874275" lon="15.1465391"><ele>626.75</ele><time>2026-04-24T15:31:16.056Z</time></trkpt><trkpt lat="37.7872833" lon="15.1465457"><ele>626.0</ele><time>2026-04-24T15:31:17.056Z</time></trkpt><trkpt lat="37.7871402" lon="15.1465538"><ele>626.0</ele><time>2026-04-24T15:31:18.056Z</time></trkpt><trkpt lat="37.7869982" lon="15.1465634"><ele>626.0</ele><time>2026-04-24T15:31:19.056Z</time></trkpt><trkpt lat="37.7868571" lon="15.1465742"><ele>626.0</ele><time>2026-04-24T15:31:20.057Z</time></trkpt><trkpt lat="37.7867196" lon="15.146581"><ele>626.0</ele><time>2026-04-24T15:31:21.057Z</time></trkpt><trkpt lat="37.7865872" lon="15.1465844"><ele>629.5</ele><time>2026-04-24T15:31:22.056Z</time></trkpt><trkpt lat="37.7864563" lon="15.1465839"><ele>633.0</ele><time>2026-04-24T15:31:23.056Z</time></trkpt><trkpt lat="37.7863272" lon="15.146576"><ele>636.5</ele><time>2026-04-24T15:31:24.056Z</time></trkpt><trkpt lat="37.7861954" lon="15.1465598"><ele>640.0</ele><time>2026-04-24T15:31:25.057Z</time></trkpt><trkpt lat="37.786063" lon="15.1465455"><ele>644.25</ele><time>2026-04-24T15:31:26.057Z</time></trkpt><trkpt lat="37.7859368" lon="15.146532"><ele>648.5</ele><time>2026-04-24T15:31:27.056Z</time></trkpt><trkpt lat="37.7858146" lon="15.1465202"><ele>652.75</ele><time>2026-04-24T15:31:28.056Z</time></trkpt><trkpt lat="37.785698" lon="15.1465067"><ele>657.0</ele><time>2026-04-24T15:31:29.056Z</time></trkpt><trkpt lat="37.7855858" lon="15.1464931"><ele>657.0</ele><time>2026-04-24T15:31:30.056Z</time></trkpt><trkpt lat="37.7854771" lon="15.1464806"><ele>657.0</ele><time>2026-04-24T15:31:31.056Z</time></trkpt><trkpt lat="37.7853723" lon="15.146468"><ele>657.0</ele><time>2026-04-24T15:31:32.056Z</time></trkpt><trkpt lat="37.7852683" lon="15.1464596"><ele>657.0</ele><time>2026-04-24T15:31:33.057Z</time></trkpt><trkpt lat="37.7851669" lon="15.1464467"><ele>657.0</ele><time>2026-04-24T15:31:34.057Z</time></trkpt><trkpt lat="37.7850685" lon="15.1464338"><ele>657.6666666666666</ele><time>2026-04-24T15:31:35.057Z</time></trkpt><trkpt lat="37.7849761" lon="15.1464221"><ele>658.3333333333334</ele><time>2026-04-24T15:31:36.057Z</time></trkpt><trkpt lat="37.784888" lon="15.1464108"><ele>659.0</ele><time>2026-04-24T15:31:37.056Z</time></trkpt><trkpt lat="37.7848033" lon="15.1464011"><ele>659.6666666666667</ele><time>2026-04-24T15:31:38.056Z</time></trkpt><trkpt lat="37.7847218" lon="15.1463939"><ele>660.3333333333334</ele><time>2026-04-24T15:31:39.057Z</time></trkpt><trkpt lat="37.7846407" lon="15.1463851"><ele>661.0</ele><time>2026-04-24T15:31:40.056Z</time></trkpt><trkpt lat="37.7845604" lon="15.1463729"><ele>661.0</ele><time>2026-04-24T15:31:41.056Z</time></trkpt><trkpt lat="37.7844842" lon="15.1463629"><ele>661.0</ele><time>2026-04-24T15:31:42.056Z</time></trkpt><trkpt lat="37.7844146" lon="15.1463551"><ele>661.0</ele><time>2026-04-24T15:31:43.057Z</time></trkpt><trkpt lat="37.7842985" lon="15.1463459"><ele>661.0</ele><time>2026-04-24T15:31:45.057Z</time></trkpt><trkpt lat="37.7841951" lon="15.1463427"><ele>661.0</ele><time>2026-04-24T15:31:47.057Z</time></trkpt><trkpt lat="37.7840983" lon="15.14633"><ele>661.8</ele><time>2026-04-24T15:31:49.056Z</time></trkpt><trkpt lat="37.7840008" lon="15.1463194"><ele>662.5999999999999</ele><time>2026-04-24T15:31:51.056Z</time></trkpt><trkpt lat="37.7839047" lon="15.1463033"><ele>663.4</ele><time>2026-04-24T15:31:53.056Z</time></trkpt><trkpt lat="37.7838099" lon="15.1462971"><ele>664.2</ele><time>2026-04-24T15:31:55.057Z</time></trkpt><trkpt lat="37.7837233" lon="15.1462866"><ele>665.0</ele><time>2026-04-24T15:31:57.056Z</time></trkpt><trkpt lat="37.7836411" lon="15.1462818"><ele>665.0</ele><time>2026-04-24T15:32:00.056Z</time></trkpt><trkpt lat="37.7835675" lon="15.1462694"><ele>665.0</ele><time>2026-04-24T15:33:16.056Z</time></trkpt><trkpt lat="37.7834772" lon="15.1462568"><ele>665.0</ele><time>2026-04-24T15:33:19.056Z</time></trkpt><trkpt lat="37.7833894" lon="15.1462374"><ele>665.0</ele><time>2026-04-24T15:33:22.057Z</time></trkpt><trkpt lat="37.7833216" lon="15.1462309"><ele>665.0</ele><time>2026-04-24T15:33:24.056Z</time></trkpt><trkpt lat="37.7832313" lon="15.1462278"><ele>665.0</ele><time>2026-04-24T15:33:27.056Z</time></trkpt><trkpt lat="37.7831589" lon="15.1462174"><ele>665.6666666666666</ele><time>2026-04-24T15:33:29.057Z</time></trkpt><trkpt lat="37.7830669" lon="15.1462032"><ele>666.3333333333333</ele><time>2026-04-24T15:33:31.056Z</time></trkpt><trkpt lat="37.7829542" lon="15.1461911"><ele>667.0</ele><time>2026-04-24T15:33:33.057Z</time></trkpt><trkpt lat="37.7828896" lon="15.1461867"><ele>667.6666666666666</ele><time>2026-04-24T15:33:34.056Z</time></trkpt><trkpt lat="37.7828215" lon="15.1461803"><ele>668.3333333333334</ele><time>2026-04-24T15:33:35.057Z</time></trkpt><trkpt lat="37.7827498" lon="15.1461685"><ele>669.0</ele><time>2026-04-24T15:33:36.056Z</time></trkpt><trkpt lat="37.7826764" lon="15.1461578"><ele>669.5</ele><time>2026-04-24T15:33:37.057Z</time></trkpt><trkpt lat="37.7826087" lon="15.1461501"><ele>670.0</ele><time>2026-04-24T15:33:38.056Z</time></trkpt><trkpt lat="37.7824872" lon="15.1461369"><ele>670.5</ele><time>2026-04-24T15:33:40.056Z</time></trkpt><trkpt lat="37.7824174" lon="15.1461282"><ele>671.0</ele><time>2026-04-24T15:33:41.056Z</time></trkpt><trkpt lat="37.782343" lon="15.146118"><ele>671.5</ele><time>2026-04-24T15:33:42.056Z</time></trkpt><trkpt lat="37.7822623" lon="15.146109"><ele>672.0</ele><time>2026-04-24T15:33:43.056Z</time></trkpt><trkpt lat="37.7821796" lon="15.1460967"><ele>672.0</ele><time>2026-04-24T15:33:44.057Z</time></trkpt><trkpt lat="37.7820953" lon="15.1460864"><ele>672.0</ele><time>2026-04-24T15:33:45.056Z</time></trkpt><trkpt lat="37.7820073" lon="15.1460753"><ele>672.0</ele><time>2026-04-24T15:33:46.056Z</time></trkpt><trkpt lat="37.781918" lon="15.146065"><ele>672.0</ele><time>2026-04-24T15:33:47.057Z</time></trkpt><trkpt lat="37.7818253" lon="15.1460532"><ele>672.0</ele><time>2026-04-24T15:33:48.056Z</time></trkpt><trkpt lat="37.7817283" lon="15.1460396"><ele>673.0</ele><time>2026-04-24T15:33:49.056Z</time></trkpt><trkpt lat="37.7816343" lon="15.1460251"><ele>674.0</ele><time>2026-04-24T15:33:50.056Z</time></trkpt><trkpt lat="37.7815452" lon="15.1460099"><ele>675.0</ele><time>2026-04-24T15:33:51.056Z</time></trkpt><trkpt lat="37.7814565" lon="15.1459947"><ele>676.0</ele><time>2026-04-24T15:33:52.056Z</time></trkpt><trkpt lat="37.7813695" lon="15.1459798"><ele>677.0</ele><time>2026-04-24T15:33:53.057Z</time></trkpt><trkpt lat="37.7812772" lon="15.1459695"><ele>677.0</ele><time>2026-04-24T15:33:54.056Z</time></trkpt><trkpt lat="37.7811811" lon="15.1459572"><ele>677.0</ele><time>2026-04-24T15:33:55.057Z</time></trkpt><trkpt lat="37.781084" lon="15.1459383"><ele>677.0</ele><time>2026-04-24T15:33:56.056Z</time></trkpt><trkpt lat="37.7809792" lon="15.1459213"><ele>677.0</ele><time>2026-04-24T15:33:57.056Z</time></trkpt><trkpt lat="37.7808717" lon="15.1458996"><ele>677.0</ele><time>2026-04-24T15:33:58.056Z</time></trkpt><trkpt lat="37.7807608" lon="15.1458802"><ele>677.2</ele><time>2026-04-24T15:33:59.057Z</time></trkpt><trkpt lat="37.7806587" lon="15.1458622"><ele>677.4000000000001</ele><time>2026-04-24T15:34:00.056Z</time></trkpt><trkpt lat="37.7805603" lon="15.1458461"><ele>677.5999999999999</ele><time>2026-04-24T15:34:01.056Z</time></trkpt><trkpt lat="37.780462" lon="15.1458301"><ele>677.8</ele><time>2026-04-24T15:34:02.056Z</time></trkpt><trkpt lat="37.7803619" lon="15.1458134"><ele>678.0</ele><time>2026-04-24T15:34:03.056Z</time></trkpt><trkpt lat="37.7802589" lon="15.1457975"><ele>677.0</ele><time>2026-04-24T15:34:04.056Z</time></trkpt><trkpt lat="37.7801527" lon="15.1457768"><ele>676.0</ele><time>2026-04-24T15:34:05.056Z</time></trkpt><trkpt lat="37.7800438" lon="15.1457506"><ele>675.0</ele><time>2026-04-24T15:34:06.057Z</time></trkpt><trkpt lat="37.7799325" lon="15.1457191"><ele>674.0</ele><time>2026-04-24T15:34:07.056Z</time></trkpt><trkpt lat="37.7798179" lon="15.1456837"><ele>676.5</ele><time>2026-04-24T15:34:08.056Z</time></trkpt><trkpt lat="37.779702" lon="15.1456444"><ele>679.0</ele><time>2026-04-24T15:34:09.056Z</time></trkpt><trkpt lat="37.7795855" lon="15.1455987"><ele>681.5</ele><time>2026-04-24T15:34:10.056Z</time></trkpt><trkpt lat="37.7794696" lon="15.1455466"><ele>684.0</ele><time>2026-04-24T15:34:11.057Z</time></trkpt><trkpt lat="37.7793537" lon="15.145491"><ele>683.0</ele><time>2026-04-24T15:34:12.057Z</time></trkpt><trkpt lat="37.7792388" lon="15.1454336"><ele>682.0</ele><time>2026-04-24T15:34:13.056Z</time></trkpt><trkpt lat="37.7791252" lon="15.1453729"><ele>681.0</ele><time>2026-04-24T15:34:14.056Z</time></trkpt><trkpt lat="37.7790115" lon="15.1453123"><ele>680.0</ele><time>2026-04-24T15:34:15.057Z</time></trkpt><trkpt lat="37.7788963" lon="15.1452527"><ele>680.0</ele><time>2026-04-24T15:34:16.056Z</time></trkpt><trkpt lat="37.778781" lon="15.1451905"><ele>680.0</ele><time>2026-04-24T15:34:17.056Z</time></trkpt><trkpt lat="37.7786646" lon="15.1451289"><ele>680.0</ele><time>2026-04-24T15:34:18.057Z</time></trkpt><trkpt lat="37.7785478" lon="15.1450659"><ele>680.0</ele><time>2026-04-24T15:34:19.057Z</time></trkpt><trkpt lat="37.7784306" lon="15.1450001"><ele>680.25</ele><time>2026-04-24T15:34:20.057Z</time></trkpt><trkpt lat="37.7783127" lon="15.1449351"><ele>680.5</ele><time>2026-04-24T15:34:21.056Z</time></trkpt><trkpt lat="37.778194" lon="15.1448712"><ele>680.75</ele><time>2026-04-24T15:34:22.057Z</time></trkpt><trkpt lat="37.7780742" lon="15.1448108"><ele>681.0</ele><time>2026-04-24T15:34:23.057Z</time></trkpt><trkpt lat="37.7779539" lon="15.1447558"><ele>682.75</ele><time>2026-04-24T15:34:24.057Z</time></trkpt><trkpt lat="37.7778303" lon="15.144705"><ele>684.5</ele><time>2026-04-24T15:34:25.057Z</time></trkpt><trkpt lat="37.7777032" lon="15.1446612"><ele>686.25</ele><time>2026-04-24T15:34:26.056Z</time></trkpt><trkpt lat="37.7775746" lon="15.1446244"><ele>688.0</ele><time>2026-04-24T15:34:27.056Z</time></trkpt><trkpt lat="37.7774445" lon="15.1445925"><ele>688.0</ele><time>2026-04-24T15:34:28.056Z</time></trkpt><trkpt lat="37.777314" lon="15.1445604"><ele>688.0</ele><time>2026-04-24T15:34:29.056Z</time></trkpt><trkpt lat="37.7771804" lon="15.1445306"><ele>688.0</ele><time>2026-04-24T15:34:30.056Z</time></trkpt><trkpt lat="37.7770497" lon="15.144499"><ele>688.0</ele><time>2026-04-24T15:34:31.056Z</time></trkpt><trkpt lat="37.7769207" lon="15.1444674"><ele>686.0</ele><time>2026-04-24T15:34:32.057Z</time></trkpt><trkpt lat="37.776794" lon="15.1444383"><ele>684.0</ele><time>2026-04-24T15:34:33.056Z</time></trkpt><trkpt lat="37.776675" lon="15.1444076"><ele>682.0</ele><time>2026-04-24T15:34:34.056Z</time></trkpt><trkpt lat="37.7765587" lon="15.1443796"><ele>680.0</ele><time>2026-04-24T15:34:35.056Z</time></trkpt><trkpt lat="37.7764464" lon="15.1443515"><ele>680.0</ele><time>2026-04-24T15:34:36.057Z</time></trkpt><trkpt lat="37.7763408" lon="15.144323"><ele>680.0</ele><time>2026-04-24T15:34:37.056Z</time></trkpt><trkpt lat="37.7762375" lon="15.1442989"><ele>680.0</ele><time>2026-04-24T15:34:38.056Z</time></trkpt><trkpt lat="37.7761402" lon="15.1442794"><ele>680.0</ele><time>2026-04-24T15:34:39.056Z</time></trkpt><trkpt lat="37.7760467" lon="15.14426"><ele>680.0</ele><time>2026-04-24T15:34:40.056Z</time></trkpt><trkpt lat="37.7759596" lon="15.1442368"><ele>679.0</ele><time>2026-04-24T15:34:41.056Z</time></trkpt><trkpt lat="37.775872" lon="15.1442142"><ele>678.0</ele><time>2026-04-24T15:34:42.057Z</time></trkpt><trkpt lat="37.7757887" lon="15.1441941"><ele>677.0</ele><time>2026-04-24T15:34:43.056Z</time></trkpt><trkpt lat="37.7757096" lon="15.1441748"><ele>676.0</ele><time>2026-04-24T15:34:44.057Z</time></trkpt><trkpt lat="37.7756396" lon="15.144156"><ele>675.0</ele><time>2026-04-24T15:34:45.056Z</time></trkpt><trkpt lat="37.7755759" lon="15.1441408"><ele>674.0</ele><time>2026-04-24T15:34:46.056Z</time></trkpt><trkpt lat="37.7754595" lon="15.1441177"><ele>674.0</ele><time>2026-04-24T15:34:48.056Z</time></trkpt><trkpt lat="37.7753413" lon="15.1440965"><ele>674.0</ele><time>2026-04-24T15:34:50.056Z</time></trkpt><trkpt lat="37.7752166" lon="15.1440467"><ele>674.0</ele><time>2026-04-24T15:34:52.056Z</time></trkpt><trkpt lat="37.7751417" lon="15.1440173"><ele>674.0</ele><time>2026-04-24T15:34:53.056Z</time></trkpt><trkpt lat="37.7750617" lon="15.1439964"><ele>674.0</ele><time>2026-04-24T15:34:54.056Z</time></trkpt><trkpt lat="37.7749836" lon="15.1439774"><ele>674.3333333333333</ele><time>2026-04-24T15:34:55.056Z</time></trkpt><trkpt lat="37.7749084" lon="15.1439649"><ele>674.6666666666666</ele><time>2026-04-24T15:34:56.056Z</time></trkpt><trkpt lat="37.7748399" lon="15.1439448"><ele>675.0</ele><time>2026-04-24T15:34:57.056Z</time></trkpt><trkpt lat="37.7747801" lon="15.1439154"><ele>675.3333333333334</ele><time>2026-04-24T15:34:58.056Z</time></trkpt><trkpt lat="37.7746784" lon="15.1438239"><ele>675.6666666666667</ele><time>2026-04-24T15:35:00.056Z</time></trkpt><trkpt lat="37.7746306" lon="15.1437651"><ele>676.0</ele><time>2026-04-24T15:35:01.056Z</time></trkpt><trkpt lat="37.7744749" lon="15.1436903"><ele>676.0</ele><time>2026-04-24T15:35:03.056Z</time></trkpt><trkpt lat="37.7743778" lon="15.1436699"><ele>676.0</ele><time>2026-04-24T15:35:04.057Z</time></trkpt><trkpt lat="37.774273" lon="15.1436483"><ele>676.0</ele><time>2026-04-24T15:35:05.056Z</time></trkpt><trkpt lat="37.7741607" lon="15.1436229"><ele>676.0</ele><time>2026-04-24T15:35:06.056Z</time></trkpt><trkpt lat="37.7740401" lon="15.1435951"><ele>676.0</ele><time>2026-04-24T15:35:07.057Z</time></trkpt><trkpt lat="37.7739115" lon="15.1435673"><ele>673.25</ele><time>2026-04-24T15:35:08.057Z</time></trkpt><trkpt lat="37.7737786" lon="15.1435409"><ele>670.5</ele><time>2026-04-24T15:35:09.056Z</time></trkpt><trkpt lat="37.773651" lon="15.143513"><ele>667.75</ele><time>2026-04-24T15:35:10.056Z</time></trkpt><trkpt lat="37.7735296" lon="15.1434879"><ele>665.0</ele><time>2026-04-24T15:35:11.057Z</time></trkpt><trkpt lat="37.7734151" lon="15.143463"><ele>663.6</ele><time>2026-04-24T15:35:12.057Z</time></trkpt><trkpt lat="37.7733059" lon="15.1434415"><ele>662.2</ele><time>2026-04-24T15:35:13.057Z</time></trkpt><trkpt lat="37.773201" lon="15.1434372"><ele>660.8</ele><time>2026-04-24T15:35:14.056Z</time></trkpt><trkpt lat="37.7730989" lon="15.1434612"><ele>659.4</ele><time>2026-04-24T15:35:15.056Z</time></trkpt><trkpt lat="37.7729997" lon="15.143507"><ele>658.0</ele><time>2026-04-24T15:35:16.056Z</time></trkpt><trkpt lat="37.772901" lon="15.143558"><ele>658.0</ele><time>2026-04-24T15:35:17.056Z</time></trkpt><trkpt lat="37.7728055" lon="15.1436055"><ele>658.0</ele><time>2026-04-24T15:35:18.057Z</time></trkpt><trkpt lat="37.7727126" lon="15.1436372"><ele>658.0</ele><time>2026-04-24T15:35:19.056Z</time></trkpt><trkpt lat="37.7726209" lon="15.1436452"><ele>658.0</ele><time>2026-04-24T15:35:20.056Z</time></trkpt><trkpt lat="37.7725298" lon="15.1436307"><ele>658.0</ele><time>2026-04-24T15:35:21.057Z</time></trkpt><trkpt lat="37.7724372" lon="15.1435949"><ele>659.8</ele><time>2026-04-24T15:35:22.057Z</time></trkpt><trkpt lat="37.7723446" lon="15.1435518"><ele>661.5999999999999</ele><time>2026-04-24T15:35:23.057Z</time></trkpt><trkpt lat="37.7722508" lon="15.1435136"><ele>663.4000000000001</ele><time>2026-04-24T15:35:24.056Z</time></trkpt><trkpt lat="37.7721608" lon="15.1434848"><ele>665.2</ele><time>2026-04-24T15:35:25.057Z</time></trkpt><trkpt lat="37.7720718" lon="15.1434501"><ele>667.0</ele><time>2026-04-24T15:35:26.056Z</time></trkpt><trkpt lat="37.7719821" lon="15.1434165"><ele>667.0</ele><time>2026-04-24T15:35:27.056Z</time></trkpt><trkpt lat="37.7718835" lon="15.143398"><ele>667.0</ele><time>2026-04-24T15:35:28.056Z</time></trkpt><trkpt lat="37.7717806" lon="15.1433942"><ele>667.0</ele><time>2026-04-24T15:35:29.056Z</time></trkpt><trkpt lat="37.7716728" lon="15.1433959"><ele>667.0</ele><time>2026-04-24T15:35:30.056Z</time></trkpt><trkpt lat="37.7715648" lon="15.143403"><ele>667.0</ele><time>2026-04-24T15:35:31.056Z</time></trkpt><trkpt lat="37.7714605" lon="15.1434099"><ele>666.4000000000001</ele><time>2026-04-24T15:35:32.056Z</time></trkpt><trkpt lat="37.7713607" lon="15.1434078"><ele>665.8000000000001</ele><time>2026-04-24T15:35:33.056Z</time></trkpt><trkpt lat="37.7712637" lon="15.1433879"><ele>665.2</ele><time>2026-04-24T15:35:34.057Z</time></trkpt><trkpt lat="37.7711685" lon="15.1433513"><ele>664.6</ele><time>2026-04-24T15:35:35.056Z</time></trkpt><trkpt lat="37.7710733" lon="15.1433067"><ele>664.0</ele><time>2026-04-24T15:35:36.056Z</time></trkpt><trkpt lat="37.7709766" lon="15.1432613"><ele>665.0</ele><time>2026-04-24T15:35:37.057Z</time></trkpt><trkpt lat="37.7708792" lon="15.1432156"><ele>666.0</ele><time>2026-04-24T15:35:38.056Z</time></trkpt><trkpt lat="37.7707804" lon="15.1431704"><ele>667.0</ele><time>2026-04-24T15:35:39.057Z</time></trkpt><trkpt lat="37.7706866" lon="15.1431205"><ele>668.0</ele><time>2026-04-24T15:35:40.056Z</time></trkpt><trkpt lat="37.7705953" lon="15.1430646"><ele>669.0</ele><time>2026-04-24T15:35:41.056Z</time></trkpt><trkpt lat="37.7705092" lon="15.1430085"><ele>669.0</ele><time>2026-04-24T15:35:42.057Z</time></trkpt><trkpt lat="37.7704271" lon="15.1429504"><ele>669.0</ele><time>2026-04-24T15:35:43.057Z</time></trkpt><trkpt lat="37.7703485" lon="15.1428871"><ele>669.0</ele><time>2026-04-24T15:35:44.057Z</time></trkpt><trkpt lat="37.7702732" lon="15.142818"><ele>669.0</ele><time>2026-04-24T15:35:45.056Z</time></trkpt><trkpt lat="37.7702014" lon="15.1427453"><ele>669.0</ele><time>2026-04-24T15:35:46.057Z</time></trkpt><trkpt lat="37.7701345" lon="15.1426653"><ele>668.4000000000001</ele><time>2026-04-24T15:35:47.056Z</time></trkpt><trkpt lat="37.7700745" lon="15.1425811"><ele>667.8</ele><time>2026-04-24T15:35:48.057Z</time></trkpt><trkpt lat="37.7700155" lon="15.1424937"><ele>667.2</ele><time>2026-04-24T15:35:49.056Z</time></trkpt><trkpt lat="37.7699565" lon="15.1424018"><ele>666.5999999999999</ele><time>2026-04-24T15:35:50.056Z</time></trkpt><trkpt lat="37.7698965" lon="15.1423058"><ele>666.0</ele><time>2026-04-24T15:35:51.056Z</time></trkpt><trkpt lat="37.7698354" lon="15.1422137"><ele>667.4</ele><time>2026-04-24T15:35:52.056Z</time></trkpt><trkpt lat="37.7697803" lon="15.1421232"><ele>668.8</ele><time>2026-04-24T15:35:53.056Z</time></trkpt><trkpt lat="37.7697292" lon="15.1420387"><ele>670.1999999999999</ele><time>2026-04-24T15:35:54.057Z</time></trkpt><trkpt lat="37.7696418" lon="15.1418904"><ele>671.5999999999999</ele><time>2026-04-24T15:35:56.057Z</time></trkpt><trkpt lat="37.7695955" lon="15.1418192"><ele>673.0</ele><time>2026-04-24T15:35:57.056Z</time></trkpt><trkpt lat="37.7695512" lon="15.1417447"><ele>673.0</ele><time>2026-04-24T15:35:58.056Z</time></trkpt><trkpt lat="37.7695039" lon="15.1416635"><ele>673.0</ele><time>2026-04-24T15:35:59.056Z</time></trkpt><trkpt lat="37.7694514" lon="15.1415781"><ele>673.0</ele><time>2026-04-24T15:36:00.056Z</time></trkpt><trkpt lat="37.7693941" lon="15.1414865"><ele>673.0</ele><time>2026-04-24T15:36:01.056Z</time></trkpt><trkpt lat="37.7693318" lon="15.1413907"><ele>673.0</ele><time>2026-04-24T15:36:02.057Z</time></trkpt><trkpt lat="37.7692646" lon="15.141291"><ele>673.5</ele><time>2026-04-24T15:36:03.056Z</time></trkpt><trkpt lat="37.7691951" lon="15.1411862"><ele>674.0</ele><time>2026-04-24T15:36:04.056Z</time></trkpt><trkpt lat="37.7691252" lon="15.1410761"><ele>674.5</ele><time>2026-04-24T15:36:05.056Z</time></trkpt><trkpt lat="37.7690526" lon="15.1409636"><ele>675.0</ele><time>2026-04-24T15:36:06.057Z</time></trkpt><trkpt lat="37.7689779" lon="15.1408491"><ele>675.0</ele><time>2026-04-24T15:36:07.056Z</time></trkpt><trkpt lat="37.7689002" lon="15.1407349"><ele>675.0</ele><time>2026-04-24T15:36:08.056Z</time></trkpt><trkpt lat="37.7688212" lon="15.1406181"><ele>675.0</ele><time>2026-04-24T15:36:09.056Z</time></trkpt><trkpt lat="37.7687469" lon="15.140503"><ele>675.0</ele><time>2026-04-24T15:36:10.056Z</time></trkpt><trkpt lat="37.7686703" lon="15.1403892"><ele>675.0</ele><time>2026-04-24T15:36:11.056Z</time></trkpt><trkpt lat="37.7685966" lon="15.1402758"><ele>675.0</ele><time>2026-04-24T15:36:12.056Z</time></trkpt><trkpt lat="37.7685227" lon="15.1401702"><ele>675.0</ele><time>2026-04-24T15:36:13.057Z</time></trkpt><trkpt lat="37.7684493" lon="15.1400739"><ele>675.0</ele><time>2026-04-24T15:36:14.056Z</time></trkpt><trkpt lat="37.7683743" lon="15.1399854"><ele>675.0</ele><time>2026-04-24T15:36:15.056Z</time></trkpt><trkpt lat="37.7682886" lon="15.1399083"><ele>679.25</ele><time>2026-04-24T15:36:16.056Z</time></trkpt><trkpt lat="37.7681924" lon="15.1398358"><ele>683.5</ele><time>2026-04-24T15:36:17.056Z</time></trkpt><trkpt lat="37.7680866" lon="15.1397667"><ele>687.75</ele><time>2026-04-24T15:36:18.056Z</time></trkpt><trkpt lat="37.7679797" lon="15.1396952"><ele>692.0</ele><time>2026-04-24T15:36:19.056Z</time></trkpt><trkpt lat="37.7678678" lon="15.139624"><ele>692.0</ele><time>2026-04-24T15:36:20.057Z</time></trkpt><trkpt lat="37.7677523" lon="15.1395509"><ele>692.0</ele><time>2026-04-24T15:36:21.056Z</time></trkpt><trkpt lat="37.7676372" lon="15.1394767"><ele>692.0</ele><time>2026-04-24T15:36:22.056Z</time></trkpt><trkpt lat="37.7675239" lon="15.1394"><ele>692.0</ele><time>2026-04-24T15:36:23.056Z</time></trkpt><trkpt lat="37.7674137" lon="15.1393275"><ele>692.75</ele><time>2026-04-24T15:36:24.056Z</time></trkpt><trkpt lat="37.7673076" lon="15.1392564"><ele>693.5</ele><time>2026-04-24T15:36:25.056Z</time></trkpt><trkpt lat="37.7672028" lon="15.1391819"><ele>694.25</ele><time>2026-04-24T15:36:26.057Z</time></trkpt><trkpt lat="37.767097" lon="15.1391103"><ele>695.0</ele><time>2026-04-24T15:36:27.056Z</time></trkpt><trkpt lat="37.7669898" lon="15.1390381"><ele>695.0</ele><time>2026-04-24T15:36:28.056Z</time></trkpt><trkpt lat="37.7668785" lon="15.1389674"><ele>695.0</ele><time>2026-04-24T15:36:29.057Z</time></trkpt><trkpt lat="37.7667655" lon="15.1389052"><ele>695.0</ele><time>2026-04-24T15:36:30.056Z</time></trkpt><trkpt lat="37.7666477" lon="15.1388507"><ele>695.0</ele><time>2026-04-24T15:36:31.056Z</time></trkpt><trkpt lat="37.7665245" lon="15.1388021"><ele>690.5</ele><time>2026-04-24T15:36:32.057Z</time></trkpt><trkpt lat="37.7663956" lon="15.1387572"><ele>686.0</ele><time>2026-04-24T15:36:33.056Z</time></trkpt><trkpt lat="37.7662638" lon="15.1387164"><ele>681.5</ele><time>2026-04-24T15:36:34.056Z</time></trkpt><trkpt lat="37.7661341" lon="15.1386716"><ele>677.0</ele><time>2026-04-24T15:36:35.056Z</time></trkpt><trkpt lat="37.7660066" lon="15.1386258"><ele>674.25</ele><time>2026-04-24T15:36:36.056Z</time></trkpt><trkpt lat="37.7658789" lon="15.1385828"><ele>671.5</ele><time>2026-04-24T15:36:37.057Z</time></trkpt><trkpt lat="37.7657537" lon="15.1385444"><ele>668.75</ele><time>2026-04-24T15:36:38.057Z</time></trkpt><trkpt lat="37.765631" lon="15.1385078"><ele>666.0</ele><time>2026-04-24T15:36:39.056Z</time></trkpt><trkpt lat="37.7655136" lon="15.1384677"><ele>666.0</ele><time>2026-04-24T15:36:40.056Z</time></trkpt><trkpt lat="37.7653989" lon="15.1384237"><ele>666.0</ele><time>2026-04-24T15:36:41.056Z</time></trkpt><trkpt lat="37.7652876" lon="15.1383799"><ele>666.0</ele><time>2026-04-24T15:36:42.057Z</time></trkpt><trkpt lat="37.7651825" lon="15.1383418"><ele>666.0</ele><time>2026-04-24T15:36:43.056Z</time></trkpt><trkpt lat="37.7650793" lon="15.1383069"><ele>664.8</ele><time>2026-04-24T15:36:44.056Z</time></trkpt><trkpt lat="37.7649821" lon="15.1382768"><ele>663.5999999999999</ele><time>2026-04-24T15:36:45.057Z</time></trkpt><trkpt lat="37.7648861" lon="15.1382606"><ele>662.4</ele><time>2026-04-24T15:36:46.057Z</time></trkpt><trkpt lat="37.764792" lon="15.1382666"><ele>661.2</ele><time>2026-04-24T15:36:47.056Z</time></trkpt><trkpt lat="37.7647017" lon="15.1383015"><ele>660.0</ele><time>2026-04-24T15:36:48.056Z</time></trkpt><trkpt lat="37.7646154" lon="15.1383624"><ele>660.0</ele><time>2026-04-24T15:36:49.056Z</time></trkpt><trkpt lat="37.7645342" lon="15.1384449"><ele>660.0</ele><time>2026-04-24T15:36:50.056Z</time></trkpt><trkpt lat="37.7644507" lon="15.1385401"><ele>660.0</ele><time>2026-04-24T15:36:51.057Z</time></trkpt><trkpt lat="37.764366" lon="15.1386482"><ele>660.0</ele><time>2026-04-24T15:36:52.057Z</time></trkpt><trkpt lat="37.7642786" lon="15.1387616"><ele>660.5</ele><time>2026-04-24T15:36:53.056Z</time></trkpt><trkpt lat="37.7641884" lon="15.1388784"><ele>661.0</ele><time>2026-04-24T15:36:54.056Z</time></trkpt><trkpt lat="37.7640974" lon="15.1389966"><ele>661.5</ele><time>2026-04-24T15:36:55.056Z</time></trkpt><trkpt lat="37.7640079" lon="15.1391149"><ele>662.0</ele><time>2026-04-24T15:36:56.056Z</time></trkpt><trkpt lat="37.7639212" lon="15.1392289"><ele>660.4000000000001</ele><time>2026-04-24T15:36:57.056Z</time></trkpt><trkpt lat="37.7638371" lon="15.1393373"><ele>658.8000000000001</ele><time>2026-04-24T15:36:58.056Z</time></trkpt><trkpt lat="37.7637535" lon="15.1394377"><ele>657.2</ele><time>2026-04-24T15:36:59.056Z</time></trkpt><trkpt lat="37.7636773" lon="15.1395283"><ele>655.6</ele><time>2026-04-24T15:37:00.057Z</time></trkpt><trkpt lat="37.763611" lon="15.1396194"><ele>654.0</ele><time>2026-04-24T15:37:01.056Z</time></trkpt><trkpt lat="37.7635577" lon="15.1397215"><ele>654.0</ele><time>2026-04-24T15:37:02.056Z</time></trkpt><trkpt lat="37.7635215" lon="15.1398348"><ele>654.0</ele><time>2026-04-24T15:37:03.056Z</time></trkpt><trkpt lat="37.7635034" lon="15.1399597"><ele>654.0</ele><time>2026-04-24T15:37:04.057Z</time></trkpt><trkpt lat="37.7634926" lon="15.1400904"><ele>654.0</ele><time>2026-04-24T15:37:05.056Z</time></trkpt><trkpt lat="37.7634889" lon="15.1402247"><ele>654.0</ele><time>2026-04-24T15:37:06.056Z</time></trkpt><trkpt lat="37.7634872" lon="15.1403619"><ele>652.6</ele><time>2026-04-24T15:37:07.056Z</time></trkpt><trkpt lat="37.7634819" lon="15.1404958"><ele>651.2</ele><time>2026-04-24T15:37:08.057Z</time></trkpt><trkpt lat="37.7634691" lon="15.1406189"><ele>649.8000000000001</ele><time>2026-04-24T15:37:09.056Z</time></trkpt><trkpt lat="37.763446" lon="15.1407248"><ele>648.4000000000001</ele><time>2026-04-24T15:37:10.056Z</time></trkpt><trkpt lat="37.763412" lon="15.1408229"><ele>647.0</ele><time>2026-04-24T15:37:11.056Z</time></trkpt><trkpt lat="37.7633582" lon="15.1409042"><ele>646.3333333333333</ele><time>2026-04-24T15:37:12.056Z</time></trkpt><trkpt lat="37.7632893" lon="15.1409654"><ele>645.6666666666666</ele><time>2026-04-24T15:37:13.056Z</time></trkpt><trkpt lat="37.7632061" lon="15.1410067"><ele>645.0</ele><time>2026-04-24T15:37:14.056Z</time></trkpt><trkpt lat="37.7631205" lon="15.1410278"><ele>644.3333333333334</ele><time>2026-04-24T15:37:15.057Z</time></trkpt><trkpt lat="37.7630385" lon="15.1410259"><ele>643.6666666666667</ele><time>2026-04-24T15:37:16.056Z</time></trkpt><trkpt lat="37.7629688" lon="15.1409966"><ele>643.0</ele><time>2026-04-24T15:37:17.056Z</time></trkpt><trkpt lat="37.7629096" lon="15.1409447"><ele>643.0</ele><time>2026-04-24T15:37:18.056Z</time></trkpt><trkpt lat="37.7628597" lon="15.1408724"><ele>643.0</ele><time>2026-04-24T15:37:19.057Z</time></trkpt><trkpt lat="37.7628232" lon="15.1407812"><ele>643.0</ele><time>2026-04-24T15:37:20.057Z</time></trkpt><trkpt lat="37.7627894" lon="15.1406841"><ele>643.0</ele><time>2026-04-24T15:37:21.056Z</time></trkpt><trkpt lat="37.7627639" lon="15.1405782"><ele>643.0</ele><time>2026-04-24T15:37:22.056Z</time></trkpt><trkpt lat="37.7627414" lon="15.1404717"><ele>643.0</ele><time>2026-04-24T15:37:23.057Z</time></trkpt><trkpt lat="37.7627115" lon="15.1403651"><ele>642.3333333333334</ele><time>2026-04-24T15:37:24.057Z</time></trkpt><trkpt lat="37.7626687" lon="15.1402694"><ele>641.6666666666667</ele><time>2026-04-24T15:37:25.056Z</time></trkpt><trkpt lat="37.7626124" lon="15.1401856"><ele>641.0</ele><time>2026-04-24T15:37:26.056Z</time></trkpt><trkpt lat="37.7625445" lon="15.1401148"><ele>640.3333333333334</ele><time>2026-04-24T15:37:27.056Z</time></trkpt><trkpt lat="37.7624681" lon="15.1400571"><ele>639.6666666666666</ele><time>2026-04-24T15:37:28.057Z</time></trkpt><trkpt lat="37.7623895" lon="15.1400227"><ele>639.0</ele><time>2026-04-24T15:37:29.056Z</time></trkpt><trkpt lat="37.7623078" lon="15.1400139"><ele>639.0</ele><time>2026-04-24T15:37:30.057Z</time></trkpt><trkpt lat="37.7622251" lon="15.140036"><ele>639.0</ele><time>2026-04-24T15:37:31.057Z</time></trkpt><trkpt lat="37.7621417" lon="15.140086"><ele>639.0</ele><time>2026-04-24T15:37:32.056Z</time></trkpt><trkpt lat="37.7620596" lon="15.1401586"><ele>639.0</ele><time>2026-04-24T15:37:33.056Z</time></trkpt><trkpt lat="37.7619756" lon="15.1402515"><ele>639.0</ele><time>2026-04-24T15:37:34.056Z</time></trkpt><trkpt lat="37.7618905" lon="15.1403572"><ele>637.0</ele><time>2026-04-24T15:37:35.057Z</time></trkpt><trkpt lat="37.7618029" lon="15.1404689"><ele>635.0</ele><time>2026-04-24T15:37:36.056Z</time></trkpt><trkpt lat="37.7617138" lon="15.1405848"><ele>633.0</ele><time>2026-04-24T15:37:37.056Z</time></trkpt><trkpt lat="37.761621" lon="15.1407023"><ele>631.0</ele><time>2026-04-24T15:37:38.056Z</time></trkpt><trkpt lat="37.7615263" lon="15.1408207"><ele>631.0</ele><time>2026-04-24T15:37:39.056Z</time></trkpt><trkpt lat="37.761435" lon="15.1409348"><ele>631.0</ele><time>2026-04-24T15:37:40.057Z</time></trkpt><trkpt lat="37.7613443" lon="15.141046"><ele>631.0</ele><time>2026-04-24T15:37:41.056Z</time></trkpt><trkpt lat="37.7612556" lon="15.1411553"><ele>631.0</ele><time>2026-04-24T15:37:42.057Z</time></trkpt><trkpt lat="37.7611687" lon="15.141258"><ele>631.0</ele><time>2026-04-24T15:37:43.056Z</time></trkpt><trkpt lat="37.7610863" lon="15.1413513"><ele>631.0</ele><time>2026-04-24T15:37:44.056Z</time></trkpt><trkpt lat="37.7610033" lon="15.1414284"><ele>631.0</ele><time>2026-04-24T15:37:45.056Z</time></trkpt><trkpt lat="37.7609145" lon="15.1414843"><ele>631.0</ele><time>2026-04-24T15:37:46.057Z</time></trkpt><trkpt lat="37.7608179" lon="15.1415168"><ele>631.0</ele><time>2026-04-24T15:37:47.056Z</time></trkpt><trkpt lat="37.7607144" lon="15.1415298"><ele>632.4</ele><time>2026-04-24T15:37:48.057Z</time></trkpt><trkpt lat="37.7606082" lon="15.1415329"><ele>633.8</ele><time>2026-04-24T15:37:49.056Z</time></trkpt><trkpt lat="37.7604985" lon="15.1415337"><ele>635.1999999999999</ele><time>2026-04-24T15:37:50.056Z</time></trkpt><trkpt lat="37.7603857" lon="15.14153"><ele>636.6</ele><time>2026-04-24T15:37:51.056Z</time></trkpt><trkpt lat="37.760271" lon="15.1415262"><ele>638.0</ele><time>2026-04-24T15:37:52.056Z</time></trkpt><trkpt lat="37.7601519" lon="15.1415236"><ele>638.0</ele><time>2026-04-24T15:37:53.056Z</time></trkpt><trkpt lat="37.760032" lon="15.1415215"><ele>638.0</ele><time>2026-04-24T15:37:54.056Z</time></trkpt><trkpt lat="37.7599081" lon="15.1415181"><ele>638.0</ele><time>2026-04-24T15:37:55.056Z</time></trkpt><trkpt lat="37.7597833" lon="15.1415145"><ele>638.0</ele><time>2026-04-24T15:37:56.056Z</time></trkpt><trkpt lat="37.7596595" lon="15.1415112"><ele>638.0</ele><time>2026-04-24T15:37:57.056Z</time></trkpt><trkpt lat="37.7595353" lon="15.1415102"><ele>638.0</ele><time>2026-04-24T15:37:58.056Z</time></trkpt><trkpt lat="37.7594133" lon="15.1415053"><ele>638.0</ele><time>2026-04-24T15:37:59.056Z</time></trkpt><trkpt lat="37.7592966" lon="15.1414997"><ele>638.0</ele><time>2026-04-24T15:38:00.056Z</time></trkpt><trkpt lat="37.7591973" lon="15.141494"><ele>637.3333333333333</ele><time>2026-04-24T15:38:01.056Z</time></trkpt><trkpt lat="37.7591144" lon="15.1414812"><ele>636.6666666666666</ele><time>2026-04-24T15:38:02.057Z</time></trkpt><trkpt lat="37.7590409" lon="15.1414517"><ele>636.0</ele><time>2026-04-24T15:38:03.056Z</time></trkpt><trkpt lat="37.7589749" lon="15.1414023"><ele>635.3333333333334</ele><time>2026-04-24T15:38:04.056Z</time></trkpt><trkpt lat="37.758919" lon="15.1413329"><ele>634.6666666666667</ele><time>2026-04-24T15:38:05.056Z</time></trkpt><trkpt lat="37.7588755" lon="15.1412484"><ele>634.0</ele><time>2026-04-24T15:38:06.056Z</time></trkpt><trkpt lat="37.758846" lon="15.1411462"><ele>634.0</ele><time>2026-04-24T15:38:07.056Z</time></trkpt><trkpt lat="37.7588226" lon="15.1410324"><ele>634.0</ele><time>2026-04-24T15:38:08.056Z</time></trkpt><trkpt lat="37.7588003" lon="15.1409158"><ele>634.0</ele><time>2026-04-24T15:38:09.056Z</time></trkpt><trkpt lat="37.7587791" lon="15.1408042"><ele>634.0</ele><time>2026-04-24T15:38:10.056Z</time></trkpt><trkpt lat="37.758759" lon="15.1406995"><ele>634.0</ele><time>2026-04-24T15:38:11.057Z</time></trkpt><trkpt lat="37.7587316" lon="15.140607"><ele>634.0</ele><time>2026-04-24T15:38:12.056Z</time></trkpt><trkpt lat="37.7586888" lon="15.140528"><ele>634.3333333333334</ele><time>2026-04-24T15:38:13.056Z</time></trkpt><trkpt lat="37.758632" lon="15.1404687"><ele>634.6666666666667</ele><time>2026-04-24T15:38:14.056Z</time></trkpt><trkpt lat="37.7585668" lon="15.1404269"><ele>635.0</ele><time>2026-04-24T15:38:15.057Z</time></trkpt><trkpt lat="37.7584968" lon="15.1404043"><ele>635.3333333333334</ele><time>2026-04-24T15:38:16.056Z</time></trkpt><trkpt lat="37.7584324" lon="15.1403978"><ele>635.6666666666666</ele><time>2026-04-24T15:38:17.056Z</time></trkpt><trkpt lat="37.7583256" lon="15.1404538"><ele>636.0</ele><time>2026-04-24T15:38:19.056Z</time></trkpt><trkpt lat="37.7582816" lon="15.1405188"><ele>636.0</ele><time>2026-04-24T15:38:20.056Z</time></trkpt><trkpt lat="37.7582443" lon="15.1406008"><ele>636.0</ele><time>2026-04-24T15:38:21.057Z</time></trkpt><trkpt lat="37.7581972" lon="15.1406864"><ele>636.0</ele><time>2026-04-24T15:38:22.056Z</time></trkpt><trkpt lat="37.7581393" lon="15.1407515"><ele>636.0</ele><time>2026-04-24T15:38:23.057Z</time></trkpt><trkpt lat="37.7580747" lon="15.1408045"><ele>636.0</ele><time>2026-04-24T15:38:24.056Z</time></trkpt><trkpt lat="37.7579994" lon="15.140845"><ele>636.0</ele><time>2026-04-24T15:38:25.056Z</time></trkpt><trkpt lat="37.7579248" lon="15.1408862"><ele>633.8</ele><time>2026-04-24T15:38:26.056Z</time></trkpt><trkpt lat="37.7578443" lon="15.1409236"><ele>631.6</ele><time>2026-04-24T15:38:27.056Z</time></trkpt><trkpt lat="37.7577571" lon="15.140957"><ele>629.4</ele><time>2026-04-24T15:38:28.057Z</time></trkpt><trkpt lat="37.7576669" lon="15.1409972"><ele>627.2</ele><time>2026-04-24T15:38:29.056Z</time></trkpt><trkpt lat="37.7575734" lon="15.1410433"><ele>625.0</ele><time>2026-04-24T15:38:30.056Z</time></trkpt><trkpt lat="37.7574767" lon="15.1410894"><ele>625.0</ele><time>2026-04-24T15:38:31.057Z</time></trkpt><trkpt lat="37.7573776" lon="15.1411366"><ele>625.0</ele><time>2026-04-24T15:38:32.056Z</time></trkpt><trkpt lat="37.7572758" lon="15.1411853"><ele>625.0</ele><time>2026-04-24T15:38:33.057Z</time></trkpt><trkpt lat="37.7571753" lon="15.1412358"><ele>625.0</ele><time>2026-04-24T15:38:34.056Z</time></trkpt><trkpt lat="37.7570743" lon="15.1412841"><ele>625.0</ele><time>2026-04-24T15:38:35.057Z</time></trkpt><trkpt lat="37.7569762" lon="15.1413302"><ele>625.0</ele><time>2026-04-24T15:38:36.056Z</time></trkpt><trkpt lat="37.7568823" lon="15.141374"><ele>625.0</ele><time>2026-04-24T15:38:37.056Z</time></trkpt><trkpt lat="37.7567903" lon="15.1414132"><ele>625.0</ele><time>2026-04-24T15:38:38.056Z</time></trkpt><trkpt lat="37.7566989" lon="15.1414451"><ele>625.0</ele><time>2026-04-24T15:38:39.057Z</time></trkpt><trkpt lat="37.7566131" lon="15.1414627"><ele>625.0</ele><time>2026-04-24T15:38:40.057Z</time></trkpt><trkpt lat="37.7565285" lon="15.1414662"><ele>624.3333333333334</ele><time>2026-04-24T15:38:41.057Z</time></trkpt><trkpt lat="37.7564463" lon="15.1414585"><ele>623.6666666666667</ele><time>2026-04-24T15:38:42.056Z</time></trkpt><trkpt lat="37.7563648" lon="15.1414399"><ele>623.0</ele><time>2026-04-24T15:38:43.057Z</time></trkpt><trkpt lat="37.7562809" lon="15.141416"><ele>622.3333333333334</ele><time>2026-04-24T15:38:44.056Z</time></trkpt><trkpt lat="37.7561926" lon="15.1413849"><ele>621.6666666666666</ele><time>2026-04-24T15:38:45.056Z</time></trkpt><trkpt lat="37.7560972" lon="15.1413581"><ele>621.0</ele><time>2026-04-24T15:38:46.056Z</time></trkpt><trkpt lat="37.755998" lon="15.1413315"><ele>621.0</ele><time>2026-04-24T15:38:47.056Z</time></trkpt><trkpt lat="37.7558964" lon="15.1413053"><ele>621.0</ele><time>2026-04-24T15:38:48.056Z</time></trkpt><trkpt lat="37.7557921" lon="15.1412875"><ele>621.0</ele><time>2026-04-24T15:38:49.056Z</time></trkpt><trkpt lat="37.7556903" lon="15.1412722"><ele>621.0</ele><time>2026-04-24T15:38:50.056Z</time></trkpt><trkpt lat="37.7555847" lon="15.1412671"><ele>621.0</ele><time>2026-04-24T15:38:51.056Z</time></trkpt><trkpt lat="37.7554786" lon="15.1412693"><ele>621.0</ele><time>2026-04-24T15:38:52.056Z</time></trkpt><trkpt lat="37.7553699" lon="15.1412825"><ele>621.0</ele><time>2026-04-24T15:38:53.056Z</time></trkpt><trkpt lat="37.7552603" lon="15.1412968"><ele>621.0</ele><time>2026-04-24T15:38:54.056Z</time></trkpt><trkpt lat="37.7551512" lon="15.141314"><ele>621.0</ele><time>2026-04-24T15:38:55.056Z</time></trkpt><trkpt lat="37.7550415" lon="15.1413311"><ele>621.0</ele><time>2026-04-24T15:38:56.057Z</time></trkpt><trkpt lat="37.754933" lon="15.1413471"><ele>619.8</ele><time>2026-04-24T15:38:57.056Z</time></trkpt><trkpt lat="37.754824" lon="15.1413639"><ele>618.6</ele><time>2026-04-24T15:38:58.056Z</time></trkpt><trkpt lat="37.7547158" lon="15.1413804"><ele>617.4</ele><time>2026-04-24T15:38:59.056Z</time></trkpt><trkpt lat="37.7546093" lon="15.1413908"><ele>616.2</ele><time>2026-04-24T15:39:00.056Z</time></trkpt><trkpt lat="37.7545032" lon="15.1413951"><ele>615.0</ele><time>2026-04-24T15:39:01.056Z</time></trkpt><trkpt lat="37.7544012" lon="15.1413923"><ele>614.5</ele><time>2026-04-24T15:39:02.056Z</time></trkpt><trkpt lat="37.7543039" lon="15.1413845"><ele>614.0</ele><time>2026-04-24T15:39:03.056Z</time></trkpt><trkpt lat="37.7542132" lon="15.1413733"><ele>613.5</ele><time>2026-04-24T15:39:04.056Z</time></trkpt><trkpt lat="37.7541287" lon="15.1413636"><ele>613.0</ele><time>2026-04-24T15:39:05.056Z</time></trkpt><trkpt lat="37.7540519" lon="15.1413576"><ele>612.5</ele><time>2026-04-24T15:39:06.056Z</time></trkpt><trkpt lat="37.7539802" lon="15.1413621"><ele>612.0</ele><time>2026-04-24T15:39:07.056Z</time></trkpt><trkpt lat="37.7539167" lon="15.141384"><ele>612.0</ele><time>2026-04-24T15:39:08.056Z</time></trkpt><trkpt lat="37.7538614" lon="15.1414291"><ele>612.0</ele><time>2026-04-24T15:39:09.056Z</time></trkpt><trkpt lat="37.7538162" lon="15.1414913"><ele>612.0</ele><time>2026-04-24T15:39:10.057Z</time></trkpt><trkpt lat="37.753784" lon="15.1415748"><ele>612.0</ele><time>2026-04-24T15:39:11.056Z</time></trkpt><trkpt lat="37.7537659" lon="15.1416698"><ele>612.0</ele><time>2026-04-24T15:39:12.056Z</time></trkpt><trkpt lat="37.7537673" lon="15.1417729"><ele>612.0</ele><time>2026-04-24T15:39:13.057Z</time></trkpt><trkpt lat="37.7537813" lon="15.1418851"><ele>609.6</ele><time>2026-04-24T15:39:14.057Z</time></trkpt><trkpt lat="37.7538033" lon="15.1419983"><ele>607.2</ele><time>2026-04-24T15:39:15.057Z</time></trkpt><trkpt lat="37.7538286" lon="15.1421133"><ele>604.8</ele><time>2026-04-24T15:39:16.056Z</time></trkpt><trkpt lat="37.7538566" lon="15.142235"><ele>602.4</ele><time>2026-04-24T15:39:17.056Z</time></trkpt><trkpt lat="37.753891" lon="15.1423557"><ele>600.0</ele><time>2026-04-24T15:39:18.057Z</time></trkpt><trkpt lat="37.7539237" lon="15.1424706"><ele>598.6666666666666</ele><time>2026-04-24T15:39:19.056Z</time></trkpt><trkpt lat="37.7539505" lon="15.1425778"><ele>597.3333333333334</ele><time>2026-04-24T15:39:20.056Z</time></trkpt><trkpt lat="37.7539659" lon="15.1426764"><ele>596.0</ele><time>2026-04-24T15:39:21.056Z</time></trkpt><trkpt lat="37.7539667" lon="15.1427642"><ele>594.6666666666667</ele><time>2026-04-24T15:39:22.056Z</time></trkpt><trkpt lat="37.7539384" lon="15.1428944"><ele>593.3333333333334</ele><time>2026-04-24T15:39:24.056Z</time></trkpt><trkpt lat="37.7538902" lon="15.1429537"><ele>592.0</ele><time>2026-04-24T15:39:26.056Z</time></trkpt><trkpt lat="37.7538012" lon="15.1429423"><ele>592.0</ele><time>2026-04-24T15:39:29.056Z</time></trkpt><trkpt lat="37.75373" lon="15.1429048"><ele>592.0</ele><time>2026-04-24T15:39:32.056Z</time></trkpt><trkpt lat="37.7536609" lon="15.1429422"><ele>592.0</ele><time>2026-04-24T15:41:13.055Z</time></trkpt><trkpt lat="37.7536108" lon="15.1429932"><ele>592.0</ele><time>2026-04-24T15:41:15.052Z</time></trkpt><trkpt lat="37.7535185" lon="15.1429976"><ele>592.0</ele><time>2026-04-24T15:41:17.054Z</time></trkpt><trkpt lat="37.7533999" lon="15.1429858"><ele>592.0</ele><time>2026-04-24T15:41:19.055Z</time></trkpt><trkpt lat="37.7533332" lon="15.1429789"><ele>591.8571428571429</ele><time>2026-04-24T15:41:20.05Z</time></trkpt><trkpt lat="37.7532687" lon="15.1429679"><ele>591.7142857142857</ele><time>2026-04-24T15:41:21.059Z</time></trkpt><trkpt lat="37.7532057" lon="15.1429575"><ele>591.5714285714286</ele><time>2026-04-24T15:41:22.051Z</time></trkpt><trkpt lat="37.7531381" lon="15.1429434"><ele>591.4285714285714</ele><time>2026-04-24T15:41:23.05Z</time></trkpt><trkpt lat="37.7530661" lon="15.1429287"><ele>591.2857142857143</ele><time>2026-04-24T15:41:24.061Z</time></trkpt><trkpt lat="37.7529908" lon="15.1429182"><ele>591.1428571428571</ele><time>2026-04-24T15:41:25.054Z</time></trkpt><trkpt lat="37.7529164" lon="15.1429092"><ele>591.0</ele><time>2026-04-24T15:41:26.06Z</time></trkpt><trkpt lat="37.7528418" lon="15.1428954"><ele>591.0</ele><time>2026-04-24T15:41:27.055Z</time></trkpt><trkpt lat="37.7527649" lon="15.1428829"><ele>591.0</ele><time>2026-04-24T15:41:28.052Z</time></trkpt><trkpt lat="37.7526879" lon="15.1428678"><ele>591.0</ele><time>2026-04-24T15:41:29.054Z</time></trkpt><trkpt lat="37.7526066" lon="15.1428512"><ele>591.0</ele><time>2026-04-24T15:41:30.053Z</time></trkpt><trkpt lat="37.7525196" lon="15.1428337"><ele>591.0</ele><time>2026-04-24T15:41:31.056Z</time></trkpt><trkpt lat="37.7524278" lon="15.142815"><ele>591.0</ele><time>2026-04-24T15:41:32.056Z</time></trkpt><trkpt lat="37.7523312" lon="15.1427938"><ele>590.0</ele><time>2026-04-24T15:41:33.051Z</time></trkpt><trkpt lat="37.7522297" lon="15.1427755"><ele>589.0</ele><time>2026-04-24T15:41:34.052Z</time></trkpt><trkpt lat="37.7521225" lon="15.1427571"><ele>588.0</ele><time>2026-04-24T15:41:35.058Z</time></trkpt><trkpt lat="37.752011" lon="15.1427368"><ele>587.0</ele><time>2026-04-24T15:41:36.053Z</time></trkpt><trkpt lat="37.7518947" lon="15.1427147"><ele>586.0</ele><time>2026-04-24T15:41:37.058Z</time></trkpt><trkpt lat="37.7517692" lon="15.142693"><ele>585.0</ele><time>2026-04-24T15:41:38.061Z</time></trkpt><trkpt lat="37.7516399" lon="15.1426695"><ele>584.0</ele><time>2026-04-24T15:41:39.057Z</time></trkpt><trkpt lat="37.7515073" lon="15.1426494"><ele>583.0</ele><time>2026-04-24T15:41:40.061Z</time></trkpt><trkpt lat="37.7513774" lon="15.1426304"><ele>582.0</ele><time>2026-04-24T15:41:41.056Z</time></trkpt><trkpt lat="37.7512484" lon="15.1426094"><ele>582.0</ele><time>2026-04-24T15:41:42.048Z</time></trkpt><trkpt lat="37.7511213" lon="15.1425873"><ele>582.0</ele><time>2026-04-24T15:41:43.049Z</time></trkpt><trkpt lat="37.750994" lon="15.1425645"><ele>582.0</ele><time>2026-04-24T15:41:44.061Z</time></trkpt><trkpt lat="37.7508684" lon="15.1425467"><ele>582.0</ele><time>2026-04-24T15:41:45.058Z</time></trkpt><trkpt lat="37.7507469" lon="15.1425266"><ele>582.8000000000001</ele><time>2026-04-24T15:41:46.057Z</time></trkpt><trkpt lat="37.7506356" lon="15.1425066"><ele>583.6</ele><time>2026-04-24T15:41:47.053Z</time></trkpt><trkpt lat="37.7505294" lon="15.1424891"><ele>584.4000000000001</ele><time>2026-04-24T15:41:48.059Z</time></trkpt><trkpt lat="37.7504325" lon="15.1424707"><ele>585.2</ele><time>2026-04-24T15:41:49.05Z</time></trkpt><trkpt lat="37.7503415" lon="15.142442"><ele>586.0</ele><time>2026-04-24T15:41:50.06Z</time></trkpt><trkpt lat="37.7502528" lon="15.1423982"><ele>587.0</ele><time>2026-04-24T15:41:51.059Z</time></trkpt><trkpt lat="37.7501684" lon="15.1423427"><ele>588.0</ele><time>2026-04-24T15:41:52.052Z</time></trkpt><trkpt lat="37.7500873" lon="15.142273"><ele>589.0</ele><time>2026-04-24T15:41:53.059Z</time></trkpt><trkpt lat="37.750005" lon="15.1421947"><ele>590.0</ele><time>2026-04-24T15:41:54.058Z</time></trkpt><trkpt lat="37.7499162" lon="15.142114"><ele>591.0</ele><time>2026-04-24T15:41:55.049Z</time></trkpt><trkpt lat="37.7498217" lon="15.1420316"><ele>591.0</ele><time>2026-04-24T15:41:56.049Z</time></trkpt><trkpt lat="37.7497205" lon="15.1419541"><ele>591.0</ele><time>2026-04-24T15:41:57.047Z</time></trkpt><trkpt lat="37.7496119" lon="15.1418822"><ele>591.0</ele><time>2026-04-24T15:41:58.051Z</time></trkpt><trkpt lat="37.7494978" lon="15.1418164"><ele>591.0</ele><time>2026-04-24T15:41:59.057Z</time></trkpt><trkpt lat="37.7493837" lon="15.1417503"><ele>591.5</ele><time>2026-04-24T15:42:00.05Z</time></trkpt><trkpt lat="37.7492689" lon="15.1416834"><ele>592.0</ele><time>2026-04-24T15:42:01.054Z</time></trkpt><trkpt lat="37.7491579" lon="15.1416169"><ele>592.5</ele><time>2026-04-24T15:42:02.059Z</time></trkpt><trkpt lat="37.7490457" lon="15.1415528"><ele>593.0</ele><time>2026-04-24T15:42:03.054Z</time></trkpt><trkpt lat="37.7489341" lon="15.1414869"><ele>593.0</ele><time>2026-04-24T15:42:04.06Z</time></trkpt><trkpt lat="37.7488222" lon="15.1414204"><ele>593.0</ele><time>2026-04-24T15:42:05.061Z</time></trkpt><trkpt lat="37.7487111" lon="15.1413564"><ele>593.0</ele><time>2026-04-24T15:42:06.061Z</time></trkpt><trkpt lat="37.7486006" lon="15.1412928"><ele>593.0</ele><time>2026-04-24T15:42:07.054Z</time></trkpt><trkpt lat="37.7484912" lon="15.1412309"><ele>591.0</ele><time>2026-04-24T15:42:08.057Z</time></trkpt><trkpt lat="37.7483819" lon="15.1411685"><ele>589.0</ele><time>2026-04-24T15:42:09.06Z</time></trkpt><trkpt lat="37.7482763" lon="15.1411009"><ele>587.0</ele><time>2026-04-24T15:42:10.059Z</time></trkpt><trkpt lat="37.7481737" lon="15.1410272"><ele>585.0</ele><time>2026-04-24T15:42:11.055Z</time></trkpt><trkpt lat="37.7480783" lon="15.1409459"><ele>585.0</ele><time>2026-04-24T15:42:12.049Z</time></trkpt><trkpt lat="37.7479848" lon="15.1408619"><ele>585.0</ele><time>2026-04-24T15:42:13.06Z</time></trkpt><trkpt lat="37.7478947" lon="15.1407774"><ele>585.0</ele><time>2026-04-24T15:42:14.059Z</time></trkpt><trkpt lat="37.7478059" lon="15.1406909"><ele>585.0</ele><time>2026-04-24T15:42:15.056Z</time></trkpt><trkpt lat="37.7477182" lon="15.1406077"><ele>585.0</ele><time>2026-04-24T15:42:16.054Z</time></trkpt><trkpt lat="37.747633" lon="15.1405221"><ele>585.6</ele><time>2026-04-24T15:42:17.058Z</time></trkpt><trkpt lat="37.7475498" lon="15.1404406"><ele>586.2</ele><time>2026-04-24T15:42:18.057Z</time></trkpt><trkpt lat="37.7474601" lon="15.1403695"><ele>586.8</ele><time>2026-04-24T15:42:19.053Z</time></trkpt><trkpt lat="37.7473665" lon="15.1403214"><ele>587.4</ele><time>2026-04-24T15:42:20.057Z</time></trkpt><trkpt lat="37.7472687" lon="15.1402982"><ele>588.0</ele><time>2026-04-24T15:42:21.049Z</time></trkpt><trkpt lat="37.7471699" lon="15.1403074"><ele>588.0</ele><time>2026-04-24T15:42:22.059Z</time></trkpt><trkpt lat="37.7470763" lon="15.1403482"><ele>588.0</ele><time>2026-04-24T15:42:23.059Z</time></trkpt><trkpt lat="37.7469897" lon="15.1404184"><ele>588.0</ele><time>2026-04-24T15:42:24.059Z</time></trkpt><trkpt lat="37.7469042" lon="15.1404937"><ele>588.0</ele><time>2026-04-24T15:42:25.059Z</time></trkpt><trkpt lat="37.746814" lon="15.1405621"><ele>588.0</ele><time>2026-04-24T15:42:26.059Z</time></trkpt><trkpt lat="37.7467173" lon="15.1406158"><ele>589.4</ele><time>2026-04-24T15:42:27.059Z</time></trkpt><trkpt lat="37.7466149" lon="15.1406546"><ele>590.8</ele><time>2026-04-24T15:42:28.059Z</time></trkpt><trkpt lat="37.7465102" lon="15.1406833"><ele>592.2</ele><time>2026-04-24T15:42:29.06Z</time></trkpt><trkpt lat="37.7464039" lon="15.1406958"><ele>593.6</ele><time>2026-04-24T15:42:30.059Z</time></trkpt><trkpt lat="37.7462936" lon="15.1406949"><ele>595.0</ele><time>2026-04-24T15:42:31.059Z</time></trkpt><trkpt lat="37.7461855" lon="15.1406782"><ele>595.0</ele><time>2026-04-24T15:42:32.06Z</time></trkpt><trkpt lat="37.7460809" lon="15.1406487"><ele>595.0</ele><time>2026-04-24T15:42:33.059Z</time></trkpt><trkpt lat="37.7459772" lon="15.1406186"><ele>595.0</ele><time>2026-04-24T15:42:34.06Z</time></trkpt><trkpt lat="37.7458742" lon="15.1405908"><ele>595.0</ele><time>2026-04-24T15:42:35.059Z</time></trkpt><trkpt lat="37.74577" lon="15.1405735"><ele>595.0</ele><time>2026-04-24T15:42:36.06Z</time></trkpt><trkpt lat="37.7456646" lon="15.140569"><ele>594.8</ele><time>2026-04-24T15:42:37.06Z</time></trkpt><trkpt lat="37.7455596" lon="15.1405755"><ele>594.6</ele><time>2026-04-24T15:42:38.059Z</time></trkpt><trkpt lat="37.7454549" lon="15.1405942"><ele>594.4</ele><time>2026-04-24T15:42:39.06Z</time></trkpt><trkpt lat="37.7453594" lon="15.1406239"><ele>594.2</ele><time>2026-04-24T15:42:40.059Z</time></trkpt><trkpt lat="37.745269" lon="15.1406574"><ele>594.0</ele><time>2026-04-24T15:42:41.06Z</time></trkpt><trkpt lat="37.7451855" lon="15.1406987"><ele>592.0</ele><time>2026-04-24T15:42:42.059Z</time></trkpt><trkpt lat="37.745107" lon="15.1407453"><ele>590.0</ele><time>2026-04-24T15:42:43.06Z</time></trkpt><trkpt lat="37.745033" lon="15.1407946"><ele>588.0</ele><time>2026-04-24T15:42:44.059Z</time></trkpt><trkpt lat="37.7449603" lon="15.1408444"><ele>586.0</ele><time>2026-04-24T15:42:45.059Z</time></trkpt><trkpt lat="37.7448859" lon="15.1408932"><ele>584.0</ele><time>2026-04-24T15:42:46.059Z</time></trkpt><trkpt lat="37.7448147" lon="15.1409417"><ele>582.0</ele><time>2026-04-24T15:42:47.059Z</time></trkpt><trkpt lat="37.7447471" lon="15.1409847"><ele>582.0</ele><time>2026-04-24T15:42:48.059Z</time></trkpt><trkpt lat="37.7446811" lon="15.1410238"><ele>582.0</ele><time>2026-04-24T15:42:49.06Z</time></trkpt><trkpt lat="37.7446211" lon="15.1410612"><ele>582.0</ele><time>2026-04-24T15:42:50.059Z</time></trkpt><trkpt lat="37.7445069" lon="15.141093"><ele>582.0</ele><time>2026-04-24T15:42:52.059Z</time></trkpt><trkpt lat="37.7444027" lon="15.1410465"><ele>582.0</ele><time>2026-04-24T15:42:54.059Z</time></trkpt><trkpt lat="37.7443125" lon="15.1409653"><ele>582.0</ele><time>2026-04-24T15:42:56.06Z</time></trkpt><trkpt lat="37.7442194" lon="15.1408892"><ele>582.0</ele><time>2026-04-24T15:42:58.059Z</time></trkpt><trkpt lat="37.7441479" lon="15.140788"><ele>582.0</ele><time>2026-04-24T15:43:00.059Z</time></trkpt><trkpt lat="37.7441182" lon="15.140664"><ele>582.0</ele><time>2026-04-24T15:43:02.059Z</time></trkpt><trkpt lat="37.7441397" lon="15.1405271"><ele>582.0</ele><time>2026-04-24T15:43:04.06Z</time></trkpt><trkpt lat="37.7441625" lon="15.1404507"><ele>582.0</ele><time>2026-04-24T15:43:05.059Z</time></trkpt><trkpt lat="37.7441903" lon="15.1403712"><ele>582.0</ele><time>2026-04-24T15:43:06.059Z</time></trkpt><trkpt lat="37.7442159" lon="15.1402938"><ele>582.0</ele><time>2026-04-24T15:43:07.059Z</time></trkpt><trkpt lat="37.7442408" lon="15.1401485"><ele>582.0</ele><time>2026-04-24T15:43:09.059Z</time></trkpt><trkpt lat="37.7442093" lon="15.1400194"><ele>582.0</ele><time>2026-04-24T15:43:11.059Z</time></trkpt><trkpt lat="37.7441179" lon="15.1399213"><ele>582.0</ele><time>2026-04-24T15:43:13.059Z</time></trkpt><trkpt lat="37.7440569" lon="15.1398887"><ele>582.0</ele><time>2026-04-24T15:43:14.059Z</time></trkpt><trkpt lat="37.7439914" lon="15.1398553"><ele>582.0</ele><time>2026-04-24T15:43:15.06Z</time></trkpt><trkpt lat="37.7439224" lon="15.1398163"><ele>582.0</ele><time>2026-04-24T15:43:16.06Z</time></trkpt><trkpt lat="37.7438474" lon="15.1397764"><ele>582.0</ele><time>2026-04-24T15:43:17.059Z</time></trkpt><trkpt lat="37.7437735" lon="15.1397376"><ele>582.0</ele><time>2026-04-24T15:43:18.06Z</time></trkpt><trkpt lat="37.7436978" lon="15.1396966"><ele>581.6666666666666</ele><time>2026-04-24T15:43:19.06Z</time></trkpt><trkpt lat="37.7436221" lon="15.1396544"><ele>581.3333333333334</ele><time>2026-04-24T15:43:20.059Z</time></trkpt><trkpt lat="37.7435469" lon="15.139612"><ele>581.0</ele><time>2026-04-24T15:43:21.06Z</time></trkpt><trkpt lat="37.7434718" lon="15.1395726"><ele>580.6666666666667</ele><time>2026-04-24T15:43:22.059Z</time></trkpt><trkpt lat="37.7433986" lon="15.1395289"><ele>580.3333333333334</ele><time>2026-04-24T15:43:23.059Z</time></trkpt><trkpt lat="37.7433272" lon="15.1394855"><ele>580.0</ele><time>2026-04-24T15:43:24.059Z</time></trkpt><trkpt lat="37.7432539" lon="15.1394458"><ele>580.0</ele><time>2026-04-24T15:43:25.059Z</time></trkpt><trkpt lat="37.7431845" lon="15.1394075"><ele>580.0</ele><time>2026-04-24T15:43:26.06Z</time></trkpt><trkpt lat="37.74312" lon="15.1393662"><ele>580.0</ele><time>2026-04-24T15:43:27.06Z</time></trkpt><trkpt lat="37.74306" lon="15.1393285"><ele>580.0</ele><time>2026-04-24T15:43:28.059Z</time></trkpt><trkpt lat="37.7429504" lon="15.1392663"><ele>580.0</ele><time>2026-04-24T15:43:30.059Z</time></trkpt><trkpt lat="37.7428517" lon="15.1392133"><ele>580.0</ele><time>2026-04-24T15:43:32.059Z</time></trkpt><trkpt lat="37.7427899" lon="15.1391837"><ele>578.8</ele><time>2026-04-24T15:43:34.06Z</time></trkpt><trkpt lat="37.7427019" lon="15.1392034"><ele>577.6</ele><time>2026-04-24T15:43:47.06Z</time></trkpt><trkpt lat="37.7426492" lon="15.1392767"><ele>576.4</ele><time>2026-04-24T15:43:49.059Z</time></trkpt><trkpt lat="37.7425849" lon="15.1393775"><ele>575.2</ele><time>2026-04-24T15:43:51.059Z</time></trkpt><trkpt lat="37.7425217" lon="15.1394781"><ele>574.0</ele><time>2026-04-24T15:43:53.06Z</time></trkpt><trkpt lat="37.7424471" lon="15.1395695"><ele>574.0</ele><time>2026-04-24T15:43:55.059Z</time></trkpt><trkpt lat="37.7423782" lon="15.139657"><ele>574.0</ele><time>2026-04-24T15:43:57.059Z</time></trkpt><trkpt lat="37.7423253" lon="15.1397165"><ele>574.0</ele><time>2026-04-24T15:43:59.059Z</time></trkpt><trkpt lat="37.7422726" lon="15.1397849"><ele>574.0</ele><time>2026-04-24T15:44:01.059Z</time></trkpt><trkpt lat="37.742217" lon="15.1398775"><ele>574.0</ele><time>2026-04-24T15:44:03.059Z</time></trkpt><trkpt lat="37.742181" lon="15.139974"><ele>574.0</ele><time>2026-04-24T15:44:05.059Z</time></trkpt><trkpt lat="37.7421565" lon="15.140095"><ele>572.4</ele><time>2026-04-24T15:44:07.059Z</time></trkpt><trkpt lat="37.7421273" lon="15.1402228"><ele>570.8</ele><time>2026-04-24T15:44:09.059Z</time></trkpt><trkpt lat="37.7421153" lon="15.1403483"><ele>569.2</ele><time>2026-04-24T15:44:11.059Z</time></trkpt><trkpt lat="37.7421359" lon="15.1404661"><ele>567.6</ele><time>2026-04-24T15:44:13.06Z</time></trkpt><trkpt lat="37.742183" lon="15.1405637"><ele>566.0</ele><time>2026-04-24T15:44:15.059Z</time></trkpt><trkpt lat="37.742249" lon="15.1406234"><ele>566.0</ele><time>2026-04-24T15:44:17.059Z</time></trkpt><trkpt lat="37.7423141" lon="15.1406721"><ele>566.0</ele><time>2026-04-24T15:44:19.059Z</time></trkpt><trkpt lat="37.7423841" lon="15.1407124"><ele>566.0</ele><time>2026-04-24T15:44:21.059Z</time></trkpt><trkpt lat="37.7424588" lon="15.140745"><ele>566.0</ele><time>2026-04-24T15:44:23.059Z</time></trkpt><trkpt lat="37.7425178" lon="15.1408039"><ele>566.0</ele><time>2026-04-24T15:44:25.059Z</time></trkpt><trkpt lat="37.7425315" lon="15.1409281"><ele>566.0</ele><time>2026-04-24T15:44:28.059Z</time></trkpt><trkpt lat="37.7424935" lon="15.1410502"><ele>563.25</ele><time>2026-04-24T15:44:30.059Z</time></trkpt><trkpt lat="37.7424478" lon="15.1411817"><ele>560.5</ele><time>2026-04-24T15:44:32.059Z</time></trkpt><trkpt lat="37.7424154" lon="15.1413229"><ele>557.75</ele><time>2026-04-24T15:44:34.059Z</time></trkpt><trkpt lat="37.74238" lon="15.141466"><ele>555.0</ele><time>2026-04-24T15:44:36.06Z</time></trkpt><trkpt lat="37.7423452" lon="15.14161"><ele>552.0</ele><time>2026-04-24T15:44:38.059Z</time></trkpt><trkpt lat="37.7423113" lon="15.1417459"><ele>549.0</ele><time>2026-04-24T15:44:40.059Z</time></trkpt><trkpt lat="37.7422762" lon="15.1418892"><ele>546.0</ele><time>2026-04-24T15:44:42.06Z</time></trkpt><trkpt lat="37.7422341" lon="15.1420388"><ele>543.0</ele><time>2026-04-24T15:44:44.059Z</time></trkpt><trkpt lat="37.742191" lon="15.1421785"><ele>541.0</ele><time>2026-04-24T15:44:46.059Z</time></trkpt><trkpt lat="37.7421319" lon="15.1423945"><ele>539.0</ele><time>2026-04-24T15:44:49.059Z</time></trkpt><trkpt lat="37.7420996" lon="15.1425302"><ele>537.0</ele><time>2026-04-24T15:44:51.06Z</time></trkpt><trkpt lat="37.7420742" lon="15.142624"><ele>535.0</ele><time>2026-04-24T15:44:53.059Z</time></trkpt><trkpt lat="37.7420382" lon="15.1427079"><ele>533.0</ele><time>2026-04-24T15:44:56.059Z</time></trkpt><trkpt lat="37.7420294" lon="15.1427905"><ele>533.0</ele><time>2026-04-24T15:44:59.059Z</time></trkpt><trkpt lat="37.7420372" lon="15.1428749"><ele>533.0</ele><time>2026-04-24T15:45:03.059Z</time></trkpt><trkpt lat="37.7420827" lon="15.1428197"><ele>533.0</ele><time>2026-04-24T15:46:43.059Z</time></trkpt><trkpt lat="37.7421472" lon="15.1428342"><ele>533.0</ele><time>2026-04-24T15:47:04.06Z</time></trkpt><trkpt lat="37.7422038" lon="15.1428807"><ele>533.0</ele><time>2026-04-24T15:47:10.079Z</time></trkpt><trkpt lat="37.7422706" lon="15.142885"><ele>533.0</ele><time>2026-04-24T15:47:46.009Z</time></trkpt><trkpt lat="37.7422047" lon="15.1428549"><ele>533.0</ele><time>2026-04-24T15:53:34.06Z</time></trkpt><trkpt lat="37.7422571" lon="15.1429054"><ele>533.0</ele><time>2026-04-24T16:07:41.059Z</time></trkpt><trkpt lat="37.7422956" lon="15.1429795"><ele>533.0</ele><time>2026-04-24T16:08:07.06Z</time></trkpt><trkpt lat="37.7422666" lon="15.1428947"><ele>533.0</ele><time>2026-04-24T16:11:14.059Z</time></trkpt><trkpt lat="37.7422153" lon="15.1428357"><ele>533.0</ele><time>2026-04-24T16:11:51.06Z</time></trkpt><trkpt lat="37.7421569" lon="15.1428019"><ele>533.0</ele><time>2026-04-24T16:11:59.059Z</time></trkpt><trkpt lat="37.742112" lon="15.1427446"><ele>533.0</ele><time>2026-04-24T16:12:05.027Z</time></trkpt><trkpt lat="37.7420699" lon="15.1428254"><ele>533.0</ele><time>2026-04-24T16:12:30.06Z</time></trkpt><trkpt lat="37.7420292" lon="15.1428879"><ele>533.0</ele><time>2026-04-24T16:15:22.05Z</time></trkpt><trkpt lat="37.7419709" lon="15.1429241"><ele>533.0</ele><time>2026-04-24T16:15:24.061Z</time></trkpt><trkpt lat="37.7419322" lon="15.1430039"><ele>533.0</ele><time>2026-04-24T16:15:26.053Z</time></trkpt><trkpt lat="37.7418801" lon="15.1430904"><ele>533.0</ele><time>2026-04-24T16:15:28.057Z</time></trkpt><trkpt lat="37.7418261" lon="15.1431751"><ele>533.0</ele><time>2026-04-24T16:15:30.072Z</time></trkpt><trkpt lat="37.7417779" lon="15.1432647"><ele>533.0</ele><time>2026-04-24T16:15:31.992Z</time></trkpt><trkpt lat="37.7417405" lon="15.1433762"><ele>531.6666666666666</ele><time>2026-04-24T16:15:34.054Z</time></trkpt><trkpt lat="37.7416958" lon="15.1434603"><ele>530.3333333333333</ele><time>2026-04-24T16:15:36.056Z</time></trkpt><trkpt lat="37.7416577" lon="15.1435444"><ele>529.0</ele><time>2026-04-24T16:15:39.055Z</time></trkpt><trkpt lat="37.7416864" lon="15.1436399"><ele>527.6666666666666</ele><time>2026-04-24T16:15:42.056Z</time></trkpt><trkpt lat="37.7417564" lon="15.1436872"><ele>526.3333333333334</ele><time>2026-04-24T16:15:44.053Z</time></trkpt><trkpt lat="37.7418398" lon="15.1437246"><ele>525.0</ele><time>2026-04-24T16:15:46.056Z</time></trkpt><trkpt lat="37.7419268" lon="15.1437675"><ele>524.8</ele><time>2026-04-24T16:15:48.051Z</time></trkpt><trkpt lat="37.7420168" lon="15.1438148"><ele>524.6</ele><time>2026-04-24T16:15:50.057Z</time></trkpt><trkpt lat="37.742105" lon="15.1438622"><ele>524.4</ele><time>2026-04-24T16:15:52.06Z</time></trkpt><trkpt lat="37.7421961" lon="15.1439023"><ele>524.2</ele><time>2026-04-24T16:15:54.054Z</time></trkpt><trkpt lat="37.7422895" lon="15.1439426"><ele>524.0</ele><time>2026-04-24T16:15:56.06Z</time></trkpt><trkpt lat="37.742384" lon="15.1439834"><ele>524.0</ele><time>2026-04-24T16:15:58.058Z</time></trkpt><trkpt lat="37.742471" lon="15.1440201"><ele>524.0</ele><time>2026-04-24T16:16:00.058Z</time></trkpt><trkpt lat="37.7425428" lon="15.1440563"><ele>524.0</ele><time>2026-04-24T16:16:02.052Z</time></trkpt><trkpt lat="37.742613" lon="15.144129"><ele>524.0</ele><time>2026-04-24T16:16:05.059Z</time></trkpt><trkpt lat="37.7426171" lon="15.144219"><ele>524.0</ele><time>2026-04-24T16:16:07.059Z</time></trkpt><trkpt lat="37.7425857" lon="15.1443322"><ele>524.0</ele><time>2026-04-24T16:16:09.054Z</time></trkpt><trkpt lat="37.7425132" lon="15.1444424"><ele>522.2</ele><time>2026-04-24T16:16:11.052Z</time></trkpt><trkpt lat="37.7424033" lon="15.144498"><ele>520.4</ele><time>2026-04-24T16:16:13.054Z</time></trkpt><trkpt lat="37.7422744" lon="15.1445108"><ele>518.6</ele><time>2026-04-24T16:16:15.056Z</time></trkpt><trkpt lat="37.7422056" lon="15.144511"><ele>516.8</ele><time>2026-04-24T16:16:16.052Z</time></trkpt><trkpt lat="37.7421316" lon="15.1445082"><ele>515.0</ele><time>2026-04-24T16:16:17.058Z</time></trkpt><trkpt lat="37.7420596" lon="15.144505"><ele>515.0</ele><time>2026-04-24T16:16:18.057Z</time></trkpt><trkpt lat="37.7419891" lon="15.144508"><ele>515.0</ele><time>2026-04-24T16:16:19.052Z</time></trkpt><trkpt lat="37.7419191" lon="15.1445133"><ele>515.0</ele><time>2026-04-24T16:16:20.057Z</time></trkpt><trkpt lat="37.741844" lon="15.1445143"><ele>515.0</ele><time>2026-04-24T16:16:21.05Z</time></trkpt><trkpt lat="37.7417691" lon="15.1445141"><ele>515.0</ele><time>2026-04-24T16:16:22.053Z</time></trkpt><trkpt lat="37.7416933" lon="15.1445141"><ele>515.0</ele><time>2026-04-24T16:16:23.056Z</time></trkpt><trkpt lat="37.7416164" lon="15.1445148"><ele>515.0</ele><time>2026-04-24T16:16:24.05Z</time></trkpt><trkpt lat="37.7415397" lon="15.1445114"><ele>514.5</ele><time>2026-04-24T16:16:25.052Z</time></trkpt><trkpt lat="37.7414629" lon="15.1445051"><ele>514.0</ele><time>2026-04-24T16:16:26.058Z</time></trkpt><trkpt lat="37.7413854" lon="15.1445014"><ele>513.5</ele><time>2026-04-24T16:16:27.058Z</time></trkpt><trkpt lat="37.7413119" lon="15.1445025"><ele>513.0</ele><time>2026-04-24T16:16:28.048Z</time></trkpt><trkpt lat="37.7412415" lon="15.1445032"><ele>512.5</ele><time>2026-04-24T16:16:29.059Z</time></trkpt><trkpt lat="37.7411779" lon="15.1445077"><ele>512.0</ele><time>2026-04-24T16:16:30.053Z</time></trkpt><trkpt lat="37.7410712" lon="15.1445633"><ele>510.99999999999994</ele><time>2026-04-24T16:16:32.057Z</time></trkpt><trkpt lat="37.7410181" lon="15.1446959"><ele>510.0</ele><time>2026-04-24T16:16:34.051Z</time></trkpt><trkpt lat="37.7410185" lon="15.144778"><ele>509.0</ele><time>2026-04-24T16:16:35.055Z</time></trkpt><trkpt lat="37.7410357" lon="15.1448622"><ele>508.0</ele><time>2026-04-24T16:16:36.058Z</time></trkpt><trkpt lat="37.7410532" lon="15.1449522"><ele>506.99999999999994</ele><time>2026-04-24T16:16:37.06Z</time></trkpt><trkpt lat="37.7410689" lon="15.1450462"><ele>506.0</ele><time>2026-04-24T16:16:38.059Z</time></trkpt><trkpt lat="37.741085" lon="15.1451457"><ele>505.16666666666663</ele><time>2026-04-24T16:16:39.057Z</time></trkpt><trkpt lat="37.7411028" lon="15.1452481"><ele>504.3333333333333</ele><time>2026-04-24T16:16:40.056Z</time></trkpt><trkpt lat="37.741121" lon="15.1453524"><ele>503.5</ele><time>2026-04-24T16:16:41.06Z</time></trkpt><trkpt lat="37.7411371" lon="15.1454541"><ele>502.66666666666663</ele><time>2026-04-24T16:16:42.059Z</time></trkpt><trkpt lat="37.7411573" lon="15.1455577"><ele>501.8333333333333</ele><time>2026-04-24T16:16:43.05Z</time></trkpt><trkpt lat="37.7411826" lon="15.1456607"><ele>501.0</ele><time>2026-04-24T16:16:44.058Z</time></trkpt><trkpt lat="37.7412215" lon="15.1457572"><ele>499.6666666666667</ele><time>2026-04-24T16:16:45.054Z</time></trkpt><trkpt lat="37.7412722" lon="15.1458478"><ele>498.33333333333337</ele><time>2026-04-24T16:16:46.051Z</time></trkpt><trkpt lat="37.7413278" lon="15.1459393"><ele>497.0</ele><time>2026-04-24T16:16:47.051Z</time></trkpt><trkpt lat="37.7413807" lon="15.1460291"><ele>495.6666666666667</ele><time>2026-04-24T16:16:48.054Z</time></trkpt><trkpt lat="37.7414319" lon="15.1461167"><ele>494.33333333333337</ele><time>2026-04-24T16:16:49.058Z</time></trkpt><trkpt lat="37.7414838" lon="15.1462006"><ele>493.0</ele><time>2026-04-24T16:16:50.054Z</time></trkpt><trkpt lat="37.7415319" lon="15.146281"><ele>493.00000000000006</ele><time>2026-04-24T16:16:51.061Z</time></trkpt><trkpt lat="37.7415782" lon="15.1463539"><ele>493.0</ele><time>2026-04-24T16:16:52.059Z</time></trkpt><trkpt lat="37.74162" lon="15.1464244"><ele>493.0</ele><time>2026-04-24T16:16:53.055Z</time></trkpt><trkpt lat="37.7416595" lon="15.1464866"><ele>493.0</ele><time>2026-04-24T16:16:54.057Z</time></trkpt><trkpt lat="37.7417213" lon="15.146594"><ele>493.00000000000006</ele><time>2026-04-24T16:16:56.054Z</time></trkpt><trkpt lat="37.7417894" lon="15.1467009"><ele>493.0</ele><time>2026-04-24T16:16:58.049Z</time></trkpt><trkpt lat="37.7418506" lon="15.146788"><ele>491.0</ele><time>2026-04-24T16:17:00.052Z</time></trkpt><trkpt lat="37.7419047" lon="15.1468669"><ele>488.99999999999994</ele><time>2026-04-24T16:17:02.056Z</time></trkpt><trkpt lat="37.7419811" lon="15.1469409"><ele>486.99999999999994</ele><time>2026-04-24T16:17:04.06Z</time></trkpt><trkpt lat="37.742075" lon="15.146999"><ele>485.0</ele><time>2026-04-24T16:17:06.056Z</time></trkpt><trkpt lat="37.7421936" lon="15.1470576"><ele>483.0</ele><time>2026-04-24T16:17:08.054Z</time></trkpt><trkpt lat="37.7422591" lon="15.1470916"><ele>483.0</ele><time>2026-04-24T16:17:09.056Z</time></trkpt><trkpt lat="37.7423279" lon="15.1471265"><ele>483.0</ele><time>2026-04-24T16:17:10.057Z</time></trkpt><trkpt lat="37.7424006" lon="15.1471686"><ele>483.0</ele><time>2026-04-24T16:17:11.058Z</time></trkpt><trkpt lat="37.7424777" lon="15.1472166"><ele>483.0</ele><time>2026-04-24T16:17:12.057Z</time></trkpt><trkpt lat="37.7425553" lon="15.1472698"><ele>483.0</ele><time>2026-04-24T16:17:13.057Z</time></trkpt><trkpt lat="37.7426318" lon="15.147323"><ele>483.0</ele><time>2026-04-24T16:17:14.057Z</time></trkpt><trkpt lat="37.7427028" lon="15.1473808"><ele>481.5</ele><time>2026-04-24T16:17:15.058Z</time></trkpt><trkpt lat="37.74277" lon="15.1474402"><ele>480.0</ele><time>2026-04-24T16:17:16.057Z</time></trkpt><trkpt lat="37.7428328" lon="15.1475092"><ele>478.5</ele><time>2026-04-24T16:17:17.058Z</time></trkpt><trkpt lat="37.7428886" lon="15.1475905"><ele>477.0</ele><time>2026-04-24T16:17:18.057Z</time></trkpt><trkpt lat="37.7429417" lon="15.1476771"><ele>475.5</ele><time>2026-04-24T16:17:19.057Z</time></trkpt><trkpt lat="37.7430046" lon="15.1477589"><ele>474.0</ele><time>2026-04-24T16:17:20.058Z</time></trkpt><trkpt lat="37.7430721" lon="15.1478351"><ele>474.0</ele><time>2026-04-24T16:17:21.057Z</time></trkpt><trkpt lat="37.7431442" lon="15.147907"><ele>474.0</ele><time>2026-04-24T16:17:22.057Z</time></trkpt><trkpt lat="37.743217" lon="15.1479804"><ele>474.0</ele><time>2026-04-24T16:17:23.057Z</time></trkpt><trkpt lat="37.743289" lon="15.1480547"><ele>474.0</ele><time>2026-04-24T16:17:24.057Z</time></trkpt><trkpt lat="37.7433597" lon="15.1481297"><ele>474.0</ele><time>2026-04-24T16:17:25.057Z</time></trkpt><trkpt lat="37.7434324" lon="15.1482075"><ele>473.0</ele><time>2026-04-24T16:17:26.057Z</time></trkpt><trkpt lat="37.7435058" lon="15.1482897"><ele>472.0</ele><time>2026-04-24T16:17:27.057Z</time></trkpt><trkpt lat="37.7435826" lon="15.1483755"><ele>471.0</ele><time>2026-04-24T16:17:28.058Z</time></trkpt><trkpt lat="37.7436627" lon="15.1484615"><ele>470.0</ele><time>2026-04-24T16:17:29.057Z</time></trkpt><trkpt lat="37.7437401" lon="15.1485476"><ele>469.0</ele><time>2026-04-24T16:17:30.057Z</time></trkpt><trkpt lat="37.7438156" lon="15.148633"><ele>469.0</ele><time>2026-04-24T16:17:31.058Z</time></trkpt><trkpt lat="37.7438904" lon="15.1487168"><ele>469.0</ele><time>2026-04-24T16:17:32.057Z</time></trkpt><trkpt lat="37.743963" lon="15.1488024"><ele>469.0</ele><time>2026-04-24T16:17:33.057Z</time></trkpt><trkpt lat="37.744034" lon="15.1488934"><ele>469.0</ele><time>2026-04-24T16:17:34.057Z</time></trkpt><trkpt lat="37.7441014" lon="15.1489875"><ele>469.0</ele><time>2026-04-24T16:17:35.058Z</time></trkpt><trkpt lat="37.7441677" lon="15.149083"><ele>469.0</ele><time>2026-04-24T16:17:36.057Z</time></trkpt><trkpt lat="37.7442316" lon="15.1491823"><ele>469.0</ele><time>2026-04-24T16:17:37.057Z</time></trkpt><trkpt lat="37.7442931" lon="15.1492892"><ele>469.0</ele><time>2026-04-24T16:17:38.057Z</time></trkpt><trkpt lat="37.7443501" lon="15.1494043"><ele>469.0</ele><time>2026-04-24T16:17:39.058Z</time></trkpt><trkpt lat="37.7444022" lon="15.1495253"><ele>469.0</ele><time>2026-04-24T16:17:40.057Z</time></trkpt><trkpt lat="37.744451" lon="15.1496462"><ele>469.0</ele><time>2026-04-24T16:17:41.057Z</time></trkpt><trkpt lat="37.7445003" lon="15.149767"><ele>469.0</ele><time>2026-04-24T16:17:42.058Z</time></trkpt><trkpt lat="37.7445498" lon="15.1498868"><ele>469.0</ele><time>2026-04-24T16:17:43.057Z</time></trkpt><trkpt lat="37.7445974" lon="15.1500014"><ele>469.0</ele><time>2026-04-24T16:17:44.057Z</time></trkpt><trkpt lat="37.7446388" lon="15.1501107"><ele>469.0</ele><time>2026-04-24T16:17:45.057Z</time></trkpt><trkpt lat="37.7446747" lon="15.1502162"><ele>466.6</ele><time>2026-04-24T16:17:46.057Z</time></trkpt><trkpt lat="37.7447056" lon="15.1503233"><ele>464.2</ele><time>2026-04-24T16:17:47.058Z</time></trkpt><trkpt lat="37.7447246" lon="15.1504337"><ele>461.80000000000007</ele><time>2026-04-24T16:17:48.057Z</time></trkpt><trkpt lat="37.744734" lon="15.1505453"><ele>459.40000000000003</ele><time>2026-04-24T16:17:49.057Z</time></trkpt><trkpt lat="37.744743" lon="15.1506589"><ele>457.0</ele><time>2026-04-24T16:17:50.058Z</time></trkpt><trkpt lat="37.7447516" lon="15.1507737"><ele>455.83333333333337</ele><time>2026-04-24T16:17:51.057Z</time></trkpt><trkpt lat="37.7447614" lon="15.15089"><ele>454.6666666666667</ele><time>2026-04-24T16:17:52.058Z</time></trkpt><trkpt lat="37.7447782" lon="15.1510056"><ele>453.5</ele><time>2026-04-24T16:17:53.058Z</time></trkpt><trkpt lat="37.7448067" lon="15.1511156"><ele>452.33333333333337</ele><time>2026-04-24T16:17:54.057Z</time></trkpt><trkpt lat="37.7448452" lon="15.1512145"><ele>451.1666666666667</ele><time>2026-04-24T16:17:55.057Z</time></trkpt><trkpt lat="37.7448883" lon="15.151304"><ele>450.0</ele><time>2026-04-24T16:17:56.057Z</time></trkpt><trkpt lat="37.7449277" lon="15.151385"><ele>450.0</ele><time>2026-04-24T16:17:57.057Z</time></trkpt><trkpt lat="37.7449542" lon="15.1514652"><ele>450.0</ele><time>2026-04-24T16:17:58.057Z</time></trkpt><trkpt lat="37.7449551" lon="15.1516091"><ele>450.0</ele><time>2026-04-24T16:18:00.057Z</time></trkpt><trkpt lat="37.7449859" lon="15.1517359"><ele>450.0</ele><time>2026-04-24T16:18:02.058Z</time></trkpt><trkpt lat="37.7450911" lon="15.1518079"><ele>450.0</ele><time>2026-04-24T16:18:04.058Z</time></trkpt><trkpt lat="37.7451999" lon="15.1518469"><ele>448.2</ele><time>2026-04-24T16:18:06.058Z</time></trkpt><trkpt lat="37.7452622" lon="15.1518847"><ele>446.4</ele><time>2026-04-24T16:18:08.058Z</time></trkpt><trkpt lat="37.7453527" lon="15.15189"><ele>444.6</ele><time>2026-04-24T16:18:10.058Z</time></trkpt><trkpt lat="37.7454673" lon="15.1518812"><ele>442.8</ele><time>2026-04-24T16:18:12.057Z</time></trkpt><trkpt lat="37.7455882" lon="15.1519379"><ele>441.0</ele><time>2026-04-24T16:18:14.057Z</time></trkpt><trkpt lat="37.7456484" lon="15.1519919"><ele>441.0</ele><time>2026-04-24T16:18:15.057Z</time></trkpt><trkpt lat="37.7457183" lon="15.1520498"><ele>441.0</ele><time>2026-04-24T16:18:16.058Z</time></trkpt><trkpt lat="37.7457956" lon="15.1521136"><ele>441.0</ele><time>2026-04-24T16:18:17.057Z</time></trkpt><trkpt lat="37.7458777" lon="15.1521775"><ele>441.0</ele><time>2026-04-24T16:18:18.057Z</time></trkpt><trkpt lat="37.7459604" lon="15.1522388"><ele>441.0</ele><time>2026-04-24T16:18:19.057Z</time></trkpt><trkpt lat="37.7460439" lon="15.1522938"><ele>441.6</ele><time>2026-04-24T16:18:20.057Z</time></trkpt><trkpt lat="37.7461275" lon="15.152339"><ele>442.20000000000005</ele><time>2026-04-24T16:18:21.058Z</time></trkpt><trkpt lat="37.7462154" lon="15.1523827"><ele>442.79999999999995</ele><time>2026-04-24T16:18:22.057Z</time></trkpt><trkpt lat="37.7463022" lon="15.152426"><ele>443.4</ele><time>2026-04-24T16:18:23.058Z</time></trkpt><trkpt lat="37.7463875" lon="15.1524748"><ele>444.0</ele><time>2026-04-24T16:18:24.057Z</time></trkpt><trkpt lat="37.7464669" lon="15.1525264"><ele>443.0</ele><time>2026-04-24T16:18:25.058Z</time></trkpt><trkpt lat="37.7465441" lon="15.1525817"><ele>442.0</ele><time>2026-04-24T16:18:26.058Z</time></trkpt><trkpt lat="37.7466136" lon="15.1526341"><ele>441.0</ele><time>2026-04-24T16:18:27.057Z</time></trkpt><trkpt lat="37.7466772" lon="15.152684"><ele>440.0</ele><time>2026-04-24T16:18:28.057Z</time></trkpt><trkpt lat="37.7467355" lon="15.1527313"><ele>439.0</ele><time>2026-04-24T16:18:29.058Z</time></trkpt><trkpt lat="37.7468312" lon="15.15281"><ele>438.0</ele><time>2026-04-24T16:18:31.057Z</time></trkpt><trkpt lat="37.746917" lon="15.1528703"><ele>440.0</ele><time>2026-04-24T16:18:33.058Z</time></trkpt><trkpt lat="37.7469915" lon="15.1529075"><ele>442.0</ele><time>2026-04-24T16:18:35.057Z</time></trkpt><trkpt lat="37.7470597" lon="15.1529416"><ele>444.0</ele><time>2026-04-24T16:18:38.058Z</time></trkpt><trkpt lat="37.7471226" lon="15.152965"><ele>446.0</ele><time>2026-04-24T16:19:26.057Z</time></trkpt><trkpt lat="37.747216" lon="15.1529922"><ele>448.0</ele><time>2026-04-24T16:19:28.057Z</time></trkpt><trkpt lat="37.7473227" lon="15.1530179"><ele>450.0</ele><time>2026-04-24T16:19:30.057Z</time></trkpt><trkpt lat="37.7474319" lon="15.1530508"><ele>450.0</ele><time>2026-04-24T16:19:32.057Z</time></trkpt><trkpt lat="37.7475205" lon="15.1530711"><ele>450.0</ele><time>2026-04-24T16:19:34.058Z</time></trkpt><trkpt lat="37.7475804" lon="15.1530977"><ele>450.0</ele><time>2026-04-24T16:19:36.057Z</time></trkpt><trkpt lat="37.7475078" lon="15.1530449"><ele>450.0</ele><time>2026-04-24T16:19:58.058Z</time></trkpt><trkpt lat="37.7474124" lon="15.1530272"><ele>450.0</ele><time>2026-04-24T16:20:00.057Z</time></trkpt><trkpt lat="37.7473048" lon="15.1530025"><ele>450.0</ele><time>2026-04-24T16:20:02.057Z</time></trkpt><trkpt lat="37.7471927" lon="15.1529711"><ele>450.0</ele><time>2026-04-24T16:20:04.058Z</time></trkpt><trkpt lat="37.7470748" lon="15.1529353"><ele>450.0</ele><time>2026-04-24T16:20:06.057Z</time></trkpt><trkpt lat="37.747013" lon="15.1529071"><ele>450.0</ele><time>2026-04-24T16:20:07.057Z</time></trkpt><trkpt lat="37.7469535" lon="15.1528784"><ele>450.0</ele><time>2026-04-24T16:20:08.057Z</time></trkpt><trkpt lat="37.7468419" lon="15.1527971"><ele>450.0</ele><time>2026-04-24T16:20:10.057Z</time></trkpt><trkpt lat="37.7467857" lon="15.1527539"><ele>450.0</ele><time>2026-04-24T16:20:11.057Z</time></trkpt><trkpt lat="37.7466869" lon="15.1526788"><ele>447.6</ele><time>2026-04-24T16:20:13.057Z</time></trkpt><trkpt lat="37.7466003" lon="15.1526152"><ele>445.2</ele><time>2026-04-24T16:20:15.057Z</time></trkpt><trkpt lat="37.7465087" lon="15.1525447"><ele>442.79999999999995</ele><time>2026-04-24T16:20:17.057Z</time></trkpt><trkpt lat="37.7463919" lon="15.1524676"><ele>440.4</ele><time>2026-04-24T16:20:19.058Z</time></trkpt><trkpt lat="37.7463249" lon="15.1524284"><ele>438.0</ele><time>2026-04-24T16:20:20.057Z</time></trkpt><trkpt lat="37.7462465" lon="15.1523905"><ele>438.5</ele><time>2026-04-24T16:20:21.057Z</time></trkpt><trkpt lat="37.7461677" lon="15.1523497"><ele>439.0</ele><time>2026-04-24T16:20:22.057Z</time></trkpt><trkpt lat="37.746083" lon="15.1523064"><ele>439.5</ele><time>2026-04-24T16:20:23.057Z</time></trkpt><trkpt lat="37.7460016" lon="15.1522585"><ele>440.0</ele><time>2026-04-24T16:20:24.057Z</time></trkpt><trkpt lat="37.7459237" lon="15.1522013"><ele>440.5</ele><time>2026-04-24T16:20:25.057Z</time></trkpt><trkpt lat="37.7458479" lon="15.1521356"><ele>441.0</ele><time>2026-04-24T16:20:26.057Z</time></trkpt><trkpt lat="37.7457722" lon="15.1520681"><ele>441.0</ele><time>2026-04-24T16:20:27.057Z</time></trkpt><trkpt lat="37.7456971" lon="15.1520008"><ele>441.0</ele><time>2026-04-24T16:20:28.057Z</time></trkpt><trkpt lat="37.7456212" lon="15.1519376"><ele>441.0</ele><time>2026-04-24T16:20:29.057Z</time></trkpt><trkpt lat="37.7455516" lon="15.1518883"><ele>441.0</ele><time>2026-04-24T16:20:30.057Z</time></trkpt><trkpt lat="37.7454874" lon="15.1518559"><ele>441.0</ele><time>2026-04-24T16:20:31.057Z</time></trkpt><trkpt lat="37.7453771" lon="15.1518453"><ele>441.0</ele><time>2026-04-24T16:20:33.057Z</time></trkpt><trkpt lat="37.7453033" lon="15.1518913"><ele>441.0</ele><time>2026-04-24T16:20:35.058Z</time></trkpt><trkpt lat="37.7452652" lon="15.1520168"><ele>441.0</ele><time>2026-04-24T16:20:37.058Z</time></trkpt><trkpt lat="37.745239" lon="15.1520983"><ele>441.0</ele><time>2026-04-24T16:20:38.057Z</time></trkpt><trkpt lat="37.7451941" lon="15.1521726"><ele>441.0</ele><time>2026-04-24T16:20:39.057Z</time></trkpt><trkpt lat="37.7451415" lon="15.1522317"><ele>441.0</ele><time>2026-04-24T16:20:40.057Z</time></trkpt><trkpt lat="37.7450877" lon="15.1522768"><ele>441.0</ele><time>2026-04-24T16:20:41.058Z</time></trkpt><trkpt lat="37.7450299" lon="15.1523105"><ele>441.0</ele><time>2026-04-24T16:20:42.057Z</time></trkpt><trkpt lat="37.7449128" lon="15.1523467"><ele>440.8333333333333</ele><time>2026-04-24T16:20:44.057Z</time></trkpt><trkpt lat="37.7447829" lon="15.1523296"><ele>440.66666666666663</ele><time>2026-04-24T16:20:46.057Z</time></trkpt><trkpt lat="37.7447103" lon="15.1523206"><ele>440.5</ele><time>2026-04-24T16:20:47.057Z</time></trkpt><trkpt lat="37.744634" lon="15.1523144"><ele>440.3333333333333</ele><time>2026-04-24T16:20:48.057Z</time></trkpt><trkpt lat="37.7445533" lon="15.15231"><ele>440.16666666666663</ele><time>2026-04-24T16:20:49.058Z</time></trkpt><trkpt lat="37.7444743" lon="15.1523024"><ele>440.0</ele><time>2026-04-24T16:20:50.057Z</time></trkpt><trkpt lat="37.7443995" lon="15.1522942"><ele>439.2857142857143</ele><time>2026-04-24T16:20:51.058Z</time></trkpt><trkpt lat="37.7443282" lon="15.152285"><ele>438.57142857142856</ele><time>2026-04-24T16:20:52.057Z</time></trkpt><trkpt lat="37.7442562" lon="15.1522844"><ele>437.8571428571429</ele><time>2026-04-24T16:20:53.057Z</time></trkpt><trkpt lat="37.7441883" lon="15.1522984"><ele>437.1428571428571</ele><time>2026-04-24T16:20:54.058Z</time></trkpt><trkpt lat="37.7441264" lon="15.1523393"><ele>436.42857142857144</ele><time>2026-04-24T16:20:55.057Z</time></trkpt><trkpt lat="37.7440725" lon="15.1524022"><ele>435.7142857142857</ele><time>2026-04-24T16:20:56.057Z</time></trkpt><trkpt lat="37.7440271" lon="15.1524837"><ele>435.0</ele><time>2026-04-24T16:20:57.058Z</time></trkpt><trkpt lat="37.7439871" lon="15.1525737"><ele>433.6666666666667</ele><time>2026-04-24T16:20:58.058Z</time></trkpt><trkpt lat="37.7439468" lon="15.1526694"><ele>432.33333333333337</ele><time>2026-04-24T16:20:59.057Z</time></trkpt><trkpt lat="37.7439008" lon="15.1527686"><ele>431.0</ele><time>2026-04-24T16:21:00.057Z</time></trkpt><trkpt lat="37.7438537" lon="15.1528675"><ele>429.6666666666667</ele><time>2026-04-24T16:21:01.058Z</time></trkpt><trkpt lat="37.7438075" lon="15.1529625"><ele>428.33333333333337</ele><time>2026-04-24T16:21:02.057Z</time></trkpt><trkpt lat="37.7437575" lon="15.1530529"><ele>427.0</ele><time>2026-04-24T16:21:03.057Z</time></trkpt><trkpt lat="37.7437035" lon="15.1531377"><ele>426.00000000000006</ele><time>2026-04-24T16:21:04.058Z</time></trkpt><trkpt lat="37.7436478" lon="15.1532221"><ele>425.0</ele><time>2026-04-24T16:21:05.058Z</time></trkpt><trkpt lat="37.7435905" lon="15.1533008"><ele>424.0</ele><time>2026-04-24T16:21:06.057Z</time></trkpt><trkpt lat="37.7435288" lon="15.1533687"><ele>423.0</ele><time>2026-04-24T16:21:07.058Z</time></trkpt><trkpt lat="37.7434634" lon="15.1534285"><ele>422.00000000000006</ele><time>2026-04-24T16:21:08.057Z</time></trkpt><trkpt lat="37.7433956" lon="15.1534725"><ele>421.0</ele><time>2026-04-24T16:21:09.057Z</time></trkpt><trkpt lat="37.7433236" lon="15.1534922"><ele>420.50000000000006</ele><time>2026-04-24T16:21:10.057Z</time></trkpt><trkpt lat="37.743248" lon="15.1534958"><ele>420.0</ele><time>2026-04-24T16:21:11.057Z</time></trkpt><trkpt lat="37.7431682" lon="15.1534865"><ele>419.5</ele><time>2026-04-24T16:21:12.057Z</time></trkpt><trkpt lat="37.743081" lon="15.1534675"><ele>419.0</ele><time>2026-04-24T16:21:13.057Z</time></trkpt><trkpt lat="37.7429863" lon="15.1534492"><ele>418.50000000000006</ele><time>2026-04-24T16:21:14.058Z</time></trkpt><trkpt lat="37.7428849" lon="15.1534335"><ele>418.0</ele><time>2026-04-24T16:21:15.057Z</time></trkpt><trkpt lat="37.7427791" lon="15.1534118"><ele>416.4</ele><time>2026-04-24T16:21:16.057Z</time></trkpt><trkpt lat="37.7426711" lon="15.1533916"><ele>414.79999999999995</ele><time>2026-04-24T16:21:17.057Z</time></trkpt><trkpt lat="37.7425672" lon="15.1533733"><ele>413.2</ele><time>2026-04-24T16:21:18.058Z</time></trkpt><trkpt lat="37.7424634" lon="15.1533538"><ele>411.6</ele><time>2026-04-24T16:21:19.057Z</time></trkpt><trkpt lat="37.7423598" lon="15.1533309"><ele>410.0</ele><time>2026-04-24T16:21:20.057Z</time></trkpt><trkpt lat="37.7422583" lon="15.1533034"><ele>410.0</ele><time>2026-04-24T16:21:21.057Z</time></trkpt><trkpt lat="37.7421536" lon="15.1532746"><ele>410.0</ele><time>2026-04-24T16:21:22.057Z</time></trkpt><trkpt lat="37.7420494" lon="15.1532356"><ele>410.0</ele><time>2026-04-24T16:21:23.057Z</time></trkpt><trkpt lat="37.7419362" lon="15.153196"><ele>410.0</ele><time>2026-04-24T16:21:24.058Z</time></trkpt><trkpt lat="37.7418227" lon="15.1531545"><ele>410.6</ele><time>2026-04-24T16:21:25.057Z</time></trkpt><trkpt lat="37.7417074" lon="15.1531194"><ele>411.2</ele><time>2026-04-24T16:21:26.058Z</time></trkpt><trkpt lat="37.7415983" lon="15.1530857"><ele>411.79999999999995</ele><time>2026-04-24T16:21:27.058Z</time></trkpt><trkpt lat="37.7414914" lon="15.1530497"><ele>412.4</ele><time>2026-04-24T16:21:28.057Z</time></trkpt><trkpt lat="37.7413882" lon="15.1530121"><ele>413.0</ele><time>2026-04-24T16:21:29.058Z</time></trkpt><trkpt lat="37.7412889" lon="15.1529815"><ele>412.99999999999994</ele><time>2026-04-24T16:21:30.057Z</time></trkpt><trkpt lat="37.7411954" lon="15.1529612"><ele>413.0</ele><time>2026-04-24T16:21:31.057Z</time></trkpt><trkpt lat="37.7411098" lon="15.1529551"><ele>413.0</ele><time>2026-04-24T16:21:32.057Z</time></trkpt><trkpt lat="37.7410293" lon="15.1529731"><ele>413.0</ele><time>2026-04-24T16:21:33.057Z</time></trkpt><trkpt lat="37.7409546" lon="15.1530116"><ele>412.99999999999994</ele><time>2026-04-24T16:21:34.057Z</time></trkpt><trkpt lat="37.7408782" lon="15.1530579"><ele>413.0</ele><time>2026-04-24T16:21:35.057Z</time></trkpt><trkpt lat="37.7407984" lon="15.1531101"><ele>412.2</ele><time>2026-04-24T16:21:36.058Z</time></trkpt><trkpt lat="37.7407146" lon="15.1531665"><ele>411.4</ele><time>2026-04-24T16:21:37.057Z</time></trkpt><trkpt lat="37.7406257" lon="15.1532272"><ele>410.59999999999997</ele><time>2026-04-24T16:21:38.057Z</time></trkpt><trkpt lat="37.7405353" lon="15.1532807"><ele>409.79999999999995</ele><time>2026-04-24T16:21:39.057Z</time></trkpt><trkpt lat="37.7404478" lon="15.1533244"><ele>409.0</ele><time>2026-04-24T16:21:40.057Z</time></trkpt><trkpt lat="37.7403631" lon="15.1533563"><ele>407.33333333333337</ele><time>2026-04-24T16:21:41.057Z</time></trkpt><trkpt lat="37.7402881" lon="15.1533936"><ele>405.6666666666667</ele><time>2026-04-24T16:21:42.057Z</time></trkpt><trkpt lat="37.7402218" lon="15.1534434"><ele>404.0</ele><time>2026-04-24T16:21:43.057Z</time></trkpt><trkpt lat="37.7401661" lon="15.1535076"><ele>402.33333333333337</ele><time>2026-04-24T16:21:44.057Z</time></trkpt><trkpt lat="37.7401237" lon="15.1535957"><ele>400.6666666666667</ele><time>2026-04-24T16:21:45.057Z</time></trkpt><trkpt lat="37.740089" lon="15.1536933"><ele>399.0</ele><time>2026-04-24T16:21:46.058Z</time></trkpt><trkpt lat="37.7400454" lon="15.1537908"><ele>399.0</ele><time>2026-04-24T16:21:47.057Z</time></trkpt><trkpt lat="37.7399953" lon="15.1538844"><ele>399.0</ele><time>2026-04-24T16:21:48.058Z</time></trkpt><trkpt lat="37.7399437" lon="15.1539772"><ele>399.0</ele><time>2026-04-24T16:21:49.057Z</time></trkpt><trkpt lat="37.7398977" lon="15.1540601"><ele>399.0</ele><time>2026-04-24T16:21:50.057Z</time></trkpt><trkpt lat="37.7398577" lon="15.1541308"><ele>399.0</ele><time>2026-04-24T16:21:51.058Z</time></trkpt><trkpt lat="37.7397644" lon="15.1542225"><ele>399.0</ele><time>2026-04-24T16:21:53.058Z</time></trkpt><trkpt lat="37.7396442" lon="15.1542388"><ele>398.3333333333333</ele><time>2026-04-24T16:21:55.057Z</time></trkpt><trkpt lat="37.7395798" lon="15.1542196"><ele>397.66666666666663</ele><time>2026-04-24T16:21:56.057Z</time></trkpt><trkpt lat="37.7395137" lon="15.1541887"><ele>397.0</ele><time>2026-04-24T16:21:57.057Z</time></trkpt><trkpt lat="37.7394405" lon="15.1541521"><ele>396.3333333333333</ele><time>2026-04-24T16:21:58.057Z</time></trkpt><trkpt lat="37.7393635" lon="15.154108"><ele>395.66666666666663</ele><time>2026-04-24T16:21:59.058Z</time></trkpt><trkpt lat="37.7392842" lon="15.1540665"><ele>395.0</ele><time>2026-04-24T16:22:00.058Z</time></trkpt><trkpt lat="37.7392067" lon="15.1540294"><ele>394.99999999999994</ele><time>2026-04-24T16:22:01.057Z</time></trkpt><trkpt lat="37.7391256" lon="15.1540087"><ele>395.0</ele><time>2026-04-24T16:22:02.058Z</time></trkpt><trkpt lat="37.7390432" lon="15.1540058"><ele>395.0</ele><time>2026-04-24T16:22:03.057Z</time></trkpt><trkpt lat="37.7389597" lon="15.154016"><ele>395.0</ele><time>2026-04-24T16:22:04.057Z</time></trkpt><trkpt lat="37.7388796" lon="15.154032"><ele>394.99999999999994</ele><time>2026-04-24T16:22:05.058Z</time></trkpt><trkpt lat="37.738795" lon="15.1540351"><ele>395.0</ele><time>2026-04-24T16:22:06.057Z</time></trkpt><trkpt lat="37.7387102" lon="15.1540232"><ele>394.99999999999994</ele><time>2026-04-24T16:22:07.057Z</time></trkpt><trkpt lat="37.7386261" lon="15.1539957"><ele>395.0</ele><time>2026-04-24T16:22:08.057Z</time></trkpt><trkpt lat="37.7385453" lon="15.1539617"><ele>395.0</ele><time>2026-04-24T16:22:09.058Z</time></trkpt><trkpt lat="37.7384689" lon="15.153932"><ele>395.0</ele><time>2026-04-24T16:22:10.057Z</time></trkpt><trkpt lat="37.7383982" lon="15.1539129"><ele>394.99999999999994</ele><time>2026-04-24T16:22:11.057Z</time></trkpt><trkpt lat="37.7383314" lon="15.153917"><ele>395.0</ele><time>2026-04-24T16:22:12.057Z</time></trkpt><trkpt lat="37.7382404" lon="15.1540031"><ele>393.16666666666663</ele><time>2026-04-24T16:22:14.057Z</time></trkpt><trkpt lat="37.7382325" lon="15.1541509"><ele>391.3333333333333</ele><time>2026-04-24T16:22:16.058Z</time></trkpt><trkpt lat="37.7382639" lon="15.1542222"><ele>389.5</ele><time>2026-04-24T16:22:17.057Z</time></trkpt><trkpt lat="37.7383176" lon="15.1542872"><ele>387.66666666666663</ele><time>2026-04-24T16:22:18.057Z</time></trkpt><trkpt lat="37.7383882" lon="15.1543482"><ele>385.8333333333333</ele><time>2026-04-24T16:22:19.057Z</time></trkpt><trkpt lat="37.7384707" lon="15.1544158"><ele>384.0</ele><time>2026-04-24T16:22:20.058Z</time></trkpt><trkpt lat="37.7385624" lon="15.1544886"><ele>384.0</ele><time>2026-04-24T16:22:21.057Z</time></trkpt><trkpt lat="37.7386589" lon="15.1545661"><ele>384.0</ele><time>2026-04-24T16:22:22.057Z</time></trkpt><trkpt lat="37.7387582" lon="15.1546464"><ele>384.0</ele><time>2026-04-24T16:22:23.057Z</time></trkpt><trkpt lat="37.7388579" lon="15.1547291"><ele>384.0</ele><time>2026-04-24T16:22:24.057Z</time></trkpt><trkpt lat="37.7389546" lon="15.1548148"><ele>381.25</ele><time>2026-04-24T16:22:25.057Z</time></trkpt><trkpt lat="37.739047" lon="15.1549078"><ele>378.5</ele><time>2026-04-24T16:22:26.057Z</time></trkpt><trkpt lat="37.7391367" lon="15.1550055"><ele>375.75</ele><time>2026-04-24T16:22:27.057Z</time></trkpt><trkpt lat="37.7392191" lon="15.1551051"><ele>373.0</ele><time>2026-04-24T16:22:28.057Z</time></trkpt><trkpt lat="37.7392943" lon="15.1552027"><ele>373.0</ele><time>2026-04-24T16:22:29.057Z</time></trkpt><trkpt lat="37.7393593" lon="15.1552938"><ele>373.0</ele><time>2026-04-24T16:22:30.058Z</time></trkpt><trkpt lat="37.7394098" lon="15.1553828"><ele>373.0</ele><time>2026-04-24T16:22:31.058Z</time></trkpt><trkpt lat="37.7394447" lon="15.1554773"><ele>373.0</ele><time>2026-04-24T16:22:32.057Z</time></trkpt><trkpt lat="37.7394626" lon="15.1555755"><ele>373.0</ele><time>2026-04-24T16:22:33.057Z</time></trkpt><trkpt lat="37.7394568" lon="15.1556678"><ele>373.0</ele><time>2026-04-24T16:22:34.057Z</time></trkpt><trkpt lat="37.7394316" lon="15.1557465"><ele>371.16666666666663</ele><time>2026-04-24T16:22:35.057Z</time></trkpt><trkpt lat="37.7393916" lon="15.1558081"><ele>369.3333333333333</ele><time>2026-04-24T16:22:36.057Z</time></trkpt><trkpt lat="37.7392782" lon="15.1558605"><ele>367.5</ele><time>2026-04-24T16:22:38.057Z</time></trkpt><trkpt lat="37.7392126" lon="15.1558758"><ele>365.6666666666667</ele><time>2026-04-24T16:22:39.057Z</time></trkpt><trkpt lat="37.7391399" lon="15.1558912"><ele>363.83333333333337</ele><time>2026-04-24T16:22:40.057Z</time></trkpt><trkpt lat="37.7390609" lon="15.1559088"><ele>362.0</ele><time>2026-04-24T16:22:41.057Z</time></trkpt><trkpt lat="37.7389792" lon="15.1559239"><ele>362.0</ele><time>2026-04-24T16:22:42.057Z</time></trkpt><trkpt lat="37.7388999" lon="15.1559419"><ele>362.0</ele><time>2026-04-24T16:22:43.058Z</time></trkpt><trkpt lat="37.7388276" lon="15.1559666"><ele>362.0</ele><time>2026-04-24T16:22:44.058Z</time></trkpt><trkpt lat="37.7387669" lon="15.1560063"><ele>362.0</ele><time>2026-04-24T16:22:45.058Z</time></trkpt><trkpt lat="37.738716" lon="15.156059"><ele>362.0</ele><time>2026-04-24T16:22:46.057Z</time></trkpt><trkpt lat="37.7386791" lon="15.1561335"><ele>362.0</ele><time>2026-04-24T16:22:47.057Z</time></trkpt><trkpt lat="37.7386615" lon="15.1562247"><ele>362.0</ele><time>2026-04-24T16:22:48.057Z</time></trkpt><trkpt lat="37.7386457" lon="15.1563262"><ele>362.0</ele><time>2026-04-24T16:22:49.057Z</time></trkpt><trkpt lat="37.738628" lon="15.1564406"><ele>362.0</ele><time>2026-04-24T16:22:50.057Z</time></trkpt><trkpt lat="37.738609" lon="15.1565614"><ele>362.0</ele><time>2026-04-24T16:22:51.057Z</time></trkpt><trkpt lat="37.738585" lon="15.1566924"><ele>362.0</ele><time>2026-04-24T16:22:52.057Z</time></trkpt><trkpt lat="37.7385606" lon="15.1568321"><ele>362.0</ele><time>2026-04-24T16:22:53.057Z</time></trkpt><trkpt lat="37.7385365" lon="15.1569723"><ele>360.20000000000005</ele><time>2026-04-24T16:22:54.057Z</time></trkpt><trkpt lat="37.7385122" lon="15.1571109"><ele>358.4</ele><time>2026-04-24T16:22:55.057Z</time></trkpt><trkpt lat="37.7384899" lon="15.1572455"><ele>356.6</ele><time>2026-04-24T16:22:56.057Z</time></trkpt><trkpt lat="37.7384674" lon="15.1573796"><ele>354.79999999999995</ele><time>2026-04-24T16:22:57.057Z</time></trkpt><trkpt lat="37.7384439" lon="15.157517"><ele>353.0</ele><time>2026-04-24T16:22:58.057Z</time></trkpt><trkpt lat="37.7384205" lon="15.1576573"><ele>352.0</ele><time>2026-04-24T16:22:59.057Z</time></trkpt><trkpt lat="37.7383946" lon="15.1577955"><ele>351.0</ele><time>2026-04-24T16:23:00.057Z</time></trkpt><trkpt lat="37.7383675" lon="15.157931"><ele>350.0</ele><time>2026-04-24T16:23:01.057Z</time></trkpt><trkpt lat="37.738342" lon="15.1580674"><ele>349.0</ele><time>2026-04-24T16:23:02.057Z</time></trkpt><trkpt lat="37.7383202" lon="15.1581953"><ele>348.0</ele><time>2026-04-24T16:23:03.058Z</time></trkpt><trkpt lat="37.738298" lon="15.1583169"><ele>347.5</ele><time>2026-04-24T16:23:04.057Z</time></trkpt><trkpt lat="37.7382797" lon="15.1584343"><ele>347.0</ele><time>2026-04-24T16:23:05.057Z</time></trkpt><trkpt lat="37.738264" lon="15.158542"><ele>346.5</ele><time>2026-04-24T16:23:06.058Z</time></trkpt><trkpt lat="37.738246" lon="15.1586397"><ele>346.0</ele><time>2026-04-24T16:23:07.057Z</time></trkpt><trkpt lat="37.7382244" lon="15.1587268"><ele>345.5</ele><time>2026-04-24T16:23:08.057Z</time></trkpt><trkpt lat="37.7381925" lon="15.1588074"><ele>345.0</ele><time>2026-04-24T16:23:09.057Z</time></trkpt><trkpt lat="37.7381477" lon="15.1588782"><ele>345.0</ele><time>2026-04-24T16:23:10.058Z</time></trkpt><trkpt lat="37.7380933" lon="15.1589399"><ele>345.0</ele><time>2026-04-24T16:23:11.057Z</time></trkpt><trkpt lat="37.7380285" lon="15.1589986"><ele>345.0</ele><time>2026-04-24T16:23:12.057Z</time></trkpt><trkpt lat="37.7379589" lon="15.1590509"><ele>345.0</ele><time>2026-04-24T16:23:13.057Z</time></trkpt><trkpt lat="37.7378812" lon="15.1590957"><ele>345.0</ele><time>2026-04-24T16:23:14.057Z</time></trkpt><trkpt lat="37.7378019" lon="15.1591255"><ele>345.0</ele><time>2026-04-24T16:23:15.057Z</time></trkpt><trkpt lat="37.7377239" lon="15.1591299"><ele>344.5</ele><time>2026-04-24T16:23:16.057Z</time></trkpt><trkpt lat="37.737649" lon="15.1591189"><ele>344.0</ele><time>2026-04-24T16:23:17.057Z</time></trkpt><trkpt lat="37.7375732" lon="15.1590957"><ele>343.5</ele><time>2026-04-24T16:23:18.058Z</time></trkpt><trkpt lat="37.737494" lon="15.1590642"><ele>343.0</ele><time>2026-04-24T16:23:19.057Z</time></trkpt><trkpt lat="37.7374151" lon="15.1590252"><ele>342.5</ele><time>2026-04-24T16:23:20.058Z</time></trkpt><trkpt lat="37.7373358" lon="15.1589878"><ele>342.0</ele><time>2026-04-24T16:23:21.057Z</time></trkpt><trkpt lat="37.7372612" lon="15.1589535"><ele>342.0</ele><time>2026-04-24T16:23:22.058Z</time></trkpt><trkpt lat="37.7371903" lon="15.1589168"><ele>342.0</ele><time>2026-04-24T16:23:23.057Z</time></trkpt><trkpt lat="37.7371238" lon="15.1588735"><ele>342.0</ele><time>2026-04-24T16:23:24.058Z</time></trkpt><trkpt lat="37.7370625" lon="15.1588178"><ele>342.0</ele><time>2026-04-24T16:23:25.057Z</time></trkpt><trkpt lat="37.7370049" lon="15.1587519"><ele>342.0</ele><time>2026-04-24T16:23:26.057Z</time></trkpt><trkpt lat="37.7369512" lon="15.1586771"><ele>342.0</ele><time>2026-04-24T16:23:27.057Z</time></trkpt><trkpt lat="37.7368979" lon="15.1585989"><ele>341.1666666666667</ele><time>2026-04-24T16:23:28.058Z</time></trkpt><trkpt lat="37.7368427" lon="15.1585233"><ele>340.3333333333333</ele><time>2026-04-24T16:23:29.058Z</time></trkpt><trkpt lat="37.7367871" lon="15.1584441"><ele>339.5</ele><time>2026-04-24T16:23:30.057Z</time></trkpt><trkpt lat="37.7367357" lon="15.1583667"><ele>338.66666666666663</ele><time>2026-04-24T16:23:31.057Z</time></trkpt><trkpt lat="37.7366827" lon="15.1582946"><ele>337.8333333333333</ele><time>2026-04-24T16:23:32.057Z</time></trkpt><trkpt lat="37.7366301" lon="15.1582259"><ele>337.0</ele><time>2026-04-24T16:23:33.057Z</time></trkpt><trkpt lat="37.7365779" lon="15.1581672"><ele>337.00000000000006</ele><time>2026-04-24T16:23:34.057Z</time></trkpt><trkpt lat="37.736524" lon="15.1581194"><ele>337.0</ele><time>2026-04-24T16:23:35.057Z</time></trkpt><trkpt lat="37.7364635" lon="15.1580925"><ele>337.0</ele><time>2026-04-24T16:23:36.058Z</time></trkpt><trkpt lat="37.7363962" lon="15.1580839"><ele>337.0</ele><time>2026-04-24T16:23:37.057Z</time></trkpt><trkpt lat="37.736326" lon="15.1580913"><ele>337.0</ele><time>2026-04-24T16:23:38.057Z</time></trkpt><trkpt lat="37.7362547" lon="15.1581159"><ele>337.00000000000006</ele><time>2026-04-24T16:23:39.057Z</time></trkpt><trkpt lat="37.736185" lon="15.1581534"><ele>337.0</ele><time>2026-04-24T16:23:40.058Z</time></trkpt><trkpt lat="37.7361164" lon="15.1581998"><ele>335.7142857142857</ele><time>2026-04-24T16:23:41.057Z</time></trkpt><trkpt lat="37.7360464" lon="15.1582419"><ele>334.42857142857144</ele><time>2026-04-24T16:23:42.057Z</time></trkpt><trkpt lat="37.7359796" lon="15.1582811"><ele>333.1428571428571</ele><time>2026-04-24T16:23:43.057Z</time></trkpt><trkpt lat="37.7359159" lon="15.1583159"><ele>331.8571428571429</ele><time>2026-04-24T16:23:44.058Z</time></trkpt><trkpt lat="37.7358505" lon="15.1583419"><ele>330.57142857142856</ele><time>2026-04-24T16:23:45.057Z</time></trkpt><trkpt lat="37.7357808" lon="15.1583539"><ele>329.2857142857143</ele><time>2026-04-24T16:23:46.057Z</time></trkpt><trkpt lat="37.7357087" lon="15.1583586"><ele>328.0</ele><time>2026-04-24T16:23:47.057Z</time></trkpt><trkpt lat="37.7356382" lon="15.1583598"><ele>328.0</ele><time>2026-04-24T16:23:48.058Z</time></trkpt><trkpt lat="37.7355749" lon="15.1583526"><ele>328.0</ele><time>2026-04-24T16:23:49.057Z</time></trkpt><trkpt lat="37.7355109" lon="15.1583392"><ele>328.0</ele><time>2026-04-24T16:23:50.058Z</time></trkpt><trkpt lat="37.7354005" lon="15.1583282"><ele>328.0</ele><time>2026-04-24T16:23:52.058Z</time></trkpt><trkpt lat="37.7353377" lon="15.1583911"><ele>328.0</ele><time>2026-04-24T16:23:55.058Z</time></trkpt><trkpt lat="37.735379" lon="15.1584841"><ele>328.0</ele><time>2026-04-24T16:23:58.058Z</time></trkpt><trkpt lat="37.7354298" lon="15.1585793"><ele>328.0</ele><time>2026-04-24T16:24:00.058Z</time></trkpt><trkpt lat="37.7354874" lon="15.1587209"><ele>328.0</ele><time>2026-04-24T16:24:02.057Z</time></trkpt><trkpt lat="37.735527" lon="15.1588025"><ele>328.0</ele><time>2026-04-24T16:24:03.057Z</time></trkpt><trkpt lat="37.7355662" lon="15.1588907"><ele>328.0</ele><time>2026-04-24T16:24:04.057Z</time></trkpt><trkpt lat="37.7356078" lon="15.1589831"><ele>328.0</ele><time>2026-04-24T16:24:05.057Z</time></trkpt><trkpt lat="37.7356522" lon="15.1590717"><ele>328.0</ele><time>2026-04-24T16:24:06.057Z</time></trkpt><trkpt lat="37.7356934" lon="15.159155"><ele>327.1428571428571</ele><time>2026-04-24T16:24:07.057Z</time></trkpt><trkpt lat="37.7357357" lon="15.1592318"><ele>326.2857142857143</ele><time>2026-04-24T16:24:08.058Z</time></trkpt><trkpt lat="37.7357736" lon="15.1593093"><ele>325.42857142857144</ele><time>2026-04-24T16:24:09.057Z</time></trkpt><trkpt lat="37.735809" lon="15.159384"><ele>324.57142857142856</ele><time>2026-04-24T16:24:10.058Z</time></trkpt><trkpt lat="37.7358352" lon="15.15946"><ele>323.7142857142857</ele><time>2026-04-24T16:24:11.057Z</time></trkpt><trkpt lat="37.7358541" lon="15.1595387"><ele>322.85714285714283</ele><time>2026-04-24T16:24:12.057Z</time></trkpt><trkpt lat="37.7358611" lon="15.1596186"><ele>322.0</ele><time>2026-04-24T16:24:13.057Z</time></trkpt><trkpt lat="37.7358569" lon="15.1597763"><ele>322.0</ele><time>2026-04-24T16:24:15.058Z</time></trkpt><trkpt lat="37.7358438" lon="15.1598556"><ele>322.0</ele><time>2026-04-24T16:24:16.057Z</time></trkpt><trkpt lat="37.7358219" lon="15.1599339"><ele>322.0</ele><time>2026-04-24T16:24:17.058Z</time></trkpt><trkpt lat="37.7357993" lon="15.1600153"><ele>322.0</ele><time>2026-04-24T16:24:18.058Z</time></trkpt><trkpt lat="37.7357798" lon="15.1600962"><ele>322.0</ele><time>2026-04-24T16:24:19.058Z</time></trkpt><trkpt lat="37.7357685" lon="15.1601769"><ele>322.0</ele><time>2026-04-24T16:24:20.057Z</time></trkpt><trkpt lat="37.7357679" lon="15.1602598"><ele>322.0</ele><time>2026-04-24T16:24:21.057Z</time></trkpt><trkpt lat="37.7357825" lon="15.1603456"><ele>321.0</ele><time>2026-04-24T16:24:22.057Z</time></trkpt><trkpt lat="37.7358055" lon="15.1604341"><ele>320.0</ele><time>2026-04-24T16:24:23.057Z</time></trkpt><trkpt lat="37.7358312" lon="15.1605286"><ele>319.0</ele><time>2026-04-24T16:24:24.058Z</time></trkpt><trkpt lat="37.7358603" lon="15.160629"><ele>318.0</ele><time>2026-04-24T16:24:25.057Z</time></trkpt><trkpt lat="37.7358924" lon="15.1607276"><ele>317.0</ele><time>2026-04-24T16:24:26.057Z</time></trkpt><trkpt lat="37.7359282" lon="15.1608151"><ele>316.0</ele><time>2026-04-24T16:24:27.058Z</time></trkpt><trkpt lat="37.735971" lon="15.1608904"><ele>315.8333333333333</ele><time>2026-04-24T16:24:28.057Z</time></trkpt><trkpt lat="37.7360222" lon="15.1609558"><ele>315.66666666666663</ele><time>2026-04-24T16:24:29.058Z</time></trkpt><trkpt lat="37.7360834" lon="15.1610055"><ele>315.5</ele><time>2026-04-24T16:24:30.057Z</time></trkpt><trkpt lat="37.7361561" lon="15.1610424"><ele>315.3333333333333</ele><time>2026-04-24T16:24:31.057Z</time></trkpt><trkpt lat="37.7362381" lon="15.1610775"><ele>315.1666666666667</ele><time>2026-04-24T16:24:32.057Z</time></trkpt><trkpt lat="37.7363273" lon="15.1611067"><ele>315.0</ele><time>2026-04-24T16:24:33.057Z</time></trkpt><trkpt lat="37.7364193" lon="15.1611369"><ele>315.0</ele><time>2026-04-24T16:24:34.057Z</time></trkpt><trkpt lat="37.7365127" lon="15.1611688"><ele>315.0</ele><time>2026-04-24T16:24:35.057Z</time></trkpt><trkpt lat="37.7366086" lon="15.1611992"><ele>315.0</ele><time>2026-04-24T16:24:36.057Z</time></trkpt><trkpt lat="37.7367044" lon="15.1612305"><ele>315.0</ele><time>2026-04-24T16:24:37.057Z</time></trkpt><trkpt lat="37.7367991" lon="15.1612681"><ele>315.0</ele><time>2026-04-24T16:24:38.057Z</time></trkpt><trkpt lat="37.7368946" lon="15.1613016"><ele>315.6</ele><time>2026-04-24T16:24:39.057Z</time></trkpt><trkpt lat="37.7369905" lon="15.1613331"><ele>316.2</ele><time>2026-04-24T16:24:40.057Z</time></trkpt><trkpt lat="37.7370835" lon="15.1613626"><ele>316.8</ele><time>2026-04-24T16:24:41.057Z</time></trkpt><trkpt lat="37.7371731" lon="15.1613902"><ele>317.4</ele><time>2026-04-24T16:24:42.058Z</time></trkpt><trkpt lat="37.7372642" lon="15.1614201"><ele>318.0</ele><time>2026-04-24T16:24:43.058Z</time></trkpt><trkpt lat="37.7373537" lon="15.161451"><ele>318.0</ele><time>2026-04-24T16:24:44.057Z</time></trkpt><trkpt lat="37.7374443" lon="15.1614762"><ele>318.0</ele><time>2026-04-24T16:24:45.058Z</time></trkpt><trkpt lat="37.7375355" lon="15.1614933"><ele>318.0</ele><time>2026-04-24T16:24:46.057Z</time></trkpt><trkpt lat="37.7376293" lon="15.1615023"><ele>318.0</ele><time>2026-04-24T16:24:47.057Z</time></trkpt><trkpt lat="37.737725" lon="15.1615116"><ele>318.0</ele><time>2026-04-24T16:24:48.057Z</time></trkpt><trkpt lat="37.737819" lon="15.1615217"><ele>318.1666666666667</ele><time>2026-04-24T16:24:49.057Z</time></trkpt><trkpt lat="37.7379105" lon="15.1615313"><ele>318.3333333333333</ele><time>2026-04-24T16:24:50.057Z</time></trkpt><trkpt lat="37.7379981" lon="15.1615459"><ele>318.5</ele><time>2026-04-24T16:24:51.057Z</time></trkpt><trkpt lat="37.7380835" lon="15.1615644"><ele>318.66666666666663</ele><time>2026-04-24T16:24:52.057Z</time></trkpt><trkpt lat="37.7381646" lon="15.1615895"><ele>318.8333333333333</ele><time>2026-04-24T16:24:53.057Z</time></trkpt><trkpt lat="37.7382417" lon="15.1616291"><ele>319.0</ele><time>2026-04-24T16:24:54.057Z</time></trkpt><trkpt lat="37.7383105" lon="15.1616803"><ele>318.0</ele><time>2026-04-24T16:24:55.057Z</time></trkpt><trkpt lat="37.7383777" lon="15.1617423"><ele>317.0</ele><time>2026-04-24T16:24:56.057Z</time></trkpt><trkpt lat="37.7384453" lon="15.1618125"><ele>316.0</ele><time>2026-04-24T16:24:57.057Z</time></trkpt><trkpt lat="37.738512" lon="15.1618886"><ele>315.0</ele><time>2026-04-24T16:24:58.058Z</time></trkpt><trkpt lat="37.738577" lon="15.1619646"><ele>314.0</ele><time>2026-04-24T16:24:59.058Z</time></trkpt><trkpt lat="37.7386445" lon="15.1620322"><ele>313.0</ele><time>2026-04-24T16:25:00.058Z</time></trkpt><trkpt lat="37.7387122" lon="15.1620889"><ele>312.85714285714283</ele><time>2026-04-24T16:25:01.057Z</time></trkpt><trkpt lat="37.7387786" lon="15.1621396"><ele>312.7142857142857</ele><time>2026-04-24T16:25:02.057Z</time></trkpt><trkpt lat="37.7388412" lon="15.1621829"><ele>312.57142857142856</ele><time>2026-04-24T16:25:03.057Z</time></trkpt><trkpt lat="37.7389047" lon="15.1622201"><ele>312.42857142857144</ele><time>2026-04-24T16:25:04.057Z</time></trkpt><trkpt lat="37.7389752" lon="15.1622375"><ele>312.2857142857143</ele><time>2026-04-24T16:25:05.057Z</time></trkpt><trkpt lat="37.7390469" lon="15.1622404"><ele>312.14285714285717</ele><time>2026-04-24T16:25:06.057Z</time></trkpt><trkpt lat="37.7391134" lon="15.162225"><ele>312.0</ele><time>2026-04-24T16:25:07.057Z</time></trkpt><trkpt lat="37.739176" lon="15.1621846"><ele>312.0</ele><time>2026-04-24T16:25:08.057Z</time></trkpt><trkpt lat="37.7392325" lon="15.1621207"><ele>312.0</ele><time>2026-04-24T16:25:09.057Z</time></trkpt><trkpt lat="37.7392803" lon="15.162039"><ele>312.0</ele><time>2026-04-24T16:25:10.057Z</time></trkpt><trkpt lat="37.7393199" lon="15.1619531"><ele>312.0</ele><time>2026-04-24T16:25:11.057Z</time></trkpt><trkpt lat="37.7393554" lon="15.1618712"><ele>312.0</ele><time>2026-04-24T16:25:12.057Z</time></trkpt><trkpt lat="37.7393927" lon="15.1618032"><ele>312.0</ele><time>2026-04-24T16:25:13.057Z</time></trkpt><trkpt lat="37.739474" lon="15.1617238"><ele>311.3333333333333</ele><time>2026-04-24T16:25:15.057Z</time></trkpt><trkpt lat="37.7395449" lon="15.1617605"><ele>310.6666666666667</ele><time>2026-04-24T16:25:17.057Z</time></trkpt><trkpt lat="37.7395905" lon="15.1618782"><ele>310.0</ele><time>2026-04-24T16:25:19.057Z</time></trkpt><trkpt lat="37.739615" lon="15.16196"><ele>309.33333333333337</ele><time>2026-04-24T16:25:20.058Z</time></trkpt><trkpt lat="37.739647" lon="15.1620563"><ele>308.6666666666667</ele><time>2026-04-24T16:25:21.057Z</time></trkpt><trkpt lat="37.739685" lon="15.1621639"><ele>308.0</ele><time>2026-04-24T16:25:22.057Z</time></trkpt><trkpt lat="37.7397241" lon="15.1622804"><ele>306.6</ele><time>2026-04-24T16:25:23.057Z</time></trkpt><trkpt lat="37.739766" lon="15.1624009"><ele>305.20000000000005</ele><time>2026-04-24T16:25:24.057Z</time></trkpt><trkpt lat="37.7398088" lon="15.1625252"><ele>303.8</ele><time>2026-04-24T16:25:25.058Z</time></trkpt><trkpt lat="37.7398504" lon="15.1626448"><ele>302.40000000000003</ele><time>2026-04-24T16:25:26.057Z</time></trkpt><trkpt lat="37.7398893" lon="15.1627596"><ele>301.0</ele><time>2026-04-24T16:25:27.057Z</time></trkpt><trkpt lat="37.7399282" lon="15.1628727"><ele>301.0</ele><time>2026-04-24T16:25:28.057Z</time></trkpt><trkpt lat="37.7399776" lon="15.1629774"><ele>301.0</ele><time>2026-04-24T16:25:29.057Z</time></trkpt><trkpt lat="37.7400395" lon="15.1630721"><ele>301.0</ele><time>2026-04-24T16:25:30.058Z</time></trkpt><trkpt lat="37.74011" lon="15.1631634"><ele>301.0</ele><time>2026-04-24T16:25:31.057Z</time></trkpt><trkpt lat="37.7401861" lon="15.1632506"><ele>301.0</ele><time>2026-04-24T16:25:32.057Z</time></trkpt><trkpt lat="37.7402662" lon="15.1633372"><ele>300.0</ele><time>2026-04-24T16:25:33.057Z</time></trkpt><trkpt lat="37.7403507" lon="15.1634238"><ele>299.0</ele><time>2026-04-24T16:25:34.058Z</time></trkpt><trkpt lat="37.7404411" lon="15.1635058"><ele>298.0</ele><time>2026-04-24T16:25:35.057Z</time></trkpt><trkpt lat="37.7405294" lon="15.1635831"><ele>297.0</ele><time>2026-04-24T16:25:36.057Z</time></trkpt><trkpt lat="37.7406131" lon="15.1636582"><ele>296.0</ele><time>2026-04-24T16:25:37.057Z</time></trkpt><trkpt lat="37.7407018" lon="15.1637306"><ele>296.0</ele><time>2026-04-24T16:25:38.057Z</time></trkpt><trkpt lat="37.7407986" lon="15.163793"><ele>296.0</ele><time>2026-04-24T16:25:39.057Z</time></trkpt><trkpt lat="37.7409043" lon="15.1638485"><ele>296.0</ele><time>2026-04-24T16:25:40.057Z</time></trkpt><trkpt lat="37.7410115" lon="15.1639036"><ele>296.0</ele><time>2026-04-24T16:25:41.057Z</time></trkpt><trkpt lat="37.7411161" lon="15.1639613"><ele>296.6</ele><time>2026-04-24T16:25:42.057Z</time></trkpt><trkpt lat="37.7412189" lon="15.1640116"><ele>297.20000000000005</ele><time>2026-04-24T16:25:43.057Z</time></trkpt><trkpt lat="37.7413207" lon="15.1640562"><ele>297.79999999999995</ele><time>2026-04-24T16:25:44.057Z</time></trkpt><trkpt lat="37.7414255" lon="15.1640919"><ele>298.4</ele><time>2026-04-24T16:25:45.057Z</time></trkpt><trkpt lat="37.7415287" lon="15.1641169"><ele>299.0</ele><time>2026-04-24T16:25:46.057Z</time></trkpt><trkpt lat="37.7416337" lon="15.1641354"><ele>297.4</ele><time>2026-04-24T16:25:47.058Z</time></trkpt><trkpt lat="37.7417357" lon="15.1641443"><ele>295.79999999999995</ele><time>2026-04-24T16:25:48.057Z</time></trkpt><trkpt lat="37.7418348" lon="15.1641502"><ele>294.20000000000005</ele><time>2026-04-24T16:25:49.057Z</time></trkpt><trkpt lat="37.7419264" lon="15.1641547"><ele>292.6</ele><time>2026-04-24T16:25:50.058Z</time></trkpt><trkpt lat="37.7420066" lon="15.1641662"><ele>291.0</ele><time>2026-04-24T16:25:51.058Z</time></trkpt><trkpt lat="37.7420813" lon="15.164193"><ele>291.0</ele><time>2026-04-24T16:25:52.057Z</time></trkpt><trkpt lat="37.7421536" lon="15.1642323"><ele>291.0</ele><time>2026-04-24T16:25:53.057Z</time></trkpt><trkpt lat="37.7422317" lon="15.1642717"><ele>291.0</ele><time>2026-04-24T16:25:54.057Z</time></trkpt><trkpt lat="37.7423179" lon="15.1643108"><ele>291.0</ele><time>2026-04-24T16:25:55.057Z</time></trkpt><trkpt lat="37.7424068" lon="15.1643536"><ele>291.0</ele><time>2026-04-24T16:25:56.057Z</time></trkpt><trkpt lat="37.7425005" lon="15.1643978"><ele>291.0</ele><time>2026-04-24T16:25:57.057Z</time></trkpt><trkpt lat="37.7425978" lon="15.1644439"><ele>291.0</ele><time>2026-04-24T16:25:58.057Z</time></trkpt><trkpt lat="37.7426981" lon="15.1644838"><ele>291.0</ele><time>2026-04-24T16:25:59.057Z</time></trkpt><trkpt lat="37.7427951" lon="15.1645187"><ele>291.0</ele><time>2026-04-24T16:26:00.057Z</time></trkpt><trkpt lat="37.7428887" lon="15.1645504"><ele>291.0</ele><time>2026-04-24T16:26:01.058Z</time></trkpt><trkpt lat="37.7429865" lon="15.1645713"><ele>291.0</ele><time>2026-04-24T16:26:02.057Z</time></trkpt><trkpt lat="37.7430857" lon="15.1645812"><ele>289.6</ele><time>2026-04-24T16:26:03.057Z</time></trkpt><trkpt lat="37.7431827" lon="15.1645782"><ele>288.20000000000005</ele><time>2026-04-24T16:26:04.057Z</time></trkpt><trkpt lat="37.7432781" lon="15.1645663"><ele>286.79999999999995</ele><time>2026-04-24T16:26:05.058Z</time></trkpt><trkpt lat="37.7433721" lon="15.1645372"><ele>285.4</ele><time>2026-04-24T16:26:06.057Z</time></trkpt><trkpt lat="37.7434651" lon="15.1645002"><ele>284.0</ele><time>2026-04-24T16:26:07.057Z</time></trkpt><trkpt lat="37.7435615" lon="15.1644676"><ele>283.4</ele><time>2026-04-24T16:26:08.057Z</time></trkpt><trkpt lat="37.7436544" lon="15.1644459"><ele>282.79999999999995</ele><time>2026-04-24T16:26:09.057Z</time></trkpt><trkpt lat="37.7437482" lon="15.164437"><ele>282.20000000000005</ele><time>2026-04-24T16:26:10.057Z</time></trkpt><trkpt lat="37.7438476" lon="15.1644357"><ele>281.6</ele><time>2026-04-24T16:26:11.058Z</time></trkpt><trkpt lat="37.7439511" lon="15.164437"><ele>281.0</ele><time>2026-04-24T16:26:12.057Z</time></trkpt><trkpt lat="37.7440568" lon="15.1644443"><ele>281.0</ele><time>2026-04-24T16:26:13.057Z</time></trkpt><trkpt lat="37.7441563" lon="15.1644696"><ele>281.0</ele><time>2026-04-24T16:26:14.058Z</time></trkpt><trkpt lat="37.744249" lon="15.1645156"><ele>281.0</ele><time>2026-04-24T16:26:15.057Z</time></trkpt><trkpt lat="37.7443366" lon="15.1645684"><ele>281.0</ele><time>2026-04-24T16:26:16.058Z</time></trkpt><trkpt lat="37.7444252" lon="15.1646178"><ele>281.0</ele><time>2026-04-24T16:26:17.057Z</time></trkpt><trkpt lat="37.7445181" lon="15.1646544"><ele>282.75</ele><time>2026-04-24T16:26:18.057Z</time></trkpt><trkpt lat="37.7446194" lon="15.1646741"><ele>284.5</ele><time>2026-04-24T16:26:19.057Z</time></trkpt><trkpt lat="37.7447297" lon="15.1646845"><ele>286.25</ele><time>2026-04-24T16:26:20.057Z</time></trkpt><trkpt lat="37.7448507" lon="15.1646902"><ele>288.0</ele><time>2026-04-24T16:26:21.057Z</time></trkpt><trkpt lat="37.7449786" lon="15.1646875"><ele>288.0</ele><time>2026-04-24T16:26:22.057Z</time></trkpt><trkpt lat="37.7451065" lon="15.1646749"><ele>288.0</ele><time>2026-04-24T16:26:23.058Z</time></trkpt><trkpt lat="37.7452239" lon="15.1646598"><ele>288.0</ele><time>2026-04-24T16:26:24.057Z</time></trkpt><trkpt lat="37.7453326" lon="15.1646391"><ele>288.0</ele><time>2026-04-24T16:26:25.057Z</time></trkpt><trkpt lat="37.7454376" lon="15.164615"><ele>288.0</ele><time>2026-04-24T16:26:26.058Z</time></trkpt><trkpt lat="37.7455418" lon="15.1645853"><ele>288.0</ele><time>2026-04-24T16:26:27.057Z</time></trkpt><trkpt lat="37.745638" lon="15.164555"><ele>288.0</ele><time>2026-04-24T16:26:28.057Z</time></trkpt><trkpt lat="37.7457323" lon="15.1645301"><ele>288.0</ele><time>2026-04-24T16:26:29.057Z</time></trkpt><trkpt lat="37.7458249" lon="15.1645043"><ele>288.0</ele><time>2026-04-24T16:26:30.057Z</time></trkpt><trkpt lat="37.745917" lon="15.1644686"><ele>288.0</ele><time>2026-04-24T16:26:31.057Z</time></trkpt><trkpt lat="37.7459976" lon="15.1644271"><ele>288.0</ele><time>2026-04-24T16:26:32.057Z</time></trkpt><trkpt lat="37.7460742" lon="15.1643727"><ele>288.0</ele><time>2026-04-24T16:26:33.058Z</time></trkpt><trkpt lat="37.746148" lon="15.1643022"><ele>288.0</ele><time>2026-04-24T16:26:34.057Z</time></trkpt><trkpt lat="37.7462207" lon="15.164215"><ele>288.0</ele><time>2026-04-24T16:26:35.057Z</time></trkpt><trkpt lat="37.7462914" lon="15.1641178"><ele>289.6</ele><time>2026-04-24T16:26:36.057Z</time></trkpt><trkpt lat="37.7463622" lon="15.1640155"><ele>291.20000000000005</ele><time>2026-04-24T16:26:37.057Z</time></trkpt><trkpt lat="37.7464381" lon="15.1639116"><ele>292.8</ele><time>2026-04-24T16:26:38.057Z</time></trkpt><trkpt lat="37.7465198" lon="15.1638115"><ele>294.40000000000003</ele><time>2026-04-24T16:26:39.057Z</time></trkpt><trkpt lat="37.7466059" lon="15.1637271"><ele>296.0</ele><time>2026-04-24T16:26:40.057Z</time></trkpt><trkpt lat="37.7466898" lon="15.1636556"><ele>296.0</ele><time>2026-04-24T16:26:41.058Z</time></trkpt><trkpt lat="37.7467673" lon="15.1636053"><ele>296.0</ele><time>2026-04-24T16:26:42.057Z</time></trkpt><trkpt lat="37.7468417" lon="15.1635789"><ele>296.0</ele><time>2026-04-24T16:26:43.057Z</time></trkpt><trkpt lat="37.746911" lon="15.1635743"><ele>296.0</ele><time>2026-04-24T16:26:44.057Z</time></trkpt><trkpt lat="37.7469786" lon="15.1635935"><ele>296.0</ele><time>2026-04-24T16:26:45.057Z</time></trkpt><trkpt lat="37.7470514" lon="15.1636309"><ele>296.0</ele><time>2026-04-24T16:26:46.058Z</time></trkpt><trkpt lat="37.7471299" lon="15.1636743"><ele>296.1666666666667</ele><time>2026-04-24T16:26:47.057Z</time></trkpt><trkpt lat="37.7472124" lon="15.1637131"><ele>296.33333333333337</ele><time>2026-04-24T16:26:48.057Z</time></trkpt><trkpt lat="37.747289" lon="15.1637474"><ele>296.5</ele><time>2026-04-24T16:26:49.058Z</time></trkpt><trkpt lat="37.747355" lon="15.1637895"><ele>296.6666666666667</ele><time>2026-04-24T16:26:50.057Z</time></trkpt><trkpt lat="37.7474049" lon="15.1638426"><ele>296.8333333333333</ele><time>2026-04-24T16:26:51.058Z</time></trkpt><trkpt lat="37.747457" lon="15.1639875"><ele>297.0</ele><time>2026-04-24T16:26:53.058Z</time></trkpt><trkpt lat="37.7474764" lon="15.1640758"><ele>296.0</ele><time>2026-04-24T16:26:54.057Z</time></trkpt><trkpt lat="37.747501" lon="15.164172"><ele>295.0</ele><time>2026-04-24T16:26:55.057Z</time></trkpt><trkpt lat="37.7475305" lon="15.1642732"><ele>294.0</ele><time>2026-04-24T16:26:56.057Z</time></trkpt><trkpt lat="37.7475694" lon="15.1643725"><ele>293.0</ele><time>2026-04-24T16:26:57.057Z</time></trkpt><trkpt lat="37.7476231" lon="15.164466"><ele>292.0</ele><time>2026-04-24T16:26:58.058Z</time></trkpt><trkpt lat="37.7476889" lon="15.1645549"><ele>291.0</ele><time>2026-04-24T16:26:59.058Z</time></trkpt><trkpt lat="37.7477627" lon="15.1646423"><ele>291.1666666666667</ele><time>2026-04-24T16:27:00.057Z</time></trkpt><trkpt lat="37.7478332" lon="15.1647231"><ele>291.3333333333333</ele><time>2026-04-24T16:27:01.058Z</time></trkpt><trkpt lat="37.747899" lon="15.1647959"><ele>291.5</ele><time>2026-04-24T16:27:02.057Z</time></trkpt><trkpt lat="37.7479653" lon="15.1648537"><ele>291.66666666666663</ele><time>2026-04-24T16:27:03.057Z</time></trkpt><trkpt lat="37.7480418" lon="15.1648983"><ele>291.8333333333333</ele><time>2026-04-24T16:27:04.057Z</time></trkpt><trkpt lat="37.74812" lon="15.1649389"><ele>292.0</ele><time>2026-04-24T16:27:05.057Z</time></trkpt><trkpt lat="37.7481941" lon="15.1649779"><ele>292.0</ele><time>2026-04-24T16:27:06.057Z</time></trkpt><trkpt lat="37.7482627" lon="15.1650073"><ele>292.0</ele><time>2026-04-24T16:27:07.058Z</time></trkpt><trkpt lat="37.7483233" lon="15.1650308"><ele>292.0</ele><time>2026-04-24T16:27:08.057Z</time></trkpt><trkpt lat="37.7484404" lon="15.1650447"><ele>292.0</ele><time>2026-04-24T16:27:10.057Z</time></trkpt><trkpt lat="37.7485536" lon="15.1650351"><ele>292.0</ele><time>2026-04-24T16:27:12.057Z</time></trkpt><trkpt lat="37.748675" lon="15.1650255"><ele>291.42857142857144</ele><time>2026-04-24T16:27:14.058Z</time></trkpt><trkpt lat="37.7487401" lon="15.1650336"><ele>290.8571428571429</ele><time>2026-04-24T16:27:15.057Z</time></trkpt><trkpt lat="37.7488054" lon="15.1650493"><ele>290.28571428571433</ele><time>2026-04-24T16:27:16.057Z</time></trkpt><trkpt lat="37.7488676" lon="15.1650717"><ele>289.7142857142857</ele><time>2026-04-24T16:27:17.058Z</time></trkpt><trkpt lat="37.7489297" lon="15.1650984"><ele>289.14285714285717</ele><time>2026-04-24T16:27:18.057Z</time></trkpt><trkpt lat="37.7489957" lon="15.1651289"><ele>288.5714285714286</ele><time>2026-04-24T16:27:19.058Z</time></trkpt><trkpt lat="37.7490601" lon="15.1651603"><ele>288.0</ele><time>2026-04-24T16:27:20.057Z</time></trkpt><trkpt lat="37.749122" lon="15.1651864"><ele>288.0</ele><time>2026-04-24T16:27:21.058Z</time></trkpt><trkpt lat="37.7491855" lon="15.1652079"><ele>288.0</ele><time>2026-04-24T16:27:22.057Z</time></trkpt><trkpt lat="37.7492508" lon="15.1652221"><ele>288.0</ele><time>2026-04-24T16:27:23.058Z</time></trkpt><trkpt lat="37.7493689" lon="15.1652328"><ele>288.0</ele><time>2026-04-24T16:27:25.058Z</time></trkpt><trkpt lat="37.7494327" lon="15.1652319"><ele>288.0</ele><time>2026-04-24T16:27:26.057Z</time></trkpt><trkpt lat="37.7495006" lon="15.1652255"><ele>288.0</ele><time>2026-04-24T16:27:27.057Z</time></trkpt><trkpt lat="37.7495687" lon="15.1652141"><ele>285.25</ele><time>2026-04-24T16:27:28.057Z</time></trkpt><trkpt lat="37.7496868" lon="15.1651759"><ele>282.5</ele><time>2026-04-24T16:27:30.057Z</time></trkpt><trkpt lat="37.7497827" lon="15.1651"><ele>279.75</ele><time>2026-04-24T16:27:32.057Z</time></trkpt><trkpt lat="37.7498463" lon="15.1649862"><ele>277.0</ele><time>2026-04-24T16:27:34.058Z</time></trkpt><trkpt lat="37.7499298" lon="15.1648905"><ele>276.6</ele><time>2026-04-24T16:27:36.058Z</time></trkpt><trkpt lat="37.7500522" lon="15.1648605"><ele>276.2</ele><time>2026-04-24T16:27:38.057Z</time></trkpt><trkpt lat="37.7501248" lon="15.1648597"><ele>275.8</ele><time>2026-04-24T16:27:39.057Z</time></trkpt><trkpt lat="37.7502042" lon="15.1648598"><ele>275.4</ele><time>2026-04-24T16:27:40.057Z</time></trkpt><trkpt lat="37.7502912" lon="15.1648601"><ele>275.0</ele><time>2026-04-24T16:27:41.057Z</time></trkpt><trkpt lat="37.7503849" lon="15.164856"><ele>275.0</ele><time>2026-04-24T16:27:42.058Z</time></trkpt><trkpt lat="37.7504831" lon="15.1648463"><ele>275.0</ele><time>2026-04-24T16:27:43.058Z</time></trkpt><trkpt lat="37.7505825" lon="15.1648374"><ele>275.0</ele><time>2026-04-24T16:27:44.057Z</time></trkpt><trkpt lat="37.7506839" lon="15.1648251"><ele>275.0</ele><time>2026-04-24T16:27:45.057Z</time></trkpt><trkpt lat="37.7507816" lon="15.1648096"><ele>275.0</ele><time>2026-04-24T16:27:46.058Z</time></trkpt><trkpt lat="37.7508677" lon="15.164794"><ele>275.0</ele><time>2026-04-24T16:27:47.057Z</time></trkpt><trkpt lat="37.7509431" lon="15.1647814"><ele>275.0</ele><time>2026-04-24T16:27:48.057Z</time></trkpt><trkpt lat="37.7510089" lon="15.1647816"><ele>275.0</ele><time>2026-04-24T16:27:49.057Z</time></trkpt><trkpt lat="37.7511083" lon="15.1648538"><ele>275.0</ele><time>2026-04-24T16:27:51.057Z</time></trkpt><trkpt lat="37.7511929" lon="15.1649823"><ele>275.0</ele><time>2026-04-24T16:27:53.057Z</time></trkpt><trkpt lat="37.7512349" lon="15.1650593"><ele>275.6666666666667</ele><time>2026-04-24T16:27:54.057Z</time></trkpt><trkpt lat="37.7512807" lon="15.1651401"><ele>276.33333333333337</ele><time>2026-04-24T16:27:55.057Z</time></trkpt><trkpt lat="37.7513235" lon="15.1652253"><ele>277.0</ele><time>2026-04-24T16:27:56.057Z</time></trkpt><trkpt lat="37.7513637" lon="15.1653149"><ele>277.6666666666667</ele><time>2026-04-24T16:27:57.058Z</time></trkpt><trkpt lat="37.7514016" lon="15.1654043"><ele>278.3333333333333</ele><time>2026-04-24T16:27:58.057Z</time></trkpt><trkpt lat="37.7514547" lon="15.165492"><ele>279.0</ele><time>2026-04-24T16:27:59.057Z</time></trkpt><trkpt lat="37.7515148" lon="15.1655763"><ele>279.0</ele><time>2026-04-24T16:28:00.057Z</time></trkpt><trkpt lat="37.7515848" lon="15.1656618"><ele>279.0</ele><time>2026-04-24T16:28:01.057Z</time></trkpt><trkpt lat="37.7516576" lon="15.1657553"><ele>279.0</ele><time>2026-04-24T16:28:02.057Z</time></trkpt><trkpt lat="37.7517328" lon="15.1658557"><ele>279.0</ele><time>2026-04-24T16:28:03.058Z</time></trkpt><trkpt lat="37.7518117" lon="15.1659615"><ele>279.0</ele><time>2026-04-24T16:28:04.058Z</time></trkpt><trkpt lat="37.7518904" lon="15.1660662"><ele>279.25</ele><time>2026-04-24T16:28:05.058Z</time></trkpt><trkpt lat="37.7519679" lon="15.1661727"><ele>279.5</ele><time>2026-04-24T16:28:06.057Z</time></trkpt><trkpt lat="37.7520444" lon="15.1662809"><ele>279.75</ele><time>2026-04-24T16:28:07.057Z</time></trkpt><trkpt lat="37.752122" lon="15.1663883"><ele>280.0</ele><time>2026-04-24T16:28:08.057Z</time></trkpt><trkpt lat="37.752198" lon="15.1664911"><ele>279.0</ele><time>2026-04-24T16:28:09.057Z</time></trkpt><trkpt lat="37.7522707" lon="15.1665901"><ele>278.0</ele><time>2026-04-24T16:28:10.057Z</time></trkpt><trkpt lat="37.7523379" lon="15.166686"><ele>277.0</ele><time>2026-04-24T16:28:11.057Z</time></trkpt><trkpt lat="37.7524017" lon="15.1667768"><ele>276.0</ele><time>2026-04-24T16:28:12.057Z</time></trkpt><trkpt lat="37.7524677" lon="15.1668599"><ele>275.0</ele><time>2026-04-24T16:28:13.057Z</time></trkpt><trkpt lat="37.7525323" lon="15.1669391"><ele>275.0</ele><time>2026-04-24T16:28:14.057Z</time></trkpt><trkpt lat="37.7525975" lon="15.167015"><ele>275.0</ele><time>2026-04-24T16:28:15.057Z</time></trkpt><trkpt lat="37.7526684" lon="15.1670844"><ele>275.0</ele><time>2026-04-24T16:28:16.058Z</time></trkpt><trkpt lat="37.7527428" lon="15.1671476"><ele>275.0</ele><time>2026-04-24T16:28:17.057Z</time></trkpt><trkpt lat="37.7528227" lon="15.1672067"><ele>275.0</ele><time>2026-04-24T16:28:18.057Z</time></trkpt><trkpt lat="37.7529066" lon="15.1672651"><ele>276.0</ele><time>2026-04-24T16:28:19.057Z</time></trkpt><trkpt lat="37.7529942" lon="15.1673169"><ele>277.0</ele><time>2026-04-24T16:28:20.058Z</time></trkpt><trkpt lat="37.7530846" lon="15.1673651"><ele>278.0</ele><time>2026-04-24T16:28:21.057Z</time></trkpt><trkpt lat="37.7531804" lon="15.1674064"><ele>279.0</ele><time>2026-04-24T16:28:22.057Z</time></trkpt><trkpt lat="37.7532793" lon="15.1674449"><ele>280.0</ele><time>2026-04-24T16:28:23.057Z</time></trkpt><trkpt lat="37.7533794" lon="15.1674844"><ele>277.2</ele><time>2026-04-24T16:28:24.057Z</time></trkpt><trkpt lat="37.7534797" lon="15.1675228"><ele>274.4</ele><time>2026-04-24T16:28:25.058Z</time></trkpt><trkpt lat="37.753581" lon="15.1675651"><ele>271.6</ele><time>2026-04-24T16:28:26.057Z</time></trkpt><trkpt lat="37.7536832" lon="15.1676059"><ele>268.8</ele><time>2026-04-24T16:28:27.058Z</time></trkpt><trkpt lat="37.7537847" lon="15.1676434"><ele>266.0</ele><time>2026-04-24T16:28:28.057Z</time></trkpt><trkpt lat="37.7538836" lon="15.1676879"><ele>264.8</ele><time>2026-04-24T16:28:29.058Z</time></trkpt><trkpt lat="37.7539786" lon="15.1677416"><ele>263.6</ele><time>2026-04-24T16:28:30.058Z</time></trkpt><trkpt lat="37.7540721" lon="15.1678061"><ele>262.4</ele><time>2026-04-24T16:28:31.058Z</time></trkpt><trkpt lat="37.7541603" lon="15.1678776"><ele>261.2</ele><time>2026-04-24T16:28:32.057Z</time></trkpt><trkpt lat="37.7542482" lon="15.1679511"><ele>260.0</ele><time>2026-04-24T16:28:33.057Z</time></trkpt><trkpt lat="37.7543297" lon="15.1680285"><ele>259.6666666666667</ele><time>2026-04-24T16:28:34.057Z</time></trkpt><trkpt lat="37.7544083" lon="15.1681016"><ele>259.33333333333337</ele><time>2026-04-24T16:28:35.057Z</time></trkpt><trkpt lat="37.7544831" lon="15.1681655"><ele>259.0</ele><time>2026-04-24T16:28:36.057Z</time></trkpt><trkpt lat="37.75456" lon="15.1682168"><ele>258.6666666666667</ele><time>2026-04-24T16:28:37.057Z</time></trkpt><trkpt lat="37.7546402" lon="15.1682513"><ele>258.3333333333333</ele><time>2026-04-24T16:28:38.057Z</time></trkpt><trkpt lat="37.7547258" lon="15.1682684"><ele>258.0</ele><time>2026-04-24T16:28:39.057Z</time></trkpt><trkpt lat="37.7548169" lon="15.1682702"><ele>256.6666666666667</ele><time>2026-04-24T16:28:40.057Z</time></trkpt><trkpt lat="37.7548992" lon="15.1682819"><ele>255.33333333333331</ele><time>2026-04-24T16:28:41.057Z</time></trkpt><trkpt lat="37.7549787" lon="15.1682919"><ele>254.0</ele><time>2026-04-24T16:28:42.057Z</time></trkpt><trkpt lat="37.7550576" lon="15.1682861"><ele>252.66666666666666</ele><time>2026-04-24T16:28:43.058Z</time></trkpt><trkpt lat="37.7551374" lon="15.1682649"><ele>251.33333333333331</ele><time>2026-04-24T16:28:44.057Z</time></trkpt><trkpt lat="37.7552188" lon="15.1682339"><ele>250.0</ele><time>2026-04-24T16:28:45.058Z</time></trkpt><trkpt lat="37.7552944" lon="15.1681913"><ele>249.99999999999997</ele><time>2026-04-24T16:28:46.057Z</time></trkpt><trkpt lat="37.7553677" lon="15.1681337"><ele>250.0</ele><time>2026-04-24T16:28:47.058Z</time></trkpt><trkpt lat="37.7554375" lon="15.1680669"><ele>250.0</ele><time>2026-04-24T16:28:48.057Z</time></trkpt><trkpt lat="37.7555044" lon="15.1680002"><ele>250.0</ele><time>2026-04-24T16:28:49.057Z</time></trkpt><trkpt lat="37.7555725" lon="15.16794"><ele>249.99999999999997</ele><time>2026-04-24T16:28:50.058Z</time></trkpt><trkpt lat="37.755642" lon="15.1678816"><ele>250.0</ele><time>2026-04-24T16:28:51.057Z</time></trkpt><trkpt lat="37.7557148" lon="15.1678308"><ele>249.99999999999997</ele><time>2026-04-24T16:28:52.057Z</time></trkpt><trkpt lat="37.755784" lon="15.1677888"><ele>250.0</ele><time>2026-04-24T16:28:53.057Z</time></trkpt><trkpt lat="37.7558493" lon="15.167753"><ele>250.0</ele><time>2026-04-24T16:28:54.057Z</time></trkpt><trkpt lat="37.7559114" lon="15.1677213"><ele>250.0</ele><time>2026-04-24T16:28:55.057Z</time></trkpt><trkpt lat="37.7560107" lon="15.1676565"><ele>249.99999999999997</ele><time>2026-04-24T16:28:57.057Z</time></trkpt><trkpt lat="37.7561144" lon="15.1675863"><ele>250.0</ele><time>2026-04-24T16:28:59.058Z</time></trkpt><trkpt lat="37.7561684" lon="15.167538"><ele>247.66666666666666</ele><time>2026-04-24T16:29:00.058Z</time></trkpt><trkpt lat="37.7562185" lon="15.1674794"><ele>245.33333333333331</ele><time>2026-04-24T16:29:01.057Z</time></trkpt><trkpt lat="37.7562727" lon="15.1674179"><ele>243.0</ele><time>2026-04-24T16:29:02.057Z</time></trkpt><trkpt lat="37.7563314" lon="15.167349"><ele>240.66666666666669</ele><time>2026-04-24T16:29:03.057Z</time></trkpt><trkpt lat="37.7563857" lon="15.1672703"><ele>238.33333333333334</ele><time>2026-04-24T16:29:04.058Z</time></trkpt><trkpt lat="37.7564374" lon="15.1671829"><ele>236.0</ele><time>2026-04-24T16:29:05.057Z</time></trkpt><trkpt lat="37.7564816" lon="15.1670824"><ele>236.00000000000003</ele><time>2026-04-24T16:29:06.058Z</time></trkpt><trkpt lat="37.7565141" lon="15.1669724"><ele>236.0</ele><time>2026-04-24T16:29:07.057Z</time></trkpt><trkpt lat="37.7565357" lon="15.1668595"><ele>236.0</ele><time>2026-04-24T16:29:08.058Z</time></trkpt><trkpt lat="37.7565532" lon="15.16675"><ele>236.0</ele><time>2026-04-24T16:29:09.057Z</time></trkpt><trkpt lat="37.7565689" lon="15.1666434"><ele>236.00000000000003</ele><time>2026-04-24T16:29:10.058Z</time></trkpt><trkpt lat="37.7565832" lon="15.1665547"><ele>236.0</ele><time>2026-04-24T16:29:11.057Z</time></trkpt><trkpt lat="37.7566332" lon="15.1664394"><ele>236.00000000000003</ele><time>2026-04-24T16:29:13.057Z</time></trkpt><trkpt lat="37.7567109" lon="15.1664247"><ele>236.0</ele><time>2026-04-24T16:29:15.057Z</time></trkpt><trkpt lat="37.7567798" lon="15.1664976"><ele>236.0</ele><time>2026-04-24T16:29:17.057Z</time></trkpt><trkpt lat="37.7568128" lon="15.1666361"><ele>236.0</ele><time>2026-04-24T16:29:19.057Z</time></trkpt><trkpt lat="37.7568216" lon="15.1667233"><ele>236.00000000000003</ele><time>2026-04-24T16:29:20.057Z</time></trkpt><trkpt lat="37.75683" lon="15.1668218"><ele>236.0</ele><time>2026-04-24T16:29:21.057Z</time></trkpt><trkpt lat="37.7568475" lon="15.166927"><ele>234.00000000000003</ele><time>2026-04-24T16:29:22.057Z</time></trkpt><trkpt lat="37.7568742" lon="15.1670289"><ele>232.0</ele><time>2026-04-24T16:29:23.057Z</time></trkpt><trkpt lat="37.7569028" lon="15.1671284"><ele>230.0</ele><time>2026-04-24T16:29:24.057Z</time></trkpt><trkpt lat="37.7569319" lon="15.1672271"><ele>228.0</ele><time>2026-04-24T16:29:25.057Z</time></trkpt><trkpt lat="37.7569599" lon="15.1673266"><ele>226.00000000000003</ele><time>2026-04-24T16:29:26.058Z</time></trkpt><trkpt lat="37.7569951" lon="15.1674231"><ele>224.0</ele><time>2026-04-24T16:29:27.058Z</time></trkpt><trkpt lat="37.7570473" lon="15.1675083"><ele>223.00000000000003</ele><time>2026-04-24T16:29:28.057Z</time></trkpt><trkpt lat="37.7571123" lon="15.1675809"><ele>222.0</ele><time>2026-04-24T16:29:29.057Z</time></trkpt><trkpt lat="37.7571838" lon="15.1676505"><ele>221.0</ele><time>2026-04-24T16:29:30.057Z</time></trkpt><trkpt lat="37.7572513" lon="15.1677256"><ele>220.0</ele><time>2026-04-24T16:29:31.057Z</time></trkpt><trkpt lat="37.7573142" lon="15.1678054"><ele>219.00000000000003</ele><time>2026-04-24T16:29:32.057Z</time></trkpt><trkpt lat="37.757368" lon="15.1678819"><ele>218.0</ele><time>2026-04-24T16:29:33.057Z</time></trkpt><trkpt lat="37.7574055" lon="15.1679631"><ele>218.00000000000003</ele><time>2026-04-24T16:29:34.058Z</time></trkpt><trkpt lat="37.7574302" lon="15.1680519"><ele>218.0</ele><time>2026-04-24T16:29:35.057Z</time></trkpt><trkpt lat="37.7574494" lon="15.1681452"><ele>218.0</ele><time>2026-04-24T16:29:36.058Z</time></trkpt><trkpt lat="37.7574724" lon="15.168236"><ele>218.0</ele><time>2026-04-24T16:29:37.057Z</time></trkpt><trkpt lat="37.7574975" lon="15.1683253"><ele>218.00000000000003</ele><time>2026-04-24T16:29:38.057Z</time></trkpt><trkpt lat="37.7575266" lon="15.1684164"><ele>218.0</ele><time>2026-04-24T16:29:39.057Z</time></trkpt><trkpt lat="37.7575632" lon="15.1685004"><ele>217.71428571428572</ele><time>2026-04-24T16:29:40.057Z</time></trkpt><trkpt lat="37.7576033" lon="15.1685773"><ele>217.42857142857144</ele><time>2026-04-24T16:29:41.058Z</time></trkpt><trkpt lat="37.7576514" lon="15.1686434"><ele>217.14285714285714</ele><time>2026-04-24T16:29:42.058Z</time></trkpt><trkpt lat="37.7577084" lon="15.1686993"><ele>216.85714285714286</ele><time>2026-04-24T16:29:43.057Z</time></trkpt><trkpt lat="37.7577699" lon="15.1687476"><ele>216.57142857142856</ele><time>2026-04-24T16:29:44.058Z</time></trkpt><trkpt lat="37.75782" lon="15.1688004"><ele>216.28571428571428</ele><time>2026-04-24T16:29:45.057Z</time></trkpt><trkpt lat="37.7578673" lon="15.1688565"><ele>216.0</ele><time>2026-04-24T16:29:46.057Z</time></trkpt><trkpt lat="37.7579376" lon="15.1689844"><ele>214.0</ele><time>2026-04-24T16:29:48.057Z</time></trkpt><trkpt lat="37.7579784" lon="15.1691224"><ele>212.00000000000003</ele><time>2026-04-24T16:29:50.057Z</time></trkpt><trkpt lat="37.7579901" lon="15.1692598"><ele>210.0</ele><time>2026-04-24T16:29:52.058Z</time></trkpt><trkpt lat="37.7579774" lon="15.1693972"><ele>208.0</ele><time>2026-04-24T16:29:54.058Z</time></trkpt><trkpt lat="37.7579529" lon="15.1695324"><ele>206.0</ele><time>2026-04-24T16:29:56.057Z</time></trkpt><trkpt lat="37.7579214" lon="15.1696413"><ele>206.00000000000003</ele><time>2026-04-24T16:29:58.058Z</time></trkpt><trkpt lat="37.7579058" lon="15.1697425"><ele>206.0</ele><time>2026-04-24T16:30:00.058Z</time></trkpt><trkpt lat="37.757908" lon="15.1698599"><ele>206.0</ele><time>2026-04-24T16:30:02.057Z</time></trkpt><trkpt lat="37.7579124" lon="15.1699896"><ele>206.0</ele><time>2026-04-24T16:30:04.057Z</time></trkpt><trkpt lat="37.7579384" lon="15.1701047"><ele>206.00000000000003</ele><time>2026-04-24T16:30:06.057Z</time></trkpt><trkpt lat="37.7579701" lon="15.1701905"><ele>206.0</ele><time>2026-04-24T16:30:08.057Z</time></trkpt><trkpt lat="37.7580151" lon="15.1702471"><ele>204.85714285714283</ele><time>2026-04-24T16:30:10.057Z</time></trkpt><trkpt lat="37.7581034" lon="15.1702807"><ele>203.71428571428572</ele><time>2026-04-24T16:30:13.057Z</time></trkpt><trkpt lat="37.7581693" lon="15.1703159"><ele>202.57142857142856</ele><time>2026-04-24T16:30:15.057Z</time></trkpt><trkpt lat="37.7582222" lon="15.1703723"><ele>201.42857142857142</ele><time>2026-04-24T16:30:17.057Z</time></trkpt><trkpt lat="37.7582714" lon="15.170431"><ele>200.28571428571428</ele><time>2026-04-24T16:30:19.057Z</time></trkpt><trkpt lat="37.7583227" lon="15.1704919"><ele>199.14285714285714</ele><time>2026-04-24T16:30:21.058Z</time></trkpt><trkpt lat="37.7583685" lon="15.1705511"><ele>198.0</ele><time>2026-04-24T16:30:23.058Z</time></trkpt><trkpt lat="37.7584363" lon="15.1706325"><ele>198.0</ele><time>2026-04-24T16:30:26.057Z</time></trkpt><trkpt lat="37.7584859" lon="15.1706827"><ele>198.0</ele><time>2026-04-24T16:30:28.057Z</time></trkpt><trkpt lat="37.7585303" lon="15.1707433"><ele>198.0</ele><time>2026-04-24T16:30:30.058Z</time></trkpt><trkpt lat="37.7585827" lon="15.1708085"><ele>198.0</ele><time>2026-04-24T16:30:32.057Z</time></trkpt><trkpt lat="37.7586367" lon="15.1708704"><ele>198.0</ele><time>2026-04-24T16:30:34.057Z</time></trkpt><trkpt lat="37.7586935" lon="15.1709345"><ele>198.0</ele><time>2026-04-24T16:30:36.058Z</time></trkpt><trkpt lat="37.7587565" lon="15.1710055"><ele>198.0</ele><time>2026-04-24T16:30:38.057Z</time></trkpt><trkpt lat="37.7588203" lon="15.1710791"><ele>196.8</ele><time>2026-04-24T16:30:40.057Z</time></trkpt><trkpt lat="37.7588853" lon="15.1711521"><ele>195.60000000000002</ele><time>2026-04-24T16:30:42.057Z</time></trkpt><trkpt lat="37.7589516" lon="15.1712287"><ele>194.39999999999998</ele><time>2026-04-24T16:30:44.057Z</time></trkpt><trkpt lat="37.7590185" lon="15.1713197"><ele>193.2</ele><time>2026-04-24T16:30:46.058Z</time></trkpt><trkpt lat="37.7590921" lon="15.1714161"><ele>192.0</ele><time>2026-04-24T16:30:48.058Z</time></trkpt><trkpt lat="37.7591765" lon="15.1715167"><ele>190.5</ele><time>2026-04-24T16:30:50.058Z</time></trkpt><trkpt lat="37.7592655" lon="15.171627"><ele>189.0</ele><time>2026-04-24T16:30:52.057Z</time></trkpt><trkpt lat="37.7593551" lon="15.1717319"><ele>187.5</ele><time>2026-04-24T16:30:54.057Z</time></trkpt><trkpt lat="37.759443" lon="15.1718287"><ele>186.0</ele><time>2026-04-24T16:30:56.057Z</time></trkpt><trkpt lat="37.7595268" lon="15.1719275"><ele>186.0</ele><time>2026-04-24T16:30:58.057Z</time></trkpt><trkpt lat="37.7596036" lon="15.1720281"><ele>186.0</ele><time>2026-04-24T16:31:00.057Z</time></trkpt><trkpt lat="37.759691" lon="15.1721284"><ele>186.0</ele><time>2026-04-24T16:31:02.057Z</time></trkpt><trkpt lat="37.759738" lon="15.1721844"><ele>186.0</ele><time>2026-04-24T16:31:03.057Z</time></trkpt><trkpt lat="37.7597872" lon="15.1722442"><ele>186.0</ele><time>2026-04-24T16:31:04.057Z</time></trkpt><trkpt lat="37.7598403" lon="15.1723053"><ele>186.0</ele><time>2026-04-24T16:31:05.057Z</time></trkpt><trkpt lat="37.7598914" lon="15.172367"><ele>185.0</ele><time>2026-04-24T16:31:06.057Z</time></trkpt><trkpt lat="37.7599375" lon="15.1724249"><ele>184.0</ele><time>2026-04-24T16:31:07.057Z</time></trkpt><trkpt lat="37.7599847" lon="15.1724793"><ele>183.0</ele><time>2026-04-24T16:31:08.058Z</time></trkpt><trkpt lat="37.7600699" lon="15.1725837"><ele>182.0</ele><time>2026-04-24T16:31:10.057Z</time></trkpt><trkpt lat="37.7601447" lon="15.1726763"><ele>181.0</ele><time>2026-04-24T16:31:12.057Z</time></trkpt><trkpt lat="37.7601749" lon="15.1727692"><ele>180.0</ele><time>2026-04-24T16:31:14.058Z</time></trkpt><trkpt lat="37.76016" lon="15.1728681"><ele>180.0</ele><time>2026-04-24T16:31:16.058Z</time></trkpt><trkpt lat="37.7601191" lon="15.1729747"><ele>180.0</ele><time>2026-04-24T16:31:18.058Z</time></trkpt><trkpt lat="37.760088" lon="15.1731109"><ele>180.0</ele><time>2026-04-24T16:31:20.057Z</time></trkpt><trkpt lat="37.7600768" lon="15.1732529"><ele>180.0</ele><time>2026-04-24T16:31:22.057Z</time></trkpt><trkpt lat="37.7600667" lon="15.1733572"><ele>180.0</ele><time>2026-04-24T16:31:24.057Z</time></trkpt><trkpt lat="37.7600629" lon="15.1734725"><ele>178.8</ele><time>2026-04-24T16:31:26.057Z</time></trkpt><trkpt lat="37.7600586" lon="15.1736008"><ele>177.6</ele><time>2026-04-24T16:31:28.057Z</time></trkpt><trkpt lat="37.760044" lon="15.1737505"><ele>176.39999999999998</ele><time>2026-04-24T16:31:30.057Z</time></trkpt><trkpt lat="37.7600288" lon="15.1738283"><ele>175.2</ele><time>2026-04-24T16:31:31.058Z</time></trkpt><trkpt lat="37.7599895" lon="15.1739639"><ele>174.0</ele><time>2026-04-24T16:31:33.057Z</time></trkpt><trkpt lat="37.7599604" lon="15.1740878"><ele>173.5</ele><time>2026-04-24T16:31:35.057Z</time></trkpt><trkpt lat="37.7599173" lon="15.1741972"><ele>173.0</ele><time>2026-04-24T16:31:37.057Z</time></trkpt><trkpt lat="37.7598732" lon="15.1742925"><ele>172.5</ele><time>2026-04-24T16:31:39.057Z</time></trkpt><trkpt lat="37.759861" lon="15.1743785"><ele>172.0</ele><time>2026-04-24T16:31:42.057Z</time></trkpt><trkpt lat="37.759903" lon="15.1744846"><ele>171.5</ele><time>2026-04-24T16:31:45.058Z</time></trkpt><trkpt lat="37.7599501" lon="15.1745645"><ele>171.0</ele><time>2026-04-24T16:31:47.057Z</time></trkpt><trkpt lat="37.7599978" lon="15.1746274"><ele>170.99999999999997</ele><time>2026-04-24T16:31:49.057Z</time></trkpt><trkpt lat="37.7600512" lon="15.1746714"><ele>171.0</ele><time>2026-04-24T16:32:48.058Z</time></trkpt><trkpt lat="37.7601085" lon="15.1747266"><ele>171.0</ele><time>2026-04-24T16:32:50.057Z</time></trkpt><trkpt lat="37.7601765" lon="15.174789"><ele>171.0</ele><time>2026-04-24T16:32:52.058Z</time></trkpt><trkpt lat="37.7602565" lon="15.1747826"><ele>171.0</ele><time>2026-04-24T16:32:54.057Z</time></trkpt><trkpt lat="37.7603116" lon="15.1747235"><ele>170.99999999999997</ele><time>2026-04-24T16:32:56.057Z</time></trkpt><trkpt lat="37.7603716" lon="15.1746618"><ele>171.0</ele><time>2026-04-24T16:33:00.057Z</time></trkpt><trkpt lat="37.7604355" lon="15.1745745"><ele>170.4</ele><time>2026-04-24T16:33:03.057Z</time></trkpt><trkpt lat="37.7605018" lon="15.1744816"><ele>169.8</ele><time>2026-04-24T16:33:05.057Z</time></trkpt><trkpt lat="37.7605747" lon="15.1743826"><ele>169.20000000000002</ele><time>2026-04-24T16:33:07.058Z</time></trkpt><trkpt lat="37.7606539" lon="15.1742754"><ele>168.60000000000002</ele><time>2026-04-24T16:33:09.057Z</time></trkpt><trkpt lat="37.7607325" lon="15.174168"><ele>168.0</ele><time>2026-04-24T16:33:11.057Z</time></trkpt><trkpt lat="37.7608089" lon="15.1740543"><ele>168.60000000000002</ele><time>2026-04-24T16:33:13.058Z</time></trkpt><trkpt lat="37.760891" lon="15.1739416"><ele>169.20000000000002</ele><time>2026-04-24T16:33:15.057Z</time></trkpt><trkpt lat="37.7609563" lon="15.1738486"><ele>169.8</ele><time>2026-04-24T16:33:17.058Z</time></trkpt><trkpt lat="37.7610228" lon="15.1738063"><ele>170.4</ele><time>2026-04-24T16:33:20.057Z</time></trkpt><trkpt lat="37.7610965" lon="15.1738684"><ele>171.0</ele><time>2026-04-24T16:33:24.057Z</time></trkpt><trkpt lat="37.7611623" lon="15.1739555"><ele>170.33333333333334</ele><time>2026-04-24T16:33:26.057Z</time></trkpt><trkpt lat="37.7612448" lon="15.1740559"><ele>169.66666666666666</ele><time>2026-04-24T16:33:28.057Z</time></trkpt><trkpt lat="37.761295" lon="15.1741169"><ele>169.0</ele><time>2026-04-24T16:33:29.057Z</time></trkpt><trkpt lat="37.7613466" lon="15.1741805"><ele>168.33333333333331</ele><time>2026-04-24T16:33:30.057Z</time></trkpt><trkpt lat="37.7614023" lon="15.1742453"><ele>167.66666666666666</ele><time>2026-04-24T16:33:31.057Z</time></trkpt><trkpt lat="37.7614624" lon="15.1743189"><ele>167.0</ele><time>2026-04-24T16:33:32.058Z</time></trkpt><trkpt lat="37.7615265" lon="15.1743991"><ele>167.0</ele><time>2026-04-24T16:33:33.058Z</time></trkpt><trkpt lat="37.761595" lon="15.174483"><ele>167.0</ele><time>2026-04-24T16:33:34.057Z</time></trkpt><trkpt lat="37.7616686" lon="15.1745698"><ele>167.0</ele><time>2026-04-24T16:33:35.058Z</time></trkpt><trkpt lat="37.7617454" lon="15.1746643"><ele>167.0</ele><time>2026-04-24T16:33:36.058Z</time></trkpt><trkpt lat="37.7618253" lon="15.1747609"><ele>167.0</ele><time>2026-04-24T16:33:37.057Z</time></trkpt><trkpt lat="37.7619049" lon="15.1748596"><ele>166.8</ele><time>2026-04-24T16:33:38.058Z</time></trkpt><trkpt lat="37.7619874" lon="15.1749671"><ele>166.6</ele><time>2026-04-24T16:33:39.057Z</time></trkpt><trkpt lat="37.7620679" lon="15.1750684"><ele>166.4</ele><time>2026-04-24T16:33:40.057Z</time></trkpt><trkpt lat="37.7621475" lon="15.175158"><ele>166.20000000000002</ele><time>2026-04-24T16:33:41.057Z</time></trkpt><trkpt lat="37.7622285" lon="15.1752297"><ele>166.0</ele><time>2026-04-24T16:33:42.057Z</time></trkpt><trkpt lat="37.7623156" lon="15.1752857"><ele>166.0</ele><time>2026-04-24T16:33:43.057Z</time></trkpt><trkpt lat="37.7624107" lon="15.1753221"><ele>166.0</ele><time>2026-04-24T16:33:44.058Z</time></trkpt><trkpt lat="37.7625135" lon="15.1753405"><ele>166.0</ele><time>2026-04-24T16:33:45.057Z</time></trkpt><trkpt lat="37.7626203" lon="15.1753535"><ele>166.0</ele><time>2026-04-24T16:33:46.057Z</time></trkpt><trkpt lat="37.76273" lon="15.1753595"><ele>166.0</ele><time>2026-04-24T16:33:47.057Z</time></trkpt><trkpt lat="37.7628366" lon="15.1753728"><ele>166.8</ele><time>2026-04-24T16:33:48.057Z</time></trkpt><trkpt lat="37.7629411" lon="15.1753993"><ele>167.60000000000002</ele><time>2026-04-24T16:33:49.057Z</time></trkpt><trkpt lat="37.7630462" lon="15.1754348"><ele>168.4</ele><time>2026-04-24T16:33:50.058Z</time></trkpt><trkpt lat="37.7631521" lon="15.1754785"><ele>169.2</ele><time>2026-04-24T16:33:51.057Z</time></trkpt><trkpt lat="37.7632624" lon="15.1755298"><ele>170.0</ele><time>2026-04-24T16:33:52.057Z</time></trkpt><trkpt lat="37.7633692" lon="15.1755993"><ele>170.0</ele><time>2026-04-24T16:33:53.058Z</time></trkpt><trkpt lat="37.7634698" lon="15.1756836"><ele>170.0</ele><time>2026-04-24T16:33:54.057Z</time></trkpt><trkpt lat="37.7635633" lon="15.1757786"><ele>170.0</ele><time>2026-04-24T16:33:55.057Z</time></trkpt><trkpt lat="37.7636562" lon="15.1758721"><ele>170.0</ele><time>2026-04-24T16:33:56.057Z</time></trkpt><trkpt lat="37.7637507" lon="15.1759625"><ele>170.6</ele><time>2026-04-24T16:33:57.057Z</time></trkpt><trkpt lat="37.763847" lon="15.1760451"><ele>171.2</ele><time>2026-04-24T16:33:58.058Z</time></trkpt><trkpt lat="37.7639467" lon="15.1761065"><ele>171.8</ele><time>2026-04-24T16:33:59.057Z</time></trkpt><trkpt lat="37.764041" lon="15.1761528"><ele>172.4</ele><time>2026-04-24T16:34:00.057Z</time></trkpt><trkpt lat="37.7641294" lon="15.1762036"><ele>173.0</ele><time>2026-04-24T16:34:01.057Z</time></trkpt><trkpt lat="37.764217" lon="15.1762622"><ele>173.0</ele><time>2026-04-24T16:34:02.057Z</time></trkpt><trkpt lat="37.7643027" lon="15.1763272"><ele>173.0</ele><time>2026-04-24T16:34:03.057Z</time></trkpt><trkpt lat="37.76438" lon="15.1763959"><ele>173.0</ele><time>2026-04-24T16:34:04.057Z</time></trkpt><trkpt lat="37.7644526" lon="15.1764612"><ele>173.0</ele><time>2026-04-24T16:34:05.057Z</time></trkpt><trkpt lat="37.764522" lon="15.1765224"><ele>173.0</ele><time>2026-04-24T16:34:06.058Z</time></trkpt><trkpt lat="37.7645901" lon="15.1765803"><ele>171.5</ele><time>2026-04-24T16:34:07.057Z</time></trkpt><trkpt lat="37.7646566" lon="15.1766303"><ele>170.0</ele><time>2026-04-24T16:34:08.057Z</time></trkpt><trkpt lat="37.7647299" lon="15.1766529"><ele>168.5</ele><time>2026-04-24T16:34:09.057Z</time></trkpt><trkpt lat="37.7648069" lon="15.1766475"><ele>167.0</ele><time>2026-04-24T16:34:10.057Z</time></trkpt><trkpt lat="37.7648903" lon="15.1766131"><ele>165.5</ele><time>2026-04-24T16:34:11.057Z</time></trkpt><trkpt lat="37.7649694" lon="15.1765733"><ele>164.0</ele><time>2026-04-24T16:34:12.057Z</time></trkpt><trkpt lat="37.7650428" lon="15.1765323"><ele>165.79999999999998</ele><time>2026-04-24T16:34:13.058Z</time></trkpt><trkpt lat="37.7651169" lon="15.1764874"><ele>167.6</ele><time>2026-04-24T16:34:14.057Z</time></trkpt><trkpt lat="37.7651955" lon="15.1764356"><ele>169.4</ele><time>2026-04-24T16:34:15.058Z</time></trkpt><trkpt lat="37.7652824" lon="15.1763832"><ele>171.2</ele><time>2026-04-24T16:34:16.057Z</time></trkpt><trkpt lat="37.765373" lon="15.1763248"><ele>173.0</ele><time>2026-04-24T16:34:17.058Z</time></trkpt><trkpt lat="37.7654708" lon="15.1762703"><ele>173.0</ele><time>2026-04-24T16:34:18.057Z</time></trkpt><trkpt lat="37.765573" lon="15.1762121"><ele>173.0</ele><time>2026-04-24T16:34:19.057Z</time></trkpt><trkpt lat="37.7656818" lon="15.176156"><ele>173.0</ele><time>2026-04-24T16:34:20.058Z</time></trkpt><trkpt lat="37.7657923" lon="15.1760948"><ele>173.0</ele><time>2026-04-24T16:34:21.057Z</time></trkpt><trkpt lat="37.7659053" lon="15.1760364"><ele>173.0</ele><time>2026-04-24T16:34:22.057Z</time></trkpt><trkpt lat="37.7660214" lon="15.1759874"><ele>173.0</ele><time>2026-04-24T16:34:23.058Z</time></trkpt><trkpt lat="37.7661426" lon="15.1759467"><ele>173.0</ele><time>2026-04-24T16:34:24.057Z</time></trkpt><trkpt lat="37.7662675" lon="15.1759162"><ele>173.0</ele><time>2026-04-24T16:34:25.057Z</time></trkpt><trkpt lat="37.7663945" lon="15.1758919"><ele>172.0</ele><time>2026-04-24T16:34:26.058Z</time></trkpt><trkpt lat="37.7665163" lon="15.1758681"><ele>171.0</ele><time>2026-04-24T16:34:27.057Z</time></trkpt><trkpt lat="37.7666287" lon="15.1758419"><ele>170.0</ele><time>2026-04-24T16:34:28.057Z</time></trkpt><trkpt lat="37.7667414" lon="15.1758032"><ele>169.0</ele><time>2026-04-24T16:34:29.057Z</time></trkpt><trkpt lat="37.7668466" lon="15.1757478"><ele>172.25</ele><time>2026-04-24T16:34:30.057Z</time></trkpt><trkpt lat="37.766947" lon="15.1756729"><ele>175.5</ele><time>2026-04-24T16:34:31.057Z</time></trkpt><trkpt lat="37.7670428" lon="15.1755839"><ele>178.75</ele><time>2026-04-24T16:34:32.057Z</time></trkpt><trkpt lat="37.7671322" lon="15.175503"><ele>182.0</ele><time>2026-04-24T16:34:33.058Z</time></trkpt><trkpt lat="37.7672231" lon="15.1754317"><ele>182.0</ele><time>2026-04-24T16:34:34.057Z</time></trkpt><trkpt lat="37.7673226" lon="15.175381"><ele>182.0</ele><time>2026-04-24T16:34:35.057Z</time></trkpt><trkpt lat="37.7674287" lon="15.1753454"><ele>182.0</ele><time>2026-04-24T16:34:36.057Z</time></trkpt><trkpt lat="37.7675425" lon="15.1753226"><ele>182.0</ele><time>2026-04-24T16:34:37.057Z</time></trkpt><trkpt lat="37.7676569" lon="15.1753007"><ele>182.0</ele><time>2026-04-24T16:34:38.057Z</time></trkpt><trkpt lat="37.7677706" lon="15.1752747"><ele>182.75</ele><time>2026-04-24T16:34:39.057Z</time></trkpt><trkpt lat="37.7678849" lon="15.175249"><ele>183.5</ele><time>2026-04-24T16:34:40.057Z</time></trkpt><trkpt lat="37.7680001" lon="15.1752219"><ele>184.25</ele><time>2026-04-24T16:34:41.057Z</time></trkpt><trkpt lat="37.7681147" lon="15.1751932"><ele>185.0</ele><time>2026-04-24T16:34:42.058Z</time></trkpt><trkpt lat="37.7682302" lon="15.1751695"><ele>185.0</ele><time>2026-04-24T16:34:43.057Z</time></trkpt><trkpt lat="37.7683488" lon="15.1751541"><ele>185.0</ele><time>2026-04-24T16:34:44.057Z</time></trkpt><trkpt lat="37.7684696" lon="15.1751429"><ele>185.0</ele><time>2026-04-24T16:34:45.057Z</time></trkpt><trkpt lat="37.768591" lon="15.1751369"><ele>185.0</ele><time>2026-04-24T16:34:46.057Z</time></trkpt><trkpt lat="37.7687098" lon="15.1751358"><ele>186.2</ele><time>2026-04-24T16:34:47.057Z</time></trkpt><trkpt lat="37.768821" lon="15.1751342"><ele>187.4</ele><time>2026-04-24T16:34:48.057Z</time></trkpt><trkpt lat="37.7689279" lon="15.1751337"><ele>188.60000000000002</ele><time>2026-04-24T16:34:49.057Z</time></trkpt><trkpt lat="37.7690303" lon="15.1751307"><ele>189.8</ele><time>2026-04-24T16:34:50.058Z</time></trkpt><trkpt lat="37.7691294" lon="15.1751296"><ele>191.0</ele><time>2026-04-24T16:34:51.058Z</time></trkpt><trkpt lat="37.7692305" lon="15.1751271"><ele>191.0</ele><time>2026-04-24T16:34:52.058Z</time></trkpt><trkpt lat="37.7693364" lon="15.1751229"><ele>191.0</ele><time>2026-04-24T16:34:53.057Z</time></trkpt><trkpt lat="37.7694484" lon="15.1751138"><ele>191.0</ele><time>2026-04-24T16:34:54.058Z</time></trkpt><trkpt lat="37.7695672" lon="15.1751049"><ele>191.0</ele><time>2026-04-24T16:34:55.057Z</time></trkpt><trkpt lat="37.7696913" lon="15.1750998"><ele>190.75</ele><time>2026-04-24T16:34:56.057Z</time></trkpt><trkpt lat="37.7698215" lon="15.1750938"><ele>190.5</ele><time>2026-04-24T16:34:57.058Z</time></trkpt><trkpt lat="37.7699562" lon="15.1750869"><ele>190.25</ele><time>2026-04-24T16:34:58.057Z</time></trkpt><trkpt lat="37.7700858" lon="15.175084"><ele>190.0</ele><time>2026-04-24T16:34:59.058Z</time></trkpt><trkpt lat="37.7702142" lon="15.1750842"><ele>190.0</ele><time>2026-04-24T16:35:00.057Z</time></trkpt><trkpt lat="37.7703349" lon="15.17509"><ele>190.0</ele><time>2026-04-24T16:35:01.057Z</time></trkpt><trkpt lat="37.7704466" lon="15.1750904"><ele>190.0</ele><time>2026-04-24T16:35:02.058Z</time></trkpt><trkpt lat="37.7705513" lon="15.175087"><ele>190.0</ele><time>2026-04-24T16:35:03.057Z</time></trkpt><trkpt lat="37.7706472" lon="15.1750771"><ele>190.0</ele><time>2026-04-24T16:35:04.057Z</time></trkpt><trkpt lat="37.7707307" lon="15.1750481"><ele>190.0</ele><time>2026-04-24T16:35:05.057Z</time></trkpt><trkpt lat="37.7708001" lon="15.1749895"><ele>190.0</ele><time>2026-04-24T16:35:06.058Z</time></trkpt><trkpt lat="37.7708613" lon="15.1749093"><ele>190.0</ele><time>2026-04-24T16:35:07.057Z</time></trkpt><trkpt lat="37.7709128" lon="15.1748059"><ele>190.0</ele><time>2026-04-24T16:35:08.057Z</time></trkpt><trkpt lat="37.7709618" lon="15.1746899"><ele>190.0</ele><time>2026-04-24T16:35:09.057Z</time></trkpt><trkpt lat="37.7710101" lon="15.1745795"><ele>190.66666666666669</ele><time>2026-04-24T16:35:10.057Z</time></trkpt><trkpt lat="37.7710601" lon="15.1744707"><ele>191.33333333333334</ele><time>2026-04-24T16:35:11.057Z</time></trkpt><trkpt lat="37.7711161" lon="15.1743806"><ele>192.0</ele><time>2026-04-24T16:35:12.057Z</time></trkpt><trkpt lat="37.7711823" lon="15.1743127"><ele>192.66666666666669</ele><time>2026-04-24T16:35:13.057Z</time></trkpt><trkpt lat="37.7712562" lon="15.1742661"><ele>193.33333333333334</ele><time>2026-04-24T16:35:14.058Z</time></trkpt><trkpt lat="37.7713444" lon="15.1742395"><ele>194.0</ele><time>2026-04-24T16:35:15.057Z</time></trkpt><trkpt lat="37.771447" lon="15.1742196"><ele>194.0</ele><time>2026-04-24T16:35:16.057Z</time></trkpt><trkpt lat="37.771562" lon="15.1742074"><ele>194.0</ele><time>2026-04-24T16:35:17.057Z</time></trkpt><trkpt lat="37.7716853" lon="15.1741946"><ele>194.0</ele><time>2026-04-24T16:35:18.058Z</time></trkpt><trkpt lat="37.7717994" lon="15.1741789"><ele>194.0</ele><time>2026-04-24T16:35:19.057Z</time></trkpt><trkpt lat="37.7719085" lon="15.1741687"><ele>194.75</ele><time>2026-04-24T16:35:20.057Z</time></trkpt><trkpt lat="37.77202" lon="15.1741619"><ele>195.5</ele><time>2026-04-24T16:35:21.057Z</time></trkpt><trkpt lat="37.7721344" lon="15.1741646"><ele>196.25</ele><time>2026-04-24T16:35:22.057Z</time></trkpt><trkpt lat="37.772249" lon="15.1741834"><ele>197.0</ele><time>2026-04-24T16:35:23.057Z</time></trkpt><trkpt lat="37.7723679" lon="15.1742152"><ele>197.0</ele><time>2026-04-24T16:35:24.058Z</time></trkpt><trkpt lat="37.7724819" lon="15.1742545"><ele>197.0</ele><time>2026-04-24T16:35:25.057Z</time></trkpt><trkpt lat="37.7725784" lon="15.1743016"><ele>197.0</ele><time>2026-04-24T16:35:26.057Z</time></trkpt><trkpt lat="37.7726584" lon="15.1743506"><ele>197.0</ele><time>2026-04-24T16:35:27.057Z</time></trkpt><trkpt lat="37.7727323" lon="15.1743872"><ele>197.0</ele><time>2026-04-24T16:35:28.057Z</time></trkpt><trkpt lat="37.7728133" lon="15.1743909"><ele>197.39999999999998</ele><time>2026-04-24T16:35:29.057Z</time></trkpt><trkpt lat="37.7728998" lon="15.1743657"><ele>197.79999999999998</ele><time>2026-04-24T16:35:30.057Z</time></trkpt><trkpt lat="37.7729852" lon="15.1743186"><ele>198.2</ele><time>2026-04-24T16:35:31.057Z</time></trkpt><trkpt lat="37.7730778" lon="15.1742547"><ele>198.6</ele><time>2026-04-24T16:35:32.058Z</time></trkpt><trkpt lat="37.7731756" lon="15.1741835"><ele>199.0</ele><time>2026-04-24T16:35:33.058Z</time></trkpt><trkpt lat="37.7732743" lon="15.1741007"><ele>200.0</ele><time>2026-04-24T16:35:34.057Z</time></trkpt><trkpt lat="37.7733761" lon="15.1740133"><ele>201.0</ele><time>2026-04-24T16:35:35.058Z</time></trkpt><trkpt lat="37.7734765" lon="15.1739238"><ele>202.0</ele><time>2026-04-24T16:35:36.058Z</time></trkpt><trkpt lat="37.7735677" lon="15.1738371"><ele>203.0</ele><time>2026-04-24T16:35:37.057Z</time></trkpt><trkpt lat="37.7736452" lon="15.1737436"><ele>203.0</ele><time>2026-04-24T16:35:38.058Z</time></trkpt><trkpt lat="37.7737118" lon="15.1736356"><ele>203.0</ele><time>2026-04-24T16:35:39.057Z</time></trkpt><trkpt lat="37.7737705" lon="15.173514"><ele>203.0</ele><time>2026-04-24T16:35:40.058Z</time></trkpt><trkpt lat="37.7738202" lon="15.1733872"><ele>203.0</ele><time>2026-04-24T16:35:41.058Z</time></trkpt><trkpt lat="37.7738614" lon="15.1732676"><ele>203.0</ele><time>2026-04-24T16:35:42.057Z</time></trkpt><trkpt lat="37.7739031" lon="15.1731544"><ele>204.2</ele><time>2026-04-24T16:35:43.057Z</time></trkpt><trkpt lat="37.7739465" lon="15.1730483"><ele>205.4</ele><time>2026-04-24T16:35:44.057Z</time></trkpt><trkpt lat="37.7740026" lon="15.1729573"><ele>206.6</ele><time>2026-04-24T16:35:45.057Z</time></trkpt><trkpt lat="37.7740722" lon="15.1728829"><ele>207.79999999999998</ele><time>2026-04-24T16:35:46.057Z</time></trkpt><trkpt lat="37.7741577" lon="15.1728329"><ele>209.0</ele><time>2026-04-24T16:35:47.057Z</time></trkpt><trkpt lat="37.7742492" lon="15.172809"><ele>209.0</ele><time>2026-04-24T16:35:48.057Z</time></trkpt><trkpt lat="37.7743483" lon="15.1728174"><ele>209.0</ele><time>2026-04-24T16:35:49.057Z</time></trkpt><trkpt lat="37.7744559" lon="15.1728467"><ele>209.0</ele><time>2026-04-24T16:35:50.058Z</time></trkpt><trkpt lat="37.7745722" lon="15.1728797"><ele>209.0</ele><time>2026-04-24T16:35:51.057Z</time></trkpt><trkpt lat="37.7746894" lon="15.1729138"><ele>209.0</ele><time>2026-04-24T16:35:52.057Z</time></trkpt><trkpt lat="37.7748061" lon="15.1729509"><ele>209.5</ele><time>2026-04-24T16:35:53.057Z</time></trkpt><trkpt lat="37.7749241" lon="15.1729885"><ele>210.0</ele><time>2026-04-24T16:35:54.057Z</time></trkpt><trkpt lat="37.7750416" lon="15.173027"><ele>210.5</ele><time>2026-04-24T16:35:55.057Z</time></trkpt><trkpt lat="37.7751581" lon="15.1730667"><ele>211.0</ele><time>2026-04-24T16:35:56.058Z</time></trkpt><trkpt lat="37.7752763" lon="15.1731055"><ele>212.5</ele><time>2026-04-24T16:35:57.057Z</time></trkpt><trkpt lat="37.7753891" lon="15.1731433"><ele>214.0</ele><time>2026-04-24T16:35:58.057Z</time></trkpt><trkpt lat="37.7754983" lon="15.1731821"><ele>215.5</ele><time>2026-04-24T16:35:59.057Z</time></trkpt><trkpt lat="37.7756051" lon="15.1732217"><ele>217.0</ele><time>2026-04-24T16:36:00.057Z</time></trkpt><trkpt lat="37.7757132" lon="15.1732607"><ele>215.2</ele><time>2026-04-24T16:36:01.057Z</time></trkpt><trkpt lat="37.7758191" lon="15.1732937"><ele>213.39999999999998</ele><time>2026-04-24T16:36:02.058Z</time></trkpt><trkpt lat="37.7759246" lon="15.173329"><ele>211.60000000000002</ele><time>2026-04-24T16:36:03.057Z</time></trkpt><trkpt lat="37.7760348" lon="15.1733672"><ele>209.8</ele><time>2026-04-24T16:36:04.057Z</time></trkpt><trkpt lat="37.7761394" lon="15.1734036"><ele>208.0</ele><time>2026-04-24T16:36:05.058Z</time></trkpt><trkpt lat="37.7762408" lon="15.1734256"><ele>207.99999999999997</ele><time>2026-04-24T16:36:06.058Z</time></trkpt><trkpt lat="37.7763363" lon="15.1734239"><ele>208.0</ele><time>2026-04-24T16:36:07.057Z</time></trkpt><trkpt lat="37.7764258" lon="15.1733935"><ele>208.0</ele><time>2026-04-24T16:36:08.057Z</time></trkpt><trkpt lat="37.7765003" lon="15.1733408"><ele>208.0</ele><time>2026-04-24T16:36:09.057Z</time></trkpt><trkpt lat="37.7765627" lon="15.1732865"><ele>207.99999999999997</ele><time>2026-04-24T16:36:10.058Z</time></trkpt><trkpt lat="37.7766282" lon="15.1732302"><ele>208.0</ele><time>2026-04-24T16:36:11.058Z</time></trkpt><trkpt lat="37.7766979" lon="15.1731628"><ele>209.8</ele><time>2026-04-24T16:36:12.057Z</time></trkpt><trkpt lat="37.7767749" lon="15.1730962"><ele>211.60000000000002</ele><time>2026-04-24T16:36:13.058Z</time></trkpt><trkpt lat="37.7768536" lon="15.1730225"><ele>213.39999999999998</ele><time>2026-04-24T16:36:14.057Z</time></trkpt><trkpt lat="37.7769354" lon="15.1729447"><ele>215.2</ele><time>2026-04-24T16:36:15.057Z</time></trkpt><trkpt lat="37.7770174" lon="15.1728655"><ele>217.0</ele><time>2026-04-24T16:36:16.057Z</time></trkpt><trkpt lat="37.7770942" lon="15.1727944"><ele>216.99999999999997</ele><time>2026-04-24T16:36:17.057Z</time></trkpt><trkpt lat="37.7771661" lon="15.1727311"><ele>217.0</ele><time>2026-04-24T16:36:18.057Z</time></trkpt><trkpt lat="37.7772375" lon="15.1726768"><ele>217.0</ele><time>2026-04-24T16:36:19.057Z</time></trkpt><trkpt lat="37.7773185" lon="15.172636"><ele>217.0</ele><time>2026-04-24T16:36:20.057Z</time></trkpt><trkpt lat="37.7774088" lon="15.1726083"><ele>216.99999999999997</ele><time>2026-04-24T16:36:21.057Z</time></trkpt><trkpt lat="37.7775045" lon="15.1725961"><ele>217.0</ele><time>2026-04-24T16:36:22.058Z</time></trkpt><trkpt lat="37.7776042" lon="15.1725892"><ele>217.2</ele><time>2026-04-24T16:36:23.058Z</time></trkpt><trkpt lat="37.7777026" lon="15.1725756"><ele>217.39999999999998</ele><time>2026-04-24T16:36:24.058Z</time></trkpt><trkpt lat="37.7778039" lon="15.1725612"><ele>217.60000000000002</ele><time>2026-04-24T16:36:25.057Z</time></trkpt><trkpt lat="37.7779046" lon="15.172547"><ele>217.8</ele><time>2026-04-24T16:36:26.058Z</time></trkpt><trkpt lat="37.7780085" lon="15.172532"><ele>218.0</ele><time>2026-04-24T16:36:27.058Z</time></trkpt><trkpt lat="37.7781181" lon="15.1725204"><ele>218.0</ele><time>2026-04-24T16:36:28.057Z</time></trkpt><trkpt lat="37.7782298" lon="15.1725066"><ele>218.0</ele><time>2026-04-24T16:36:29.057Z</time></trkpt><trkpt lat="37.778346" lon="15.1724935"><ele>218.0</ele><time>2026-04-24T16:36:30.057Z</time></trkpt><trkpt lat="37.778466" lon="15.1724826"><ele>218.0</ele><time>2026-04-24T16:36:31.058Z</time></trkpt><trkpt lat="37.778587" lon="15.1724657"><ele>217.25</ele><time>2026-04-24T16:36:32.057Z</time></trkpt><trkpt lat="37.7787091" lon="15.1724483"><ele>216.5</ele><time>2026-04-24T16:36:33.058Z</time></trkpt><trkpt lat="37.7788316" lon="15.1724301"><ele>215.75</ele><time>2026-04-24T16:36:34.058Z</time></trkpt><trkpt lat="37.7789533" lon="15.1724238"><ele>215.0</ele><time>2026-04-24T16:36:35.057Z</time></trkpt><trkpt lat="37.7790721" lon="15.1724132"><ele>215.0</ele><time>2026-04-24T16:36:36.057Z</time></trkpt><trkpt lat="37.7791906" lon="15.1724011"><ele>215.0</ele><time>2026-04-24T16:36:37.057Z</time></trkpt><trkpt lat="37.7793085" lon="15.1723868"><ele>215.0</ele><time>2026-04-24T16:36:38.057Z</time></trkpt><trkpt lat="37.7794291" lon="15.1723706"><ele>215.0</ele><time>2026-04-24T16:36:39.057Z</time></trkpt><trkpt lat="37.779551" lon="15.1723559"><ele>219.0</ele><time>2026-04-24T16:36:40.057Z</time></trkpt><trkpt lat="37.7796674" lon="15.1723456"><ele>223.0</ele><time>2026-04-24T16:36:41.058Z</time></trkpt><trkpt lat="37.7797802" lon="15.172337"><ele>227.0</ele><time>2026-04-24T16:36:42.057Z</time></trkpt><trkpt lat="37.7798957" lon="15.1723338"><ele>231.0</ele><time>2026-04-24T16:36:43.057Z</time></trkpt><trkpt lat="37.7800077" lon="15.1723226"><ele>231.0</ele><time>2026-04-24T16:36:44.057Z</time></trkpt><trkpt lat="37.7801186" lon="15.1723079"><ele>231.00000000000003</ele><time>2026-04-24T16:36:45.057Z</time></trkpt><trkpt lat="37.7802237" lon="15.172293"><ele>231.00000000000003</ele><time>2026-04-24T16:36:46.057Z</time></trkpt><trkpt lat="37.7803264" lon="15.1722782"><ele>231.0</ele><time>2026-04-24T16:36:47.057Z</time></trkpt><trkpt lat="37.780418" lon="15.1722571"><ele>231.0</ele><time>2026-04-24T16:36:48.057Z</time></trkpt><trkpt lat="37.7804968" lon="15.1722279"><ele>230.66666666666666</ele><time>2026-04-24T16:36:49.057Z</time></trkpt><trkpt lat="37.7805591" lon="15.1721813"><ele>230.33333333333331</ele><time>2026-04-24T16:36:50.058Z</time></trkpt><trkpt lat="37.7806055" lon="15.1721187"><ele>230.0</ele><time>2026-04-24T16:36:51.057Z</time></trkpt><trkpt lat="37.7806394" lon="15.172036"><ele>229.66666666666666</ele><time>2026-04-24T16:36:52.057Z</time></trkpt><trkpt lat="37.7806771" lon="15.1719418"><ele>229.33333333333331</ele><time>2026-04-24T16:36:53.057Z</time></trkpt><trkpt lat="37.780735" lon="15.1718464"><ele>229.0</ele><time>2026-04-24T16:36:54.057Z</time></trkpt><trkpt lat="37.7808146" lon="15.1717567"><ele>229.0</ele><time>2026-04-24T16:36:55.057Z</time></trkpt><trkpt lat="37.7809079" lon="15.1716721"><ele>229.0</ele><time>2026-04-24T16:36:56.057Z</time></trkpt><trkpt lat="37.7810093" lon="15.1715979"><ele>229.0</ele><time>2026-04-24T16:36:57.057Z</time></trkpt><trkpt lat="37.7811159" lon="15.1715412"><ele>229.0</ele><time>2026-04-24T16:36:58.057Z</time></trkpt><trkpt lat="37.7812237" lon="15.1714982"><ele>229.6</ele><time>2026-04-24T16:36:59.057Z</time></trkpt><trkpt lat="37.7813306" lon="15.1714847"><ele>230.2</ele><time>2026-04-24T16:37:00.058Z</time></trkpt><trkpt lat="37.7814386" lon="15.1714956"><ele>230.79999999999998</ele><time>2026-04-24T16:37:01.058Z</time></trkpt><trkpt lat="37.7815498" lon="15.1715201"><ele>231.39999999999998</ele><time>2026-04-24T16:37:02.058Z</time></trkpt><trkpt lat="37.7816536" lon="15.1715421"><ele>232.0</ele><time>2026-04-24T16:37:03.057Z</time></trkpt><trkpt lat="37.7817524" lon="15.1715506"><ele>231.6</ele><time>2026-04-24T16:37:04.057Z</time></trkpt><trkpt lat="37.7818508" lon="15.1715384"><ele>231.2</ele><time>2026-04-24T16:37:05.057Z</time></trkpt><trkpt lat="37.7819508" lon="15.1714978"><ele>230.8</ele><time>2026-04-24T16:37:06.057Z</time></trkpt><trkpt lat="37.7820479" lon="15.1714367"><ele>230.4</ele><time>2026-04-24T16:37:07.058Z</time></trkpt><trkpt lat="37.782142" lon="15.1713789"><ele>230.0</ele><time>2026-04-24T16:37:08.058Z</time></trkpt><trkpt lat="37.7822368" lon="15.1713315"><ele>232.4</ele><time>2026-04-24T16:37:09.057Z</time></trkpt><trkpt lat="37.7823312" lon="15.1713074"><ele>234.8</ele><time>2026-04-24T16:37:10.057Z</time></trkpt><trkpt lat="37.7824243" lon="15.1713138"><ele>237.2</ele><time>2026-04-24T16:37:11.057Z</time></trkpt><trkpt lat="37.7825177" lon="15.1713504"><ele>239.6</ele><time>2026-04-24T16:37:12.057Z</time></trkpt><trkpt lat="37.7826141" lon="15.171403"><ele>242.0</ele><time>2026-04-24T16:37:13.057Z</time></trkpt><trkpt lat="37.7827208" lon="15.1714625"><ele>239.5</ele><time>2026-04-24T16:37:14.057Z</time></trkpt><trkpt lat="37.7828337" lon="15.1715286"><ele>237.0</ele><time>2026-04-24T16:37:15.058Z</time></trkpt><trkpt lat="37.7829507" lon="15.1716026"><ele>234.5</ele><time>2026-04-24T16:37:16.058Z</time></trkpt><trkpt lat="37.7830673" lon="15.1716845"><ele>232.0</ele><time>2026-04-24T16:37:17.058Z</time></trkpt><trkpt lat="37.7831812" lon="15.1717745"><ele>232.0</ele><time>2026-04-24T16:37:18.057Z</time></trkpt><trkpt lat="37.7832925" lon="15.1718788"><ele>232.0</ele><time>2026-04-24T16:37:19.057Z</time></trkpt><trkpt lat="37.7833953" lon="15.1719952"><ele>232.0</ele><time>2026-04-24T16:37:20.058Z</time></trkpt><trkpt lat="37.7834968" lon="15.1721136"><ele>232.0</ele><time>2026-04-24T16:37:21.058Z</time></trkpt><trkpt lat="37.7835957" lon="15.1722275"><ele>232.25</ele><time>2026-04-24T16:37:22.057Z</time></trkpt><trkpt lat="37.783688" lon="15.1723359"><ele>232.5</ele><time>2026-04-24T16:37:23.057Z</time></trkpt><trkpt lat="37.7837739" lon="15.1724402"><ele>232.75</ele><time>2026-04-24T16:37:24.057Z</time></trkpt><trkpt lat="37.7838557" lon="15.1725379"><ele>233.0</ele><time>2026-04-24T16:37:25.057Z</time></trkpt><trkpt lat="37.7839308" lon="15.1726327"><ele>233.00000000000003</ele><time>2026-04-24T16:37:26.057Z</time></trkpt><trkpt lat="37.7840015" lon="15.1727164"><ele>233.0</ele><time>2026-04-24T16:37:27.057Z</time></trkpt><trkpt lat="37.7840656" lon="15.1727963"><ele>233.0</ele><time>2026-04-24T16:37:28.057Z</time></trkpt><trkpt lat="37.784124" lon="15.1728698"><ele>233.0</ele><time>2026-04-24T16:37:29.058Z</time></trkpt><trkpt lat="37.7841793" lon="15.1729327"><ele>233.00000000000003</ele><time>2026-04-24T16:37:30.057Z</time></trkpt><trkpt lat="37.7842403" lon="15.1729734"><ele>233.0</ele><time>2026-04-24T16:37:31.058Z</time></trkpt><trkpt lat="37.7843108" lon="15.1729858"><ele>235.2</ele><time>2026-04-24T16:37:32.058Z</time></trkpt><trkpt lat="37.7843855" lon="15.1729753"><ele>237.4</ele><time>2026-04-24T16:37:33.057Z</time></trkpt><trkpt lat="37.7844707" lon="15.1729628"><ele>239.59999999999997</ele><time>2026-04-24T16:37:34.058Z</time></trkpt><trkpt lat="37.784567" lon="15.1729869"><ele>241.79999999999998</ele><time>2026-04-24T16:37:35.058Z</time></trkpt><trkpt lat="37.7846595" lon="15.1730485"><ele>244.0</ele><time>2026-04-24T16:37:36.058Z</time></trkpt><trkpt lat="37.7847439" lon="15.1731144"><ele>244.0</ele><time>2026-04-24T16:37:37.058Z</time></trkpt><trkpt lat="37.784825" lon="15.1731407"><ele>243.99999999999997</ele><time>2026-04-24T16:37:38.057Z</time></trkpt><trkpt lat="37.7849115" lon="15.1731283"><ele>243.99999999999997</ele><time>2026-04-24T16:37:39.057Z</time></trkpt><trkpt lat="37.7850051" lon="15.1730874"><ele>244.0</ele><time>2026-04-24T16:37:40.057Z</time></trkpt><trkpt lat="37.7851015" lon="15.173034"><ele>244.0</ele><time>2026-04-24T16:37:41.057Z</time></trkpt><trkpt lat="37.7851987" lon="15.1729679"><ele>245.2</ele><time>2026-04-24T16:37:42.057Z</time></trkpt><trkpt lat="37.7852932" lon="15.1729222"><ele>246.39999999999998</ele><time>2026-04-24T16:37:43.057Z</time></trkpt><trkpt lat="37.7853949" lon="15.172903"><ele>247.6</ele><time>2026-04-24T16:37:44.058Z</time></trkpt><trkpt lat="37.7855005" lon="15.1729093"><ele>248.8</ele><time>2026-04-24T16:37:45.058Z</time></trkpt><trkpt lat="37.7856046" lon="15.1729416"><ele>250.0</ele><time>2026-04-24T16:37:46.058Z</time></trkpt><trkpt lat="37.7857107" lon="15.1729952"><ele>250.0</ele><time>2026-04-24T16:37:47.058Z</time></trkpt><trkpt lat="37.785822" lon="15.1730535"><ele>250.0</ele><time>2026-04-24T16:37:48.057Z</time></trkpt><trkpt lat="37.7859429" lon="15.1730994"><ele>250.0</ele><time>2026-04-24T16:37:49.057Z</time></trkpt><trkpt lat="37.7860713" lon="15.1731258"><ele>250.0</ele><time>2026-04-24T16:37:50.058Z</time></trkpt><trkpt lat="37.7862018" lon="15.1731387"><ele>249.75</ele><time>2026-04-24T16:37:51.058Z</time></trkpt><trkpt lat="37.7863276" lon="15.1731506"><ele>249.5</ele><time>2026-04-24T16:37:52.057Z</time></trkpt><trkpt lat="37.786452" lon="15.1731665"><ele>249.25</ele><time>2026-04-24T16:37:53.057Z</time></trkpt><trkpt lat="37.7865786" lon="15.1731819"><ele>249.0</ele><time>2026-04-24T16:37:54.058Z</time></trkpt><trkpt lat="37.7867081" lon="15.1732003"><ele>246.0</ele><time>2026-04-24T16:37:55.057Z</time></trkpt><trkpt lat="37.7868397" lon="15.1732255"><ele>243.0</ele><time>2026-04-24T16:37:56.057Z</time></trkpt><trkpt lat="37.7869719" lon="15.173257"><ele>240.0</ele><time>2026-04-24T16:37:57.057Z</time></trkpt><trkpt lat="37.787104" lon="15.1732923"><ele>237.0</ele><time>2026-04-24T16:37:58.058Z</time></trkpt><trkpt lat="37.7872339" lon="15.1733254"><ele>237.0</ele><time>2026-04-24T16:37:59.057Z</time></trkpt><trkpt lat="37.7873608" lon="15.1733619"><ele>237.0</ele><time>2026-04-24T16:38:00.057Z</time></trkpt><trkpt lat="37.7874792" lon="15.1734017"><ele>237.0</ele><time>2026-04-24T16:38:01.057Z</time></trkpt><trkpt lat="37.7875892" lon="15.1734413"><ele>237.0</ele><time>2026-04-24T16:38:02.057Z</time></trkpt><trkpt lat="37.7876868" lon="15.1734801"><ele>238.2</ele><time>2026-04-24T16:38:03.058Z</time></trkpt><trkpt lat="37.787786" lon="15.1735116"><ele>239.39999999999998</ele><time>2026-04-24T16:38:04.057Z</time></trkpt><trkpt lat="37.7878952" lon="15.1735432"><ele>240.60000000000002</ele><time>2026-04-24T16:38:05.057Z</time></trkpt><trkpt lat="37.7880113" lon="15.1735814"><ele>241.8</ele><time>2026-04-24T16:38:06.058Z</time></trkpt><trkpt lat="37.7881175" lon="15.1736201"><ele>243.0</ele><time>2026-04-24T16:38:07.057Z</time></trkpt><trkpt lat="37.7882139" lon="15.1736671"><ele>243.0</ele><time>2026-04-24T16:38:08.057Z</time></trkpt><trkpt lat="37.788298" lon="15.1737195"><ele>243.0</ele><time>2026-04-24T16:38:09.057Z</time></trkpt><trkpt lat="37.7883714" lon="15.1737728"><ele>243.0</ele><time>2026-04-24T16:38:10.058Z</time></trkpt><trkpt lat="37.7884358" lon="15.1738271"><ele>243.0</ele><time>2026-04-24T16:38:11.058Z</time></trkpt><trkpt lat="37.7885011" lon="15.1738801"><ele>243.0</ele><time>2026-04-24T16:38:12.058Z</time></trkpt><trkpt lat="37.7885711" lon="15.1739423"><ele>243.0</ele><time>2026-04-24T16:38:13.057Z</time></trkpt><trkpt lat="37.7886397" lon="15.1740237"><ele>242.75</ele><time>2026-04-24T16:38:14.057Z</time></trkpt><trkpt lat="37.7887051" lon="15.1741267"><ele>242.5</ele><time>2026-04-24T16:38:15.057Z</time></trkpt><trkpt lat="37.7887638" lon="15.1742543"><ele>242.25</ele><time>2026-04-24T16:38:16.057Z</time></trkpt><trkpt lat="37.788824" lon="15.174393"><ele>242.0</ele><time>2026-04-24T16:38:17.057Z</time></trkpt><trkpt lat="37.7888862" lon="15.1745315"><ele>242.0</ele><time>2026-04-24T16:38:18.057Z</time></trkpt><trkpt lat="37.7889538" lon="15.1746589"><ele>242.0</ele><time>2026-04-24T16:38:19.057Z</time></trkpt><trkpt lat="37.7890293" lon="15.174767"><ele>242.0</ele><time>2026-04-24T16:38:20.057Z</time></trkpt><trkpt lat="37.7891127" lon="15.1748562"><ele>242.0</ele><time>2026-04-24T16:38:21.057Z</time></trkpt><trkpt lat="37.7892048" lon="15.174927"><ele>241.5</ele><time>2026-04-24T16:38:22.058Z</time></trkpt><trkpt lat="37.7893088" lon="15.1749725"><ele>241.0</ele><time>2026-04-24T16:38:23.057Z</time></trkpt><trkpt lat="37.7894211" lon="15.1749967"><ele>240.5</ele><time>2026-04-24T16:38:24.058Z</time></trkpt><trkpt lat="37.7895358" lon="15.1750244"><ele>240.0</ele><time>2026-04-24T16:38:25.057Z</time></trkpt><trkpt lat="37.7896476" lon="15.1750671"><ele>240.0</ele><time>2026-04-24T16:38:26.057Z</time></trkpt><trkpt lat="37.7897554" lon="15.1751151"><ele>240.0</ele><time>2026-04-24T16:38:27.058Z</time></trkpt><trkpt lat="37.7898591" lon="15.1751643"><ele>240.0</ele><time>2026-04-24T16:38:28.057Z</time></trkpt><trkpt lat="37.7899649" lon="15.1752144"><ele>240.0</ele><time>2026-04-24T16:38:29.058Z</time></trkpt><trkpt lat="37.7900662" lon="15.1752696"><ele>240.0</ele><time>2026-04-24T16:38:30.057Z</time></trkpt><trkpt lat="37.7901615" lon="15.1753354"><ele>239.6</ele><time>2026-04-24T16:38:31.057Z</time></trkpt><trkpt lat="37.7902496" lon="15.1754154"><ele>239.2</ele><time>2026-04-24T16:38:32.058Z</time></trkpt><trkpt lat="37.7903315" lon="15.1755138"><ele>238.8</ele><time>2026-04-24T16:38:33.057Z</time></trkpt><trkpt lat="37.7904049" lon="15.1756217"><ele>238.4</ele><time>2026-04-24T16:38:34.057Z</time></trkpt><trkpt lat="37.7904691" lon="15.1757334"><ele>238.0</ele><time>2026-04-24T16:38:35.057Z</time></trkpt><trkpt lat="37.7905319" lon="15.1758421"><ele>237.99999999999997</ele><time>2026-04-24T16:38:36.057Z</time></trkpt><trkpt lat="37.7905889" lon="15.1759434"><ele>238.0</ele><time>2026-04-24T16:38:37.058Z</time></trkpt><trkpt lat="37.7906383" lon="15.1760386"><ele>238.0</ele><time>2026-04-24T16:38:38.057Z</time></trkpt><trkpt lat="37.7906781" lon="15.1761269"><ele>238.0</ele><time>2026-04-24T16:38:39.057Z</time></trkpt><trkpt lat="37.7907038" lon="15.1762142"><ele>237.99999999999997</ele><time>2026-04-24T16:38:40.057Z</time></trkpt><trkpt lat="37.7907238" lon="15.1762961"><ele>238.0</ele><time>2026-04-24T16:38:41.057Z</time></trkpt><trkpt lat="37.7907551" lon="15.176447"><ele>236.16666666666666</ele><time>2026-04-24T16:38:43.058Z</time></trkpt><trkpt lat="37.7907424" lon="15.1765821"><ele>234.33333333333331</ele><time>2026-04-24T16:38:45.058Z</time></trkpt><trkpt lat="37.7906549" lon="15.1766862"><ele>232.5</ele><time>2026-04-24T16:38:47.057Z</time></trkpt><trkpt lat="37.7906052" lon="15.1767464"><ele>230.66666666666669</ele><time>2026-04-24T16:38:48.057Z</time></trkpt><trkpt lat="37.7905711" lon="15.1768175"><ele>228.83333333333334</ele><time>2026-04-24T16:38:49.058Z</time></trkpt><trkpt lat="37.7905577" lon="15.1769026"><ele>227.0</ele><time>2026-04-24T16:38:50.058Z</time></trkpt><trkpt lat="37.7905649" lon="15.176996"><ele>227.00000000000003</ele><time>2026-04-24T16:38:51.057Z</time></trkpt><trkpt lat="37.7905889" lon="15.1770965"><ele>227.0</ele><time>2026-04-24T16:38:52.057Z</time></trkpt><trkpt lat="37.7906141" lon="15.1772046"><ele>227.0</ele><time>2026-04-24T16:38:53.057Z</time></trkpt><trkpt lat="37.7906401" lon="15.177308"><ele>227.0</ele><time>2026-04-24T16:38:54.057Z</time></trkpt><trkpt lat="37.7906839" lon="15.1773997"><ele>227.00000000000003</ele><time>2026-04-24T16:38:55.057Z</time></trkpt><trkpt lat="37.7907432" lon="15.1774781"><ele>227.0</ele><time>2026-04-24T16:38:56.057Z</time></trkpt><trkpt lat="37.7908141" lon="15.1775501"><ele>227.83333333333334</ele><time>2026-04-24T16:38:57.057Z</time></trkpt><trkpt lat="37.7908914" lon="15.1776217"><ele>228.66666666666669</ele><time>2026-04-24T16:38:58.057Z</time></trkpt><trkpt lat="37.7909689" lon="15.1776952"><ele>229.5</ele><time>2026-04-24T16:38:59.057Z</time></trkpt><trkpt lat="37.7910396" lon="15.1777638"><ele>230.33333333333331</ele><time>2026-04-24T16:39:00.058Z</time></trkpt><trkpt lat="37.7911079" lon="15.177813"><ele>231.16666666666666</ele><time>2026-04-24T16:39:01.057Z</time></trkpt><trkpt lat="37.7911743" lon="15.1778329"><ele>232.0</ele><time>2026-04-24T16:39:02.057Z</time></trkpt><trkpt lat="37.7912396" lon="15.1778182"><ele>233.83333333333331</ele><time>2026-04-24T16:39:03.057Z</time></trkpt><trkpt lat="37.7913025" lon="15.1777752"><ele>235.66666666666666</ele><time>2026-04-24T16:39:04.058Z</time></trkpt><trkpt lat="37.791371" lon="15.1777164"><ele>237.5</ele><time>2026-04-24T16:39:05.057Z</time></trkpt><trkpt lat="37.7914522" lon="15.1776594"><ele>239.33333333333331</ele><time>2026-04-24T16:39:06.058Z</time></trkpt><trkpt lat="37.791538" lon="15.1776014"><ele>241.16666666666666</ele><time>2026-04-24T16:39:07.057Z</time></trkpt><trkpt lat="37.7916311" lon="15.1775442"><ele>243.0</ele><time>2026-04-24T16:39:08.057Z</time></trkpt><trkpt lat="37.7917287" lon="15.1774949"><ele>243.0</ele><time>2026-04-24T16:39:09.057Z</time></trkpt><trkpt lat="37.7918329" lon="15.1774531"><ele>243.0</ele><time>2026-04-24T16:39:10.057Z</time></trkpt><trkpt lat="37.7919433" lon="15.1774132"><ele>243.0</ele><time>2026-04-24T16:39:11.057Z</time></trkpt><trkpt lat="37.79206" lon="15.1773775"><ele>243.0</ele><time>2026-04-24T16:39:12.057Z</time></trkpt><trkpt lat="37.792179" lon="15.1773403"><ele>245.0</ele><time>2026-04-24T16:39:13.057Z</time></trkpt><trkpt lat="37.7922885" lon="15.177306"><ele>247.0</ele><time>2026-04-24T16:39:14.057Z</time></trkpt><trkpt lat="37.7923942" lon="15.1772701"><ele>249.0</ele><time>2026-04-24T16:39:15.057Z</time></trkpt><trkpt lat="37.7925052" lon="15.1772326"><ele>251.0</ele><time>2026-04-24T16:39:16.057Z</time></trkpt><trkpt lat="37.7926268" lon="15.1771961"><ele>251.5</ele><time>2026-04-24T16:39:17.057Z</time></trkpt><trkpt lat="37.7927539" lon="15.1771537"><ele>252.0</ele><time>2026-04-24T16:39:18.058Z</time></trkpt><trkpt lat="37.7928809" lon="15.1771025"><ele>252.5</ele><time>2026-04-24T16:39:19.057Z</time></trkpt><trkpt lat="37.7929946" lon="15.177041"><ele>253.0</ele><time>2026-04-24T16:39:20.057Z</time></trkpt><trkpt lat="37.7930982" lon="15.1769802"><ele>253.0</ele><time>2026-04-24T16:39:21.057Z</time></trkpt><trkpt lat="37.7931985" lon="15.1769277"><ele>253.0</ele><time>2026-04-24T16:39:22.058Z</time></trkpt><trkpt lat="37.7933028" lon="15.1768871"><ele>253.0</ele><time>2026-04-24T16:39:23.057Z</time></trkpt><trkpt lat="37.7934102" lon="15.1768641"><ele>253.0</ele><time>2026-04-24T16:39:24.057Z</time></trkpt><trkpt lat="37.7935187" lon="15.1768554"><ele>253.0</ele><time>2026-04-24T16:39:25.058Z</time></trkpt><trkpt lat="37.7936298" lon="15.1768645"><ele>254.75</ele><time>2026-04-24T16:39:26.058Z</time></trkpt><trkpt lat="37.7937407" lon="15.1768873"><ele>256.5</ele><time>2026-04-24T16:39:27.057Z</time></trkpt><trkpt lat="37.7938515" lon="15.1769255"><ele>258.25</ele><time>2026-04-24T16:39:28.057Z</time></trkpt><trkpt lat="37.7939631" lon="15.176977"><ele>260.0</ele><time>2026-04-24T16:39:29.057Z</time></trkpt><trkpt lat="37.7940785" lon="15.1770377"><ele>260.0</ele><time>2026-04-24T16:39:30.058Z</time></trkpt><trkpt lat="37.7941989" lon="15.1771017"><ele>260.0</ele><time>2026-04-24T16:39:31.058Z</time></trkpt><trkpt lat="37.7943229" lon="15.1771711"><ele>260.0</ele><time>2026-04-24T16:39:32.057Z</time></trkpt><trkpt lat="37.7944466" lon="15.1772414"><ele>260.0</ele><time>2026-04-24T16:39:33.057Z</time></trkpt><trkpt lat="37.794569" lon="15.1773101"><ele>261.25</ele><time>2026-04-24T16:39:34.057Z</time></trkpt><trkpt lat="37.7946847" lon="15.1773772"><ele>262.5</ele><time>2026-04-24T16:39:35.058Z</time></trkpt><trkpt lat="37.7947944" lon="15.1774406"><ele>263.75</ele><time>2026-04-24T16:39:36.058Z</time></trkpt><trkpt lat="37.7949018" lon="15.1775024"><ele>265.0</ele><time>2026-04-24T16:39:37.058Z</time></trkpt><trkpt lat="37.7950088" lon="15.1775492"><ele>265.0</ele><time>2026-04-24T16:39:38.058Z</time></trkpt><trkpt lat="37.7951141" lon="15.177573"><ele>265.0</ele><time>2026-04-24T16:39:39.057Z</time></trkpt><trkpt lat="37.7952199" lon="15.177572"><ele>265.0</ele><time>2026-04-24T16:39:40.057Z</time></trkpt><trkpt lat="37.7953308" lon="15.1775612"><ele>265.0</ele><time>2026-04-24T16:39:41.057Z</time></trkpt><trkpt lat="37.795445" lon="15.1775542"><ele>265.0</ele><time>2026-04-24T16:39:42.058Z</time></trkpt><trkpt lat="37.7955492" lon="15.1775411"><ele>267.2</ele><time>2026-04-24T16:39:43.057Z</time></trkpt><trkpt lat="37.7956439" lon="15.1775284"><ele>269.4</ele><time>2026-04-24T16:39:44.058Z</time></trkpt><trkpt lat="37.7957355" lon="15.1775112"><ele>271.6</ele><time>2026-04-24T16:39:45.057Z</time></trkpt><trkpt lat="37.7958229" lon="15.1774702"><ele>273.8</ele><time>2026-04-24T16:39:46.057Z</time></trkpt><trkpt lat="37.7958999" lon="15.1774045"><ele>276.0</ele><time>2026-04-24T16:39:47.057Z</time></trkpt><trkpt lat="37.7959622" lon="15.1773205"><ele>278.40000000000003</ele><time>2026-04-24T16:39:48.057Z</time></trkpt><trkpt lat="37.7960124" lon="15.1772217"><ele>280.8</ele><time>2026-04-24T16:39:49.057Z</time></trkpt><trkpt lat="37.7960656" lon="15.1771167"><ele>283.20000000000005</ele><time>2026-04-24T16:39:50.058Z</time></trkpt><trkpt lat="37.796124" lon="15.1770101"><ele>285.6</ele><time>2026-04-24T16:39:51.057Z</time></trkpt><trkpt lat="37.7961812" lon="15.1768982"><ele>288.0</ele><time>2026-04-24T16:39:52.057Z</time></trkpt><trkpt lat="37.7962386" lon="15.1767818"><ele>288.0</ele><time>2026-04-24T16:39:53.057Z</time></trkpt><trkpt lat="37.7962942" lon="15.1766668"><ele>288.0</ele><time>2026-04-24T16:39:54.057Z</time></trkpt><trkpt lat="37.7963459" lon="15.176562"><ele>288.0</ele><time>2026-04-24T16:39:55.058Z</time></trkpt><trkpt lat="37.7963931" lon="15.1764657"><ele>288.0</ele><time>2026-04-24T16:39:56.057Z</time></trkpt><trkpt lat="37.7964377" lon="15.176376"><ele>288.0</ele><time>2026-04-24T16:39:57.057Z</time></trkpt><trkpt lat="37.796481" lon="15.1762931"><ele>288.2</ele><time>2026-04-24T16:39:58.058Z</time></trkpt><trkpt lat="37.796522" lon="15.1762101"><ele>288.4</ele><time>2026-04-24T16:39:59.057Z</time></trkpt><trkpt lat="37.7965637" lon="15.1761317"><ele>288.59999999999997</ele><time>2026-04-24T16:40:00.058Z</time></trkpt><trkpt lat="37.7966041" lon="15.1760581"><ele>288.8</ele><time>2026-04-24T16:40:01.057Z</time></trkpt><trkpt lat="37.796691" lon="15.1759568"><ele>289.0</ele><time>2026-04-24T16:40:03.057Z</time></trkpt><trkpt lat="37.7968034" lon="15.1759652"><ele>292.0</ele><time>2026-04-24T16:40:05.057Z</time></trkpt><trkpt lat="37.7968889" lon="15.1760867"><ele>295.0</ele><time>2026-04-24T16:40:07.057Z</time></trkpt><trkpt lat="37.7969292" lon="15.1761699"><ele>298.0</ele><time>2026-04-24T16:40:08.057Z</time></trkpt><trkpt lat="37.7969738" lon="15.1762628"><ele>301.0</ele><time>2026-04-24T16:40:09.057Z</time></trkpt><trkpt lat="37.7970191" lon="15.1763658"><ele>304.0</ele><time>2026-04-24T16:40:10.058Z</time></trkpt><trkpt lat="37.7970691" lon="15.1764732"><ele>303.3333333333333</ele><time>2026-04-24T16:40:11.058Z</time></trkpt><trkpt lat="37.7971169" lon="15.1765781"><ele>302.66666666666663</ele><time>2026-04-24T16:40:12.057Z</time></trkpt><trkpt lat="37.7971579" lon="15.1766715"><ele>302.0</ele><time>2026-04-24T16:40:13.057Z</time></trkpt><trkpt lat="37.7971974" lon="15.1767558"><ele>301.3333333333333</ele><time>2026-04-24T16:40:14.057Z</time></trkpt><trkpt lat="37.7972337" lon="15.1768347"><ele>300.6666666666667</ele><time>2026-04-24T16:40:15.057Z</time></trkpt><trkpt lat="37.7972681" lon="15.1769075"><ele>300.0</ele><time>2026-04-24T16:40:16.058Z</time></trkpt><trkpt lat="37.7973001" lon="15.1769782"><ele>299.99999999999994</ele><time>2026-04-24T16:40:17.058Z</time></trkpt><trkpt lat="37.7973333" lon="15.1770464"><ele>300.0</ele><time>2026-04-24T16:40:18.057Z</time></trkpt><trkpt lat="37.79737" lon="15.1771126"><ele>300.0</ele><time>2026-04-24T16:40:19.057Z</time></trkpt><trkpt lat="37.7974208" lon="15.1771663"><ele>300.0</ele><time>2026-04-24T16:40:20.057Z</time></trkpt><trkpt lat="37.7974856" lon="15.1771968"><ele>300.0</ele><time>2026-04-24T16:40:21.057Z</time></trkpt><trkpt lat="37.797559" lon="15.1771982"><ele>299.99999999999994</ele><time>2026-04-24T16:40:22.057Z</time></trkpt><trkpt lat="37.7976339" lon="15.1771711"><ele>300.0</ele><time>2026-04-24T16:40:23.058Z</time></trkpt><trkpt lat="37.7977046" lon="15.177134"><ele>300.5</ele><time>2026-04-24T16:40:24.057Z</time></trkpt><trkpt lat="37.7977714" lon="15.1770965"><ele>301.0</ele><time>2026-04-24T16:40:25.057Z</time></trkpt><trkpt lat="37.7978391" lon="15.17706"><ele>301.5</ele><time>2026-04-24T16:40:26.057Z</time></trkpt><trkpt lat="37.7979079" lon="15.1770162"><ele>302.0</ele><time>2026-04-24T16:40:27.057Z</time></trkpt><trkpt lat="37.7979788" lon="15.1769676"><ele>302.5</ele><time>2026-04-24T16:40:28.057Z</time></trkpt><trkpt lat="37.7980543" lon="15.1769204"><ele>303.0</ele><time>2026-04-24T16:40:29.057Z</time></trkpt><trkpt lat="37.7981321" lon="15.1768774"><ele>303.0</ele><time>2026-04-24T16:40:30.057Z</time></trkpt><trkpt lat="37.7982111" lon="15.1768327"><ele>303.0</ele><time>2026-04-24T16:40:31.057Z</time></trkpt><trkpt lat="37.7982884" lon="15.1767847"><ele>303.0</ele><time>2026-04-24T16:40:32.058Z</time></trkpt><trkpt lat="37.7983632" lon="15.1767376"><ele>303.0</ele><time>2026-04-24T16:40:33.057Z</time></trkpt><trkpt lat="37.7984358" lon="15.1766887"><ele>303.0</ele><time>2026-04-24T16:40:34.058Z</time></trkpt><trkpt lat="37.7985058" lon="15.1766413"><ele>303.0</ele><time>2026-04-24T16:40:35.057Z</time></trkpt><trkpt lat="37.7985747" lon="15.1765975"><ele>304.1666666666667</ele><time>2026-04-24T16:40:36.057Z</time></trkpt><trkpt lat="37.7986423" lon="15.1765561"><ele>305.3333333333333</ele><time>2026-04-24T16:40:37.057Z</time></trkpt><trkpt lat="37.7987131" lon="15.1765215"><ele>306.5</ele><time>2026-04-24T16:40:38.057Z</time></trkpt><trkpt lat="37.7987891" lon="15.1765024"><ele>307.66666666666663</ele><time>2026-04-24T16:40:39.057Z</time></trkpt><trkpt lat="37.7988683" lon="15.1764954"><ele>308.8333333333333</ele><time>2026-04-24T16:40:40.058Z</time></trkpt><trkpt lat="37.7989449" lon="15.1764866"><ele>310.0</ele><time>2026-04-24T16:40:41.058Z</time></trkpt><trkpt lat="37.7990173" lon="15.1764608"><ele>312.0</ele><time>2026-04-24T16:40:42.058Z</time></trkpt><trkpt lat="37.7990818" lon="15.1764146"><ele>314.0</ele><time>2026-04-24T16:40:43.058Z</time></trkpt><trkpt lat="37.7991393" lon="15.1763503"><ele>316.0</ele><time>2026-04-24T16:40:44.058Z</time></trkpt><trkpt lat="37.7991936" lon="15.176276"><ele>318.0</ele><time>2026-04-24T16:40:45.057Z</time></trkpt><trkpt lat="37.7992544" lon="15.1762048"><ele>320.0</ele><time>2026-04-24T16:40:46.058Z</time></trkpt><trkpt lat="37.7993293" lon="15.1761492"><ele>322.0</ele><time>2026-04-24T16:40:47.058Z</time></trkpt><trkpt lat="37.7994107" lon="15.1761062"><ele>322.8333333333333</ele><time>2026-04-24T16:40:48.058Z</time></trkpt><trkpt lat="37.7994939" lon="15.1760722"><ele>323.66666666666663</ele><time>2026-04-24T16:40:49.057Z</time></trkpt><trkpt lat="37.7995784" lon="15.1760379"><ele>324.5</ele><time>2026-04-24T16:40:50.057Z</time></trkpt><trkpt lat="37.7996648" lon="15.1760036"><ele>325.3333333333333</ele><time>2026-04-24T16:40:51.057Z</time></trkpt><trkpt lat="37.7997522" lon="15.1759775"><ele>326.1666666666667</ele><time>2026-04-24T16:40:52.057Z</time></trkpt><trkpt lat="37.7998383" lon="15.1759536"><ele>327.0</ele><time>2026-04-24T16:40:53.058Z</time></trkpt><trkpt lat="37.7999229" lon="15.1759259"><ele>327.0</ele><time>2026-04-24T16:40:54.057Z</time></trkpt><trkpt lat="37.8000056" lon="15.1759029"><ele>327.0</ele><time>2026-04-24T16:40:55.058Z</time></trkpt><trkpt lat="37.8000857" lon="15.1758804"><ele>327.0</ele><time>2026-04-24T16:40:56.058Z</time></trkpt><trkpt lat="37.800164" lon="15.1758583"><ele>327.0</ele><time>2026-04-24T16:40:57.057Z</time></trkpt><trkpt lat="37.800242" lon="15.1758346"><ele>327.0</ele><time>2026-04-24T16:40:58.057Z</time></trkpt><trkpt lat="37.800323" lon="15.1758076"><ele>327.0</ele><time>2026-04-24T16:40:59.058Z</time></trkpt><trkpt lat="37.8004062" lon="15.1757784"><ele>327.5</ele><time>2026-04-24T16:41:00.057Z</time></trkpt><trkpt lat="37.8004888" lon="15.1757478"><ele>328.0</ele><time>2026-04-24T16:41:01.057Z</time></trkpt><trkpt lat="37.8005711" lon="15.1757123"><ele>328.5</ele><time>2026-04-24T16:41:02.057Z</time></trkpt><trkpt lat="37.8006579" lon="15.1756792"><ele>329.0</ele><time>2026-04-24T16:41:03.057Z</time></trkpt><trkpt lat="37.8007427" lon="15.1756648"><ele>329.5</ele><time>2026-04-24T16:41:04.057Z</time></trkpt><trkpt lat="37.8008255" lon="15.1756683"><ele>330.0</ele><time>2026-04-24T16:41:05.057Z</time></trkpt><trkpt lat="37.8009093" lon="15.1756863"><ele>330.0</ele><time>2026-04-24T16:41:06.057Z</time></trkpt><trkpt lat="37.8009956" lon="15.175711"><ele>330.0</ele><time>2026-04-24T16:41:07.057Z</time></trkpt><trkpt lat="37.8010808" lon="15.1757357"><ele>330.0</ele><time>2026-04-24T16:41:08.057Z</time></trkpt><trkpt lat="37.801161" lon="15.1757643"><ele>330.0</ele><time>2026-04-24T16:41:09.057Z</time></trkpt><trkpt lat="37.801237" lon="15.1758"><ele>330.0</ele><time>2026-04-24T16:41:10.058Z</time></trkpt><trkpt lat="37.8013108" lon="15.1758447"><ele>330.0</ele><time>2026-04-24T16:41:11.057Z</time></trkpt><trkpt lat="37.8013782" lon="15.1758989"><ele>330.8</ele><time>2026-04-24T16:41:12.057Z</time></trkpt><trkpt lat="37.8014402" lon="15.1759528"><ele>331.6</ele><time>2026-04-24T16:41:13.058Z</time></trkpt><trkpt lat="37.8014931" lon="15.1760041"><ele>332.4</ele><time>2026-04-24T16:41:14.057Z</time></trkpt><trkpt lat="37.8015835" lon="15.1760932"><ele>333.2</ele><time>2026-04-24T16:41:16.057Z</time></trkpt><trkpt lat="37.8016732" lon="15.1761699"><ele>334.0</ele><time>2026-04-24T16:41:18.057Z</time></trkpt><trkpt lat="37.8017746" lon="15.1762208"><ele>333.66666666666663</ele><time>2026-04-24T16:41:20.057Z</time></trkpt><trkpt lat="37.8018869" lon="15.1762208"><ele>333.3333333333333</ele><time>2026-04-24T16:41:22.057Z</time></trkpt><trkpt lat="37.8019793" lon="15.1762026"><ele>333.0</ele><time>2026-04-24T16:41:24.057Z</time></trkpt><trkpt lat="37.8020629" lon="15.1762093"><ele>332.6666666666667</ele><time>2026-04-24T16:41:27.057Z</time></trkpt><trkpt lat="37.8021303" lon="15.1762222"><ele>332.33333333333337</ele><time>2026-04-24T16:41:30.057Z</time></trkpt><trkpt lat="37.8022195" lon="15.176213"><ele>332.0</ele><time>2026-04-24T16:41:32.057Z</time></trkpt><trkpt lat="37.8023401" lon="15.1761869"><ele>332.0</ele><time>2026-04-24T16:41:34.058Z</time></trkpt><trkpt lat="37.8024047" lon="15.1761766"><ele>332.0</ele><time>2026-04-24T16:41:35.057Z</time></trkpt><trkpt lat="37.8025247" lon="15.1761584"><ele>332.0</ele><time>2026-04-24T16:41:37.058Z</time></trkpt><trkpt lat="37.802593" lon="15.1761468"><ele>332.0</ele><time>2026-04-24T16:41:38.057Z</time></trkpt><trkpt lat="37.8026673" lon="15.1761341"><ele>332.0</ele><time>2026-04-24T16:41:39.057Z</time></trkpt><trkpt lat="37.8027468" lon="15.1761149"><ele>332.0</ele><time>2026-04-24T16:41:40.057Z</time></trkpt><trkpt lat="37.8028338" lon="15.1760928"><ele>332.20000000000005</ele><time>2026-04-24T16:41:41.057Z</time></trkpt><trkpt lat="37.8029225" lon="15.1760687"><ele>332.4</ele><time>2026-04-24T16:41:42.057Z</time></trkpt><trkpt lat="37.8030149" lon="15.1760471"><ele>332.6</ele><time>2026-04-24T16:41:43.058Z</time></trkpt><trkpt lat="37.8031121" lon="15.1760225"><ele>332.79999999999995</ele><time>2026-04-24T16:41:44.057Z</time></trkpt><trkpt lat="37.8032111" lon="15.1759987"><ele>333.0</ele><time>2026-04-24T16:41:45.058Z</time></trkpt><trkpt lat="37.8033169" lon="15.1759804"><ele>333.0</ele><time>2026-04-24T16:41:46.057Z</time></trkpt><trkpt lat="37.803426" lon="15.175963"><ele>333.0</ele><time>2026-04-24T16:41:47.057Z</time></trkpt><trkpt lat="37.8035326" lon="15.1759431"><ele>333.0</ele><time>2026-04-24T16:41:48.057Z</time></trkpt><trkpt lat="37.8036379" lon="15.1759224"><ele>333.0</ele><time>2026-04-24T16:41:49.057Z</time></trkpt><trkpt lat="37.8037511" lon="15.1758991"><ele>333.0</ele><time>2026-04-24T16:41:50.057Z</time></trkpt><trkpt lat="37.8038697" lon="15.1758742"><ele>333.75</ele><time>2026-04-24T16:41:51.057Z</time></trkpt><trkpt lat="37.803989" lon="15.1758501"><ele>334.5</ele><time>2026-04-24T16:41:52.057Z</time></trkpt><trkpt lat="37.804107" lon="15.1758237"><ele>335.25</ele><time>2026-04-24T16:41:53.057Z</time></trkpt><trkpt lat="37.8042263" lon="15.1758036"><ele>336.0</ele><time>2026-04-24T16:41:54.057Z</time></trkpt><trkpt lat="37.8043429" lon="15.1757817"><ele>337.5</ele><time>2026-04-24T16:41:55.057Z</time></trkpt><trkpt lat="37.8044609" lon="15.1757565"><ele>339.0</ele><time>2026-04-24T16:41:56.057Z</time></trkpt><trkpt lat="37.8045775" lon="15.1757271"><ele>340.5</ele><time>2026-04-24T16:41:57.057Z</time></trkpt><trkpt lat="37.8046924" lon="15.1757005"><ele>342.0</ele><time>2026-04-24T16:41:58.057Z</time></trkpt><trkpt lat="37.8048121" lon="15.1756748"><ele>342.0</ele><time>2026-04-24T16:41:59.057Z</time></trkpt><trkpt lat="37.8049336" lon="15.1756516"><ele>342.0</ele><time>2026-04-24T16:42:00.058Z</time></trkpt><trkpt lat="37.8050534" lon="15.1756287"><ele>342.0</ele><time>2026-04-24T16:42:01.057Z</time></trkpt><trkpt lat="37.8051722" lon="15.1756034"><ele>342.0</ele><time>2026-04-24T16:42:02.058Z</time></trkpt><trkpt lat="37.8052868" lon="15.1755806"><ele>342.75</ele><time>2026-04-24T16:42:03.057Z</time></trkpt><trkpt lat="37.8054019" lon="15.1755558"><ele>343.5</ele><time>2026-04-24T16:42:04.058Z</time></trkpt><trkpt lat="37.8055196" lon="15.1755376"><ele>344.25</ele><time>2026-04-24T16:42:05.057Z</time></trkpt><trkpt lat="37.8056345" lon="15.1755165"><ele>345.0</ele><time>2026-04-24T16:42:06.057Z</time></trkpt><trkpt lat="37.8057449" lon="15.175494"><ele>345.0</ele><time>2026-04-24T16:42:07.058Z</time></trkpt><trkpt lat="37.8058552" lon="15.1754701"><ele>345.0</ele><time>2026-04-24T16:42:08.057Z</time></trkpt><trkpt lat="37.8059649" lon="15.1754484"><ele>345.0</ele><time>2026-04-24T16:42:09.058Z</time></trkpt><trkpt lat="37.8060764" lon="15.1754235"><ele>345.0</ele><time>2026-04-24T16:42:10.057Z</time></trkpt><trkpt lat="37.8061887" lon="15.1753992"><ele>347.0</ele><time>2026-04-24T16:42:11.058Z</time></trkpt><trkpt lat="37.8063003" lon="15.1753777"><ele>349.0</ele><time>2026-04-24T16:42:12.057Z</time></trkpt><trkpt lat="37.8064121" lon="15.1753554"><ele>351.0</ele><time>2026-04-24T16:42:13.057Z</time></trkpt><trkpt lat="37.8065274" lon="15.1753295"><ele>353.0</ele><time>2026-04-24T16:42:14.058Z</time></trkpt><trkpt lat="37.806643" lon="15.1753038"><ele>353.0</ele><time>2026-04-24T16:42:15.057Z</time></trkpt><trkpt lat="37.8067576" lon="15.1752763"><ele>353.0</ele><time>2026-04-24T16:42:16.058Z</time></trkpt><trkpt lat="37.8068738" lon="15.1752551"><ele>353.0</ele><time>2026-04-24T16:42:17.058Z</time></trkpt><trkpt lat="37.8069813" lon="15.1752364"><ele>353.0</ele><time>2026-04-24T16:42:18.057Z</time></trkpt><trkpt lat="37.8070745" lon="15.1752219"><ele>353.0</ele><time>2026-04-24T16:42:19.057Z</time></trkpt><trkpt lat="37.8071572" lon="15.1752077"><ele>353.83333333333337</ele><time>2026-04-24T16:42:20.058Z</time></trkpt><trkpt lat="37.8072308" lon="15.1751978"><ele>354.6666666666667</ele><time>2026-04-24T16:42:21.058Z</time></trkpt><trkpt lat="37.8073309" lon="15.1751909"><ele>355.5</ele><time>2026-04-24T16:42:23.057Z</time></trkpt><trkpt lat="37.8073963" lon="15.1752329"><ele>356.3333333333333</ele><time>2026-04-24T16:42:25.058Z</time></trkpt><trkpt lat="37.8074273" lon="15.1753129"><ele>357.16666666666663</ele><time>2026-04-24T16:42:27.057Z</time></trkpt><trkpt lat="37.8074316" lon="15.1754286"><ele>358.0</ele><time>2026-04-24T16:42:29.058Z</time></trkpt><trkpt lat="37.8074172" lon="15.1755662"><ele>357.59999999999997</ele><time>2026-04-24T16:42:31.057Z</time></trkpt><trkpt lat="37.8074061" lon="15.1756993"><ele>357.2</ele><time>2026-04-24T16:42:33.058Z</time></trkpt><trkpt lat="37.80742" lon="15.1758234"><ele>356.8</ele><time>2026-04-24T16:42:35.057Z</time></trkpt><trkpt lat="37.807446" lon="15.1759326"><ele>356.4</ele><time>2026-04-24T16:42:37.058Z</time></trkpt><trkpt lat="37.807492" lon="15.1760166"><ele>356.0</ele><time>2026-04-24T16:42:39.057Z</time></trkpt><trkpt lat="37.8075695" lon="15.1760418"><ele>356.0</ele><time>2026-04-24T16:42:41.058Z</time></trkpt><trkpt lat="37.807659" lon="15.1760089"><ele>356.0</ele><time>2026-04-24T16:42:43.057Z</time></trkpt><trkpt lat="37.8077764" lon="15.1759571"><ele>356.0</ele><time>2026-04-24T16:42:45.058Z</time></trkpt><trkpt lat="37.8078487" lon="15.1759284"><ele>356.0</ele><time>2026-04-24T16:42:46.057Z</time></trkpt><trkpt lat="37.8079235" lon="15.1758931"><ele>356.0</ele><time>2026-04-24T16:42:47.058Z</time></trkpt><trkpt lat="37.8080032" lon="15.1758563"><ele>356.1666666666667</ele><time>2026-04-24T16:42:48.057Z</time></trkpt><trkpt lat="37.8080815" lon="15.175823"><ele>356.33333333333337</ele><time>2026-04-24T16:42:49.057Z</time></trkpt><trkpt lat="37.8081545" lon="15.1757903"><ele>356.5</ele><time>2026-04-24T16:42:50.057Z</time></trkpt><trkpt lat="37.8082195" lon="15.1757631"><ele>356.6666666666667</ele><time>2026-04-24T16:42:51.057Z</time></trkpt><trkpt lat="37.8083251" lon="15.1757244"><ele>356.8333333333333</ele><time>2026-04-24T16:42:53.058Z</time></trkpt><trkpt lat="37.8084015" lon="15.1757477"><ele>357.0</ele><time>2026-04-24T16:42:56.057Z</time></trkpt><trkpt lat="37.8084491" lon="15.175806"><ele>357.0</ele><time>2026-04-24T16:42:58.058Z</time></trkpt><trkpt lat="37.8084771" lon="15.1759044"><ele>357.0</ele><time>2026-04-24T16:43:00.057Z</time></trkpt><trkpt lat="37.8084909" lon="15.175992"><ele>357.0</ele><time>2026-04-24T16:43:02.057Z</time></trkpt><trkpt lat="37.8085098" lon="15.1761029"><ele>357.0</ele><time>2026-04-24T16:43:05.058Z</time></trkpt><trkpt lat="37.808533" lon="15.1761847"><ele>357.0</ele><time>2026-04-24T16:43:07.058Z</time></trkpt><trkpt lat="37.808555" lon="15.1762617"><ele>357.0</ele><time>2026-04-24T16:43:09.057Z</time></trkpt><trkpt lat="37.808584" lon="15.1763735"><ele>357.0</ele><time>2026-04-24T16:43:12.058Z</time></trkpt><trkpt lat="37.8086011" lon="15.1764614"><ele>357.0</ele><time>2026-04-24T16:43:14.058Z</time></trkpt><trkpt lat="37.8086205" lon="15.1765537"><ele>357.0</ele><time>2026-04-24T16:43:16.057Z</time></trkpt><trkpt lat="37.8086497" lon="15.1766373"><ele>357.0</ele><time>2026-04-24T16:43:19.058Z</time></trkpt><trkpt lat="37.8086742" lon="15.1767194"><ele>357.0</ele><time>2026-04-24T16:43:25.057Z</time></trkpt><trkpt lat="37.8086966" lon="15.1767974"><ele>357.0</ele><time>2026-04-24T16:43:39.057Z</time></trkpt><trkpt lat="37.8087421" lon="15.1768607"><ele>357.0</ele><time>2026-04-24T16:43:44.057Z</time></trkpt><trkpt lat="37.8088328" lon="15.176846"><ele>357.0</ele><time>2026-04-24T16:43:48.057Z</time></trkpt><trkpt lat="37.8089004" lon="15.1768035"><ele>357.0</ele><time>2026-04-24T16:43:50.058Z</time></trkpt><trkpt lat="37.8089635" lon="15.1767415"><ele>357.0</ele><time>2026-04-24T16:43:52.058Z</time></trkpt><trkpt lat="37.8090301" lon="15.1766645"><ele>357.0</ele><time>2026-04-24T16:43:54.057Z</time></trkpt><trkpt lat="37.8091025" lon="15.1765881"><ele>357.0</ele><time>2026-04-24T16:43:56.057Z</time></trkpt><trkpt lat="37.8091734" lon="15.1765145"><ele>357.0</ele><time>2026-04-24T16:43:58.058Z</time></trkpt><trkpt lat="37.8092414" lon="15.1764424"><ele>357.6</ele><time>2026-04-24T16:44:00.057Z</time></trkpt><trkpt lat="37.8093018" lon="15.1763787"><ele>358.20000000000005</ele><time>2026-04-24T16:44:02.057Z</time></trkpt><trkpt lat="37.809364" lon="15.1763118"><ele>358.8</ele><time>2026-04-24T16:44:04.057Z</time></trkpt><trkpt lat="37.8094329" lon="15.1762286"><ele>359.4</ele><time>2026-04-24T16:44:06.057Z</time></trkpt><trkpt lat="37.8095202" lon="15.1761476"><ele>360.0</ele><time>2026-04-24T16:44:08.058Z</time></trkpt><trkpt lat="37.8096017" lon="15.1760628"><ele>360.0</ele><time>2026-04-24T16:44:10.057Z</time></trkpt><trkpt lat="37.8096844" lon="15.175975"><ele>360.0</ele><time>2026-04-24T16:44:12.057Z</time></trkpt><trkpt lat="37.8097755" lon="15.1758838"><ele>360.0</ele><time>2026-04-24T16:44:14.057Z</time></trkpt><trkpt lat="37.8098693" lon="15.1757834"><ele>360.0</ele><time>2026-04-24T16:44:16.058Z</time></trkpt><trkpt lat="37.8099164" lon="15.1757303"><ele>360.0</ele><time>2026-04-24T16:44:17.057Z</time></trkpt><trkpt lat="37.8099677" lon="15.1756774"><ele>360.2857142857143</ele><time>2026-04-24T16:44:18.058Z</time></trkpt><trkpt lat="37.8100185" lon="15.1756226"><ele>360.5714285714286</ele><time>2026-04-24T16:44:19.057Z</time></trkpt><trkpt lat="37.8100671" lon="15.1755629"><ele>360.8571428571429</ele><time>2026-04-24T16:44:20.058Z</time></trkpt><trkpt lat="37.8101105" lon="15.1754987"><ele>361.1428571428571</ele><time>2026-04-24T16:44:21.057Z</time></trkpt><trkpt lat="37.8101518" lon="15.1754309"><ele>361.42857142857144</ele><time>2026-04-24T16:44:22.058Z</time></trkpt><trkpt lat="37.8101916" lon="15.1753534"><ele>361.7142857142857</ele><time>2026-04-24T16:44:23.058Z</time></trkpt><trkpt lat="37.8102337" lon="15.1752717"><ele>362.0</ele><time>2026-04-24T16:44:24.057Z</time></trkpt><trkpt lat="37.8102727" lon="15.1751987"><ele>362.0</ele><time>2026-04-24T16:44:25.057Z</time></trkpt><trkpt lat="37.8103096" lon="15.1751307"><ele>362.0</ele><time>2026-04-24T16:44:26.057Z</time></trkpt><trkpt lat="37.8103499" lon="15.1750556"><ele>362.0</ele><time>2026-04-24T16:44:27.057Z</time></trkpt><trkpt lat="37.8103947" lon="15.1749754"><ele>362.0</ele><time>2026-04-24T16:44:28.057Z</time></trkpt><trkpt lat="37.8104411" lon="15.1748889"><ele>362.0</ele><time>2026-04-24T16:44:29.057Z</time></trkpt><trkpt lat="37.8104887" lon="15.1747982"><ele>362.0</ele><time>2026-04-24T16:44:30.057Z</time></trkpt><trkpt lat="37.8105378" lon="15.1747028"><ele>362.8</ele><time>2026-04-24T16:44:31.057Z</time></trkpt><trkpt lat="37.8105878" lon="15.1746052"><ele>363.6</ele><time>2026-04-24T16:44:32.057Z</time></trkpt><trkpt lat="37.8106387" lon="15.1745072"><ele>364.40000000000003</ele><time>2026-04-24T16:44:33.057Z</time></trkpt><trkpt lat="37.8106901" lon="15.1744077"><ele>365.20000000000005</ele><time>2026-04-24T16:44:34.057Z</time></trkpt><trkpt lat="37.8107412" lon="15.174308"><ele>366.0</ele><time>2026-04-24T16:44:35.058Z</time></trkpt><trkpt lat="37.810792" lon="15.1742101"><ele>366.0</ele><time>2026-04-24T16:44:36.057Z</time></trkpt><trkpt lat="37.8108403" lon="15.1741138"><ele>366.0</ele><time>2026-04-24T16:44:37.058Z</time></trkpt><trkpt lat="37.8108893" lon="15.1740215"><ele>366.0</ele><time>2026-04-24T16:44:38.057Z</time></trkpt><trkpt lat="37.8109357" lon="15.1739293"><ele>366.0</ele><time>2026-04-24T16:44:39.057Z</time></trkpt><trkpt lat="37.8109835" lon="15.1738335"><ele>366.0</ele><time>2026-04-24T16:44:40.057Z</time></trkpt><trkpt lat="37.8110333" lon="15.1737376"><ele>366.0</ele><time>2026-04-24T16:44:41.057Z</time></trkpt><trkpt lat="37.811084" lon="15.1736463"><ele>366.8333333333333</ele><time>2026-04-24T16:44:42.057Z</time></trkpt><trkpt lat="37.8111302" lon="15.1735578"><ele>367.6666666666667</ele><time>2026-04-24T16:44:43.058Z</time></trkpt><trkpt lat="37.8111721" lon="15.1734749"><ele>368.5</ele><time>2026-04-24T16:44:44.057Z</time></trkpt><trkpt lat="37.811212" lon="15.1733994"><ele>369.33333333333337</ele><time>2026-04-24T16:44:45.057Z</time></trkpt><trkpt lat="37.8112491" lon="15.1733336"><ele>370.1666666666667</ele><time>2026-04-24T16:44:46.057Z</time></trkpt><trkpt lat="37.811315" lon="15.1732014"><ele>371.0</ele><time>2026-04-24T16:44:48.057Z</time></trkpt><trkpt lat="37.8113513" lon="15.1731284"><ele>371.83333333333337</ele><time>2026-04-24T16:44:49.057Z</time></trkpt><trkpt lat="37.8113941" lon="15.1730486"><ele>372.6666666666667</ele><time>2026-04-24T16:44:50.058Z</time></trkpt><trkpt lat="37.8114388" lon="15.1729633"><ele>373.5</ele><time>2026-04-24T16:44:51.058Z</time></trkpt><trkpt lat="37.8114864" lon="15.1728689"><ele>374.3333333333333</ele><time>2026-04-24T16:44:52.057Z</time></trkpt><trkpt lat="37.8115346" lon="15.1727704"><ele>375.16666666666663</ele><time>2026-04-24T16:44:53.057Z</time></trkpt><trkpt lat="37.8115814" lon="15.1726714"><ele>376.0</ele><time>2026-04-24T16:44:54.057Z</time></trkpt><trkpt lat="37.811634" lon="15.1725668"><ele>376.0</ele><time>2026-04-24T16:44:55.058Z</time></trkpt><trkpt lat="37.8116888" lon="15.1724627"><ele>376.0</ele><time>2026-04-24T16:44:56.057Z</time></trkpt><trkpt lat="37.8117391" lon="15.1723552"><ele>376.0</ele><time>2026-04-24T16:44:57.057Z</time></trkpt><trkpt lat="37.811791" lon="15.1722456"><ele>376.0</ele><time>2026-04-24T16:44:58.057Z</time></trkpt><trkpt lat="37.8118403" lon="15.172137"><ele>376.0</ele><time>2026-04-24T16:44:59.057Z</time></trkpt><trkpt lat="37.8118805" lon="15.1720242"><ele>376.8333333333333</ele><time>2026-04-24T16:45:00.057Z</time></trkpt><trkpt lat="37.8119206" lon="15.1719176"><ele>377.66666666666663</ele><time>2026-04-24T16:45:01.058Z</time></trkpt><trkpt lat="37.8119637" lon="15.1718249"><ele>378.5</ele><time>2026-04-24T16:45:02.058Z</time></trkpt><trkpt lat="37.8120161" lon="15.1717568"><ele>379.3333333333333</ele><time>2026-04-24T16:45:03.057Z</time></trkpt><trkpt lat="37.8120726" lon="15.1717159"><ele>380.1666666666667</ele><time>2026-04-24T16:45:04.058Z</time></trkpt><trkpt lat="37.8121342" lon="15.1716988"><ele>381.0</ele><time>2026-04-24T16:45:05.058Z</time></trkpt><trkpt lat="37.8122043" lon="15.1716934"><ele>381.0</ele><time>2026-04-24T16:45:06.058Z</time></trkpt><trkpt lat="37.8122798" lon="15.1716851"><ele>381.0</ele><time>2026-04-24T16:45:07.058Z</time></trkpt><trkpt lat="37.8123556" lon="15.1716567"><ele>381.0</ele><time>2026-04-24T16:45:08.057Z</time></trkpt><trkpt lat="37.8124199" lon="15.1715999"><ele>381.0</ele><time>2026-04-24T16:45:09.058Z</time></trkpt><trkpt lat="37.8124703" lon="15.1715171"><ele>381.0</ele><time>2026-04-24T16:45:10.057Z</time></trkpt><trkpt lat="37.8125105" lon="15.171415"><ele>381.0</ele><time>2026-04-24T16:45:11.057Z</time></trkpt><trkpt lat="37.8125846" lon="15.1711695"><ele>381.5</ele><time>2026-04-24T16:45:13.057Z</time></trkpt><trkpt lat="37.8126276" lon="15.1710376"><ele>382.0</ele><time>2026-04-24T16:45:14.057Z</time></trkpt><trkpt lat="37.8126778" lon="15.1709009"><ele>382.5</ele><time>2026-04-24T16:45:15.057Z</time></trkpt><trkpt lat="37.8127389" lon="15.1707643"><ele>383.0</ele><time>2026-04-24T16:45:16.058Z</time></trkpt><trkpt lat="37.8128082" lon="15.1706241"><ele>385.0</ele><time>2026-04-24T16:45:17.058Z</time></trkpt><trkpt lat="37.8128865" lon="15.170486"><ele>387.0</ele><time>2026-04-24T16:45:18.057Z</time></trkpt><trkpt lat="37.812963" lon="15.1703469"><ele>389.0</ele><time>2026-04-24T16:45:19.057Z</time></trkpt><trkpt lat="37.8130418" lon="15.1702112"><ele>391.0</ele><time>2026-04-24T16:45:20.058Z</time></trkpt><trkpt lat="37.8131206" lon="15.1700753"><ele>391.0</ele><time>2026-04-24T16:45:21.057Z</time></trkpt><trkpt lat="37.8131906" lon="15.169941"><ele>391.0</ele><time>2026-04-24T16:45:22.057Z</time></trkpt><trkpt lat="37.8132503" lon="15.1698069"><ele>391.0</ele><time>2026-04-24T16:45:23.057Z</time></trkpt><trkpt lat="37.8132943" lon="15.1696719"><ele>391.0</ele><time>2026-04-24T16:45:24.057Z</time></trkpt><trkpt lat="37.8133264" lon="15.1695386"><ele>391.8</ele><time>2026-04-24T16:45:25.057Z</time></trkpt><trkpt lat="37.8133419" lon="15.169402"><ele>392.6</ele><time>2026-04-24T16:45:26.058Z</time></trkpt><trkpt lat="37.813351" lon="15.1692664"><ele>393.4</ele><time>2026-04-24T16:45:27.058Z</time></trkpt><trkpt lat="37.8133607" lon="15.1691216"><ele>394.2</ele><time>2026-04-24T16:45:28.058Z</time></trkpt><trkpt lat="37.8133708" lon="15.1689749"><ele>395.0</ele><time>2026-04-24T16:45:29.057Z</time></trkpt><trkpt lat="37.8133809" lon="15.1688252"><ele>395.0</ele><time>2026-04-24T16:45:30.058Z</time></trkpt><trkpt lat="37.8133884" lon="15.1686742"><ele>395.0</ele><time>2026-04-24T16:45:31.057Z</time></trkpt><trkpt lat="37.8133976" lon="15.1685244"><ele>395.0</ele><time>2026-04-24T16:45:32.057Z</time></trkpt><trkpt lat="37.8134054" lon="15.1683722"><ele>395.0</ele><time>2026-04-24T16:45:33.057Z</time></trkpt><trkpt lat="37.8134139" lon="15.1682226"><ele>395.8</ele><time>2026-04-24T16:45:34.057Z</time></trkpt><trkpt lat="37.8134236" lon="15.1680786"><ele>396.6</ele><time>2026-04-24T16:45:35.057Z</time></trkpt><trkpt lat="37.8134354" lon="15.1679378"><ele>397.4</ele><time>2026-04-24T16:45:36.057Z</time></trkpt><trkpt lat="37.8134441" lon="15.1678001"><ele>398.2</ele><time>2026-04-24T16:45:37.057Z</time></trkpt><trkpt lat="37.8134501" lon="15.1676674"><ele>399.0</ele><time>2026-04-24T16:45:38.057Z</time></trkpt><trkpt lat="37.8134546" lon="15.167539"><ele>399.0</ele><time>2026-04-24T16:45:39.057Z</time></trkpt><trkpt lat="37.8134576" lon="15.1674155"><ele>399.0</ele><time>2026-04-24T16:45:40.057Z</time></trkpt><trkpt lat="37.8134575" lon="15.1672919"><ele>399.0</ele><time>2026-04-24T16:45:41.058Z</time></trkpt><trkpt lat="37.8134636" lon="15.1671617"><ele>399.0</ele><time>2026-04-24T16:45:42.058Z</time></trkpt><trkpt lat="37.8134753" lon="15.1670169"><ele>399.0</ele><time>2026-04-24T16:45:43.057Z</time></trkpt><trkpt lat="37.8134909" lon="15.1668596"><ele>401.0</ele><time>2026-04-24T16:45:44.057Z</time></trkpt><trkpt lat="37.8135051" lon="15.1666935"><ele>403.0</ele><time>2026-04-24T16:45:45.057Z</time></trkpt><trkpt lat="37.8135151" lon="15.166529"><ele>405.0</ele><time>2026-04-24T16:45:46.057Z</time></trkpt><trkpt lat="37.8135236" lon="15.1663641"><ele>407.0</ele><time>2026-04-24T16:45:47.057Z</time></trkpt><trkpt lat="37.8135328" lon="15.1662029"><ele>408.25</ele><time>2026-04-24T16:45:48.057Z</time></trkpt><trkpt lat="37.8135424" lon="15.1660417"><ele>409.5</ele><time>2026-04-24T16:45:49.057Z</time></trkpt><trkpt lat="37.8135522" lon="15.1658823"><ele>410.75</ele><time>2026-04-24T16:45:50.058Z</time></trkpt><trkpt lat="37.8135631" lon="15.1657238"><ele>412.0</ele><time>2026-04-24T16:45:51.057Z</time></trkpt><trkpt lat="37.8135747" lon="15.1655652"><ele>412.25</ele><time>2026-04-24T16:45:52.057Z</time></trkpt><trkpt lat="37.8135857" lon="15.1654072"><ele>412.5</ele><time>2026-04-24T16:45:53.057Z</time></trkpt><trkpt lat="37.8135941" lon="15.1652488"><ele>412.75</ele><time>2026-04-24T16:45:54.058Z</time></trkpt><trkpt lat="37.8136049" lon="15.1650854"><ele>413.0</ele><time>2026-04-24T16:45:55.057Z</time></trkpt><trkpt lat="37.8136123" lon="15.1649219"><ele>414.25</ele><time>2026-04-24T16:45:56.057Z</time></trkpt><trkpt lat="37.8136228" lon="15.1647567"><ele>415.5</ele><time>2026-04-24T16:45:57.057Z</time></trkpt><trkpt lat="37.8136318" lon="15.1645972"><ele>416.75</ele><time>2026-04-24T16:45:58.057Z</time></trkpt><trkpt lat="37.8136415" lon="15.1644406"><ele>418.0</ele><time>2026-04-24T16:45:59.057Z</time></trkpt><trkpt lat="37.8136543" lon="15.1642868"><ele>418.0</ele><time>2026-04-24T16:46:00.057Z</time></trkpt><trkpt lat="37.8136725" lon="15.1641395"><ele>418.0</ele><time>2026-04-24T16:46:01.057Z</time></trkpt><trkpt lat="37.8137053" lon="15.1639979"><ele>418.0</ele><time>2026-04-24T16:46:02.058Z</time></trkpt><trkpt lat="37.8137541" lon="15.1638591"><ele>418.0</ele><time>2026-04-24T16:46:03.057Z</time></trkpt><trkpt lat="37.8138102" lon="15.1637234"><ele>418.2</ele><time>2026-04-24T16:46:04.057Z</time></trkpt><trkpt lat="37.8138664" lon="15.1635838"><ele>418.4</ele><time>2026-04-24T16:46:05.058Z</time></trkpt><trkpt lat="37.8139194" lon="15.1634513"><ele>418.59999999999997</ele><time>2026-04-24T16:46:06.057Z</time></trkpt><trkpt lat="37.8139609" lon="15.1633297"><ele>418.79999999999995</ele><time>2026-04-24T16:46:07.057Z</time></trkpt><trkpt lat="37.813993" lon="15.1632185"><ele>419.0</ele><time>2026-04-24T16:46:08.057Z</time></trkpt><trkpt lat="37.814021" lon="15.1631085"><ele>419.3333333333333</ele><time>2026-04-24T16:46:09.058Z</time></trkpt><trkpt lat="37.8140481" lon="15.1629989"><ele>419.66666666666663</ele><time>2026-04-24T16:46:10.057Z</time></trkpt><trkpt lat="37.8140737" lon="15.1628827"><ele>420.0</ele><time>2026-04-24T16:46:11.057Z</time></trkpt><trkpt lat="37.8140991" lon="15.1627687"><ele>420.33333333333337</ele><time>2026-04-24T16:46:12.058Z</time></trkpt><trkpt lat="37.8141217" lon="15.1626653"><ele>420.6666666666667</ele><time>2026-04-24T16:46:13.057Z</time></trkpt><trkpt lat="37.8141435" lon="15.1625731"><ele>421.0</ele><time>2026-04-24T16:46:14.057Z</time></trkpt><trkpt lat="37.8141632" lon="15.1624808"><ele>421.0</ele><time>2026-04-24T16:46:15.057Z</time></trkpt><trkpt lat="37.8141912" lon="15.1623873"><ele>421.0</ele><time>2026-04-24T16:46:16.058Z</time></trkpt><trkpt lat="37.8142365" lon="15.1623009"><ele>421.0</ele><time>2026-04-24T16:46:17.058Z</time></trkpt><trkpt lat="37.8143027" lon="15.1622219"><ele>421.0</ele><time>2026-04-24T16:46:18.057Z</time></trkpt><trkpt lat="37.8143823" lon="15.162146"><ele>421.0</ele><time>2026-04-24T16:46:19.057Z</time></trkpt><trkpt lat="37.8144683" lon="15.162069"><ele>423.8</ele><time>2026-04-24T16:46:20.058Z</time></trkpt><trkpt lat="37.8145556" lon="15.1619872"><ele>426.6</ele><time>2026-04-24T16:46:21.057Z</time></trkpt><trkpt lat="37.8146467" lon="15.1619057"><ele>429.4</ele><time>2026-04-24T16:46:22.058Z</time></trkpt><trkpt lat="37.8147442" lon="15.1618356"><ele>432.2</ele><time>2026-04-24T16:46:23.057Z</time></trkpt><trkpt lat="37.8148493" lon="15.1617822"><ele>435.0</ele><time>2026-04-24T16:46:24.058Z</time></trkpt><trkpt lat="37.8149608" lon="15.1617342"><ele>435.0</ele><time>2026-04-24T16:46:25.057Z</time></trkpt><trkpt lat="37.8150778" lon="15.1616879"><ele>435.0</ele><time>2026-04-24T16:46:26.057Z</time></trkpt><trkpt lat="37.8151966" lon="15.1616435"><ele>435.0</ele><time>2026-04-24T16:46:27.057Z</time></trkpt><trkpt lat="37.8153159" lon="15.1616041"><ele>435.0</ele><time>2026-04-24T16:46:28.057Z</time></trkpt><trkpt lat="37.8154369" lon="15.1615883"><ele>436.5</ele><time>2026-04-24T16:46:29.057Z</time></trkpt><trkpt lat="37.8155554" lon="15.1616027"><ele>438.0</ele><time>2026-04-24T16:46:30.057Z</time></trkpt><trkpt lat="37.8156748" lon="15.1616504"><ele>439.5</ele><time>2026-04-24T16:46:31.058Z</time></trkpt><trkpt lat="37.8157936" lon="15.1617118"><ele>441.0</ele><time>2026-04-24T16:46:32.057Z</time></trkpt><trkpt lat="37.8159173" lon="15.1617703"><ele>441.75</ele><time>2026-04-24T16:46:33.057Z</time></trkpt><trkpt lat="37.8160452" lon="15.1618117"><ele>442.5</ele><time>2026-04-24T16:46:34.057Z</time></trkpt><trkpt lat="37.8161759" lon="15.161829"><ele>443.25</ele><time>2026-04-24T16:46:35.058Z</time></trkpt><trkpt lat="37.8163087" lon="15.1618195"><ele>444.0</ele><time>2026-04-24T16:46:36.058Z</time></trkpt><trkpt lat="37.8164428" lon="15.1617932"><ele>444.0</ele><time>2026-04-24T16:46:37.057Z</time></trkpt><trkpt lat="37.816572" lon="15.1617652"><ele>444.0</ele><time>2026-04-24T16:46:38.058Z</time></trkpt><trkpt lat="37.8166921" lon="15.1617333"><ele>444.0</ele><time>2026-04-24T16:46:39.058Z</time></trkpt><trkpt lat="37.8168016" lon="15.1616956"><ele>444.0</ele><time>2026-04-24T16:46:40.058Z</time></trkpt><trkpt lat="37.8168989" lon="15.1616389"><ele>444.0</ele><time>2026-04-24T16:46:41.057Z</time></trkpt><trkpt lat="37.8169877" lon="15.1615587"><ele>444.0</ele><time>2026-04-24T16:46:42.058Z</time></trkpt><trkpt lat="37.8170638" lon="15.1614463"><ele>444.0</ele><time>2026-04-24T16:46:43.058Z</time></trkpt><trkpt lat="37.8171304" lon="15.1613127"><ele>444.0</ele><time>2026-04-24T16:46:44.058Z</time></trkpt><trkpt lat="37.8171942" lon="15.1611657"><ele>445.25</ele><time>2026-04-24T16:46:45.058Z</time></trkpt><trkpt lat="37.8172648" lon="15.1610113"><ele>446.5</ele><time>2026-04-24T16:46:46.057Z</time></trkpt><trkpt lat="37.8173372" lon="15.1608588"><ele>447.75</ele><time>2026-04-24T16:46:47.058Z</time></trkpt><trkpt lat="37.8174134" lon="15.1607022"><ele>449.0</ele><time>2026-04-24T16:46:48.057Z</time></trkpt><trkpt lat="37.8174954" lon="15.1605435"><ele>451.0</ele><time>2026-04-24T16:46:49.057Z</time></trkpt><trkpt lat="37.8175837" lon="15.1603827"><ele>453.0</ele><time>2026-04-24T16:46:50.057Z</time></trkpt><trkpt lat="37.817676" lon="15.1602209"><ele>455.0</ele><time>2026-04-24T16:46:51.057Z</time></trkpt><trkpt lat="37.8177702" lon="15.160057"><ele>456.3333333333333</ele><time>2026-04-24T16:46:52.057Z</time></trkpt><trkpt lat="37.8178651" lon="15.15989"><ele>457.66666666666663</ele><time>2026-04-24T16:46:53.057Z</time></trkpt><trkpt lat="37.8179537" lon="15.1597302"><ele>459.0</ele><time>2026-04-24T16:46:54.057Z</time></trkpt><trkpt lat="37.8180426" lon="15.1595827"><ele>459.25</ele><time>2026-04-24T16:46:55.058Z</time></trkpt><trkpt lat="37.8181341" lon="15.1594553"><ele>459.5</ele><time>2026-04-24T16:46:56.057Z</time></trkpt><trkpt lat="37.8182358" lon="15.1593463"><ele>459.75</ele><time>2026-04-24T16:46:57.057Z</time></trkpt><trkpt lat="37.8183513" lon="15.1592586"><ele>460.0</ele><time>2026-04-24T16:46:58.057Z</time></trkpt><trkpt lat="37.818483" lon="15.1591963"><ele>460.33333333333337</ele><time>2026-04-24T16:46:59.057Z</time></trkpt><trkpt lat="37.8186257" lon="15.1591533"><ele>460.66666666666663</ele><time>2026-04-24T16:47:00.057Z</time></trkpt><trkpt lat="37.8187745" lon="15.1591192"><ele>461.0</ele><time>2026-04-24T16:47:01.058Z</time></trkpt><trkpt lat="37.8189303" lon="15.1590829"><ele>461.0</ele><time>2026-04-24T16:47:02.057Z</time></trkpt><trkpt lat="37.8190883" lon="15.1590354"><ele>461.0</ele><time>2026-04-24T16:47:03.057Z</time></trkpt><trkpt lat="37.8192452" lon="15.1589803"><ele>461.0</ele><time>2026-04-24T16:47:04.057Z</time></trkpt><trkpt lat="37.8194031" lon="15.1589293"><ele>463.0</ele><time>2026-04-24T16:47:05.058Z</time></trkpt><trkpt lat="37.8195521" lon="15.1588811"><ele>465.0</ele><time>2026-04-24T16:47:06.058Z</time></trkpt><trkpt lat="37.819689" lon="15.1588371"><ele>467.0</ele><time>2026-04-24T16:47:07.058Z</time></trkpt><trkpt lat="37.8198144" lon="15.1587929"><ele>469.0</ele><time>2026-04-24T16:47:08.057Z</time></trkpt><trkpt lat="37.8199305" lon="15.1587446"><ele>469.0</ele><time>2026-04-24T16:47:09.057Z</time></trkpt><trkpt lat="37.8200426" lon="15.1586913"><ele>469.0</ele><time>2026-04-24T16:47:10.057Z</time></trkpt><trkpt lat="37.8201426" lon="15.1586333"><ele>469.0</ele><time>2026-04-24T16:47:11.058Z</time></trkpt><trkpt lat="37.8202306" lon="15.1585781"><ele>469.0</ele><time>2026-04-24T16:47:12.058Z</time></trkpt><trkpt lat="37.8203087" lon="15.1585197"><ele>469.0</ele><time>2026-04-24T16:47:13.057Z</time></trkpt><trkpt lat="37.820383" lon="15.1584639"><ele>469.6</ele><time>2026-04-24T16:47:14.057Z</time></trkpt><trkpt lat="37.8204544" lon="15.1584075"><ele>470.2</ele><time>2026-04-24T16:47:15.057Z</time></trkpt><trkpt lat="37.8205317" lon="15.1583475"><ele>470.80000000000007</ele><time>2026-04-24T16:47:16.057Z</time></trkpt><trkpt lat="37.820618" lon="15.1582823"><ele>471.40000000000003</ele><time>2026-04-24T16:47:17.058Z</time></trkpt><trkpt lat="37.8207142" lon="15.158209"><ele>472.0</ele><time>2026-04-24T16:47:18.057Z</time></trkpt><trkpt lat="37.820821" lon="15.158131"><ele>472.5</ele><time>2026-04-24T16:47:19.057Z</time></trkpt><trkpt lat="37.8209369" lon="15.158046"><ele>473.0</ele><time>2026-04-24T16:47:20.058Z</time></trkpt><trkpt lat="37.8210609" lon="15.1579554"><ele>473.5</ele><time>2026-04-24T16:47:21.057Z</time></trkpt><trkpt lat="37.82119" lon="15.1578625"><ele>474.0</ele><time>2026-04-24T16:47:22.057Z</time></trkpt><trkpt lat="37.8213231" lon="15.1577691"><ele>475.33333333333337</ele><time>2026-04-24T16:47:23.057Z</time></trkpt><trkpt lat="37.8214626" lon="15.1576733"><ele>476.6666666666667</ele><time>2026-04-24T16:47:24.057Z</time></trkpt><trkpt lat="37.8216054" lon="15.1575819"><ele>478.0</ele><time>2026-04-24T16:47:25.057Z</time></trkpt><trkpt lat="37.8217408" lon="15.1574986"><ele>479.0</ele><time>2026-04-24T16:47:26.057Z</time></trkpt><trkpt lat="37.821867" lon="15.1574197"><ele>480.0</ele><time>2026-04-24T16:47:27.057Z</time></trkpt><trkpt lat="37.8219855" lon="15.1573462"><ele>481.0</ele><time>2026-04-24T16:47:28.057Z</time></trkpt><trkpt lat="37.8220948" lon="15.157267"><ele>482.0</ele><time>2026-04-24T16:47:29.057Z</time></trkpt><trkpt lat="37.8221895" lon="15.15717"><ele>482.75</ele><time>2026-04-24T16:47:30.057Z</time></trkpt><trkpt lat="37.8222739" lon="15.1570495"><ele>483.5</ele><time>2026-04-24T16:47:31.057Z</time></trkpt><trkpt lat="37.8223572" lon="15.1569138"><ele>484.25</ele><time>2026-04-24T16:47:32.057Z</time></trkpt><trkpt lat="37.8224427" lon="15.1567691"><ele>485.0</ele><time>2026-04-24T16:47:33.058Z</time></trkpt><trkpt lat="37.8225318" lon="15.1566239"><ele>485.75</ele><time>2026-04-24T16:47:34.057Z</time></trkpt><trkpt lat="37.8226206" lon="15.1564739"><ele>486.5</ele><time>2026-04-24T16:47:35.057Z</time></trkpt><trkpt lat="37.8227042" lon="15.1563237"><ele>487.25</ele><time>2026-04-24T16:47:36.057Z</time></trkpt><trkpt lat="37.8227812" lon="15.1561741"><ele>488.0</ele><time>2026-04-24T16:47:37.057Z</time></trkpt><trkpt lat="37.8228479" lon="15.1560172"><ele>488.0</ele><time>2026-04-24T16:47:38.058Z</time></trkpt><trkpt lat="37.8229015" lon="15.1558546"><ele>488.0</ele><time>2026-04-24T16:47:39.057Z</time></trkpt><trkpt lat="37.8229388" lon="15.1556837"><ele>488.0</ele><time>2026-04-24T16:47:40.057Z</time></trkpt><trkpt lat="37.8229639" lon="15.1555031"><ele>488.0</ele><time>2026-04-24T16:47:41.057Z</time></trkpt><trkpt lat="37.8229802" lon="15.1553227"><ele>488.25</ele><time>2026-04-24T16:47:42.058Z</time></trkpt><trkpt lat="37.822997" lon="15.1551541"><ele>488.5</ele><time>2026-04-24T16:47:43.057Z</time></trkpt><trkpt lat="37.8230103" lon="15.1549947"><ele>488.75</ele><time>2026-04-24T16:47:44.057Z</time></trkpt><trkpt lat="37.8230234" lon="15.1548408"><ele>489.0</ele><time>2026-04-24T16:47:45.057Z</time></trkpt><trkpt lat="37.8230372" lon="15.1546943"><ele>490.0</ele><time>2026-04-24T16:47:46.057Z</time></trkpt><trkpt lat="37.8230549" lon="15.1545442"><ele>491.0</ele><time>2026-04-24T16:47:47.058Z</time></trkpt><trkpt lat="37.8230752" lon="15.1543824"><ele>492.0</ele><time>2026-04-24T16:47:48.057Z</time></trkpt><trkpt lat="37.8230931" lon="15.1542096"><ele>493.0</ele><time>2026-04-24T16:47:49.057Z</time></trkpt><trkpt lat="37.8231085" lon="15.1540294"><ele>493.75</ele><time>2026-04-24T16:47:50.058Z</time></trkpt><trkpt lat="37.8231273" lon="15.1538472"><ele>494.5</ele><time>2026-04-24T16:47:51.057Z</time></trkpt><trkpt lat="37.8231466" lon="15.1536644"><ele>495.25</ele><time>2026-04-24T16:47:52.057Z</time></trkpt><trkpt lat="37.8231635" lon="15.153493"><ele>496.0</ele><time>2026-04-24T16:47:53.057Z</time></trkpt><trkpt lat="37.823181" lon="15.1533342"><ele>495.5</ele><time>2026-04-24T16:47:54.057Z</time></trkpt><trkpt lat="37.8231997" lon="15.1531841"><ele>495.0</ele><time>2026-04-24T16:47:55.058Z</time></trkpt><trkpt lat="37.8232247" lon="15.1530399"><ele>494.5</ele><time>2026-04-24T16:47:56.057Z</time></trkpt><trkpt lat="37.8232639" lon="15.1529052"><ele>494.0</ele><time>2026-04-24T16:47:57.057Z</time></trkpt><trkpt lat="37.8233216" lon="15.1527752"><ele>494.0</ele><time>2026-04-24T16:47:58.057Z</time></trkpt><trkpt lat="37.8233853" lon="15.1526455"><ele>494.0</ele><time>2026-04-24T16:47:59.057Z</time></trkpt><trkpt lat="37.8234485" lon="15.1525159"><ele>494.0</ele><time>2026-04-24T16:48:00.058Z</time></trkpt><trkpt lat="37.8235086" lon="15.1523848"><ele>494.0</ele><time>2026-04-24T16:48:01.057Z</time></trkpt><trkpt lat="37.8235676" lon="15.1522622"><ele>493.79999999999995</ele><time>2026-04-24T16:48:02.058Z</time></trkpt><trkpt lat="37.8236256" lon="15.1521454"><ele>493.59999999999997</ele><time>2026-04-24T16:48:03.058Z</time></trkpt><trkpt lat="37.823678" lon="15.1520351"><ele>493.4</ele><time>2026-04-24T16:48:04.057Z</time></trkpt><trkpt lat="37.8237255" lon="15.151934"><ele>493.2</ele><time>2026-04-24T16:48:05.058Z</time></trkpt><trkpt lat="37.8237693" lon="15.151837"><ele>493.0</ele><time>2026-04-24T16:48:06.057Z</time></trkpt><trkpt lat="37.8238157" lon="15.1517462"><ele>493.0</ele><time>2026-04-24T16:48:07.058Z</time></trkpt><trkpt lat="37.8238658" lon="15.1516463"><ele>492.99999999999994</ele><time>2026-04-24T16:48:08.057Z</time></trkpt><trkpt lat="37.8239217" lon="15.1515351"><ele>492.99999999999994</ele><time>2026-04-24T16:48:09.057Z</time></trkpt><trkpt lat="37.8239858" lon="15.1514094"><ele>493.0</ele><time>2026-04-24T16:48:10.057Z</time></trkpt><trkpt lat="37.8240555" lon="15.1512747"><ele>493.0</ele><time>2026-04-24T16:48:11.057Z</time></trkpt><trkpt lat="37.8241256" lon="15.1511334"><ele>493.75</ele><time>2026-04-24T16:48:12.057Z</time></trkpt><trkpt lat="37.8241984" lon="15.1509852"><ele>494.5</ele><time>2026-04-24T16:48:13.058Z</time></trkpt><trkpt lat="37.8242753" lon="15.1508353"><ele>495.25</ele><time>2026-04-24T16:48:14.057Z</time></trkpt><trkpt lat="37.8243524" lon="15.1506821"><ele>496.0</ele><time>2026-04-24T16:48:15.057Z</time></trkpt><trkpt lat="37.8244263" lon="15.1505294"><ele>496.25</ele><time>2026-04-24T16:48:16.057Z</time></trkpt><trkpt lat="37.8244981" lon="15.150376"><ele>496.5</ele><time>2026-04-24T16:48:17.058Z</time></trkpt><trkpt lat="37.8245705" lon="15.1502275"><ele>496.75</ele><time>2026-04-24T16:48:18.058Z</time></trkpt><trkpt lat="37.8246417" lon="15.1500808"><ele>497.0</ele><time>2026-04-24T16:48:19.057Z</time></trkpt><trkpt lat="37.8247137" lon="15.1499332"><ele>497.25</ele><time>2026-04-24T16:48:20.058Z</time></trkpt><trkpt lat="37.8247864" lon="15.1497909"><ele>497.5</ele><time>2026-04-24T16:48:21.057Z</time></trkpt><trkpt lat="37.8248626" lon="15.1496494"><ele>497.75</ele><time>2026-04-24T16:48:22.057Z</time></trkpt><trkpt lat="37.8249435" lon="15.1495141"><ele>498.0</ele><time>2026-04-24T16:48:23.057Z</time></trkpt><trkpt lat="37.8250372" lon="15.1493951"><ele>498.0</ele><time>2026-04-24T16:48:24.057Z</time></trkpt><trkpt lat="37.825138" lon="15.1492839"><ele>498.0</ele><time>2026-04-24T16:48:25.058Z</time></trkpt><trkpt lat="37.825244" lon="15.1491785"><ele>498.0</ele><time>2026-04-24T16:48:26.057Z</time></trkpt><trkpt lat="37.8253501" lon="15.1490749"><ele>498.0</ele><time>2026-04-24T16:48:27.058Z</time></trkpt><trkpt lat="37.8254582" lon="15.1489661"><ele>498.25</ele><time>2026-04-24T16:48:28.057Z</time></trkpt><trkpt lat="37.8255696" lon="15.1488549"><ele>498.5</ele><time>2026-04-24T16:48:29.058Z</time></trkpt><trkpt lat="37.8256817" lon="15.1487414"><ele>498.75</ele><time>2026-04-24T16:48:30.058Z</time></trkpt><trkpt lat="37.8257958" lon="15.1486262"><ele>499.0</ele><time>2026-04-24T16:48:31.058Z</time></trkpt><trkpt lat="37.8259104" lon="15.1485046"><ele>498.6666666666667</ele><time>2026-04-24T16:48:32.058Z</time></trkpt><trkpt lat="37.8260256" lon="15.1483813"><ele>498.33333333333337</ele><time>2026-04-24T16:48:33.057Z</time></trkpt><trkpt lat="37.8261457" lon="15.1482611"><ele>498.0</ele><time>2026-04-24T16:48:34.058Z</time></trkpt><trkpt lat="37.8262644" lon="15.1481395"><ele>498.0</ele><time>2026-04-24T16:48:35.057Z</time></trkpt><trkpt lat="37.8263827" lon="15.1480166"><ele>498.0</ele><time>2026-04-24T16:48:36.058Z</time></trkpt><trkpt lat="37.8265022" lon="15.1478937"><ele>498.0</ele><time>2026-04-24T16:48:37.058Z</time></trkpt><trkpt lat="37.826622" lon="15.1477707"><ele>498.0</ele><time>2026-04-24T16:48:38.057Z</time></trkpt><trkpt lat="37.8267402" lon="15.1476412"><ele>498.0</ele><time>2026-04-24T16:48:39.057Z</time></trkpt><trkpt lat="37.8268544" lon="15.1475096"><ele>498.0</ele><time>2026-04-24T16:48:40.058Z</time></trkpt><trkpt lat="37.8269648" lon="15.1473727"><ele>498.66666666666663</ele><time>2026-04-24T16:48:41.058Z</time></trkpt><trkpt lat="37.8270763" lon="15.1472365"><ele>499.3333333333333</ele><time>2026-04-24T16:48:42.057Z</time></trkpt><trkpt lat="37.8271884" lon="15.1471034"><ele>500.0</ele><time>2026-04-24T16:48:43.057Z</time></trkpt><trkpt lat="37.8273057" lon="15.1469771"><ele>500.0</ele><time>2026-04-24T16:48:44.057Z</time></trkpt><trkpt lat="37.8274298" lon="15.1468696"><ele>500.0</ele><time>2026-04-24T16:48:45.057Z</time></trkpt><trkpt lat="37.8275585" lon="15.1467768"><ele>500.0</ele><time>2026-04-24T16:48:46.057Z</time></trkpt><trkpt lat="37.8276939" lon="15.146693"><ele>500.0</ele><time>2026-04-24T16:48:47.058Z</time></trkpt><trkpt lat="37.8278307" lon="15.1466067"><ele>501.66666666666663</ele><time>2026-04-24T16:48:48.058Z</time></trkpt><trkpt lat="37.8279676" lon="15.1465096"><ele>503.33333333333337</ele><time>2026-04-24T16:48:49.058Z</time></trkpt><trkpt lat="37.8281" lon="15.146401"><ele>505.0</ele><time>2026-04-24T16:48:50.058Z</time></trkpt><trkpt lat="37.8282324" lon="15.146284"><ele>505.0</ele><time>2026-04-24T16:48:51.058Z</time></trkpt><trkpt lat="37.8283654" lon="15.14617"><ele>505.0</ele><time>2026-04-24T16:48:52.058Z</time></trkpt><trkpt lat="37.8285057" lon="15.1460626"><ele>505.0</ele><time>2026-04-24T16:48:53.057Z</time></trkpt><trkpt lat="37.8286535" lon="15.1459647"><ele>504.5</ele><time>2026-04-24T16:48:54.057Z</time></trkpt><trkpt lat="37.828971" lon="15.1457892"><ele>504.0</ele><time>2026-04-24T16:48:56.058Z</time></trkpt><trkpt lat="37.8291375" lon="15.1457063"><ele>506.33333333333337</ele><time>2026-04-24T16:48:57.057Z</time></trkpt><trkpt lat="37.8293058" lon="15.1456242"><ele>508.6666666666667</ele><time>2026-04-24T16:48:58.058Z</time></trkpt><trkpt lat="37.8294702" lon="15.1455369"><ele>511.0</ele><time>2026-04-24T16:48:59.057Z</time></trkpt><trkpt lat="37.8296257" lon="15.1454424"><ele>511.0</ele><time>2026-04-24T16:49:00.058Z</time></trkpt><trkpt lat="37.8297727" lon="15.1453494"><ele>511.0</ele><time>2026-04-24T16:49:01.057Z</time></trkpt><trkpt lat="37.8299154" lon="15.1452645"><ele>511.0</ele><time>2026-04-24T16:49:02.057Z</time></trkpt><trkpt lat="37.8300571" lon="15.1451883"><ele>512.6666666666667</ele><time>2026-04-24T16:49:03.057Z</time></trkpt><trkpt lat="37.8301988" lon="15.1451203"><ele>514.3333333333334</ele><time>2026-04-24T16:49:04.058Z</time></trkpt><trkpt lat="37.8303438" lon="15.1450647"><ele>516.0</ele><time>2026-04-24T16:49:05.057Z</time></trkpt><trkpt lat="37.8304922" lon="15.1450217"><ele>516.0</ele><time>2026-04-24T16:49:06.058Z</time></trkpt><trkpt lat="37.8306427" lon="15.1449863"><ele>516.0</ele><time>2026-04-24T16:49:07.057Z</time></trkpt><trkpt lat="37.8307925" lon="15.144953"><ele>516.0</ele><time>2026-04-24T16:49:08.057Z</time></trkpt><trkpt lat="37.830936" lon="15.1449169"><ele>515.5</ele><time>2026-04-24T16:49:09.058Z</time></trkpt><trkpt lat="37.83107" lon="15.1448804"><ele>515.0</ele><time>2026-04-24T16:49:10.057Z</time></trkpt><trkpt lat="37.8311955" lon="15.1448442"><ele>514.5</ele><time>2026-04-24T16:49:11.057Z</time></trkpt><trkpt lat="37.8313193" lon="15.1448091"><ele>514.0</ele><time>2026-04-24T16:49:12.057Z</time></trkpt><trkpt lat="37.8314464" lon="15.144771"><ele>514.0</ele><time>2026-04-24T16:49:13.058Z</time></trkpt><trkpt lat="37.8315791" lon="15.1447266"><ele>514.0</ele><time>2026-04-24T16:49:14.057Z</time></trkpt><trkpt lat="37.8317199" lon="15.1446765"><ele>514.0</ele><time>2026-04-24T16:49:15.057Z</time></trkpt><trkpt lat="37.8318719" lon="15.1446187"><ele>514.0</ele><time>2026-04-24T16:49:16.057Z</time></trkpt><trkpt lat="37.8320218" lon="15.1445663"><ele>514.0</ele><time>2026-04-24T16:49:17.058Z</time></trkpt><trkpt lat="37.8321667" lon="15.1445178"><ele>514.0</ele><time>2026-04-24T16:49:18.057Z</time></trkpt><trkpt lat="37.832303" lon="15.1444733"><ele>514.0</ele><time>2026-04-24T16:49:19.058Z</time></trkpt><trkpt lat="37.8324333" lon="15.1444336"><ele>514.0</ele><time>2026-04-24T16:49:20.058Z</time></trkpt><trkpt lat="37.8325569" lon="15.1444058"><ele>513.75</ele><time>2026-04-24T16:49:21.057Z</time></trkpt><trkpt lat="37.8326779" lon="15.1443939"><ele>513.5</ele><time>2026-04-24T16:49:22.057Z</time></trkpt><trkpt lat="37.8327928" lon="15.1444075"><ele>513.25</ele><time>2026-04-24T16:49:23.058Z</time></trkpt><trkpt lat="37.8329039" lon="15.1444438"><ele>513.0</ele><time>2026-04-24T16:49:24.058Z</time></trkpt><trkpt lat="37.833016" lon="15.1444814"><ele>513.0</ele><time>2026-04-24T16:49:25.057Z</time></trkpt><trkpt lat="37.8331353" lon="15.14449"><ele>513.0</ele><time>2026-04-24T16:49:26.058Z</time></trkpt><trkpt lat="37.8332588" lon="15.1444644"><ele>513.0</ele><time>2026-04-24T16:49:27.058Z</time></trkpt><trkpt lat="37.8333875" lon="15.1444177"><ele>513.0</ele><time>2026-04-24T16:49:28.058Z</time></trkpt><trkpt lat="37.8335229" lon="15.1443648"><ele>514.25</ele><time>2026-04-24T16:49:29.057Z</time></trkpt><trkpt lat="37.8336605" lon="15.144323"><ele>515.5</ele><time>2026-04-24T16:49:30.058Z</time></trkpt><trkpt lat="37.8337971" lon="15.1442837"><ele>516.75</ele><time>2026-04-24T16:49:31.058Z</time></trkpt><trkpt lat="37.833929" lon="15.1442486"><ele>518.0</ele><time>2026-04-24T16:49:32.057Z</time></trkpt><trkpt lat="37.8340536" lon="15.1442126"><ele>518.0</ele><time>2026-04-24T16:49:33.057Z</time></trkpt><trkpt lat="37.8341758" lon="15.1441697"><ele>518.0</ele><time>2026-04-24T16:49:34.058Z</time></trkpt><trkpt lat="37.8342976" lon="15.1441263"><ele>518.0</ele><time>2026-04-24T16:49:35.057Z</time></trkpt><trkpt lat="37.8344179" lon="15.1440786"><ele>518.0</ele><time>2026-04-24T16:49:36.057Z</time></trkpt><trkpt lat="37.8345364" lon="15.1440206"><ele>518.75</ele><time>2026-04-24T16:49:37.058Z</time></trkpt><trkpt lat="37.8346518" lon="15.1439513"><ele>519.5</ele><time>2026-04-24T16:49:38.057Z</time></trkpt><trkpt lat="37.8347639" lon="15.1438788"><ele>520.25</ele><time>2026-04-24T16:49:39.057Z</time></trkpt><trkpt lat="37.8348736" lon="15.1438156"><ele>521.0</ele><time>2026-04-24T16:49:40.058Z</time></trkpt><trkpt lat="37.8349849" lon="15.1437674"><ele>521.0</ele><time>2026-04-24T16:49:41.058Z</time></trkpt><trkpt lat="37.8350969" lon="15.1437329"><ele>521.0</ele><time>2026-04-24T16:49:42.058Z</time></trkpt><trkpt lat="37.83521" lon="15.1437111"><ele>521.0</ele><time>2026-04-24T16:49:43.057Z</time></trkpt><trkpt lat="37.835326" lon="15.1437001"><ele>521.0</ele><time>2026-04-24T16:49:44.057Z</time></trkpt><trkpt lat="37.8354431" lon="15.1437067"><ele>522.0</ele><time>2026-04-24T16:49:45.057Z</time></trkpt><trkpt lat="37.8355584" lon="15.1437273"><ele>523.0</ele><time>2026-04-24T16:49:46.057Z</time></trkpt><trkpt lat="37.8356735" lon="15.1437573"><ele>524.0</ele><time>2026-04-24T16:49:47.058Z</time></trkpt><trkpt lat="37.8357892" lon="15.1437854"><ele>525.0</ele><time>2026-04-24T16:49:48.057Z</time></trkpt><trkpt lat="37.8359036" lon="15.1438146"><ele>525.6</ele><time>2026-04-24T16:49:49.057Z</time></trkpt><trkpt lat="37.8360133" lon="15.1438504"><ele>526.2</ele><time>2026-04-24T16:49:50.057Z</time></trkpt><trkpt lat="37.8361208" lon="15.1438967"><ele>526.8</ele><time>2026-04-24T16:49:51.058Z</time></trkpt><trkpt lat="37.8362225" lon="15.1439535"><ele>527.4</ele><time>2026-04-24T16:49:52.057Z</time></trkpt><trkpt lat="37.8363114" lon="15.1440199"><ele>528.0</ele><time>2026-04-24T16:49:53.057Z</time></trkpt><trkpt lat="37.8363933" lon="15.1440897"><ele>528.0</ele><time>2026-04-24T16:49:54.057Z</time></trkpt><trkpt lat="37.8364728" lon="15.1441552"><ele>528.0</ele><time>2026-04-24T16:49:55.058Z</time></trkpt><trkpt lat="37.8365484" lon="15.1442161"><ele>528.0</ele><time>2026-04-24T16:49:56.057Z</time></trkpt><trkpt lat="37.8366262" lon="15.14428"><ele>528.0</ele><time>2026-04-24T16:49:57.058Z</time></trkpt><trkpt lat="37.836704" lon="15.1443441"><ele>528.0</ele><time>2026-04-24T16:49:58.058Z</time></trkpt><trkpt lat="37.8367786" lon="15.1444148"><ele>529.0</ele><time>2026-04-24T16:49:59.057Z</time></trkpt><trkpt lat="37.8368538" lon="15.1444791"><ele>530.0</ele><time>2026-04-24T16:50:00.058Z</time></trkpt><trkpt lat="37.8369316" lon="15.1445398"><ele>531.0</ele><time>2026-04-24T16:50:01.057Z</time></trkpt><trkpt lat="37.8370079" lon="15.1446009"><ele>532.0</ele><time>2026-04-24T16:50:02.058Z</time></trkpt><trkpt lat="37.8370866" lon="15.144653"><ele>533.0</ele><time>2026-04-24T16:50:03.057Z</time></trkpt><trkpt lat="37.8371684" lon="15.1446989"><ele>533.0</ele><time>2026-04-24T16:50:04.058Z</time></trkpt><trkpt lat="37.8372542" lon="15.1447307"><ele>533.0</ele><time>2026-04-24T16:50:05.057Z</time></trkpt><trkpt lat="37.8373387" lon="15.1447541"><ele>533.0</ele><time>2026-04-24T16:50:06.058Z</time></trkpt><trkpt lat="37.8374256" lon="15.144767"><ele>533.0</ele><time>2026-04-24T16:50:07.057Z</time></trkpt><trkpt lat="37.8375161" lon="15.1447706"><ele>533.0</ele><time>2026-04-24T16:50:08.057Z</time></trkpt><trkpt lat="37.8376026" lon="15.1447763"><ele>533.0</ele><time>2026-04-24T16:50:09.058Z</time></trkpt><trkpt lat="37.8376833" lon="15.1447822"><ele>533.3333333333333</ele><time>2026-04-24T16:50:10.058Z</time></trkpt><trkpt lat="37.8377591" lon="15.1447894"><ele>533.6666666666666</ele><time>2026-04-24T16:50:11.057Z</time></trkpt><trkpt lat="37.8378304" lon="15.1447929"><ele>534.0</ele><time>2026-04-24T16:50:12.058Z</time></trkpt><trkpt lat="37.8378936" lon="15.144792"><ele>534.3333333333334</ele><time>2026-04-24T16:50:13.057Z</time></trkpt><trkpt lat="37.8380127" lon="15.1447957"><ele>534.6666666666667</ele><time>2026-04-24T16:50:15.057Z</time></trkpt><trkpt lat="37.8381294" lon="15.1448003"><ele>535.0</ele><time>2026-04-24T16:50:17.058Z</time></trkpt><trkpt lat="37.8382426" lon="15.1448141"><ele>535.0</ele><time>2026-04-24T16:50:19.057Z</time></trkpt><trkpt lat="37.8383521" lon="15.1448162"><ele>535.0</ele><time>2026-04-24T16:50:21.058Z</time></trkpt><trkpt lat="37.8384223" lon="15.1448143"><ele>535.0</ele><time>2026-04-24T16:50:23.057Z</time></trkpt><trkpt lat="37.8385031" lon="15.1448051"><ele>535.0</ele><time>2026-04-24T16:50:33.057Z</time></trkpt><trkpt lat="37.8385968" lon="15.1448076"><ele>535.0</ele><time>2026-04-24T16:50:35.057Z</time></trkpt><trkpt lat="37.8387142" lon="15.1448008"><ele>535.0</ele><time>2026-04-24T16:50:37.057Z</time></trkpt><trkpt lat="37.8387826" lon="15.1447903"><ele>535.0</ele><time>2026-04-24T16:50:38.058Z</time></trkpt><trkpt lat="37.8388483" lon="15.1447764"><ele>535.0</ele><time>2026-04-24T16:50:39.057Z</time></trkpt><trkpt lat="37.8389654" lon="15.1447589"><ele>535.0</ele><time>2026-04-24T16:50:41.057Z</time></trkpt><trkpt lat="37.8390745" lon="15.1447388"><ele>535.0</ele><time>2026-04-24T16:50:43.057Z</time></trkpt><trkpt lat="37.8391953" lon="15.144722"><ele>535.0</ele><time>2026-04-24T16:50:45.057Z</time></trkpt><trkpt lat="37.8392602" lon="15.1447142"><ele>535.0</ele><time>2026-04-24T16:50:46.057Z</time></trkpt><trkpt lat="37.8393268" lon="15.1447024"><ele>535.0</ele><time>2026-04-24T16:50:47.058Z</time></trkpt><trkpt lat="37.8393941" lon="15.1446898"><ele>535.0</ele><time>2026-04-24T16:50:48.058Z</time></trkpt><trkpt lat="37.8394705" lon="15.1446795"><ele>535.0</ele><time>2026-04-24T16:50:49.057Z</time></trkpt><trkpt lat="37.8395433" lon="15.1446645"><ele>535.0</ele><time>2026-04-24T16:50:50.058Z</time></trkpt><trkpt lat="37.8396221" lon="15.1446556"><ele>535.0</ele><time>2026-04-24T16:50:51.057Z</time></trkpt><trkpt lat="37.8397007" lon="15.1446458"><ele>535.3333333333334</ele><time>2026-04-24T16:50:52.057Z</time></trkpt><trkpt lat="37.8397792" lon="15.144637"><ele>535.6666666666667</ele><time>2026-04-24T16:50:53.058Z</time></trkpt><trkpt lat="37.8398566" lon="15.1446244"><ele>536.0</ele><time>2026-04-24T16:50:54.058Z</time></trkpt><trkpt lat="37.8399307" lon="15.1446137"><ele>536.3333333333334</ele><time>2026-04-24T16:50:55.057Z</time></trkpt><trkpt lat="37.8400022" lon="15.1446023"><ele>536.6666666666666</ele><time>2026-04-24T16:50:56.057Z</time></trkpt><trkpt lat="37.840066" lon="15.1445926"><ele>537.0</ele><time>2026-04-24T16:50:57.057Z</time></trkpt><trkpt lat="37.8401745" lon="15.144587"><ele>537.2</ele><time>2026-04-24T16:50:59.057Z</time></trkpt><trkpt lat="37.8402308" lon="15.1446441"><ele>537.4000000000001</ele><time>2026-04-24T16:51:01.057Z</time></trkpt><trkpt lat="37.8402018" lon="15.144762"><ele>537.5999999999999</ele><time>2026-04-24T16:51:04.058Z</time></trkpt><trkpt lat="37.8401432" lon="15.1448457"><ele>537.8</ele><time>2026-04-24T16:51:06.058Z</time></trkpt><trkpt lat="37.8400763" lon="15.1449365"><ele>538.0</ele><time>2026-04-24T16:51:08.057Z</time></trkpt><trkpt lat="37.8400138" lon="15.145043"><ele>536.75</ele><time>2026-04-24T16:51:10.057Z</time></trkpt><trkpt lat="37.8399495" lon="15.1451559"><ele>535.5</ele><time>2026-04-24T16:51:12.057Z</time></trkpt><trkpt lat="37.8398814" lon="15.1452729"><ele>534.25</ele><time>2026-04-24T16:51:14.057Z</time></trkpt><trkpt lat="37.8398104" lon="15.1453889"><ele>533.0</ele><time>2026-04-24T16:51:16.057Z</time></trkpt><trkpt lat="37.8397414" lon="15.1455011"><ele>533.0</ele><time>2026-04-24T16:51:18.057Z</time></trkpt><trkpt lat="37.8396749" lon="15.1456053"><ele>533.0</ele><time>2026-04-24T16:51:20.057Z</time></trkpt><trkpt lat="37.8396188" lon="15.1457053"><ele>533.0</ele><time>2026-04-24T16:51:22.058Z</time></trkpt><trkpt lat="37.8395604" lon="15.1457912"><ele>534.0</ele><time>2026-04-24T16:51:24.057Z</time></trkpt><trkpt lat="37.8395102" lon="15.1458415"><ele>534.0</ele><time>2026-04-24T16:51:26.057Z</time></trkpt><trkpt lat="37.8395088" lon="15.1457611"><ele>534.0</ele><time>2026-04-24T16:52:45.057Z</time></trkpt></trkseg></trk></gpx>